<?xml version="1.0" encoding="UTF-8" standalone="no" ?>
<gpx xmlns="http://www.topografix.com/GPX/1/1" xmlns:xsi="http://www.w3.org/2001/XMLSchema-instance" xsi:schemaLocation="http://www.topografix.com/GPX/1/1 http://www.topografix.com/GPX/1/1/gpx.xsd" version="1.1" creator="VisuGPX - https://www.visugpx.com">
  <metadata>
    <name>Circuit Puligny Cote d\'Or 2010 </name>
    <desc><![CDATA[Rando VTT tres sympha]]></desc>
  </metadata>
  <trk>
    <name><![CDATA[21 G Puligny 2010]]></name>
    <trkseg>
      <trkpt lat="46.94495" lon="4.75687">
        <ele>278.92</ele>
        <time>2010-10-10T06:36:35Z</time>
      </trkpt>
      <trkpt lat="46.94494" lon="4.75682">
        <ele>274.59</ele>
        <time>2010-10-10T06:36:38Z</time>
      </trkpt>
      <trkpt lat="46.94495" lon="4.75684">
        <ele>270.75</ele>
        <time>2010-10-10T06:36:41Z</time>
      </trkpt>
      <trkpt lat="46.94497" lon="4.75686">
        <ele>267.38</ele>
        <time>2010-10-10T06:36:43Z</time>
      </trkpt>
      <trkpt lat="46.94497" lon="4.75687">
        <ele>264.02</ele>
        <time>2010-10-10T06:36:46Z</time>
      </trkpt>
      <trkpt lat="46.94497" lon="4.75689">
        <ele>260.17</ele>
        <time>2010-10-10T06:36:49Z</time>
      </trkpt>
      <trkpt lat="46.94498" lon="4.75682">
        <ele>255.85</ele>
        <time>2010-10-10T06:36:53Z</time>
      </trkpt>
      <trkpt lat="46.94499" lon="4.75679">
        <ele>254.41</ele>
        <time>2010-10-10T06:36:54Z</time>
      </trkpt>
      <trkpt lat="46.94503" lon="4.75663">
        <ele>250.08</ele>
        <time>2010-10-10T06:36:59Z</time>
      </trkpt>
      <trkpt lat="46.94504" lon="4.7566">
        <ele>243.83</ele>
        <time>2010-10-10T06:37:00Z</time>
      </trkpt>
      <trkpt lat="46.94505" lon="4.75658">
        <ele>247.68</ele>
        <time>2010-10-10T06:37:01Z</time>
      </trkpt>
      <trkpt lat="46.94508" lon="4.75648">
        <ele>244.31</ele>
        <time>2010-10-10T06:37:05Z</time>
      </trkpt>
      <trkpt lat="46.94511" lon="4.75639">
        <ele>242.39</ele>
        <time>2010-10-10T06:37:09Z</time>
      </trkpt>
      <trkpt lat="46.94516" lon="4.75621">
        <ele>238.54</ele>
        <time>2010-10-10T06:37:15Z</time>
      </trkpt>
      <trkpt lat="46.94518" lon="4.7561">
        <ele>237.1</ele>
        <time>2010-10-10T06:37:18Z</time>
      </trkpt>
      <trkpt lat="46.9452" lon="4.756">
        <ele>235.66</ele>
        <time>2010-10-10T06:37:21Z</time>
      </trkpt>
      <trkpt lat="46.94524" lon="4.75565">
        <ele>232.3</ele>
        <time>2010-10-10T06:37:29Z</time>
      </trkpt>
      <trkpt lat="46.94524" lon="4.75556">
        <ele>231.33</ele>
        <time>2010-10-10T06:37:31Z</time>
      </trkpt>
      <trkpt lat="46.94523" lon="4.75493">
        <ele>228.45</ele>
        <time>2010-10-10T06:37:44Z</time>
      </trkpt>
      <trkpt lat="46.94535" lon="4.75434">
        <ele>226.53</ele>
        <time>2010-10-10T06:37:57Z</time>
      </trkpt>
      <trkpt lat="46.94535" lon="4.75421">
        <ele>226.53</ele>
        <time>2010-10-10T06:38:00Z</time>
      </trkpt>
      <trkpt lat="46.9452" lon="4.75352">
        <ele>225.09</ele>
        <time>2010-10-10T06:38:14Z</time>
      </trkpt>
      <trkpt lat="46.94531" lon="4.7529">
        <ele>225.57</ele>
        <time>2010-10-10T06:38:27Z</time>
      </trkpt>
      <trkpt lat="46.94549" lon="4.75234">
        <ele>225.57</ele>
        <time>2010-10-10T06:38:41Z</time>
      </trkpt>
      <trkpt lat="46.94556" lon="4.75183">
        <ele>226.53</ele>
        <time>2010-10-10T06:38:51Z</time>
      </trkpt>
      <trkpt lat="46.94561" lon="4.75096">
        <ele>227.01</ele>
        <time>2010-10-10T06:39:07Z</time>
      </trkpt>
      <trkpt lat="46.94572" lon="4.75034">
        <ele>227.97</ele>
        <time>2010-10-10T06:39:18Z</time>
      </trkpt>
      <trkpt lat="46.94577" lon="4.75">
        <ele>228.45</ele>
        <time>2010-10-10T06:39:24Z</time>
      </trkpt>
      <trkpt lat="46.94578" lon="4.74994">
        <ele>228.93</ele>
        <time>2010-10-10T06:39:25Z</time>
      </trkpt>
      <trkpt lat="46.94578" lon="4.74988">
        <ele>228.45</ele>
        <time>2010-10-10T06:39:26Z</time>
      </trkpt>
      <trkpt lat="46.94589" lon="4.74907">
        <ele>229.89</ele>
        <time>2010-10-10T06:39:40Z</time>
      </trkpt>
      <trkpt lat="46.946" lon="4.74801">
        <ele>231.81</ele>
        <time>2010-10-10T06:39:58Z</time>
      </trkpt>
      <trkpt lat="46.94614" lon="4.74698">
        <ele>234.7</ele>
        <time>2010-10-10T06:40:17Z</time>
      </trkpt>
      <trkpt lat="46.94625" lon="4.74591">
        <ele>236.62</ele>
        <time>2010-10-10T06:40:36Z</time>
      </trkpt>
      <trkpt lat="46.94635" lon="4.7452">
        <ele>237.58</ele>
        <time>2010-10-10T06:40:48Z</time>
      </trkpt>
      <trkpt lat="46.94636" lon="4.74508">
        <ele>238.06</ele>
        <time>2010-10-10T06:40:50Z</time>
      </trkpt>
      <trkpt lat="46.94647" lon="4.74397">
        <ele>239.99</ele>
        <time>2010-10-10T06:41:09Z</time>
      </trkpt>
      <trkpt lat="46.94645" lon="4.7438">
        <ele>239.99</ele>
        <time>2010-10-10T06:41:12Z</time>
      </trkpt>
      <trkpt lat="46.94642" lon="4.74376">
        <ele>239.99</ele>
        <time>2010-10-10T06:41:13Z</time>
      </trkpt>
      <trkpt lat="46.94638" lon="4.74372">
        <ele>240.47</ele>
        <time>2010-10-10T06:41:14Z</time>
      </trkpt>
      <trkpt lat="46.94561" lon="4.74336">
        <ele>238.06</ele>
        <time>2010-10-10T06:41:28Z</time>
      </trkpt>
      <trkpt lat="46.94469" lon="4.74274">
        <ele>239.51</ele>
        <time>2010-10-10T06:41:45Z</time>
      </trkpt>
      <trkpt lat="46.94408" lon="4.7421">
        <ele>240.95</ele>
        <time>2010-10-10T06:42:00Z</time>
      </trkpt>
      <trkpt lat="46.94337" lon="4.74135">
        <ele>242.87</ele>
        <time>2010-10-10T06:42:17Z</time>
      </trkpt>
      <trkpt lat="46.94306" lon="4.74081">
        <ele>243.83</ele>
        <time>2010-10-10T06:42:26Z</time>
      </trkpt>
      <trkpt lat="46.94275" lon="4.74049">
        <ele>243.83</ele>
        <time>2010-10-10T06:42:33Z</time>
      </trkpt>
      <trkpt lat="46.94195" lon="4.73984">
        <ele>242.39</ele>
        <time>2010-10-10T06:42:48Z</time>
      </trkpt>
      <trkpt lat="46.9419" lon="4.73984">
        <ele>240.95</ele>
        <time>2010-10-10T06:42:49Z</time>
      </trkpt>
      <trkpt lat="46.94186" lon="4.73987">
        <ele>240.95</ele>
        <time>2010-10-10T06:42:50Z</time>
      </trkpt>
      <trkpt lat="46.94183" lon="4.73994">
        <ele>241.43</ele>
        <time>2010-10-10T06:42:51Z</time>
      </trkpt>
      <trkpt lat="46.9418" lon="4.74">
        <ele>241.43</ele>
        <time>2010-10-10T06:42:52Z</time>
      </trkpt>
      <trkpt lat="46.94175" lon="4.74005">
        <ele>240.95</ele>
        <time>2010-10-10T06:42:53Z</time>
      </trkpt>
      <trkpt lat="46.9417" lon="4.74005">
        <ele>240.47</ele>
        <time>2010-10-10T06:42:54Z</time>
      </trkpt>
      <trkpt lat="46.94165" lon="4.74003">
        <ele>240.47</ele>
        <time>2010-10-10T06:42:55Z</time>
      </trkpt>
      <trkpt lat="46.9416" lon="4.73998">
        <ele>240.95</ele>
        <time>2010-10-10T06:42:56Z</time>
      </trkpt>
      <trkpt lat="46.94156" lon="4.73993">
        <ele>240.47</ele>
        <time>2010-10-10T06:42:57Z</time>
      </trkpt>
      <trkpt lat="46.94119" lon="4.73949">
        <ele>237.58</ele>
        <time>2010-10-10T06:43:05Z</time>
      </trkpt>
      <trkpt lat="46.94117" lon="4.73943">
        <ele>237.58</ele>
        <time>2010-10-10T06:43:06Z</time>
      </trkpt>
      <trkpt lat="46.94118" lon="4.73938">
        <ele>237.1</ele>
        <time>2010-10-10T06:43:07Z</time>
      </trkpt>
      <trkpt lat="46.94121" lon="4.73934">
        <ele>237.1</ele>
        <time>2010-10-10T06:43:08Z</time>
      </trkpt>
      <trkpt lat="46.94123" lon="4.73929">
        <ele>237.58</ele>
        <time>2010-10-10T06:43:09Z</time>
      </trkpt>
      <trkpt lat="46.94125" lon="4.73924">
        <ele>237.58</ele>
        <time>2010-10-10T06:43:10Z</time>
      </trkpt>
      <trkpt lat="46.94142" lon="4.73846">
        <ele>239.51</ele>
        <time>2010-10-10T06:43:23Z</time>
      </trkpt>
      <trkpt lat="46.94155" lon="4.73798">
        <ele>239.99</ele>
        <time>2010-10-10T06:43:31Z</time>
      </trkpt>
      <trkpt lat="46.94156" lon="4.73792">
        <ele>239.99</ele>
        <time>2010-10-10T06:43:32Z</time>
      </trkpt>
      <trkpt lat="46.94186" lon="4.73679">
        <ele>239.51</ele>
        <time>2010-10-10T06:43:49Z</time>
      </trkpt>
      <trkpt lat="46.94187" lon="4.73673">
        <ele>239.51</ele>
        <time>2010-10-10T06:43:50Z</time>
      </trkpt>
      <trkpt lat="46.94189" lon="4.73667">
        <ele>239.51</ele>
        <time>2010-10-10T06:43:51Z</time>
      </trkpt>
      <trkpt lat="46.94208" lon="4.73594">
        <ele>239.02</ele>
        <time>2010-10-10T06:44:02Z</time>
      </trkpt>
      <trkpt lat="46.9421" lon="4.73587">
        <ele>239.02</ele>
        <time>2010-10-10T06:44:03Z</time>
      </trkpt>
      <trkpt lat="46.94223" lon="4.73528">
        <ele>238.06</ele>
        <time>2010-10-10T06:44:12Z</time>
      </trkpt>
      <trkpt lat="46.94226" lon="4.73523">
        <ele>238.06</ele>
        <time>2010-10-10T06:44:13Z</time>
      </trkpt>
      <trkpt lat="46.9423" lon="4.7352">
        <ele>238.06</ele>
        <time>2010-10-10T06:44:14Z</time>
      </trkpt>
      <trkpt lat="46.94249" lon="4.73517">
        <ele>241.43</ele>
        <time>2010-10-10T06:44:22Z</time>
      </trkpt>
      <trkpt lat="46.94273" lon="4.73545">
        <ele>244.79</ele>
        <time>2010-10-10T06:44:35Z</time>
      </trkpt>
      <trkpt lat="46.94295" lon="4.73559">
        <ele>247.68</ele>
        <time>2010-10-10T06:44:47Z</time>
      </trkpt>
      <trkpt lat="46.94314" lon="4.73568">
        <ele>250.08</ele>
        <time>2010-10-10T06:44:58Z</time>
      </trkpt>
      <trkpt lat="46.94341" lon="4.73583">
        <ele>252.96</ele>
        <time>2010-10-10T06:45:13Z</time>
      </trkpt>
      <trkpt lat="46.94361" lon="4.73586">
        <ele>255.37</ele>
        <time>2010-10-10T06:45:25Z</time>
      </trkpt>
      <trkpt lat="46.94383" lon="4.73593">
        <ele>257.29</ele>
        <time>2010-10-10T06:45:39Z</time>
      </trkpt>
      <trkpt lat="46.94403" lon="4.73607">
        <ele>259.69</ele>
        <time>2010-10-10T06:45:53Z</time>
      </trkpt>
      <trkpt lat="46.94424" lon="4.73614">
        <ele>262.58</ele>
        <time>2010-10-10T06:46:07Z</time>
      </trkpt>
      <trkpt lat="46.94447" lon="4.73618">
        <ele>264.98</ele>
        <time>2010-10-10T06:46:22Z</time>
      </trkpt>
      <trkpt lat="46.94456" lon="4.73618">
        <ele>266.42</ele>
        <time>2010-10-10T06:46:28Z</time>
      </trkpt>
      <trkpt lat="46.94457" lon="4.73619">
        <ele>266.42</ele>
        <time>2010-10-10T06:46:29Z</time>
      </trkpt>
      <trkpt lat="46.94459" lon="4.73619">
        <ele>266.42</ele>
        <time>2010-10-10T06:46:30Z</time>
      </trkpt>
      <trkpt lat="46.9446" lon="4.73619">
        <ele>266.9</ele>
        <time>2010-10-10T06:46:31Z</time>
      </trkpt>
      <trkpt lat="46.94462" lon="4.7362">
        <ele>266.9</ele>
        <time>2010-10-10T06:46:32Z</time>
      </trkpt>
      <trkpt lat="46.94464" lon="4.73621">
        <ele>266.9</ele>
        <time>2010-10-10T06:46:33Z</time>
      </trkpt>
      <trkpt lat="46.94486" lon="4.73633">
        <ele>269.31</ele>
        <time>2010-10-10T06:46:48Z</time>
      </trkpt>
      <trkpt lat="46.94487" lon="4.73632">
        <ele>268.83</ele>
        <time>2010-10-10T06:46:49Z</time>
      </trkpt>
      <trkpt lat="46.94489" lon="4.73628">
        <ele>269.79</ele>
        <time>2010-10-10T06:46:51Z</time>
      </trkpt>
      <trkpt lat="46.94489" lon="4.73625">
        <ele>269.31</ele>
        <time>2010-10-10T06:46:52Z</time>
      </trkpt>
      <trkpt lat="46.94489" lon="4.73622">
        <ele>270.27</ele>
        <time>2010-10-10T06:46:53Z</time>
      </trkpt>
      <trkpt lat="46.94488" lon="4.7362">
        <ele>270.75</ele>
        <time>2010-10-10T06:46:54Z</time>
      </trkpt>
      <trkpt lat="46.94487" lon="4.73617">
        <ele>270.75</ele>
        <time>2010-10-10T06:46:55Z</time>
      </trkpt>
      <trkpt lat="46.94486" lon="4.73614">
        <ele>271.23</ele>
        <time>2010-10-10T06:46:56Z</time>
      </trkpt>
      <trkpt lat="46.94486" lon="4.73612">
        <ele>270.75</ele>
        <time>2010-10-10T06:46:57Z</time>
      </trkpt>
      <trkpt lat="46.94485" lon="4.73609">
        <ele>271.23</ele>
        <time>2010-10-10T06:46:58Z</time>
      </trkpt>
      <trkpt lat="46.94485" lon="4.73606">
        <ele>271.23</ele>
        <time>2010-10-10T06:46:59Z</time>
      </trkpt>
      <trkpt lat="46.94485" lon="4.73604">
        <ele>271.23</ele>
        <time>2010-10-10T06:47:00Z</time>
      </trkpt>
      <trkpt lat="46.94484" lon="4.73601">
        <ele>271.71</ele>
        <time>2010-10-10T06:47:01Z</time>
      </trkpt>
      <trkpt lat="46.94484" lon="4.73598">
        <ele>271.71</ele>
        <time>2010-10-10T06:47:02Z</time>
      </trkpt>
      <trkpt lat="46.94484" lon="4.73595">
        <ele>271.71</ele>
        <time>2010-10-10T06:47:03Z</time>
      </trkpt>
      <trkpt lat="46.94481" lon="4.73553">
        <ele>273.63</ele>
        <time>2010-10-10T06:47:17Z</time>
      </trkpt>
      <trkpt lat="46.9448" lon="4.73503">
        <ele>276.52</ele>
        <time>2010-10-10T06:47:33Z</time>
      </trkpt>
      <trkpt lat="46.94481" lon="4.73448">
        <ele>277</ele>
        <time>2010-10-10T06:47:47Z</time>
      </trkpt>
      <trkpt lat="46.94481" lon="4.73417">
        <ele>277</ele>
        <time>2010-10-10T06:47:53Z</time>
      </trkpt>
      <trkpt lat="46.94483" lon="4.73411">
        <ele>277.48</ele>
        <time>2010-10-10T06:47:54Z</time>
      </trkpt>
      <trkpt lat="46.94485" lon="4.73406">
        <ele>277.48</ele>
        <time>2010-10-10T06:47:55Z</time>
      </trkpt>
      <trkpt lat="46.94487" lon="4.73401">
        <ele>277</ele>
        <time>2010-10-10T06:47:56Z</time>
      </trkpt>
      <trkpt lat="46.94488" lon="4.73396">
        <ele>277.48</ele>
        <time>2010-10-10T06:47:57Z</time>
      </trkpt>
      <trkpt lat="46.94489" lon="4.7339">
        <ele>277.48</ele>
        <time>2010-10-10T06:47:58Z</time>
      </trkpt>
      <trkpt lat="46.9449" lon="4.73383">
        <ele>277</ele>
        <time>2010-10-10T06:47:59Z</time>
      </trkpt>
      <trkpt lat="46.94502" lon="4.73327">
        <ele>277.48</ele>
        <time>2010-10-10T06:48:08Z</time>
      </trkpt>
      <trkpt lat="46.94504" lon="4.73322">
        <ele>277.96</ele>
        <time>2010-10-10T06:48:09Z</time>
      </trkpt>
      <trkpt lat="46.94511" lon="4.73314">
        <ele>277.48</ele>
        <time>2010-10-10T06:48:12Z</time>
      </trkpt>
      <trkpt lat="46.94513" lon="4.73314">
        <ele>277.48</ele>
        <time>2010-10-10T06:48:13Z</time>
      </trkpt>
      <trkpt lat="46.94515" lon="4.73316">
        <ele>277.48</ele>
        <time>2010-10-10T06:48:14Z</time>
      </trkpt>
      <trkpt lat="46.94538" lon="4.7333">
        <ele>280.36</ele>
        <time>2010-10-10T06:48:27Z</time>
      </trkpt>
      <trkpt lat="46.94553" lon="4.73344">
        <ele>283.25</ele>
        <time>2010-10-10T06:48:38Z</time>
      </trkpt>
      <trkpt lat="46.9457" lon="4.73352">
        <ele>286.13</ele>
        <time>2010-10-10T06:48:50Z</time>
      </trkpt>
      <trkpt lat="46.94585" lon="4.73338">
        <ele>289.49</ele>
        <time>2010-10-10T06:49:02Z</time>
      </trkpt>
      <trkpt lat="46.94603" lon="4.7332">
        <ele>292.38</ele>
        <time>2010-10-10T06:49:17Z</time>
      </trkpt>
      <trkpt lat="46.94629" lon="4.73297">
        <ele>294.3</ele>
        <time>2010-10-10T06:49:33Z</time>
      </trkpt>
      <trkpt lat="46.94659" lon="4.73286">
        <ele>296.7</ele>
        <time>2010-10-10T06:49:49Z</time>
      </trkpt>
      <trkpt lat="46.94692" lon="4.73272">
        <ele>299.11</ele>
        <time>2010-10-10T06:50:07Z</time>
      </trkpt>
      <trkpt lat="46.94717" lon="4.73263">
        <ele>300.55</ele>
        <time>2010-10-10T06:50:20Z</time>
      </trkpt>
      <trkpt lat="46.94762" lon="4.73245">
        <ele>302.47</ele>
        <time>2010-10-10T06:50:38Z</time>
      </trkpt>
      <trkpt lat="46.94804" lon="4.73228">
        <ele>304.88</ele>
        <time>2010-10-10T06:50:55Z</time>
      </trkpt>
      <trkpt lat="46.9484" lon="4.73211">
        <ele>306.8</ele>
        <time>2010-10-10T06:51:10Z</time>
      </trkpt>
      <trkpt lat="46.9486" lon="4.73212">
        <ele>309.68</ele>
        <time>2010-10-10T06:51:22Z</time>
      </trkpt>
      <trkpt lat="46.94885" lon="4.73221">
        <ele>312.57</ele>
        <time>2010-10-10T06:51:38Z</time>
      </trkpt>
      <trkpt lat="46.94886" lon="4.73223">
        <ele>312.57</ele>
        <time>2010-10-10T06:51:39Z</time>
      </trkpt>
      <trkpt lat="46.94904" lon="4.73254">
        <ele>314.49</ele>
        <time>2010-10-10T06:51:55Z</time>
      </trkpt>
      <trkpt lat="46.94926" lon="4.73286">
        <ele>316.89</ele>
        <time>2010-10-10T06:52:12Z</time>
      </trkpt>
      <trkpt lat="46.9495" lon="4.73296">
        <ele>319.3</ele>
        <time>2010-10-10T06:52:27Z</time>
      </trkpt>
      <trkpt lat="46.94967" lon="4.73275">
        <ele>321.22</ele>
        <time>2010-10-10T06:52:41Z</time>
      </trkpt>
      <trkpt lat="46.94983" lon="4.7321">
        <ele>321.22</ele>
        <time>2010-10-10T06:52:55Z</time>
      </trkpt>
      <trkpt lat="46.94988" lon="4.73193">
        <ele>320.74</ele>
        <time>2010-10-10T06:52:58Z</time>
      </trkpt>
      <trkpt lat="46.9499" lon="4.73187">
        <ele>320.74</ele>
        <time>2010-10-10T06:52:59Z</time>
      </trkpt>
      <trkpt lat="46.95005" lon="4.73148">
        <ele>321.7</ele>
        <time>2010-10-10T06:53:07Z</time>
      </trkpt>
      <trkpt lat="46.95006" lon="4.73142">
        <ele>321.22</ele>
        <time>2010-10-10T06:53:08Z</time>
      </trkpt>
      <trkpt lat="46.95008" lon="4.73113">
        <ele>320.26</ele>
        <time>2010-10-10T06:53:12Z</time>
      </trkpt>
      <trkpt lat="46.95012" lon="4.73087">
        <ele>318.81</ele>
        <time>2010-10-10T06:53:15Z</time>
      </trkpt>
      <trkpt lat="46.95018" lon="4.73068">
        <ele>317.85</ele>
        <time>2010-10-10T06:53:17Z</time>
      </trkpt>
      <trkpt lat="46.95034" lon="4.73023">
        <ele>314.49</ele>
        <time>2010-10-10T06:53:21Z</time>
      </trkpt>
      <trkpt lat="46.95039" lon="4.73011">
        <ele>312.57</ele>
        <time>2010-10-10T06:53:22Z</time>
      </trkpt>
      <trkpt lat="46.95046" lon="4.73">
        <ele>311.6</ele>
        <time>2010-10-10T06:53:23Z</time>
      </trkpt>
      <trkpt lat="46.95053" lon="4.72991">
        <ele>310.64</ele>
        <time>2010-10-10T06:53:24Z</time>
      </trkpt>
      <trkpt lat="46.95059" lon="4.72982">
        <ele>309.68</ele>
        <time>2010-10-10T06:53:25Z</time>
      </trkpt>
      <trkpt lat="46.95063" lon="4.72972">
        <ele>310.16</ele>
        <time>2010-10-10T06:53:26Z</time>
      </trkpt>
      <trkpt lat="46.95066" lon="4.72962">
        <ele>310.16</ele>
        <time>2010-10-10T06:53:27Z</time>
      </trkpt>
      <trkpt lat="46.95068" lon="4.72952">
        <ele>310.16</ele>
        <time>2010-10-10T06:53:28Z</time>
      </trkpt>
      <trkpt lat="46.9507" lon="4.72942">
        <ele>310.16</ele>
        <time>2010-10-10T06:53:29Z</time>
      </trkpt>
      <trkpt lat="46.95072" lon="4.72933">
        <ele>310.16</ele>
        <time>2010-10-10T06:53:30Z</time>
      </trkpt>
      <trkpt lat="46.95075" lon="4.72926">
        <ele>310.16</ele>
        <time>2010-10-10T06:53:31Z</time>
      </trkpt>
      <trkpt lat="46.95079" lon="4.7292">
        <ele>311.12</ele>
        <time>2010-10-10T06:53:32Z</time>
      </trkpt>
      <trkpt lat="46.95083" lon="4.72917">
        <ele>311.6</ele>
        <time>2010-10-10T06:53:33Z</time>
      </trkpt>
      <trkpt lat="46.95086" lon="4.72915">
        <ele>311.6</ele>
        <time>2010-10-10T06:53:34Z</time>
      </trkpt>
      <trkpt lat="46.95089" lon="4.72915">
        <ele>312.57</ele>
        <time>2010-10-10T06:53:35Z</time>
      </trkpt>
      <trkpt lat="46.95091" lon="4.72914">
        <ele>312.57</ele>
        <time>2010-10-10T06:53:36Z</time>
      </trkpt>
      <trkpt lat="46.95093" lon="4.72915">
        <ele>313.05</ele>
        <time>2010-10-10T06:53:37Z</time>
      </trkpt>
      <trkpt lat="46.95095" lon="4.72916">
        <ele>313.53</ele>
        <time>2010-10-10T06:53:38Z</time>
      </trkpt>
      <trkpt lat="46.95097" lon="4.72916">
        <ele>314.01</ele>
        <time>2010-10-10T06:53:39Z</time>
      </trkpt>
      <trkpt lat="46.95099" lon="4.72916">
        <ele>314.01</ele>
        <time>2010-10-10T06:53:40Z</time>
      </trkpt>
      <trkpt lat="46.95101" lon="4.72915">
        <ele>314.01</ele>
        <time>2010-10-10T06:53:41Z</time>
      </trkpt>
      <trkpt lat="46.95103" lon="4.72915">
        <ele>314.01</ele>
        <time>2010-10-10T06:53:42Z</time>
      </trkpt>
      <trkpt lat="46.95105" lon="4.72915">
        <ele>314.49</ele>
        <time>2010-10-10T06:53:43Z</time>
      </trkpt>
      <trkpt lat="46.9513" lon="4.72907">
        <ele>317.37</ele>
        <time>2010-10-10T06:53:56Z</time>
      </trkpt>
      <trkpt lat="46.95154" lon="4.72895">
        <ele>320.26</ele>
        <time>2010-10-10T06:54:10Z</time>
      </trkpt>
      <trkpt lat="46.95178" lon="4.72889">
        <ele>323.14</ele>
        <time>2010-10-10T06:54:25Z</time>
      </trkpt>
      <trkpt lat="46.95209" lon="4.72871">
        <ele>325.06</ele>
        <time>2010-10-10T06:54:43Z</time>
      </trkpt>
      <trkpt lat="46.95249" lon="4.72825">
        <ele>325.54</ele>
        <time>2010-10-10T06:54:58Z</time>
      </trkpt>
      <trkpt lat="46.95284" lon="4.72777">
        <ele>322.18</ele>
        <time>2010-10-10T06:55:07Z</time>
      </trkpt>
      <trkpt lat="46.9529" lon="4.7277">
        <ele>320.74</ele>
        <time>2010-10-10T06:55:08Z</time>
      </trkpt>
      <trkpt lat="46.95313" lon="4.72737">
        <ele>317.37</ele>
        <time>2010-10-10T06:55:13Z</time>
      </trkpt>
      <trkpt lat="46.95317" lon="4.7273">
        <ele>317.37</ele>
        <time>2010-10-10T06:55:14Z</time>
      </trkpt>
      <trkpt lat="46.9532" lon="4.72722">
        <ele>316.41</ele>
        <time>2010-10-10T06:55:15Z</time>
      </trkpt>
      <trkpt lat="46.95323" lon="4.72713">
        <ele>315.93</ele>
        <time>2010-10-10T06:55:16Z</time>
      </trkpt>
      <trkpt lat="46.95326" lon="4.72704">
        <ele>314.97</ele>
        <time>2010-10-10T06:55:17Z</time>
      </trkpt>
      <trkpt lat="46.95333" lon="4.72684">
        <ele>313.53</ele>
        <time>2010-10-10T06:55:19Z</time>
      </trkpt>
      <trkpt lat="46.95337" lon="4.72674">
        <ele>313.53</ele>
        <time>2010-10-10T06:55:20Z</time>
      </trkpt>
      <trkpt lat="46.95342" lon="4.72665">
        <ele>313.05</ele>
        <time>2010-10-10T06:55:21Z</time>
      </trkpt>
      <trkpt lat="46.95346" lon="4.72657">
        <ele>313.05</ele>
        <time>2010-10-10T06:55:22Z</time>
      </trkpt>
      <trkpt lat="46.95379" lon="4.72581">
        <ele>311.6</ele>
        <time>2010-10-10T06:55:32Z</time>
      </trkpt>
      <trkpt lat="46.95382" lon="4.72572">
        <ele>311.12</ele>
        <time>2010-10-10T06:55:33Z</time>
      </trkpt>
      <trkpt lat="46.95401" lon="4.72521">
        <ele>307.76</ele>
        <time>2010-10-10T06:55:38Z</time>
      </trkpt>
      <trkpt lat="46.95411" lon="4.72499">
        <ele>306.32</ele>
        <time>2010-10-10T06:55:40Z</time>
      </trkpt>
      <trkpt lat="46.95436" lon="4.72445">
        <ele>303.43</ele>
        <time>2010-10-10T06:55:45Z</time>
      </trkpt>
      <trkpt lat="46.95447" lon="4.72431">
        <ele>302.95</ele>
        <time>2010-10-10T06:55:47Z</time>
      </trkpt>
      <trkpt lat="46.95458" lon="4.72415">
        <ele>303.43</ele>
        <time>2010-10-10T06:55:50Z</time>
      </trkpt>
      <trkpt lat="46.9546" lon="4.72408">
        <ele>302.95</ele>
        <time>2010-10-10T06:55:51Z</time>
      </trkpt>
      <trkpt lat="46.95464" lon="4.72396">
        <ele>301.99</ele>
        <time>2010-10-10T06:55:53Z</time>
      </trkpt>
      <trkpt lat="46.95474" lon="4.72367">
        <ele>298.63</ele>
        <time>2010-10-10T06:55:59Z</time>
      </trkpt>
      <trkpt lat="46.95489" lon="4.72311">
        <ele>295.26</ele>
        <time>2010-10-10T06:56:07Z</time>
      </trkpt>
      <trkpt lat="46.95498" lon="4.72275">
        <ele>293.82</ele>
        <time>2010-10-10T06:56:11Z</time>
      </trkpt>
      <trkpt lat="46.95501" lon="4.72267">
        <ele>292.86</ele>
        <time>2010-10-10T06:56:12Z</time>
      </trkpt>
      <trkpt lat="46.95505" lon="4.72259">
        <ele>292.38</ele>
        <time>2010-10-10T06:56:13Z</time>
      </trkpt>
      <trkpt lat="46.9551" lon="4.72251">
        <ele>291.9</ele>
        <time>2010-10-10T06:56:14Z</time>
      </trkpt>
      <trkpt lat="46.95516" lon="4.72245">
        <ele>291.42</ele>
        <time>2010-10-10T06:56:15Z</time>
      </trkpt>
      <trkpt lat="46.95522" lon="4.7224">
        <ele>290.94</ele>
        <time>2010-10-10T06:56:16Z</time>
      </trkpt>
      <trkpt lat="46.95528" lon="4.72238">
        <ele>290.94</ele>
        <time>2010-10-10T06:56:17Z</time>
      </trkpt>
      <trkpt lat="46.95535" lon="4.72237">
        <ele>290.94</ele>
        <time>2010-10-10T06:56:18Z</time>
      </trkpt>
      <trkpt lat="46.95541" lon="4.72237">
        <ele>290.46</ele>
        <time>2010-10-10T06:56:19Z</time>
      </trkpt>
      <trkpt lat="46.95548" lon="4.72237">
        <ele>290.94</ele>
        <time>2010-10-10T06:56:20Z</time>
      </trkpt>
      <trkpt lat="46.95554" lon="4.72238">
        <ele>290.46</ele>
        <time>2010-10-10T06:56:21Z</time>
      </trkpt>
      <trkpt lat="46.95572" lon="4.72241">
        <ele>289.97</ele>
        <time>2010-10-10T06:56:24Z</time>
      </trkpt>
      <trkpt lat="46.95578" lon="4.72241">
        <ele>289.97</ele>
        <time>2010-10-10T06:56:25Z</time>
      </trkpt>
      <trkpt lat="46.95602" lon="4.72243">
        <ele>287.57</ele>
        <time>2010-10-10T06:56:29Z</time>
      </trkpt>
      <trkpt lat="46.95633" lon="4.72245">
        <ele>284.21</ele>
        <time>2010-10-10T06:56:35Z</time>
      </trkpt>
      <trkpt lat="46.95655" lon="4.72245">
        <ele>282.28</ele>
        <time>2010-10-10T06:56:39Z</time>
      </trkpt>
      <trkpt lat="46.95662" lon="4.72244">
        <ele>281.32</ele>
        <time>2010-10-10T06:56:40Z</time>
      </trkpt>
      <trkpt lat="46.95667" lon="4.72241">
        <ele>280.84</ele>
        <time>2010-10-10T06:56:41Z</time>
      </trkpt>
      <trkpt lat="46.95671" lon="4.72238">
        <ele>280.36</ele>
        <time>2010-10-10T06:56:42Z</time>
      </trkpt>
      <trkpt lat="46.95675" lon="4.72236">
        <ele>280.36</ele>
        <time>2010-10-10T06:56:43Z</time>
      </trkpt>
      <trkpt lat="46.95679" lon="4.72235">
        <ele>280.36</ele>
        <time>2010-10-10T06:56:44Z</time>
      </trkpt>
      <trkpt lat="46.95686" lon="4.7223">
        <ele>279.88</ele>
        <time>2010-10-10T06:56:46Z</time>
      </trkpt>
      <trkpt lat="46.95692" lon="4.72221">
        <ele>279.4</ele>
        <time>2010-10-10T06:56:48Z</time>
      </trkpt>
      <trkpt lat="46.95695" lon="4.72216">
        <ele>279.4</ele>
        <time>2010-10-10T06:56:49Z</time>
      </trkpt>
      <trkpt lat="46.95698" lon="4.72212">
        <ele>279.4</ele>
        <time>2010-10-10T06:56:50Z</time>
      </trkpt>
      <trkpt lat="46.95701" lon="4.72208">
        <ele>279.4</ele>
        <time>2010-10-10T06:56:51Z</time>
      </trkpt>
      <trkpt lat="46.95705" lon="4.72205">
        <ele>279.4</ele>
        <time>2010-10-10T06:56:52Z</time>
      </trkpt>
      <trkpt lat="46.95709" lon="4.72203">
        <ele>279.4</ele>
        <time>2010-10-10T06:56:53Z</time>
      </trkpt>
      <trkpt lat="46.95713" lon="4.72202">
        <ele>279.4</ele>
        <time>2010-10-10T06:56:54Z</time>
      </trkpt>
      <trkpt lat="46.95717" lon="4.72203">
        <ele>279.4</ele>
        <time>2010-10-10T06:56:55Z</time>
      </trkpt>
      <trkpt lat="46.95721" lon="4.72204">
        <ele>279.88</ele>
        <time>2010-10-10T06:56:56Z</time>
      </trkpt>
      <trkpt lat="46.95726" lon="4.72204">
        <ele>279.88</ele>
        <time>2010-10-10T06:56:57Z</time>
      </trkpt>
      <trkpt lat="46.9573" lon="4.72202">
        <ele>279.88</ele>
        <time>2010-10-10T06:56:58Z</time>
      </trkpt>
      <trkpt lat="46.95734" lon="4.72199">
        <ele>279.4</ele>
        <time>2010-10-10T06:56:59Z</time>
      </trkpt>
      <trkpt lat="46.95738" lon="4.72196">
        <ele>279.4</ele>
        <time>2010-10-10T06:57:00Z</time>
      </trkpt>
      <trkpt lat="46.95741" lon="4.72192">
        <ele>279.88</ele>
        <time>2010-10-10T06:57:01Z</time>
      </trkpt>
      <trkpt lat="46.95744" lon="4.72189">
        <ele>280.36</ele>
        <time>2010-10-10T06:57:02Z</time>
      </trkpt>
      <trkpt lat="46.95776" lon="4.72152">
        <ele>283.25</ele>
        <time>2010-10-10T06:57:15Z</time>
      </trkpt>
      <trkpt lat="46.95803" lon="4.72136">
        <ele>286.13</ele>
        <time>2010-10-10T06:57:27Z</time>
      </trkpt>
      <trkpt lat="46.9583" lon="4.72122">
        <ele>289.49</ele>
        <time>2010-10-10T06:57:41Z</time>
      </trkpt>
      <trkpt lat="46.95846" lon="4.72115">
        <ele>291.42</ele>
        <time>2010-10-10T06:57:50Z</time>
      </trkpt>
      <trkpt lat="46.9587" lon="4.72102">
        <ele>294.3</ele>
        <time>2010-10-10T06:58:04Z</time>
      </trkpt>
      <trkpt lat="46.95896" lon="4.72088">
        <ele>297.67</ele>
        <time>2010-10-10T06:58:18Z</time>
      </trkpt>
      <trkpt lat="46.9592" lon="4.72074">
        <ele>300.55</ele>
        <time>2010-10-10T06:58:32Z</time>
      </trkpt>
      <trkpt lat="46.95945" lon="4.72059">
        <ele>303.43</ele>
        <time>2010-10-10T06:58:47Z</time>
      </trkpt>
      <trkpt lat="46.95966" lon="4.72047">
        <ele>305.36</ele>
        <time>2010-10-10T06:58:59Z</time>
      </trkpt>
      <trkpt lat="46.95989" lon="4.72032">
        <ele>308.72</ele>
        <time>2010-10-10T06:59:13Z</time>
      </trkpt>
      <trkpt lat="46.96009" lon="4.72012">
        <ele>311.6</ele>
        <time>2010-10-10T06:59:27Z</time>
      </trkpt>
      <trkpt lat="46.96026" lon="4.71991">
        <ele>314.97</ele>
        <time>2010-10-10T06:59:41Z</time>
      </trkpt>
      <trkpt lat="46.96044" lon="4.71972">
        <ele>317.85</ele>
        <time>2010-10-10T06:59:56Z</time>
      </trkpt>
      <trkpt lat="46.96063" lon="4.71962">
        <ele>320.74</ele>
        <time>2010-10-10T07:00:09Z</time>
      </trkpt>
      <trkpt lat="46.96083" lon="4.71954">
        <ele>323.62</ele>
        <time>2010-10-10T07:00:23Z</time>
      </trkpt>
      <trkpt lat="46.96105" lon="4.71948">
        <ele>326.99</ele>
        <time>2010-10-10T07:00:38Z</time>
      </trkpt>
      <trkpt lat="46.96124" lon="4.71939">
        <ele>329.39</ele>
        <time>2010-10-10T07:00:52Z</time>
      </trkpt>
      <trkpt lat="46.96136" lon="4.71932">
        <ele>331.79</ele>
        <time>2010-10-10T07:01:01Z</time>
      </trkpt>
      <trkpt lat="46.96159" lon="4.71927">
        <ele>335.16</ele>
        <time>2010-10-10T07:01:17Z</time>
      </trkpt>
      <trkpt lat="46.96173" lon="4.71921">
        <ele>337.08</ele>
        <time>2010-10-10T07:01:26Z</time>
      </trkpt>
      <trkpt lat="46.96174" lon="4.7192">
        <ele>337.08</ele>
        <time>2010-10-10T07:01:27Z</time>
      </trkpt>
      <trkpt lat="46.96176" lon="4.71919">
        <ele>337.08</ele>
        <time>2010-10-10T07:01:28Z</time>
      </trkpt>
      <trkpt lat="46.96177" lon="4.71918">
        <ele>337.08</ele>
        <time>2010-10-10T07:01:29Z</time>
      </trkpt>
      <trkpt lat="46.96178" lon="4.71917">
        <ele>337.56</ele>
        <time>2010-10-10T07:01:30Z</time>
      </trkpt>
      <trkpt lat="46.9618" lon="4.71916">
        <ele>337.56</ele>
        <time>2010-10-10T07:01:31Z</time>
      </trkpt>
      <trkpt lat="46.96181" lon="4.71915">
        <ele>337.56</ele>
        <time>2010-10-10T07:01:32Z</time>
      </trkpt>
      <trkpt lat="46.96183" lon="4.71914">
        <ele>337.08</ele>
        <time>2010-10-10T07:01:33Z</time>
      </trkpt>
      <trkpt lat="46.96206" lon="4.71891">
        <ele>339.48</ele>
        <time>2010-10-10T07:01:50Z</time>
      </trkpt>
      <trkpt lat="46.96213" lon="4.71885">
        <ele>340.44</ele>
        <time>2010-10-10T07:01:55Z</time>
      </trkpt>
      <trkpt lat="46.96215" lon="4.71886">
        <ele>340.44</ele>
        <time>2010-10-10T07:01:56Z</time>
      </trkpt>
      <trkpt lat="46.96217" lon="4.71887">
        <ele>340.44</ele>
        <time>2010-10-10T07:01:57Z</time>
      </trkpt>
      <trkpt lat="46.96218" lon="4.71889">
        <ele>341.41</ele>
        <time>2010-10-10T07:01:58Z</time>
      </trkpt>
      <trkpt lat="46.96219" lon="4.7189">
        <ele>341.41</ele>
        <time>2010-10-10T07:01:59Z</time>
      </trkpt>
      <trkpt lat="46.9622" lon="4.71892">
        <ele>341.89</ele>
        <time>2010-10-10T07:02:00Z</time>
      </trkpt>
      <trkpt lat="46.96221" lon="4.71895">
        <ele>341.89</ele>
        <time>2010-10-10T07:02:01Z</time>
      </trkpt>
      <trkpt lat="46.96221" lon="4.71898">
        <ele>342.37</ele>
        <time>2010-10-10T07:02:02Z</time>
      </trkpt>
      <trkpt lat="46.9622" lon="4.719">
        <ele>342.85</ele>
        <time>2010-10-10T07:02:03Z</time>
      </trkpt>
      <trkpt lat="46.96219" lon="4.71903">
        <ele>342.85</ele>
        <time>2010-10-10T07:02:04Z</time>
      </trkpt>
      <trkpt lat="46.96191" lon="4.71942">
        <ele>343.33</ele>
        <time>2010-10-10T07:02:19Z</time>
      </trkpt>
      <trkpt lat="46.96158" lon="4.71997">
        <ele>345.73</ele>
        <time>2010-10-10T07:02:36Z</time>
      </trkpt>
      <trkpt lat="46.96131" lon="4.72055">
        <ele>347.17</ele>
        <time>2010-10-10T07:02:52Z</time>
      </trkpt>
      <trkpt lat="46.96109" lon="4.72103">
        <ele>349.1</ele>
        <time>2010-10-10T07:03:06Z</time>
      </trkpt>
      <trkpt lat="46.96092" lon="4.72139">
        <ele>351.98</ele>
        <time>2010-10-10T07:03:19Z</time>
      </trkpt>
      <trkpt lat="46.96081" lon="4.7218">
        <ele>353.42</ele>
        <time>2010-10-10T07:03:33Z</time>
      </trkpt>
      <trkpt lat="46.96069" lon="4.72235">
        <ele>356.31</ele>
        <time>2010-10-10T07:03:51Z</time>
      </trkpt>
      <trkpt lat="46.9606" lon="4.72295">
        <ele>358.71</ele>
        <time>2010-10-10T07:04:10Z</time>
      </trkpt>
      <trkpt lat="46.96053" lon="4.7235">
        <ele>360.15</ele>
        <time>2010-10-10T07:04:26Z</time>
      </trkpt>
      <trkpt lat="46.96053" lon="4.72407">
        <ele>361.11</ele>
        <time>2010-10-10T07:04:41Z</time>
      </trkpt>
      <trkpt lat="46.96072" lon="4.72452">
        <ele>363.52</ele>
        <time>2010-10-10T07:04:56Z</time>
      </trkpt>
      <trkpt lat="46.96089" lon="4.72486">
        <ele>366.88</ele>
        <time>2010-10-10T07:05:10Z</time>
      </trkpt>
      <trkpt lat="46.96106" lon="4.72519">
        <ele>369.28</ele>
        <time>2010-10-10T07:05:25Z</time>
      </trkpt>
      <trkpt lat="46.96119" lon="4.72554">
        <ele>371.69</ele>
        <time>2010-10-10T07:05:40Z</time>
      </trkpt>
      <trkpt lat="46.96133" lon="4.72592">
        <ele>375.05</ele>
        <time>2010-10-10T07:05:57Z</time>
      </trkpt>
      <trkpt lat="46.96147" lon="4.72624">
        <ele>377.45</ele>
        <time>2010-10-10T07:06:13Z</time>
      </trkpt>
      <trkpt lat="46.96163" lon="4.7265">
        <ele>380.82</ele>
        <time>2010-10-10T07:06:28Z</time>
      </trkpt>
      <trkpt lat="46.96174" lon="4.72661">
        <ele>382.26</ele>
        <time>2010-10-10T07:06:37Z</time>
      </trkpt>
      <trkpt lat="46.96175" lon="4.72662">
        <ele>382.74</ele>
        <time>2010-10-10T07:06:38Z</time>
      </trkpt>
      <trkpt lat="46.96191" lon="4.7268">
        <ele>385.63</ele>
        <time>2010-10-10T07:06:52Z</time>
      </trkpt>
      <trkpt lat="46.96196" lon="4.72685">
        <ele>386.11</ele>
        <time>2010-10-10T07:06:56Z</time>
      </trkpt>
      <trkpt lat="46.96197" lon="4.72686">
        <ele>386.11</ele>
        <time>2010-10-10T07:06:57Z</time>
      </trkpt>
      <trkpt lat="46.96198" lon="4.72687">
        <ele>386.59</ele>
        <time>2010-10-10T07:06:58Z</time>
      </trkpt>
      <trkpt lat="46.96203" lon="4.72692">
        <ele>387.55</ele>
        <time>2010-10-10T07:07:02Z</time>
      </trkpt>
      <trkpt lat="46.96208" lon="4.72698">
        <ele>388.03</ele>
        <time>2010-10-10T07:07:07Z</time>
      </trkpt>
      <trkpt lat="46.9621" lon="4.72699">
        <ele>388.51</ele>
        <time>2010-10-10T07:07:08Z</time>
      </trkpt>
      <trkpt lat="46.96211" lon="4.72701">
        <ele>388.51</ele>
        <time>2010-10-10T07:07:09Z</time>
      </trkpt>
      <trkpt lat="46.96212" lon="4.72702">
        <ele>388.51</ele>
        <time>2010-10-10T07:07:10Z</time>
      </trkpt>
      <trkpt lat="46.96213" lon="4.72703">
        <ele>388.99</ele>
        <time>2010-10-10T07:07:11Z</time>
      </trkpt>
      <trkpt lat="46.96214" lon="4.72705">
        <ele>388.99</ele>
        <time>2010-10-10T07:07:12Z</time>
      </trkpt>
      <trkpt lat="46.96216" lon="4.72708">
        <ele>389.47</ele>
        <time>2010-10-10T07:07:14Z</time>
      </trkpt>
      <trkpt lat="46.96217" lon="4.72709">
        <ele>389.47</ele>
        <time>2010-10-10T07:07:15Z</time>
      </trkpt>
      <trkpt lat="46.96218" lon="4.72711">
        <ele>389.95</ele>
        <time>2010-10-10T07:07:16Z</time>
      </trkpt>
      <trkpt lat="46.96225" lon="4.72721">
        <ele>391.39</ele>
        <time>2010-10-10T07:07:23Z</time>
      </trkpt>
      <trkpt lat="46.96228" lon="4.72729">
        <ele>391.87</ele>
        <time>2010-10-10T07:07:28Z</time>
      </trkpt>
      <trkpt lat="46.96236" lon="4.72736">
        <ele>393.8</ele>
        <time>2010-10-10T07:07:34Z</time>
      </trkpt>
      <trkpt lat="46.96236" lon="4.72738">
        <ele>393.8</ele>
        <time>2010-10-10T07:07:35Z</time>
      </trkpt>
      <trkpt lat="46.96237" lon="4.72739">
        <ele>394.28</ele>
        <time>2010-10-10T07:07:36Z</time>
      </trkpt>
      <trkpt lat="46.96238" lon="4.72741">
        <ele>394.28</ele>
        <time>2010-10-10T07:07:37Z</time>
      </trkpt>
      <trkpt lat="46.96239" lon="4.72742">
        <ele>394.76</ele>
        <time>2010-10-10T07:07:38Z</time>
      </trkpt>
      <trkpt lat="46.9624" lon="4.72743">
        <ele>394.76</ele>
        <time>2010-10-10T07:07:39Z</time>
      </trkpt>
      <trkpt lat="46.96241" lon="4.72745">
        <ele>394.76</ele>
        <time>2010-10-10T07:07:40Z</time>
      </trkpt>
      <trkpt lat="46.96247" lon="4.72755">
        <ele>395.72</ele>
        <time>2010-10-10T07:07:47Z</time>
      </trkpt>
      <trkpt lat="46.96247" lon="4.72757">
        <ele>395.72</ele>
        <time>2010-10-10T07:07:48Z</time>
      </trkpt>
      <trkpt lat="46.96248" lon="4.72758">
        <ele>396.2</ele>
        <time>2010-10-10T07:07:49Z</time>
      </trkpt>
      <trkpt lat="46.96249" lon="4.72759">
        <ele>396.68</ele>
        <time>2010-10-10T07:07:50Z</time>
      </trkpt>
      <trkpt lat="46.9625" lon="4.72761">
        <ele>396.68</ele>
        <time>2010-10-10T07:07:51Z</time>
      </trkpt>
      <trkpt lat="46.9625" lon="4.72764">
        <ele>397.16</ele>
        <time>2010-10-10T07:07:52Z</time>
      </trkpt>
      <trkpt lat="46.96251" lon="4.72766">
        <ele>397.16</ele>
        <time>2010-10-10T07:07:53Z</time>
      </trkpt>
      <trkpt lat="46.96252" lon="4.72767">
        <ele>397.16</ele>
        <time>2010-10-10T07:07:54Z</time>
      </trkpt>
      <trkpt lat="46.96253" lon="4.72769">
        <ele>397.16</ele>
        <time>2010-10-10T07:07:55Z</time>
      </trkpt>
      <trkpt lat="46.96264" lon="4.72795">
        <ele>399.57</ele>
        <time>2010-10-10T07:08:10Z</time>
      </trkpt>
      <trkpt lat="46.9627" lon="4.72825">
        <ele>401.49</ele>
        <time>2010-10-10T07:08:24Z</time>
      </trkpt>
      <trkpt lat="46.96271" lon="4.72827">
        <ele>401.01</ele>
        <time>2010-10-10T07:08:25Z</time>
      </trkpt>
      <trkpt lat="46.96272" lon="4.72829">
        <ele>401.49</ele>
        <time>2010-10-10T07:08:26Z</time>
      </trkpt>
      <trkpt lat="46.96272" lon="4.72831">
        <ele>401.49</ele>
        <time>2010-10-10T07:08:27Z</time>
      </trkpt>
      <trkpt lat="46.96273" lon="4.72832">
        <ele>401.49</ele>
        <time>2010-10-10T07:08:28Z</time>
      </trkpt>
      <trkpt lat="46.96274" lon="4.72833">
        <ele>401.97</ele>
        <time>2010-10-10T07:08:29Z</time>
      </trkpt>
      <trkpt lat="46.96282" lon="4.7284">
        <ele>403.89</ele>
        <time>2010-10-10T07:08:36Z</time>
      </trkpt>
      <trkpt lat="46.96283" lon="4.7284">
        <ele>404.37</ele>
        <time>2010-10-10T07:08:37Z</time>
      </trkpt>
      <trkpt lat="46.96285" lon="4.72842">
        <ele>404.37</ele>
        <time>2010-10-10T07:08:38Z</time>
      </trkpt>
      <trkpt lat="46.96286" lon="4.72843">
        <ele>404.85</ele>
        <time>2010-10-10T07:08:39Z</time>
      </trkpt>
      <trkpt lat="46.96287" lon="4.72844">
        <ele>405.33</ele>
        <time>2010-10-10T07:08:40Z</time>
      </trkpt>
      <trkpt lat="46.96288" lon="4.72844">
        <ele>405.33</ele>
        <time>2010-10-10T07:08:41Z</time>
      </trkpt>
      <trkpt lat="46.96289" lon="4.72845">
        <ele>405.33</ele>
        <time>2010-10-10T07:08:42Z</time>
      </trkpt>
      <trkpt lat="46.96291" lon="4.72846">
        <ele>405.33</ele>
        <time>2010-10-10T07:08:43Z</time>
      </trkpt>
      <trkpt lat="46.96292" lon="4.72847">
        <ele>405.81</ele>
        <time>2010-10-10T07:08:44Z</time>
      </trkpt>
      <trkpt lat="46.96294" lon="4.72847">
        <ele>405.81</ele>
        <time>2010-10-10T07:08:45Z</time>
      </trkpt>
      <trkpt lat="46.96295" lon="4.72848">
        <ele>406.77</ele>
        <time>2010-10-10T07:08:46Z</time>
      </trkpt>
      <trkpt lat="46.96303" lon="4.72854">
        <ele>408.22</ele>
        <time>2010-10-10T07:08:52Z</time>
      </trkpt>
      <trkpt lat="46.96304" lon="4.72855">
        <ele>408.22</ele>
        <time>2010-10-10T07:08:53Z</time>
      </trkpt>
      <trkpt lat="46.96305" lon="4.72856">
        <ele>408.7</ele>
        <time>2010-10-10T07:08:54Z</time>
      </trkpt>
      <trkpt lat="46.96306" lon="4.72857">
        <ele>409.18</ele>
        <time>2010-10-10T07:08:55Z</time>
      </trkpt>
      <trkpt lat="46.96307" lon="4.72858">
        <ele>408.7</ele>
        <time>2010-10-10T07:08:56Z</time>
      </trkpt>
      <trkpt lat="46.9631" lon="4.72862">
        <ele>409.66</ele>
        <time>2010-10-10T07:08:59Z</time>
      </trkpt>
      <trkpt lat="46.96326" lon="4.72874">
        <ele>412.06</ele>
        <time>2010-10-10T07:09:13Z</time>
      </trkpt>
      <trkpt lat="46.96343" lon="4.72888">
        <ele>414.95</ele>
        <time>2010-10-10T07:09:27Z</time>
      </trkpt>
      <trkpt lat="46.96354" lon="4.72898">
        <ele>416.87</ele>
        <time>2010-10-10T07:09:38Z</time>
      </trkpt>
      <trkpt lat="46.96355" lon="4.729">
        <ele>417.35</ele>
        <time>2010-10-10T07:09:39Z</time>
      </trkpt>
      <trkpt lat="46.96356" lon="4.72902">
        <ele>418.31</ele>
        <time>2010-10-10T07:09:40Z</time>
      </trkpt>
      <trkpt lat="46.96358" lon="4.72903">
        <ele>417.35</ele>
        <time>2010-10-10T07:09:41Z</time>
      </trkpt>
      <trkpt lat="46.96359" lon="4.72904">
        <ele>417.35</ele>
        <time>2010-10-10T07:09:42Z</time>
      </trkpt>
      <trkpt lat="46.96363" lon="4.72908">
        <ele>418.79</ele>
        <time>2010-10-10T07:09:45Z</time>
      </trkpt>
      <trkpt lat="46.96364" lon="4.7291">
        <ele>418.79</ele>
        <time>2010-10-10T07:09:46Z</time>
      </trkpt>
      <trkpt lat="46.96365" lon="4.72911">
        <ele>418.79</ele>
        <time>2010-10-10T07:09:47Z</time>
      </trkpt>
      <trkpt lat="46.96366" lon="4.72913">
        <ele>418.31</ele>
        <time>2010-10-10T07:09:48Z</time>
      </trkpt>
      <trkpt lat="46.96367" lon="4.72914">
        <ele>418.79</ele>
        <time>2010-10-10T07:09:49Z</time>
      </trkpt>
      <trkpt lat="46.96369" lon="4.72915">
        <ele>419.27</ele>
        <time>2010-10-10T07:09:50Z</time>
      </trkpt>
      <trkpt lat="46.9637" lon="4.72916">
        <ele>418.79</ele>
        <time>2010-10-10T07:09:51Z</time>
      </trkpt>
      <trkpt lat="46.96387" lon="4.72928">
        <ele>421.19</ele>
        <time>2010-10-10T07:10:03Z</time>
      </trkpt>
      <trkpt lat="46.96404" lon="4.72938">
        <ele>422.16</ele>
        <time>2010-10-10T07:10:15Z</time>
      </trkpt>
      <trkpt lat="46.96412" lon="4.72946">
        <ele>425.52</ele>
        <time>2010-10-10T07:10:21Z</time>
      </trkpt>
      <trkpt lat="46.96433" lon="4.72962">
        <ele>426.48</ele>
        <time>2010-10-10T07:10:36Z</time>
      </trkpt>
      <trkpt lat="46.96441" lon="4.72967">
        <ele>428.4</ele>
        <time>2010-10-10T07:10:42Z</time>
      </trkpt>
      <trkpt lat="46.96442" lon="4.72969">
        <ele>426.96</ele>
        <time>2010-10-10T07:10:43Z</time>
      </trkpt>
      <trkpt lat="46.96447" lon="4.72977">
        <ele>429.37</ele>
        <time>2010-10-10T07:10:48Z</time>
      </trkpt>
      <trkpt lat="46.9646" lon="4.72999">
        <ele>431.29</ele>
        <time>2010-10-10T07:11:01Z</time>
      </trkpt>
      <trkpt lat="46.96462" lon="4.73001">
        <ele>431.29</ele>
        <time>2010-10-10T07:11:03Z</time>
      </trkpt>
      <trkpt lat="46.96463" lon="4.73002">
        <ele>432.73</ele>
        <time>2010-10-10T07:11:04Z</time>
      </trkpt>
      <trkpt lat="46.96465" lon="4.73004">
        <ele>431.77</ele>
        <time>2010-10-10T07:11:05Z</time>
      </trkpt>
      <trkpt lat="46.96466" lon="4.73006">
        <ele>430.81</ele>
        <time>2010-10-10T07:11:06Z</time>
      </trkpt>
      <trkpt lat="46.96467" lon="4.73007">
        <ele>430.81</ele>
        <time>2010-10-10T07:11:07Z</time>
      </trkpt>
      <trkpt lat="46.96467" lon="4.73009">
        <ele>430.81</ele>
        <time>2010-10-10T07:11:08Z</time>
      </trkpt>
      <trkpt lat="46.96468" lon="4.7301">
        <ele>430.81</ele>
        <time>2010-10-10T07:11:09Z</time>
      </trkpt>
      <trkpt lat="46.96469" lon="4.73012">
        <ele>432.73</ele>
        <time>2010-10-10T07:11:10Z</time>
      </trkpt>
      <trkpt lat="46.9647" lon="4.73014">
        <ele>432.73</ele>
        <time>2010-10-10T07:11:11Z</time>
      </trkpt>
      <trkpt lat="46.96471" lon="4.73015">
        <ele>433.21</ele>
        <time>2010-10-10T07:11:12Z</time>
      </trkpt>
      <trkpt lat="46.96472" lon="4.73017">
        <ele>431.77</ele>
        <time>2010-10-10T07:11:13Z</time>
      </trkpt>
      <trkpt lat="46.96474" lon="4.73022">
        <ele>433.21</ele>
        <time>2010-10-10T07:11:16Z</time>
      </trkpt>
      <trkpt lat="46.96476" lon="4.73024">
        <ele>434.17</ele>
        <time>2010-10-10T07:11:17Z</time>
      </trkpt>
      <trkpt lat="46.96477" lon="4.73026">
        <ele>434.17</ele>
        <time>2010-10-10T07:11:18Z</time>
      </trkpt>
      <trkpt lat="46.96498" lon="4.73042">
        <ele>435.13</ele>
        <time>2010-10-10T07:11:32Z</time>
      </trkpt>
      <trkpt lat="46.96519" lon="4.73056">
        <ele>437.06</ele>
        <time>2010-10-10T07:11:46Z</time>
      </trkpt>
      <trkpt lat="46.96523" lon="4.73059">
        <ele>435.61</ele>
        <time>2010-10-10T07:11:48Z</time>
      </trkpt>
      <trkpt lat="46.96529" lon="4.73063">
        <ele>438.02</ele>
        <time>2010-10-10T07:11:52Z</time>
      </trkpt>
      <trkpt lat="46.96544" lon="4.73074">
        <ele>437.54</ele>
        <time>2010-10-10T07:12:02Z</time>
      </trkpt>
      <trkpt lat="46.96546" lon="4.73075">
        <ele>438.02</ele>
        <time>2010-10-10T07:12:03Z</time>
      </trkpt>
      <trkpt lat="46.96548" lon="4.73077">
        <ele>438.02</ele>
        <time>2010-10-10T07:12:04Z</time>
      </trkpt>
      <trkpt lat="46.96568" lon="4.73093">
        <ele>439.94</ele>
        <time>2010-10-10T07:12:16Z</time>
      </trkpt>
      <trkpt lat="46.96591" lon="4.73106">
        <ele>442.34</ele>
        <time>2010-10-10T07:12:27Z</time>
      </trkpt>
      <trkpt lat="46.96593" lon="4.73107">
        <ele>442.34</ele>
        <time>2010-10-10T07:12:28Z</time>
      </trkpt>
      <trkpt lat="46.96623" lon="4.73121">
        <ele>441.86</ele>
        <time>2010-10-10T07:12:39Z</time>
      </trkpt>
      <trkpt lat="46.96627" lon="4.73123">
        <ele>441.86</ele>
        <time>2010-10-10T07:12:40Z</time>
      </trkpt>
      <trkpt lat="46.96634" lon="4.73126">
        <ele>439.94</ele>
        <time>2010-10-10T07:12:42Z</time>
      </trkpt>
      <trkpt lat="46.96636" lon="4.73127">
        <ele>440.42</ele>
        <time>2010-10-10T07:12:43Z</time>
      </trkpt>
      <trkpt lat="46.96657" lon="4.73134">
        <ele>439.46</ele>
        <time>2010-10-10T07:12:48Z</time>
      </trkpt>
      <trkpt lat="46.96662" lon="4.73134">
        <ele>439.46</ele>
        <time>2010-10-10T07:12:49Z</time>
      </trkpt>
      <trkpt lat="46.96667" lon="4.73132">
        <ele>438.02</ele>
        <time>2010-10-10T07:12:50Z</time>
      </trkpt>
      <trkpt lat="46.96672" lon="4.7313">
        <ele>437.54</ele>
        <time>2010-10-10T07:12:51Z</time>
      </trkpt>
      <trkpt lat="46.96675" lon="4.73127">
        <ele>437.54</ele>
        <time>2010-10-10T07:12:52Z</time>
      </trkpt>
      <trkpt lat="46.96678" lon="4.73124">
        <ele>438.02</ele>
        <time>2010-10-10T07:12:53Z</time>
      </trkpt>
      <trkpt lat="46.96681" lon="4.73121">
        <ele>437.06</ele>
        <time>2010-10-10T07:12:54Z</time>
      </trkpt>
      <trkpt lat="46.96682" lon="4.73117">
        <ele>439.94</ele>
        <time>2010-10-10T07:12:55Z</time>
      </trkpt>
      <trkpt lat="46.96682" lon="4.73114">
        <ele>438.5</ele>
        <time>2010-10-10T07:12:56Z</time>
      </trkpt>
      <trkpt lat="46.96683" lon="4.73112">
        <ele>438.5</ele>
        <time>2010-10-10T07:12:57Z</time>
      </trkpt>
      <trkpt lat="46.96685" lon="4.73111">
        <ele>438.02</ele>
        <time>2010-10-10T07:12:58Z</time>
      </trkpt>
      <trkpt lat="46.96697" lon="4.73081">
        <ele>439.46</ele>
        <time>2010-10-10T07:13:08Z</time>
      </trkpt>
      <trkpt lat="46.96706" lon="4.73056">
        <ele>442.82</ele>
        <time>2010-10-10T07:13:16Z</time>
      </trkpt>
      <trkpt lat="46.96722" lon="4.73013">
        <ele>443.79</ele>
        <time>2010-10-10T07:13:30Z</time>
      </trkpt>
      <trkpt lat="46.96731" lon="4.7299">
        <ele>446.67</ele>
        <time>2010-10-10T07:13:38Z</time>
      </trkpt>
      <trkpt lat="46.96735" lon="4.72977">
        <ele>447.15</ele>
        <time>2010-10-10T07:13:42Z</time>
      </trkpt>
      <trkpt lat="46.96743" lon="4.72948">
        <ele>446.67</ele>
        <time>2010-10-10T07:13:52Z</time>
      </trkpt>
      <trkpt lat="46.96748" lon="4.72929">
        <ele>449.55</ele>
        <time>2010-10-10T07:13:58Z</time>
      </trkpt>
      <trkpt lat="46.96753" lon="4.72905">
        <ele>448.11</ele>
        <time>2010-10-10T07:14:05Z</time>
      </trkpt>
      <trkpt lat="46.96765" lon="4.72849">
        <ele>449.55</ele>
        <time>2010-10-10T07:14:20Z</time>
      </trkpt>
      <trkpt lat="46.96774" lon="4.72792">
        <ele>450.52</ele>
        <time>2010-10-10T07:14:34Z</time>
      </trkpt>
      <trkpt lat="46.96787" lon="4.72739">
        <ele>451</ele>
        <time>2010-10-10T07:14:47Z</time>
      </trkpt>
      <trkpt lat="46.96799" lon="4.72684">
        <ele>451</ele>
        <time>2010-10-10T07:14:58Z</time>
      </trkpt>
      <trkpt lat="46.968" lon="4.72678">
        <ele>450.52</ele>
        <time>2010-10-10T07:14:59Z</time>
      </trkpt>
      <trkpt lat="46.96802" lon="4.72671">
        <ele>451</ele>
        <time>2010-10-10T07:15:00Z</time>
      </trkpt>
      <trkpt lat="46.96803" lon="4.72664">
        <ele>451</ele>
        <time>2010-10-10T07:15:01Z</time>
      </trkpt>
      <trkpt lat="46.96805" lon="4.72657">
        <ele>451</ele>
        <time>2010-10-10T07:15:02Z</time>
      </trkpt>
      <trkpt lat="46.96824" lon="4.72561">
        <ele>449.07</ele>
        <time>2010-10-10T07:15:14Z</time>
      </trkpt>
      <trkpt lat="46.96825" lon="4.72553">
        <ele>449.55</ele>
        <time>2010-10-10T07:15:15Z</time>
      </trkpt>
      <trkpt lat="46.9683" lon="4.72529">
        <ele>449.55</ele>
        <time>2010-10-10T07:15:18Z</time>
      </trkpt>
      <trkpt lat="46.96831" lon="4.72522">
        <ele>449.07</ele>
        <time>2010-10-10T07:15:19Z</time>
      </trkpt>
      <trkpt lat="46.96833" lon="4.72515">
        <ele>449.55</ele>
        <time>2010-10-10T07:15:20Z</time>
      </trkpt>
      <trkpt lat="46.96834" lon="4.72508">
        <ele>449.07</ele>
        <time>2010-10-10T07:15:21Z</time>
      </trkpt>
      <trkpt lat="46.96836" lon="4.725">
        <ele>450.03</ele>
        <time>2010-10-10T07:15:22Z</time>
      </trkpt>
      <trkpt lat="46.96838" lon="4.72492">
        <ele>449.55</ele>
        <time>2010-10-10T07:15:23Z</time>
      </trkpt>
      <trkpt lat="46.96839" lon="4.72485">
        <ele>450.03</ele>
        <time>2010-10-10T07:15:24Z</time>
      </trkpt>
      <trkpt lat="46.96846" lon="4.72447">
        <ele>449.55</ele>
        <time>2010-10-10T07:15:29Z</time>
      </trkpt>
      <trkpt lat="46.9687" lon="4.72349">
        <ele>452.44</ele>
        <time>2010-10-10T07:15:43Z</time>
      </trkpt>
      <trkpt lat="46.96881" lon="4.72289">
        <ele>451.48</ele>
        <time>2010-10-10T07:15:52Z</time>
      </trkpt>
      <trkpt lat="46.96884" lon="4.7227">
        <ele>451.96</ele>
        <time>2010-10-10T07:15:55Z</time>
      </trkpt>
      <trkpt lat="46.96885" lon="4.72264">
        <ele>451.96</ele>
        <time>2010-10-10T07:15:56Z</time>
      </trkpt>
      <trkpt lat="46.96886" lon="4.72258">
        <ele>451.48</ele>
        <time>2010-10-10T07:15:57Z</time>
      </trkpt>
      <trkpt lat="46.96887" lon="4.72253">
        <ele>452.44</ele>
        <time>2010-10-10T07:15:58Z</time>
      </trkpt>
      <trkpt lat="46.96887" lon="4.72248">
        <ele>452.44</ele>
        <time>2010-10-10T07:15:59Z</time>
      </trkpt>
      <trkpt lat="46.96888" lon="4.72244">
        <ele>451.48</ele>
        <time>2010-10-10T07:16:00Z</time>
      </trkpt>
      <trkpt lat="46.9689" lon="4.72239">
        <ele>451.96</ele>
        <time>2010-10-10T07:16:01Z</time>
      </trkpt>
      <trkpt lat="46.96905" lon="4.72168">
        <ele>452.92</ele>
        <time>2010-10-10T07:16:14Z</time>
      </trkpt>
      <trkpt lat="46.96924" lon="4.72075">
        <ele>454.84</ele>
        <time>2010-10-10T07:16:31Z</time>
      </trkpt>
      <trkpt lat="46.96948" lon="4.71957">
        <ele>456.28</ele>
        <time>2010-10-10T07:16:53Z</time>
      </trkpt>
      <trkpt lat="46.96953" lon="4.71935">
        <ele>457.24</ele>
        <time>2010-10-10T07:16:57Z</time>
      </trkpt>
      <trkpt lat="46.96975" lon="4.7184">
        <ele>456.28</ele>
        <time>2010-10-10T07:17:12Z</time>
      </trkpt>
      <trkpt lat="46.97003" lon="4.71715">
        <ele>456.76</ele>
        <time>2010-10-10T07:17:29Z</time>
      </trkpt>
      <trkpt lat="46.97022" lon="4.71611">
        <ele>458.69</ele>
        <time>2010-10-10T07:17:45Z</time>
      </trkpt>
      <trkpt lat="46.97035" lon="4.71541">
        <ele>462.05</ele>
        <time>2010-10-10T07:18:01Z</time>
      </trkpt>
      <trkpt lat="46.97038" lon="4.71517">
        <ele>462.53</ele>
        <time>2010-10-10T07:18:07Z</time>
      </trkpt>
      <trkpt lat="46.97039" lon="4.71513">
        <ele>462.05</ele>
        <time>2010-10-10T07:18:08Z</time>
      </trkpt>
      <trkpt lat="46.97039" lon="4.7151">
        <ele>462.05</ele>
        <time>2010-10-10T07:18:09Z</time>
      </trkpt>
      <trkpt lat="46.97039" lon="4.71509">
        <ele>462.53</ele>
        <time>2010-10-10T07:18:24Z</time>
      </trkpt>
      <trkpt lat="46.9704" lon="4.7148">
        <ele>462.05</ele>
        <time>2010-10-10T07:18:42Z</time>
      </trkpt>
      <trkpt lat="46.97042" lon="4.71453">
        <ele>462.53</ele>
        <time>2010-10-10T07:18:48Z</time>
      </trkpt>
      <trkpt lat="46.97042" lon="4.71417">
        <ele>465.42</ele>
        <time>2010-10-10T07:18:56Z</time>
      </trkpt>
      <trkpt lat="46.9703" lon="4.71337">
        <ele>465.42</ele>
        <time>2010-10-10T07:19:12Z</time>
      </trkpt>
      <trkpt lat="46.97012" lon="4.7125">
        <ele>467.82</ele>
        <time>2010-10-10T07:19:28Z</time>
      </trkpt>
      <trkpt lat="46.96983" lon="4.7113">
        <ele>466.38</ele>
        <time>2010-10-10T07:19:45Z</time>
      </trkpt>
      <trkpt lat="46.96965" lon="4.71056">
        <ele>465.42</ele>
        <time>2010-10-10T07:19:55Z</time>
      </trkpt>
      <trkpt lat="46.96962" lon="4.71049">
        <ele>465.42</ele>
        <time>2010-10-10T07:19:56Z</time>
      </trkpt>
      <trkpt lat="46.96954" lon="4.71037">
        <ele>464.93</ele>
        <time>2010-10-10T07:19:58Z</time>
      </trkpt>
      <trkpt lat="46.96949" lon="4.71032">
        <ele>465.42</ele>
        <time>2010-10-10T07:19:59Z</time>
      </trkpt>
      <trkpt lat="46.9687" lon="4.70958">
        <ele>463.01</ele>
        <time>2010-10-10T07:20:14Z</time>
      </trkpt>
      <trkpt lat="46.9684" lon="4.70926">
        <ele>463.01</ele>
        <time>2010-10-10T07:20:20Z</time>
      </trkpt>
      <trkpt lat="46.96802" lon="4.70888">
        <ele>463.01</ele>
        <time>2010-10-10T07:20:28Z</time>
      </trkpt>
      <trkpt lat="46.96798" lon="4.70882">
        <ele>463.97</ele>
        <time>2010-10-10T07:20:29Z</time>
      </trkpt>
      <trkpt lat="46.96789" lon="4.70872">
        <ele>463.49</ele>
        <time>2010-10-10T07:20:31Z</time>
      </trkpt>
      <trkpt lat="46.96786" lon="4.70866">
        <ele>463.49</ele>
        <time>2010-10-10T07:20:32Z</time>
      </trkpt>
      <trkpt lat="46.96783" lon="4.70861">
        <ele>463.97</ele>
        <time>2010-10-10T07:20:33Z</time>
      </trkpt>
      <trkpt lat="46.96778" lon="4.70849">
        <ele>465.42</ele>
        <time>2010-10-10T07:20:35Z</time>
      </trkpt>
      <trkpt lat="46.96776" lon="4.70844">
        <ele>465.42</ele>
        <time>2010-10-10T07:20:36Z</time>
      </trkpt>
      <trkpt lat="46.96774" lon="4.70838">
        <ele>465.9</ele>
        <time>2010-10-10T07:20:37Z</time>
      </trkpt>
      <trkpt lat="46.96772" lon="4.70833">
        <ele>465.9</ele>
        <time>2010-10-10T07:20:38Z</time>
      </trkpt>
      <trkpt lat="46.9677" lon="4.70827">
        <ele>466.38</ele>
        <time>2010-10-10T07:20:39Z</time>
      </trkpt>
      <trkpt lat="46.96765" lon="4.70817">
        <ele>465.9</ele>
        <time>2010-10-10T07:20:41Z</time>
      </trkpt>
      <trkpt lat="46.96738" lon="4.70748">
        <ele>469.26</ele>
        <time>2010-10-10T07:20:56Z</time>
      </trkpt>
      <trkpt lat="46.96716" lon="4.70686">
        <ele>472.14</ele>
        <time>2010-10-10T07:21:11Z</time>
      </trkpt>
      <trkpt lat="46.96699" lon="4.70633">
        <ele>474.55</ele>
        <time>2010-10-10T07:21:24Z</time>
      </trkpt>
      <trkpt lat="46.9668" lon="4.7059">
        <ele>476.47</ele>
        <time>2010-10-10T07:21:36Z</time>
      </trkpt>
      <trkpt lat="46.96656" lon="4.70546">
        <ele>476.95</ele>
        <time>2010-10-10T07:21:49Z</time>
      </trkpt>
      <trkpt lat="46.96637" lon="4.70511">
        <ele>478.39</ele>
        <time>2010-10-10T07:21:59Z</time>
      </trkpt>
      <trkpt lat="46.96634" lon="4.70507">
        <ele>478.39</ele>
        <time>2010-10-10T07:22:00Z</time>
      </trkpt>
      <trkpt lat="46.96631" lon="4.70503">
        <ele>478.87</ele>
        <time>2010-10-10T07:22:01Z</time>
      </trkpt>
      <trkpt lat="46.96628" lon="4.70498">
        <ele>478.39</ele>
        <time>2010-10-10T07:22:02Z</time>
      </trkpt>
      <trkpt lat="46.96624" lon="4.70494">
        <ele>478.39</ele>
        <time>2010-10-10T07:22:03Z</time>
      </trkpt>
      <trkpt lat="46.96572" lon="4.70432">
        <ele>476.47</ele>
        <time>2010-10-10T07:22:15Z</time>
      </trkpt>
      <trkpt lat="46.96567" lon="4.70425">
        <ele>475.99</ele>
        <time>2010-10-10T07:22:16Z</time>
      </trkpt>
      <trkpt lat="46.96562" lon="4.70418">
        <ele>475.99</ele>
        <time>2010-10-10T07:22:17Z</time>
      </trkpt>
      <trkpt lat="46.96524" lon="4.70372">
        <ele>474.07</ele>
        <time>2010-10-10T07:22:24Z</time>
      </trkpt>
      <trkpt lat="46.96465" lon="4.70299">
        <ele>470.7</ele>
        <time>2010-10-10T07:22:34Z</time>
      </trkpt>
      <trkpt lat="46.96407" lon="4.70235">
        <ele>468.78</ele>
        <time>2010-10-10T07:22:43Z</time>
      </trkpt>
      <trkpt lat="46.96334" lon="4.70185">
        <ele>465.9</ele>
        <time>2010-10-10T07:22:53Z</time>
      </trkpt>
      <trkpt lat="46.96315" lon="4.70164">
        <ele>464.45</ele>
        <time>2010-10-10T07:22:56Z</time>
      </trkpt>
      <trkpt lat="46.96303" lon="4.70146">
        <ele>463.01</ele>
        <time>2010-10-10T07:22:58Z</time>
      </trkpt>
      <trkpt lat="46.96297" lon="4.70139">
        <ele>462.53</ele>
        <time>2010-10-10T07:22:59Z</time>
      </trkpt>
      <trkpt lat="46.96289" lon="4.70134">
        <ele>462.05</ele>
        <time>2010-10-10T07:23:00Z</time>
      </trkpt>
      <trkpt lat="46.96282" lon="4.7013">
        <ele>461.09</ele>
        <time>2010-10-10T07:23:01Z</time>
      </trkpt>
      <trkpt lat="46.96274" lon="4.70129">
        <ele>461.09</ele>
        <time>2010-10-10T07:23:02Z</time>
      </trkpt>
      <trkpt lat="46.96266" lon="4.70129">
        <ele>461.09</ele>
        <time>2010-10-10T07:23:03Z</time>
      </trkpt>
      <trkpt lat="46.96258" lon="4.70129">
        <ele>460.61</ele>
        <time>2010-10-10T07:23:04Z</time>
      </trkpt>
      <trkpt lat="46.9625" lon="4.70131">
        <ele>459.65</ele>
        <time>2010-10-10T07:23:05Z</time>
      </trkpt>
      <trkpt lat="46.96242" lon="4.70133">
        <ele>459.65</ele>
        <time>2010-10-10T07:23:06Z</time>
      </trkpt>
      <trkpt lat="46.96226" lon="4.70137">
        <ele>459.17</ele>
        <time>2010-10-10T07:23:08Z</time>
      </trkpt>
      <trkpt lat="46.96218" lon="4.70137">
        <ele>458.69</ele>
        <time>2010-10-10T07:23:09Z</time>
      </trkpt>
      <trkpt lat="46.9621" lon="4.70135">
        <ele>458.69</ele>
        <time>2010-10-10T07:23:10Z</time>
      </trkpt>
      <trkpt lat="46.96181" lon="4.70122">
        <ele>457.24</ele>
        <time>2010-10-10T07:23:14Z</time>
      </trkpt>
      <trkpt lat="46.96174" lon="4.70116">
        <ele>456.76</ele>
        <time>2010-10-10T07:23:15Z</time>
      </trkpt>
      <trkpt lat="46.96168" lon="4.70109">
        <ele>457.24</ele>
        <time>2010-10-10T07:23:16Z</time>
      </trkpt>
      <trkpt lat="46.96157" lon="4.70093">
        <ele>455.32</ele>
        <time>2010-10-10T07:23:18Z</time>
      </trkpt>
      <trkpt lat="46.9615" lon="4.70086">
        <ele>455.32</ele>
        <time>2010-10-10T07:23:19Z</time>
      </trkpt>
      <trkpt lat="46.9613" lon="4.70066">
        <ele>455.32</ele>
        <time>2010-10-10T07:23:22Z</time>
      </trkpt>
      <trkpt lat="46.96124" lon="4.70058">
        <ele>454.84</ele>
        <time>2010-10-10T07:23:23Z</time>
      </trkpt>
      <trkpt lat="46.9612" lon="4.70049">
        <ele>454.84</ele>
        <time>2010-10-10T07:23:24Z</time>
      </trkpt>
      <trkpt lat="46.96097" lon="4.69963">
        <ele>454.36</ele>
        <time>2010-10-10T07:23:33Z</time>
      </trkpt>
      <trkpt lat="46.96093" lon="4.69956">
        <ele>454.36</ele>
        <time>2010-10-10T07:23:34Z</time>
      </trkpt>
      <trkpt lat="46.96088" lon="4.69949">
        <ele>454.84</ele>
        <time>2010-10-10T07:23:35Z</time>
      </trkpt>
      <trkpt lat="46.96072" lon="4.69929">
        <ele>454.84</ele>
        <time>2010-10-10T07:23:38Z</time>
      </trkpt>
      <trkpt lat="46.96036" lon="4.69887">
        <ele>452.92</ele>
        <time>2010-10-10T07:23:44Z</time>
      </trkpt>
      <trkpt lat="46.96024" lon="4.69874">
        <ele>452.44</ele>
        <time>2010-10-10T07:23:46Z</time>
      </trkpt>
      <trkpt lat="46.95988" lon="4.69827">
        <ele>451</ele>
        <time>2010-10-10T07:23:52Z</time>
      </trkpt>
      <trkpt lat="46.95983" lon="4.69817">
        <ele>450.52</ele>
        <time>2010-10-10T07:23:53Z</time>
      </trkpt>
      <trkpt lat="46.95941" lon="4.69691">
        <ele>448.59</ele>
        <time>2010-10-10T07:24:05Z</time>
      </trkpt>
      <trkpt lat="46.95936" lon="4.6966">
        <ele>448.59</ele>
        <time>2010-10-10T07:24:08Z</time>
      </trkpt>
      <trkpt lat="46.95933" lon="4.69652">
        <ele>448.59</ele>
        <time>2010-10-10T07:24:09Z</time>
      </trkpt>
      <trkpt lat="46.95929" lon="4.69644">
        <ele>447.63</ele>
        <time>2010-10-10T07:24:10Z</time>
      </trkpt>
      <trkpt lat="46.95924" lon="4.69637">
        <ele>447.63</ele>
        <time>2010-10-10T07:24:11Z</time>
      </trkpt>
      <trkpt lat="46.95917" lon="4.69632">
        <ele>446.67</ele>
        <time>2010-10-10T07:24:12Z</time>
      </trkpt>
      <trkpt lat="46.9591" lon="4.69626">
        <ele>445.71</ele>
        <time>2010-10-10T07:24:13Z</time>
      </trkpt>
      <trkpt lat="46.95903" lon="4.69621">
        <ele>445.71</ele>
        <time>2010-10-10T07:24:14Z</time>
      </trkpt>
      <trkpt lat="46.95865" lon="4.69589">
        <ele>442.34</ele>
        <time>2010-10-10T07:24:19Z</time>
      </trkpt>
      <trkpt lat="46.95826" lon="4.6955">
        <ele>438.02</ele>
        <time>2010-10-10T07:24:24Z</time>
      </trkpt>
      <trkpt lat="46.95795" lon="4.69513">
        <ele>435.61</ele>
        <time>2010-10-10T07:24:29Z</time>
      </trkpt>
      <trkpt lat="46.95791" lon="4.69505">
        <ele>435.13</ele>
        <time>2010-10-10T07:24:30Z</time>
      </trkpt>
      <trkpt lat="46.95754" lon="4.69387">
        <ele>432.73</ele>
        <time>2010-10-10T07:24:42Z</time>
      </trkpt>
      <trkpt lat="46.95732" lon="4.69337">
        <ele>432.73</ele>
        <time>2010-10-10T07:24:47Z</time>
      </trkpt>
      <trkpt lat="46.95729" lon="4.69327">
        <ele>432.25</ele>
        <time>2010-10-10T07:24:48Z</time>
      </trkpt>
      <trkpt lat="46.95727" lon="4.69315">
        <ele>432.25</ele>
        <time>2010-10-10T07:24:49Z</time>
      </trkpt>
      <trkpt lat="46.95701" lon="4.69158">
        <ele>429.85</ele>
        <time>2010-10-10T07:25:03Z</time>
      </trkpt>
      <trkpt lat="46.95689" lon="4.69042">
        <ele>429.85</ele>
        <time>2010-10-10T07:25:14Z</time>
      </trkpt>
      <trkpt lat="46.95687" lon="4.69024">
        <ele>429.85</ele>
        <time>2010-10-10T07:25:16Z</time>
      </trkpt>
      <trkpt lat="46.95686" lon="4.69006">
        <ele>430.33</ele>
        <time>2010-10-10T07:25:18Z</time>
      </trkpt>
      <trkpt lat="46.95687" lon="4.68997">
        <ele>430.33</ele>
        <time>2010-10-10T07:25:19Z</time>
      </trkpt>
      <trkpt lat="46.9569" lon="4.68989">
        <ele>430.33</ele>
        <time>2010-10-10T07:25:20Z</time>
      </trkpt>
      <trkpt lat="46.95696" lon="4.68972">
        <ele>428.89</ele>
        <time>2010-10-10T07:25:22Z</time>
      </trkpt>
      <trkpt lat="46.957" lon="4.68964">
        <ele>427.92</ele>
        <time>2010-10-10T07:25:23Z</time>
      </trkpt>
      <trkpt lat="46.95703" lon="4.68955">
        <ele>426.96</ele>
        <time>2010-10-10T07:25:24Z</time>
      </trkpt>
      <trkpt lat="46.95706" lon="4.68946">
        <ele>426.48</ele>
        <time>2010-10-10T07:25:25Z</time>
      </trkpt>
      <trkpt lat="46.95708" lon="4.68936">
        <ele>424.56</ele>
        <time>2010-10-10T07:25:26Z</time>
      </trkpt>
      <trkpt lat="46.9571" lon="4.68925">
        <ele>423.6</ele>
        <time>2010-10-10T07:25:27Z</time>
      </trkpt>
      <trkpt lat="46.95711" lon="4.68914">
        <ele>422.64</ele>
        <time>2010-10-10T07:25:28Z</time>
      </trkpt>
      <trkpt lat="46.95711" lon="4.68903">
        <ele>421.68</ele>
        <time>2010-10-10T07:25:29Z</time>
      </trkpt>
      <trkpt lat="46.95716" lon="4.68852">
        <ele>418.31</ele>
        <time>2010-10-10T07:25:33Z</time>
      </trkpt>
      <trkpt lat="46.95717" lon="4.68839">
        <ele>418.31</ele>
        <time>2010-10-10T07:25:34Z</time>
      </trkpt>
      <trkpt lat="46.95732" lon="4.68759">
        <ele>416.39</ele>
        <time>2010-10-10T07:25:41Z</time>
      </trkpt>
      <trkpt lat="46.95734" lon="4.68749">
        <ele>416.87</ele>
        <time>2010-10-10T07:25:42Z</time>
      </trkpt>
      <trkpt lat="46.95763" lon="4.68616">
        <ele>417.83</ele>
        <time>2010-10-10T07:25:56Z</time>
      </trkpt>
      <trkpt lat="46.95772" lon="4.68584">
        <ele>417.83</ele>
        <time>2010-10-10T07:26:00Z</time>
      </trkpt>
      <trkpt lat="46.95774" lon="4.68576">
        <ele>416.87</ele>
        <time>2010-10-10T07:26:01Z</time>
      </trkpt>
      <trkpt lat="46.95775" lon="4.68566">
        <ele>416.87</ele>
        <time>2010-10-10T07:26:02Z</time>
      </trkpt>
      <trkpt lat="46.95775" lon="4.68555">
        <ele>415.91</ele>
        <time>2010-10-10T07:26:03Z</time>
      </trkpt>
      <trkpt lat="46.95775" lon="4.68544">
        <ele>414.95</ele>
        <time>2010-10-10T07:26:04Z</time>
      </trkpt>
      <trkpt lat="46.95773" lon="4.68492">
        <ele>413.02</ele>
        <time>2010-10-10T07:26:08Z</time>
      </trkpt>
      <trkpt lat="46.95771" lon="4.68393">
        <ele>408.22</ele>
        <time>2010-10-10T07:26:15Z</time>
      </trkpt>
      <trkpt lat="46.95766" lon="4.68348">
        <ele>404.37</ele>
        <time>2010-10-10T07:26:18Z</time>
      </trkpt>
      <trkpt lat="46.95763" lon="4.68335">
        <ele>402.45</ele>
        <time>2010-10-10T07:26:19Z</time>
      </trkpt>
      <trkpt lat="46.95759" lon="4.68322">
        <ele>402.45</ele>
        <time>2010-10-10T07:26:20Z</time>
      </trkpt>
      <trkpt lat="46.95753" lon="4.68309">
        <ele>401.01</ele>
        <time>2010-10-10T07:26:21Z</time>
      </trkpt>
      <trkpt lat="46.95748" lon="4.68296">
        <ele>401.49</ele>
        <time>2010-10-10T07:26:22Z</time>
      </trkpt>
      <trkpt lat="46.95728" lon="4.68258">
        <ele>396.68</ele>
        <time>2010-10-10T07:26:25Z</time>
      </trkpt>
      <trkpt lat="46.95715" lon="4.68233">
        <ele>393.8</ele>
        <time>2010-10-10T07:26:27Z</time>
      </trkpt>
      <trkpt lat="46.95708" lon="4.68221">
        <ele>393.32</ele>
        <time>2010-10-10T07:26:28Z</time>
      </trkpt>
      <trkpt lat="46.95704" lon="4.6821">
        <ele>392.36</ele>
        <time>2010-10-10T07:26:29Z</time>
      </trkpt>
      <trkpt lat="46.957" lon="4.68198">
        <ele>390.91</ele>
        <time>2010-10-10T07:26:30Z</time>
      </trkpt>
      <trkpt lat="46.95698" lon="4.68186">
        <ele>389.95</ele>
        <time>2010-10-10T07:26:31Z</time>
      </trkpt>
      <trkpt lat="46.95698" lon="4.68174">
        <ele>388.99</ele>
        <time>2010-10-10T07:26:32Z</time>
      </trkpt>
      <trkpt lat="46.95701" lon="4.68162">
        <ele>388.51</ele>
        <time>2010-10-10T07:26:33Z</time>
      </trkpt>
      <trkpt lat="46.95705" lon="4.68151">
        <ele>388.03</ele>
        <time>2010-10-10T07:26:34Z</time>
      </trkpt>
      <trkpt lat="46.95711" lon="4.68141">
        <ele>387.07</ele>
        <time>2010-10-10T07:26:35Z</time>
      </trkpt>
      <trkpt lat="46.95716" lon="4.68132">
        <ele>388.03</ele>
        <time>2010-10-10T07:26:36Z</time>
      </trkpt>
      <trkpt lat="46.95718" lon="4.68126">
        <ele>388.03</ele>
        <time>2010-10-10T07:26:37Z</time>
      </trkpt>
      <trkpt lat="46.95723" lon="4.68119">
        <ele>387.07</ele>
        <time>2010-10-10T07:26:39Z</time>
      </trkpt>
      <trkpt lat="46.95726" lon="4.68118">
        <ele>386.59</ele>
        <time>2010-10-10T07:26:40Z</time>
      </trkpt>
      <trkpt lat="46.95729" lon="4.68118">
        <ele>388.03</ele>
        <time>2010-10-10T07:26:41Z</time>
      </trkpt>
      <trkpt lat="46.95732" lon="4.6812">
        <ele>388.03</ele>
        <time>2010-10-10T07:26:42Z</time>
      </trkpt>
      <trkpt lat="46.95734" lon="4.68121">
        <ele>386.59</ele>
        <time>2010-10-10T07:26:43Z</time>
      </trkpt>
      <trkpt lat="46.95737" lon="4.68121">
        <ele>387.55</ele>
        <time>2010-10-10T07:26:44Z</time>
      </trkpt>
      <trkpt lat="46.9574" lon="4.68121">
        <ele>388.03</ele>
        <time>2010-10-10T07:26:45Z</time>
      </trkpt>
      <trkpt lat="46.95744" lon="4.6812">
        <ele>387.55</ele>
        <time>2010-10-10T07:26:46Z</time>
      </trkpt>
      <trkpt lat="46.95747" lon="4.68119">
        <ele>387.55</ele>
        <time>2010-10-10T07:26:47Z</time>
      </trkpt>
      <trkpt lat="46.95749" lon="4.68119">
        <ele>388.99</ele>
        <time>2010-10-10T07:26:48Z</time>
      </trkpt>
      <trkpt lat="46.95752" lon="4.68117">
        <ele>388.51</ele>
        <time>2010-10-10T07:26:49Z</time>
      </trkpt>
      <trkpt lat="46.95755" lon="4.68116">
        <ele>389.47</ele>
        <time>2010-10-10T07:26:50Z</time>
      </trkpt>
      <trkpt lat="46.95777" lon="4.68099">
        <ele>392.84</ele>
        <time>2010-10-10T07:27:01Z</time>
      </trkpt>
      <trkpt lat="46.95789" lon="4.68084">
        <ele>395.72</ele>
        <time>2010-10-10T07:27:08Z</time>
      </trkpt>
      <trkpt lat="46.95803" lon="4.68065">
        <ele>398.12</ele>
        <time>2010-10-10T07:27:19Z</time>
      </trkpt>
      <trkpt lat="46.95803" lon="4.68063">
        <ele>397.64</ele>
        <time>2010-10-10T07:27:20Z</time>
      </trkpt>
      <trkpt lat="46.95803" lon="4.68062">
        <ele>398.6</ele>
        <time>2010-10-10T07:27:21Z</time>
      </trkpt>
      <trkpt lat="46.95804" lon="4.6806">
        <ele>399.57</ele>
        <time>2010-10-10T07:27:22Z</time>
      </trkpt>
      <trkpt lat="46.95805" lon="4.68058">
        <ele>399.57</ele>
        <time>2010-10-10T07:27:23Z</time>
      </trkpt>
      <trkpt lat="46.95806" lon="4.68056">
        <ele>399.08</ele>
        <time>2010-10-10T07:27:24Z</time>
      </trkpt>
      <trkpt lat="46.95807" lon="4.68055">
        <ele>399.57</ele>
        <time>2010-10-10T07:27:25Z</time>
      </trkpt>
      <trkpt lat="46.95815" lon="4.68043">
        <ele>401.49</ele>
        <time>2010-10-10T07:27:32Z</time>
      </trkpt>
      <trkpt lat="46.95816" lon="4.68042">
        <ele>401.97</ele>
        <time>2010-10-10T07:27:33Z</time>
      </trkpt>
      <trkpt lat="46.95817" lon="4.6804">
        <ele>401.97</ele>
        <time>2010-10-10T07:27:34Z</time>
      </trkpt>
      <trkpt lat="46.95818" lon="4.68038">
        <ele>401.97</ele>
        <time>2010-10-10T07:27:35Z</time>
      </trkpt>
      <trkpt lat="46.95819" lon="4.68037">
        <ele>402.45</ele>
        <time>2010-10-10T07:27:36Z</time>
      </trkpt>
      <trkpt lat="46.9582" lon="4.68035">
        <ele>402.45</ele>
        <time>2010-10-10T07:27:37Z</time>
      </trkpt>
      <trkpt lat="46.95822" lon="4.68034">
        <ele>402.93</ele>
        <time>2010-10-10T07:27:38Z</time>
      </trkpt>
      <trkpt lat="46.95826" lon="4.68025">
        <ele>404.85</ele>
        <time>2010-10-10T07:27:43Z</time>
      </trkpt>
      <trkpt lat="46.95829" lon="4.68022">
        <ele>405.33</ele>
        <time>2010-10-10T07:27:47Z</time>
      </trkpt>
      <trkpt lat="46.95831" lon="4.68021">
        <ele>404.85</ele>
        <time>2010-10-10T07:27:48Z</time>
      </trkpt>
      <trkpt lat="46.95833" lon="4.6802">
        <ele>405.33</ele>
        <time>2010-10-10T07:27:49Z</time>
      </trkpt>
      <trkpt lat="46.95835" lon="4.68019">
        <ele>405.33</ele>
        <time>2010-10-10T07:27:50Z</time>
      </trkpt>
      <trkpt lat="46.95837" lon="4.68018">
        <ele>405.81</ele>
        <time>2010-10-10T07:27:51Z</time>
      </trkpt>
      <trkpt lat="46.95838" lon="4.68018">
        <ele>406.29</ele>
        <time>2010-10-10T07:27:52Z</time>
      </trkpt>
      <trkpt lat="46.95839" lon="4.68019">
        <ele>406.77</ele>
        <time>2010-10-10T07:27:53Z</time>
      </trkpt>
      <trkpt lat="46.9584" lon="4.6802">
        <ele>406.29</ele>
        <time>2010-10-10T07:27:54Z</time>
      </trkpt>
      <trkpt lat="46.95841" lon="4.68022">
        <ele>406.77</ele>
        <time>2010-10-10T07:27:55Z</time>
      </trkpt>
      <trkpt lat="46.95841" lon="4.68024">
        <ele>407.74</ele>
        <time>2010-10-10T07:27:56Z</time>
      </trkpt>
      <trkpt lat="46.95842" lon="4.68027">
        <ele>406.77</ele>
        <time>2010-10-10T07:27:57Z</time>
      </trkpt>
      <trkpt lat="46.95842" lon="4.68029">
        <ele>406.77</ele>
        <time>2010-10-10T07:27:58Z</time>
      </trkpt>
      <trkpt lat="46.95846" lon="4.68062">
        <ele>410.14</ele>
        <time>2010-10-10T07:28:11Z</time>
      </trkpt>
      <trkpt lat="46.95847" lon="4.68064">
        <ele>408.7</ele>
        <time>2010-10-10T07:28:12Z</time>
      </trkpt>
      <trkpt lat="46.95849" lon="4.68065">
        <ele>409.66</ele>
        <time>2010-10-10T07:28:13Z</time>
      </trkpt>
      <trkpt lat="46.9585" lon="4.68065">
        <ele>410.14</ele>
        <time>2010-10-10T07:28:14Z</time>
      </trkpt>
      <trkpt lat="46.95852" lon="4.68066">
        <ele>409.66</ele>
        <time>2010-10-10T07:28:15Z</time>
      </trkpt>
      <trkpt lat="46.95854" lon="4.68066">
        <ele>409.66</ele>
        <time>2010-10-10T07:28:16Z</time>
      </trkpt>
      <trkpt lat="46.95855" lon="4.68065">
        <ele>410.62</ele>
        <time>2010-10-10T07:28:17Z</time>
      </trkpt>
      <trkpt lat="46.95856" lon="4.68064">
        <ele>411.1</ele>
        <time>2010-10-10T07:28:18Z</time>
      </trkpt>
      <trkpt lat="46.95858" lon="4.68063">
        <ele>411.1</ele>
        <time>2010-10-10T07:28:19Z</time>
      </trkpt>
      <trkpt lat="46.95859" lon="4.68063">
        <ele>412.06</ele>
        <time>2010-10-10T07:28:20Z</time>
      </trkpt>
      <trkpt lat="46.95861" lon="4.68062">
        <ele>412.06</ele>
        <time>2010-10-10T07:28:21Z</time>
      </trkpt>
      <trkpt lat="46.95863" lon="4.68063">
        <ele>412.54</ele>
        <time>2010-10-10T07:28:22Z</time>
      </trkpt>
      <trkpt lat="46.95864" lon="4.68062">
        <ele>412.54</ele>
        <time>2010-10-10T07:28:23Z</time>
      </trkpt>
      <trkpt lat="46.95866" lon="4.68062">
        <ele>412.54</ele>
        <time>2010-10-10T07:28:24Z</time>
      </trkpt>
      <trkpt lat="46.95867" lon="4.68062">
        <ele>412.54</ele>
        <time>2010-10-10T07:28:25Z</time>
      </trkpt>
      <trkpt lat="46.95868" lon="4.68061">
        <ele>413.02</ele>
        <time>2010-10-10T07:28:26Z</time>
      </trkpt>
      <trkpt lat="46.95869" lon="4.6806">
        <ele>413.5</ele>
        <time>2010-10-10T07:28:27Z</time>
      </trkpt>
      <trkpt lat="46.95871" lon="4.6806">
        <ele>413.5</ele>
        <time>2010-10-10T07:28:28Z</time>
      </trkpt>
      <trkpt lat="46.95872" lon="4.6806">
        <ele>414.47</ele>
        <time>2010-10-10T07:28:29Z</time>
      </trkpt>
      <trkpt lat="46.9588" lon="4.68058">
        <ele>415.91</ele>
        <time>2010-10-10T07:28:35Z</time>
      </trkpt>
      <trkpt lat="46.95881" lon="4.68057">
        <ele>416.39</ele>
        <time>2010-10-10T07:28:36Z</time>
      </trkpt>
      <trkpt lat="46.95882" lon="4.68056">
        <ele>416.39</ele>
        <time>2010-10-10T07:28:37Z</time>
      </trkpt>
      <trkpt lat="46.95897" lon="4.68051">
        <ele>419.27</ele>
        <time>2010-10-10T07:28:48Z</time>
      </trkpt>
      <trkpt lat="46.95924" lon="4.68048">
        <ele>419.75</ele>
        <time>2010-10-10T07:29:02Z</time>
      </trkpt>
      <trkpt lat="46.95954" lon="4.68021">
        <ele>418.79</ele>
        <time>2010-10-10T07:29:15Z</time>
      </trkpt>
      <trkpt lat="46.95956" lon="4.68018">
        <ele>419.27</ele>
        <time>2010-10-10T07:29:16Z</time>
      </trkpt>
      <trkpt lat="46.95978" lon="4.6803">
        <ele>422.16</ele>
        <time>2010-10-10T07:29:27Z</time>
      </trkpt>
      <trkpt lat="46.95996" lon="4.68035">
        <ele>424.08</ele>
        <time>2010-10-10T07:29:38Z</time>
      </trkpt>
      <trkpt lat="46.96002" lon="4.68036">
        <ele>425.04</ele>
        <time>2010-10-10T07:29:42Z</time>
      </trkpt>
      <trkpt lat="46.96029" lon="4.68036">
        <ele>428.4</ele>
        <time>2010-10-10T07:29:57Z</time>
      </trkpt>
      <trkpt lat="46.96048" lon="4.68033">
        <ele>430.33</ele>
        <time>2010-10-10T07:30:10Z</time>
      </trkpt>
      <trkpt lat="46.96052" lon="4.68033">
        <ele>430.81</ele>
        <time>2010-10-10T07:30:13Z</time>
      </trkpt>
      <trkpt lat="46.96058" lon="4.68049">
        <ele>433.21</ele>
        <time>2010-10-10T07:30:21Z</time>
      </trkpt>
      <trkpt lat="46.96054" lon="4.68075">
        <ele>436.1</ele>
        <time>2010-10-10T07:30:34Z</time>
      </trkpt>
      <trkpt lat="46.96054" lon="4.68076">
        <ele>436.1</ele>
        <time>2010-10-10T07:30:35Z</time>
      </trkpt>
      <trkpt lat="46.96045" lon="4.68094">
        <ele>437.06</ele>
        <time>2010-10-10T07:30:47Z</time>
      </trkpt>
      <trkpt lat="46.96042" lon="4.68097">
        <ele>438.98</ele>
        <time>2010-10-10T07:30:51Z</time>
      </trkpt>
      <trkpt lat="46.96028" lon="4.68106">
        <ele>439.94</ele>
        <time>2010-10-10T07:31:01Z</time>
      </trkpt>
      <trkpt lat="46.96015" lon="4.68114">
        <ele>441.38</ele>
        <time>2010-10-10T07:31:08Z</time>
      </trkpt>
      <trkpt lat="46.96008" lon="4.68116">
        <ele>440.42</ele>
        <time>2010-10-10T07:31:11Z</time>
      </trkpt>
      <trkpt lat="46.96004" lon="4.68118">
        <ele>440.42</ele>
        <time>2010-10-10T07:31:13Z</time>
      </trkpt>
      <trkpt lat="46.95999" lon="4.68151">
        <ele>442.34</ele>
        <time>2010-10-10T07:31:27Z</time>
      </trkpt>
      <trkpt lat="46.95999" lon="4.68159">
        <ele>442.82</ele>
        <time>2010-10-10T07:31:30Z</time>
      </trkpt>
      <trkpt lat="46.95998" lon="4.68169">
        <ele>443.31</ele>
        <time>2010-10-10T07:31:34Z</time>
      </trkpt>
      <trkpt lat="46.96009" lon="4.68201">
        <ele>444.75</ele>
        <time>2010-10-10T07:31:46Z</time>
      </trkpt>
      <trkpt lat="46.96021" lon="4.68221">
        <ele>446.67</ele>
        <time>2010-10-10T07:31:54Z</time>
      </trkpt>
      <trkpt lat="46.96032" lon="4.68235">
        <ele>448.11</ele>
        <time>2010-10-10T07:32:05Z</time>
      </trkpt>
      <trkpt lat="46.96032" lon="4.68236">
        <ele>448.11</ele>
        <time>2010-10-10T07:32:06Z</time>
      </trkpt>
      <trkpt lat="46.96031" lon="4.68238">
        <ele>449.55</ele>
        <time>2010-10-10T07:32:09Z</time>
      </trkpt>
      <trkpt lat="46.96033" lon="4.68241">
        <ele>451</ele>
        <time>2010-10-10T07:32:19Z</time>
      </trkpt>
      <trkpt lat="46.96048" lon="4.68239">
        <ele>452.92</ele>
        <time>2010-10-10T07:32:32Z</time>
      </trkpt>
      <trkpt lat="46.96062" lon="4.68234">
        <ele>455.8</ele>
        <time>2010-10-10T07:32:45Z</time>
      </trkpt>
      <trkpt lat="46.96072" lon="4.68226">
        <ele>458.21</ele>
        <time>2010-10-10T07:32:57Z</time>
      </trkpt>
      <trkpt lat="46.96095" lon="4.68215">
        <ele>460.61</ele>
        <time>2010-10-10T07:33:09Z</time>
      </trkpt>
      <trkpt lat="46.96107" lon="4.68206">
        <ele>463.01</ele>
        <time>2010-10-10T07:33:21Z</time>
      </trkpt>
      <trkpt lat="46.96128" lon="4.68203">
        <ele>464.93</ele>
        <time>2010-10-10T07:33:33Z</time>
      </trkpt>
      <trkpt lat="46.96152" lon="4.68206">
        <ele>465.42</ele>
        <time>2010-10-10T07:33:45Z</time>
      </trkpt>
      <trkpt lat="46.96177" lon="4.68221">
        <ele>466.86</ele>
        <time>2010-10-10T07:33:55Z</time>
      </trkpt>
      <trkpt lat="46.9619" lon="4.68226">
        <ele>467.82</ele>
        <time>2010-10-10T07:34:03Z</time>
      </trkpt>
      <trkpt lat="46.96193" lon="4.68226">
        <ele>469.26</ele>
        <time>2010-10-10T07:34:05Z</time>
      </trkpt>
      <trkpt lat="46.96198" lon="4.68229">
        <ele>469.74</ele>
        <time>2010-10-10T07:34:09Z</time>
      </trkpt>
      <trkpt lat="46.96205" lon="4.68232">
        <ele>470.7</ele>
        <time>2010-10-10T07:34:15Z</time>
      </trkpt>
      <trkpt lat="46.96211" lon="4.68236">
        <ele>471.18</ele>
        <time>2010-10-10T07:34:19Z</time>
      </trkpt>
      <trkpt lat="46.96226" lon="4.68248">
        <ele>471.66</ele>
        <time>2010-10-10T07:34:26Z</time>
      </trkpt>
      <trkpt lat="46.96239" lon="4.68255">
        <ele>472.14</ele>
        <time>2010-10-10T07:34:32Z</time>
      </trkpt>
      <trkpt lat="46.96253" lon="4.68264">
        <ele>473.11</ele>
        <time>2010-10-10T07:34:37Z</time>
      </trkpt>
      <trkpt lat="46.96263" lon="4.68271">
        <ele>472.14</ele>
        <time>2010-10-10T07:34:41Z</time>
      </trkpt>
      <trkpt lat="46.96288" lon="4.68285">
        <ele>471.18</ele>
        <time>2010-10-10T07:34:53Z</time>
      </trkpt>
      <trkpt lat="46.96324" lon="4.68312">
        <ele>469.26</ele>
        <time>2010-10-10T07:35:01Z</time>
      </trkpt>
      <trkpt lat="46.96328" lon="4.68316">
        <ele>468.78</ele>
        <time>2010-10-10T07:35:02Z</time>
      </trkpt>
      <trkpt lat="46.96333" lon="4.6832">
        <ele>468.3</ele>
        <time>2010-10-10T07:35:03Z</time>
      </trkpt>
      <trkpt lat="46.96336" lon="4.68323">
        <ele>467.34</ele>
        <time>2010-10-10T07:35:04Z</time>
      </trkpt>
      <trkpt lat="46.96338" lon="4.68326">
        <ele>467.34</ele>
        <time>2010-10-10T07:35:05Z</time>
      </trkpt>
      <trkpt lat="46.96338" lon="4.6833">
        <ele>467.34</ele>
        <time>2010-10-10T07:35:06Z</time>
      </trkpt>
      <trkpt lat="46.96338" lon="4.68335">
        <ele>467.34</ele>
        <time>2010-10-10T07:35:07Z</time>
      </trkpt>
      <trkpt lat="46.96338" lon="4.6834">
        <ele>467.34</ele>
        <time>2010-10-10T07:35:08Z</time>
      </trkpt>
      <trkpt lat="46.96339" lon="4.68345">
        <ele>466.86</ele>
        <time>2010-10-10T07:35:09Z</time>
      </trkpt>
      <trkpt lat="46.9634" lon="4.6835">
        <ele>466.38</ele>
        <time>2010-10-10T07:35:10Z</time>
      </trkpt>
      <trkpt lat="46.96353" lon="4.68384">
        <ele>465.42</ele>
        <time>2010-10-10T07:35:16Z</time>
      </trkpt>
      <trkpt lat="46.96363" lon="4.68404">
        <ele>462.53</ele>
        <time>2010-10-10T07:35:20Z</time>
      </trkpt>
      <trkpt lat="46.96366" lon="4.68409">
        <ele>462.53</ele>
        <time>2010-10-10T07:35:21Z</time>
      </trkpt>
      <trkpt lat="46.96369" lon="4.68413">
        <ele>461.57</ele>
        <time>2010-10-10T07:35:22Z</time>
      </trkpt>
      <trkpt lat="46.96372" lon="4.68417">
        <ele>461.57</ele>
        <time>2010-10-10T07:35:23Z</time>
      </trkpt>
      <trkpt lat="46.96374" lon="4.68421">
        <ele>461.09</ele>
        <time>2010-10-10T07:35:24Z</time>
      </trkpt>
      <trkpt lat="46.96404" lon="4.68453">
        <ele>457.72</ele>
        <time>2010-10-10T07:35:34Z</time>
      </trkpt>
      <trkpt lat="46.96414" lon="4.6846">
        <ele>456.76</ele>
        <time>2010-10-10T07:35:37Z</time>
      </trkpt>
      <trkpt lat="46.96417" lon="4.68464">
        <ele>455.8</ele>
        <time>2010-10-10T07:35:38Z</time>
      </trkpt>
      <trkpt lat="46.9642" lon="4.68468">
        <ele>455.32</ele>
        <time>2010-10-10T07:35:39Z</time>
      </trkpt>
      <trkpt lat="46.96423" lon="4.68473">
        <ele>454.84</ele>
        <time>2010-10-10T07:35:40Z</time>
      </trkpt>
      <trkpt lat="46.96426" lon="4.68477">
        <ele>454.36</ele>
        <time>2010-10-10T07:35:41Z</time>
      </trkpt>
      <trkpt lat="46.96428" lon="4.6848">
        <ele>453.4</ele>
        <time>2010-10-10T07:35:42Z</time>
      </trkpt>
      <trkpt lat="46.9643" lon="4.68484">
        <ele>452.92</ele>
        <time>2010-10-10T07:35:43Z</time>
      </trkpt>
      <trkpt lat="46.96432" lon="4.68488">
        <ele>452.92</ele>
        <time>2010-10-10T07:35:44Z</time>
      </trkpt>
      <trkpt lat="46.96447" lon="4.68512">
        <ele>450.03</ele>
        <time>2010-10-10T07:35:50Z</time>
      </trkpt>
      <trkpt lat="46.96466" lon="4.68533">
        <ele>447.15</ele>
        <time>2010-10-10T07:35:57Z</time>
      </trkpt>
      <trkpt lat="46.96474" lon="4.68541">
        <ele>445.71</ele>
        <time>2010-10-10T07:36:00Z</time>
      </trkpt>
      <trkpt lat="46.9648" lon="4.68545">
        <ele>444.75</ele>
        <time>2010-10-10T07:36:02Z</time>
      </trkpt>
      <trkpt lat="46.96482" lon="4.68548">
        <ele>444.27</ele>
        <time>2010-10-10T07:36:03Z</time>
      </trkpt>
      <trkpt lat="46.96484" lon="4.6855">
        <ele>443.31</ele>
        <time>2010-10-10T07:36:04Z</time>
      </trkpt>
      <trkpt lat="46.96485" lon="4.68552">
        <ele>443.31</ele>
        <time>2010-10-10T07:36:05Z</time>
      </trkpt>
      <trkpt lat="46.96487" lon="4.68553">
        <ele>442.82</ele>
        <time>2010-10-10T07:36:06Z</time>
      </trkpt>
      <trkpt lat="46.96488" lon="4.68554">
        <ele>444.27</ele>
        <time>2010-10-10T07:36:07Z</time>
      </trkpt>
      <trkpt lat="46.9649" lon="4.68556">
        <ele>441.86</ele>
        <time>2010-10-10T07:36:08Z</time>
      </trkpt>
      <trkpt lat="46.96492" lon="4.68558">
        <ele>442.34</ele>
        <time>2010-10-10T07:36:09Z</time>
      </trkpt>
      <trkpt lat="46.96494" lon="4.68561">
        <ele>442.34</ele>
        <time>2010-10-10T07:36:10Z</time>
      </trkpt>
      <trkpt lat="46.96496" lon="4.68563">
        <ele>441.38</ele>
        <time>2010-10-10T07:36:11Z</time>
      </trkpt>
      <trkpt lat="46.96498" lon="4.68565">
        <ele>442.34</ele>
        <time>2010-10-10T07:36:12Z</time>
      </trkpt>
      <trkpt lat="46.96501" lon="4.68566">
        <ele>441.38</ele>
        <time>2010-10-10T07:36:13Z</time>
      </trkpt>
      <trkpt lat="46.96503" lon="4.68567">
        <ele>441.38</ele>
        <time>2010-10-10T07:36:14Z</time>
      </trkpt>
      <trkpt lat="46.96506" lon="4.6857">
        <ele>441.38</ele>
        <time>2010-10-10T07:36:15Z</time>
      </trkpt>
      <trkpt lat="46.96509" lon="4.68573">
        <ele>440.42</ele>
        <time>2010-10-10T07:36:16Z</time>
      </trkpt>
      <trkpt lat="46.96517" lon="4.68585">
        <ele>438.98</ele>
        <time>2010-10-10T07:36:19Z</time>
      </trkpt>
      <trkpt lat="46.96538" lon="4.6861">
        <ele>436.1</ele>
        <time>2010-10-10T07:36:27Z</time>
      </trkpt>
      <trkpt lat="46.96548" lon="4.68616">
        <ele>435.13</ele>
        <time>2010-10-10T07:36:30Z</time>
      </trkpt>
      <trkpt lat="46.96551" lon="4.6862">
        <ele>435.13</ele>
        <time>2010-10-10T07:36:31Z</time>
      </trkpt>
      <trkpt lat="46.96571" lon="4.68637">
        <ele>432.73</ele>
        <time>2010-10-10T07:36:37Z</time>
      </trkpt>
      <trkpt lat="46.96575" lon="4.6864">
        <ele>432.73</ele>
        <time>2010-10-10T07:36:39Z</time>
      </trkpt>
      <trkpt lat="46.96577" lon="4.68641">
        <ele>432.73</ele>
        <time>2010-10-10T07:36:40Z</time>
      </trkpt>
      <trkpt lat="46.96579" lon="4.68642">
        <ele>432.25</ele>
        <time>2010-10-10T07:36:41Z</time>
      </trkpt>
      <trkpt lat="46.96582" lon="4.68645">
        <ele>431.29</ele>
        <time>2010-10-10T07:36:42Z</time>
      </trkpt>
      <trkpt lat="46.96585" lon="4.68647">
        <ele>430.33</ele>
        <time>2010-10-10T07:36:43Z</time>
      </trkpt>
      <trkpt lat="46.96587" lon="4.6865">
        <ele>430.81</ele>
        <time>2010-10-10T07:36:44Z</time>
      </trkpt>
      <trkpt lat="46.9659" lon="4.68652">
        <ele>430.81</ele>
        <time>2010-10-10T07:36:45Z</time>
      </trkpt>
      <trkpt lat="46.96592" lon="4.68654">
        <ele>431.29</ele>
        <time>2010-10-10T07:36:46Z</time>
      </trkpt>
      <trkpt lat="46.96594" lon="4.68657">
        <ele>430.81</ele>
        <time>2010-10-10T07:36:47Z</time>
      </trkpt>
      <trkpt lat="46.96597" lon="4.68661">
        <ele>430.81</ele>
        <time>2010-10-10T07:36:48Z</time>
      </trkpt>
      <trkpt lat="46.96607" lon="4.68668">
        <ele>428.4</ele>
        <time>2010-10-10T07:36:51Z</time>
      </trkpt>
      <trkpt lat="46.96637" lon="4.68688">
        <ele>425.52</ele>
        <time>2010-10-10T07:37:01Z</time>
      </trkpt>
      <trkpt lat="46.96653" lon="4.68703">
        <ele>424.56</ele>
        <time>2010-10-10T07:37:06Z</time>
      </trkpt>
      <trkpt lat="46.96654" lon="4.68707">
        <ele>425.04</ele>
        <time>2010-10-10T07:37:07Z</time>
      </trkpt>
      <trkpt lat="46.96654" lon="4.68711">
        <ele>426</ele>
        <time>2010-10-10T07:37:08Z</time>
      </trkpt>
      <trkpt lat="46.96654" lon="4.68714">
        <ele>425.04</ele>
        <time>2010-10-10T07:37:09Z</time>
      </trkpt>
      <trkpt lat="46.96653" lon="4.68718">
        <ele>424.56</ele>
        <time>2010-10-10T07:37:10Z</time>
      </trkpt>
      <trkpt lat="46.96653" lon="4.68722">
        <ele>425.52</ele>
        <time>2010-10-10T07:37:11Z</time>
      </trkpt>
      <trkpt lat="46.96654" lon="4.68739">
        <ele>424.56</ele>
        <time>2010-10-10T07:37:15Z</time>
      </trkpt>
      <trkpt lat="46.96657" lon="4.68742">
        <ele>423.6</ele>
        <time>2010-10-10T07:37:16Z</time>
      </trkpt>
      <trkpt lat="46.96659" lon="4.68745">
        <ele>423.6</ele>
        <time>2010-10-10T07:37:17Z</time>
      </trkpt>
      <trkpt lat="46.96662" lon="4.68748">
        <ele>423.6</ele>
        <time>2010-10-10T07:37:18Z</time>
      </trkpt>
      <trkpt lat="46.96664" lon="4.68751">
        <ele>424.08</ele>
        <time>2010-10-10T07:37:19Z</time>
      </trkpt>
      <trkpt lat="46.96667" lon="4.68754">
        <ele>423.12</ele>
        <time>2010-10-10T07:37:20Z</time>
      </trkpt>
      <trkpt lat="46.96669" lon="4.68756">
        <ele>422.64</ele>
        <time>2010-10-10T07:37:21Z</time>
      </trkpt>
      <trkpt lat="46.96671" lon="4.68759">
        <ele>424.08</ele>
        <time>2010-10-10T07:37:22Z</time>
      </trkpt>
      <trkpt lat="46.96673" lon="4.68763">
        <ele>423.6</ele>
        <time>2010-10-10T07:37:23Z</time>
      </trkpt>
      <trkpt lat="46.96676" lon="4.68766">
        <ele>424.08</ele>
        <time>2010-10-10T07:37:24Z</time>
      </trkpt>
      <trkpt lat="46.96692" lon="4.68794">
        <ele>421.68</ele>
        <time>2010-10-10T07:37:31Z</time>
      </trkpt>
      <trkpt lat="46.967" lon="4.68811">
        <ele>423.12</ele>
        <time>2010-10-10T07:37:35Z</time>
      </trkpt>
      <trkpt lat="46.96713" lon="4.6883">
        <ele>421.19</ele>
        <time>2010-10-10T07:37:40Z</time>
      </trkpt>
      <trkpt lat="46.96733" lon="4.68855">
        <ele>418.79</ele>
        <time>2010-10-10T07:37:48Z</time>
      </trkpt>
      <trkpt lat="46.96758" lon="4.68887">
        <ele>415.91</ele>
        <time>2010-10-10T07:37:59Z</time>
      </trkpt>
      <trkpt lat="46.96772" lon="4.68902">
        <ele>415.43</ele>
        <time>2010-10-10T07:38:05Z</time>
      </trkpt>
      <trkpt lat="46.96781" lon="4.68913">
        <ele>413.98</ele>
        <time>2010-10-10T07:38:10Z</time>
      </trkpt>
      <trkpt lat="46.96792" lon="4.68924">
        <ele>412.54</ele>
        <time>2010-10-10T07:38:15Z</time>
      </trkpt>
      <trkpt lat="46.96804" lon="4.68936">
        <ele>412.06</ele>
        <time>2010-10-10T07:38:20Z</time>
      </trkpt>
      <trkpt lat="46.96812" lon="4.68944">
        <ele>411.58</ele>
        <time>2010-10-10T07:38:24Z</time>
      </trkpt>
      <trkpt lat="46.9682" lon="4.6895">
        <ele>408.22</ele>
        <time>2010-10-10T07:38:28Z</time>
      </trkpt>
      <trkpt lat="46.96824" lon="4.68952">
        <ele>408.22</ele>
        <time>2010-10-10T07:38:30Z</time>
      </trkpt>
      <trkpt lat="46.96826" lon="4.68951">
        <ele>408.22</ele>
        <time>2010-10-10T07:38:31Z</time>
      </trkpt>
      <trkpt lat="46.96828" lon="4.68951">
        <ele>407.74</ele>
        <time>2010-10-10T07:38:32Z</time>
      </trkpt>
      <trkpt lat="46.9683" lon="4.68951">
        <ele>406.77</ele>
        <time>2010-10-10T07:38:33Z</time>
      </trkpt>
      <trkpt lat="46.96831" lon="4.68953">
        <ele>407.74</ele>
        <time>2010-10-10T07:38:34Z</time>
      </trkpt>
      <trkpt lat="46.96833" lon="4.68955">
        <ele>407.26</ele>
        <time>2010-10-10T07:38:35Z</time>
      </trkpt>
      <trkpt lat="46.96835" lon="4.68958">
        <ele>407.74</ele>
        <time>2010-10-10T07:38:36Z</time>
      </trkpt>
      <trkpt lat="46.96837" lon="4.68961">
        <ele>407.26</ele>
        <time>2010-10-10T07:38:37Z</time>
      </trkpt>
      <trkpt lat="46.9684" lon="4.68964">
        <ele>406.77</ele>
        <time>2010-10-10T07:38:38Z</time>
      </trkpt>
      <trkpt lat="46.96842" lon="4.68966">
        <ele>406.29</ele>
        <time>2010-10-10T07:38:39Z</time>
      </trkpt>
      <trkpt lat="46.96845" lon="4.6897">
        <ele>405.33</ele>
        <time>2010-10-10T07:38:40Z</time>
      </trkpt>
      <trkpt lat="46.96856" lon="4.68975">
        <ele>404.37</ele>
        <time>2010-10-10T07:38:44Z</time>
      </trkpt>
      <trkpt lat="46.96866" lon="4.68965">
        <ele>402.93</ele>
        <time>2010-10-10T07:38:48Z</time>
      </trkpt>
      <trkpt lat="46.96885" lon="4.68919">
        <ele>401.49</ele>
        <time>2010-10-10T07:38:59Z</time>
      </trkpt>
      <trkpt lat="46.96901" lon="4.68872">
        <ele>401.01</ele>
        <time>2010-10-10T07:39:08Z</time>
      </trkpt>
      <trkpt lat="46.96907" lon="4.68864">
        <ele>401.49</ele>
        <time>2010-10-10T07:39:10Z</time>
      </trkpt>
      <trkpt lat="46.96915" lon="4.68857">
        <ele>401.01</ele>
        <time>2010-10-10T07:39:12Z</time>
      </trkpt>
      <trkpt lat="46.96919" lon="4.68855">
        <ele>401.01</ele>
        <time>2010-10-10T07:39:13Z</time>
      </trkpt>
      <trkpt lat="46.96932" lon="4.68849">
        <ele>400.53</ele>
        <time>2010-10-10T07:39:16Z</time>
      </trkpt>
      <trkpt lat="46.96936" lon="4.68845">
        <ele>401.01</ele>
        <time>2010-10-10T07:39:17Z</time>
      </trkpt>
      <trkpt lat="46.96944" lon="4.68837">
        <ele>402.45</ele>
        <time>2010-10-10T07:39:20Z</time>
      </trkpt>
      <trkpt lat="46.96946" lon="4.68837">
        <ele>401.01</ele>
        <time>2010-10-10T07:39:21Z</time>
      </trkpt>
      <trkpt lat="46.96949" lon="4.68839">
        <ele>401.01</ele>
        <time>2010-10-10T07:39:22Z</time>
      </trkpt>
      <trkpt lat="46.96953" lon="4.68841">
        <ele>401.01</ele>
        <time>2010-10-10T07:39:23Z</time>
      </trkpt>
      <trkpt lat="46.96956" lon="4.68843">
        <ele>401.01</ele>
        <time>2010-10-10T07:39:24Z</time>
      </trkpt>
      <trkpt lat="46.9696" lon="4.68845">
        <ele>401.49</ele>
        <time>2010-10-10T07:39:25Z</time>
      </trkpt>
      <trkpt lat="46.96964" lon="4.68845">
        <ele>401.97</ele>
        <time>2010-10-10T07:39:26Z</time>
      </trkpt>
      <trkpt lat="46.96968" lon="4.68844">
        <ele>401.49</ele>
        <time>2010-10-10T07:39:27Z</time>
      </trkpt>
      <trkpt lat="46.96972" lon="4.68841">
        <ele>400.05</ele>
        <time>2010-10-10T07:39:28Z</time>
      </trkpt>
      <trkpt lat="46.96975" lon="4.68837">
        <ele>401.49</ele>
        <time>2010-10-10T07:39:29Z</time>
      </trkpt>
      <trkpt lat="46.96979" lon="4.68833">
        <ele>401.01</ele>
        <time>2010-10-10T07:39:30Z</time>
      </trkpt>
      <trkpt lat="46.96982" lon="4.68828">
        <ele>399.57</ele>
        <time>2010-10-10T07:39:31Z</time>
      </trkpt>
      <trkpt lat="46.96986" lon="4.68824">
        <ele>400.05</ele>
        <time>2010-10-10T07:39:32Z</time>
      </trkpt>
      <trkpt lat="46.96991" lon="4.68822">
        <ele>398.6</ele>
        <time>2010-10-10T07:39:33Z</time>
      </trkpt>
      <trkpt lat="46.96996" lon="4.68821">
        <ele>399.08</ele>
        <time>2010-10-10T07:39:34Z</time>
      </trkpt>
      <trkpt lat="46.97" lon="4.68822">
        <ele>398.12</ele>
        <time>2010-10-10T07:39:35Z</time>
      </trkpt>
      <trkpt lat="46.97006" lon="4.68822">
        <ele>397.64</ele>
        <time>2010-10-10T07:39:36Z</time>
      </trkpt>
      <trkpt lat="46.97011" lon="4.68822">
        <ele>395.72</ele>
        <time>2010-10-10T07:39:37Z</time>
      </trkpt>
      <trkpt lat="46.97017" lon="4.68822">
        <ele>395.24</ele>
        <time>2010-10-10T07:39:38Z</time>
      </trkpt>
      <trkpt lat="46.97022" lon="4.6882">
        <ele>394.28</ele>
        <time>2010-10-10T07:39:39Z</time>
      </trkpt>
      <trkpt lat="46.97026" lon="4.68819">
        <ele>394.28</ele>
        <time>2010-10-10T07:39:40Z</time>
      </trkpt>
      <trkpt lat="46.97031" lon="4.6882">
        <ele>392.84</ele>
        <time>2010-10-10T07:39:41Z</time>
      </trkpt>
      <trkpt lat="46.97035" lon="4.68821">
        <ele>392.84</ele>
        <time>2010-10-10T07:39:42Z</time>
      </trkpt>
      <trkpt lat="46.97043" lon="4.68824">
        <ele>391.87</ele>
        <time>2010-10-10T07:39:45Z</time>
      </trkpt>
      <trkpt lat="46.97045" lon="4.68822">
        <ele>391.39</ele>
        <time>2010-10-10T07:39:46Z</time>
      </trkpt>
      <trkpt lat="46.97046" lon="4.6882">
        <ele>391.39</ele>
        <time>2010-10-10T07:39:47Z</time>
      </trkpt>
      <trkpt lat="46.97047" lon="4.68817">
        <ele>390.43</ele>
        <time>2010-10-10T07:39:48Z</time>
      </trkpt>
      <trkpt lat="46.97047" lon="4.68813">
        <ele>390.43</ele>
        <time>2010-10-10T07:39:49Z</time>
      </trkpt>
      <trkpt lat="46.97046" lon="4.68808">
        <ele>390.43</ele>
        <time>2010-10-10T07:39:50Z</time>
      </trkpt>
      <trkpt lat="46.97039" lon="4.68778">
        <ele>388.51</ele>
        <time>2010-10-10T07:39:55Z</time>
      </trkpt>
      <trkpt lat="46.97036" lon="4.68771">
        <ele>388.03</ele>
        <time>2010-10-10T07:39:56Z</time>
      </trkpt>
      <trkpt lat="46.97033" lon="4.68765">
        <ele>388.03</ele>
        <time>2010-10-10T07:39:57Z</time>
      </trkpt>
      <trkpt lat="46.9703" lon="4.6876">
        <ele>387.55</ele>
        <time>2010-10-10T07:39:58Z</time>
      </trkpt>
      <trkpt lat="46.97026" lon="4.68754">
        <ele>387.07</ele>
        <time>2010-10-10T07:39:59Z</time>
      </trkpt>
      <trkpt lat="46.97022" lon="4.68749">
        <ele>386.59</ele>
        <time>2010-10-10T07:40:00Z</time>
      </trkpt>
      <trkpt lat="46.97019" lon="4.68743">
        <ele>386.11</ele>
        <time>2010-10-10T07:40:01Z</time>
      </trkpt>
      <trkpt lat="46.96992" lon="4.68705">
        <ele>386.59</ele>
        <time>2010-10-10T07:40:08Z</time>
      </trkpt>
      <trkpt lat="46.9699" lon="4.68699">
        <ele>386.59</ele>
        <time>2010-10-10T07:40:09Z</time>
      </trkpt>
      <trkpt lat="46.96988" lon="4.68692">
        <ele>386.59</ele>
        <time>2010-10-10T07:40:10Z</time>
      </trkpt>
      <trkpt lat="46.96988" lon="4.68685">
        <ele>386.11</ele>
        <time>2010-10-10T07:40:11Z</time>
      </trkpt>
      <trkpt lat="46.96987" lon="4.68679">
        <ele>386.59</ele>
        <time>2010-10-10T07:40:12Z</time>
      </trkpt>
      <trkpt lat="46.96987" lon="4.68673">
        <ele>386.59</ele>
        <time>2010-10-10T07:40:13Z</time>
      </trkpt>
      <trkpt lat="46.96987" lon="4.68666">
        <ele>386.59</ele>
        <time>2010-10-10T07:40:14Z</time>
      </trkpt>
      <trkpt lat="46.96988" lon="4.6866">
        <ele>387.55</ele>
        <time>2010-10-10T07:40:15Z</time>
      </trkpt>
      <trkpt lat="46.96989" lon="4.68654">
        <ele>387.55</ele>
        <time>2010-10-10T07:40:16Z</time>
      </trkpt>
      <trkpt lat="46.96996" lon="4.6861">
        <ele>389.47</ele>
        <time>2010-10-10T07:40:27Z</time>
      </trkpt>
      <trkpt lat="46.96998" lon="4.68596">
        <ele>392.36</ele>
        <time>2010-10-10T07:40:32Z</time>
      </trkpt>
      <trkpt lat="46.97001" lon="4.68576">
        <ele>393.32</ele>
        <time>2010-10-10T07:40:39Z</time>
      </trkpt>
      <trkpt lat="46.97004" lon="4.68553">
        <ele>396.68</ele>
        <time>2010-10-10T07:40:47Z</time>
      </trkpt>
      <trkpt lat="46.97005" lon="4.6855">
        <ele>395.72</ele>
        <time>2010-10-10T07:40:48Z</time>
      </trkpt>
      <trkpt lat="46.9701" lon="4.6851">
        <ele>398.6</ele>
        <time>2010-10-10T07:41:02Z</time>
      </trkpt>
      <trkpt lat="46.97007" lon="4.68462">
        <ele>401.01</ele>
        <time>2010-10-10T07:41:18Z</time>
      </trkpt>
      <trkpt lat="46.97003" lon="4.68423">
        <ele>404.37</ele>
        <time>2010-10-10T07:41:33Z</time>
      </trkpt>
      <trkpt lat="46.97" lon="4.68388">
        <ele>408.7</ele>
        <time>2010-10-10T07:41:47Z</time>
      </trkpt>
      <trkpt lat="46.96999" lon="4.68367">
        <ele>410.62</ele>
        <time>2010-10-10T07:41:56Z</time>
      </trkpt>
      <trkpt lat="46.96997" lon="4.68353">
        <ele>413.02</ele>
        <time>2010-10-10T07:42:02Z</time>
      </trkpt>
      <trkpt lat="46.96996" lon="4.68351">
        <ele>412.54</ele>
        <time>2010-10-10T07:42:03Z</time>
      </trkpt>
      <trkpt lat="46.96996" lon="4.68348">
        <ele>413.5</ele>
        <time>2010-10-10T07:42:04Z</time>
      </trkpt>
      <trkpt lat="46.96995" lon="4.68346">
        <ele>413.98</ele>
        <time>2010-10-10T07:42:05Z</time>
      </trkpt>
      <trkpt lat="46.96995" lon="4.68343">
        <ele>413.98</ele>
        <time>2010-10-10T07:42:06Z</time>
      </trkpt>
      <trkpt lat="46.96994" lon="4.68341">
        <ele>413.5</ele>
        <time>2010-10-10T07:42:07Z</time>
      </trkpt>
      <trkpt lat="46.96994" lon="4.68339">
        <ele>414.95</ele>
        <time>2010-10-10T07:42:08Z</time>
      </trkpt>
      <trkpt lat="46.96993" lon="4.68313">
        <ele>417.83</ele>
        <time>2010-10-10T07:42:19Z</time>
      </trkpt>
      <trkpt lat="46.96995" lon="4.68306">
        <ele>418.31</ele>
        <time>2010-10-10T07:42:22Z</time>
      </trkpt>
      <trkpt lat="46.96996" lon="4.68305">
        <ele>418.79</ele>
        <time>2010-10-10T07:42:23Z</time>
      </trkpt>
      <trkpt lat="46.96998" lon="4.68304">
        <ele>417.83</ele>
        <time>2010-10-10T07:42:24Z</time>
      </trkpt>
      <trkpt lat="46.96999" lon="4.68302">
        <ele>418.79</ele>
        <time>2010-10-10T07:42:25Z</time>
      </trkpt>
      <trkpt lat="46.97001" lon="4.68301">
        <ele>418.79</ele>
        <time>2010-10-10T07:42:26Z</time>
      </trkpt>
      <trkpt lat="46.97003" lon="4.683">
        <ele>418.79</ele>
        <time>2010-10-10T07:42:27Z</time>
      </trkpt>
      <trkpt lat="46.97035" lon="4.68282">
        <ele>421.19</ele>
        <time>2010-10-10T07:42:43Z</time>
      </trkpt>
      <trkpt lat="46.97077" lon="4.68262">
        <ele>423.12</ele>
        <time>2010-10-10T07:43:00Z</time>
      </trkpt>
      <trkpt lat="46.971" lon="4.68238">
        <ele>426.48</ele>
        <time>2010-10-10T07:43:13Z</time>
      </trkpt>
      <trkpt lat="46.9712" lon="4.68208">
        <ele>429.37</ele>
        <time>2010-10-10T07:43:28Z</time>
      </trkpt>
      <trkpt lat="46.9714" lon="4.68173">
        <ele>431.77</ele>
        <time>2010-10-10T07:43:44Z</time>
      </trkpt>
      <trkpt lat="46.9716" lon="4.68134">
        <ele>434.65</ele>
        <time>2010-10-10T07:44:01Z</time>
      </trkpt>
      <trkpt lat="46.97178" lon="4.68104">
        <ele>437.54</ele>
        <time>2010-10-10T07:44:16Z</time>
      </trkpt>
      <trkpt lat="46.97193" lon="4.68083">
        <ele>440.42</ele>
        <time>2010-10-10T07:44:29Z</time>
      </trkpt>
      <trkpt lat="46.97209" lon="4.68062">
        <ele>443.31</ele>
        <time>2010-10-10T07:44:45Z</time>
      </trkpt>
      <trkpt lat="46.9722" lon="4.68047">
        <ele>446.19</ele>
        <time>2010-10-10T07:44:56Z</time>
      </trkpt>
      <trkpt lat="46.97236" lon="4.68033">
        <ele>449.07</ele>
        <time>2010-10-10T07:45:10Z</time>
      </trkpt>
      <trkpt lat="46.97242" lon="4.68029">
        <ele>450.03</ele>
        <time>2010-10-10T07:45:15Z</time>
      </trkpt>
      <trkpt lat="46.97243" lon="4.68029">
        <ele>450.52</ele>
        <time>2010-10-10T07:45:16Z</time>
      </trkpt>
      <trkpt lat="46.97244" lon="4.68028">
        <ele>450.52</ele>
        <time>2010-10-10T07:45:17Z</time>
      </trkpt>
      <trkpt lat="46.97245" lon="4.68028">
        <ele>450.52</ele>
        <time>2010-10-10T07:45:18Z</time>
      </trkpt>
      <trkpt lat="46.97247" lon="4.68027">
        <ele>451</ele>
        <time>2010-10-10T07:45:19Z</time>
      </trkpt>
      <trkpt lat="46.9726" lon="4.68018">
        <ele>452.44</ele>
        <time>2010-10-10T07:45:29Z</time>
      </trkpt>
      <trkpt lat="46.97261" lon="4.68016">
        <ele>452.92</ele>
        <time>2010-10-10T07:45:30Z</time>
      </trkpt>
      <trkpt lat="46.97262" lon="4.68015">
        <ele>452.92</ele>
        <time>2010-10-10T07:45:31Z</time>
      </trkpt>
      <trkpt lat="46.97263" lon="4.68013">
        <ele>452.92</ele>
        <time>2010-10-10T07:45:32Z</time>
      </trkpt>
      <trkpt lat="46.97264" lon="4.68011">
        <ele>453.4</ele>
        <time>2010-10-10T07:45:33Z</time>
      </trkpt>
      <trkpt lat="46.97276" lon="4.67991">
        <ele>456.28</ele>
        <time>2010-10-10T07:45:46Z</time>
      </trkpt>
      <trkpt lat="46.97286" lon="4.67969">
        <ele>459.17</ele>
        <time>2010-10-10T07:46:00Z</time>
      </trkpt>
      <trkpt lat="46.97293" lon="4.67946">
        <ele>462.53</ele>
        <time>2010-10-10T07:46:14Z</time>
      </trkpt>
      <trkpt lat="46.97298" lon="4.67921">
        <ele>465.9</ele>
        <time>2010-10-10T07:46:29Z</time>
      </trkpt>
      <trkpt lat="46.97299" lon="4.67909">
        <ele>466.86</ele>
        <time>2010-10-10T07:46:36Z</time>
      </trkpt>
      <trkpt lat="46.97299" lon="4.67907">
        <ele>467.34</ele>
        <time>2010-10-10T07:46:37Z</time>
      </trkpt>
      <trkpt lat="46.97299" lon="4.67905">
        <ele>467.82</ele>
        <time>2010-10-10T07:46:38Z</time>
      </trkpt>
      <trkpt lat="46.97299" lon="4.67904">
        <ele>467.82</ele>
        <time>2010-10-10T07:46:39Z</time>
      </trkpt>
      <trkpt lat="46.973" lon="4.67902">
        <ele>467.82</ele>
        <time>2010-10-10T07:46:40Z</time>
      </trkpt>
      <trkpt lat="46.973" lon="4.679">
        <ele>468.3</ele>
        <time>2010-10-10T07:46:41Z</time>
      </trkpt>
      <trkpt lat="46.973" lon="4.67898">
        <ele>468.3</ele>
        <time>2010-10-10T07:46:42Z</time>
      </trkpt>
      <trkpt lat="46.973" lon="4.67897">
        <ele>468.78</ele>
        <time>2010-10-10T07:46:43Z</time>
      </trkpt>
      <trkpt lat="46.973" lon="4.67895">
        <ele>468.78</ele>
        <time>2010-10-10T07:46:44Z</time>
      </trkpt>
      <trkpt lat="46.97301" lon="4.67893">
        <ele>468.78</ele>
        <time>2010-10-10T07:46:45Z</time>
      </trkpt>
      <trkpt lat="46.97301" lon="4.67891">
        <ele>469.26</ele>
        <time>2010-10-10T07:46:46Z</time>
      </trkpt>
      <trkpt lat="46.97312" lon="4.67869">
        <ele>472.14</ele>
        <time>2010-10-10T07:47:00Z</time>
      </trkpt>
      <trkpt lat="46.97326" lon="4.67847">
        <ele>475.03</ele>
        <time>2010-10-10T07:47:16Z</time>
      </trkpt>
      <trkpt lat="46.97335" lon="4.67835">
        <ele>476.95</ele>
        <time>2010-10-10T07:47:25Z</time>
      </trkpt>
      <trkpt lat="46.97338" lon="4.67831">
        <ele>476.95</ele>
        <time>2010-10-10T07:47:28Z</time>
      </trkpt>
      <trkpt lat="46.97339" lon="4.6783">
        <ele>477.43</ele>
        <time>2010-10-10T07:47:29Z</time>
      </trkpt>
      <trkpt lat="46.97352" lon="4.67811">
        <ele>479.84</ele>
        <time>2010-10-10T07:47:42Z</time>
      </trkpt>
      <trkpt lat="46.97353" lon="4.6781">
        <ele>479.84</ele>
        <time>2010-10-10T07:47:43Z</time>
      </trkpt>
      <trkpt lat="46.97354" lon="4.67808">
        <ele>479.35</ele>
        <time>2010-10-10T07:47:44Z</time>
      </trkpt>
      <trkpt lat="46.97355" lon="4.67807">
        <ele>479.84</ele>
        <time>2010-10-10T07:47:45Z</time>
      </trkpt>
      <trkpt lat="46.97356" lon="4.67806">
        <ele>479.84</ele>
        <time>2010-10-10T07:47:46Z</time>
      </trkpt>
      <trkpt lat="46.97357" lon="4.67804">
        <ele>480.32</ele>
        <time>2010-10-10T07:47:47Z</time>
      </trkpt>
      <trkpt lat="46.97359" lon="4.67802">
        <ele>480.32</ele>
        <time>2010-10-10T07:47:49Z</time>
      </trkpt>
      <trkpt lat="46.97359" lon="4.678">
        <ele>480.32</ele>
        <time>2010-10-10T07:47:50Z</time>
      </trkpt>
      <trkpt lat="46.97366" lon="4.67782">
        <ele>483.68</ele>
        <time>2010-10-10T07:48:00Z</time>
      </trkpt>
      <trkpt lat="46.97375" lon="4.67765">
        <ele>486.08</ele>
        <time>2010-10-10T07:48:12Z</time>
      </trkpt>
      <trkpt lat="46.97376" lon="4.67764">
        <ele>486.08</ele>
        <time>2010-10-10T07:48:13Z</time>
      </trkpt>
      <trkpt lat="46.97376" lon="4.67763">
        <ele>486.56</ele>
        <time>2010-10-10T07:48:14Z</time>
      </trkpt>
      <trkpt lat="46.97377" lon="4.67761">
        <ele>486.56</ele>
        <time>2010-10-10T07:48:15Z</time>
      </trkpt>
      <trkpt lat="46.97382" lon="4.67758">
        <ele>488.97</ele>
        <time>2010-10-10T07:48:21Z</time>
      </trkpt>
      <trkpt lat="46.97384" lon="4.67757">
        <ele>488.97</ele>
        <time>2010-10-10T07:48:22Z</time>
      </trkpt>
      <trkpt lat="46.9739" lon="4.67752">
        <ele>490.41</ele>
        <time>2010-10-10T07:48:29Z</time>
      </trkpt>
      <trkpt lat="46.97403" lon="4.67753">
        <ele>491.85</ele>
        <time>2010-10-10T07:48:38Z</time>
      </trkpt>
      <trkpt lat="46.97427" lon="4.67755">
        <ele>493.77</ele>
        <time>2010-10-10T07:48:53Z</time>
      </trkpt>
      <trkpt lat="46.97447" lon="4.67752">
        <ele>495.22</ele>
        <time>2010-10-10T07:49:04Z</time>
      </trkpt>
      <trkpt lat="46.97462" lon="4.67747">
        <ele>496.66</ele>
        <time>2010-10-10T07:49:15Z</time>
      </trkpt>
      <trkpt lat="46.97474" lon="4.67742">
        <ele>497.14</ele>
        <time>2010-10-10T07:49:22Z</time>
      </trkpt>
      <trkpt lat="46.97475" lon="4.67741">
        <ele>497.62</ele>
        <time>2010-10-10T07:49:23Z</time>
      </trkpt>
      <trkpt lat="46.97477" lon="4.6774">
        <ele>498.1</ele>
        <time>2010-10-10T07:49:24Z</time>
      </trkpt>
      <trkpt lat="46.97478" lon="4.6774">
        <ele>497.62</ele>
        <time>2010-10-10T07:49:25Z</time>
      </trkpt>
      <trkpt lat="46.97479" lon="4.6774">
        <ele>498.1</ele>
        <time>2010-10-10T07:49:26Z</time>
      </trkpt>
      <trkpt lat="46.97481" lon="4.67739">
        <ele>498.1</ele>
        <time>2010-10-10T07:49:27Z</time>
      </trkpt>
      <trkpt lat="46.97484" lon="4.67738">
        <ele>498.1</ele>
        <time>2010-10-10T07:49:28Z</time>
      </trkpt>
      <trkpt lat="46.975" lon="4.67733">
        <ele>498.1</ele>
        <time>2010-10-10T07:49:36Z</time>
      </trkpt>
      <trkpt lat="46.97504" lon="4.67734">
        <ele>497.62</ele>
        <time>2010-10-10T07:49:37Z</time>
      </trkpt>
      <trkpt lat="46.97529" lon="4.67748">
        <ele>496.66</ele>
        <time>2010-10-10T07:49:42Z</time>
      </trkpt>
      <trkpt lat="46.97535" lon="4.67753">
        <ele>496.66</ele>
        <time>2010-10-10T07:49:43Z</time>
      </trkpt>
      <trkpt lat="46.97552" lon="4.67773">
        <ele>495.7</ele>
        <time>2010-10-10T07:49:46Z</time>
      </trkpt>
      <trkpt lat="46.9758" lon="4.67782">
        <ele>493.77</ele>
        <time>2010-10-10T07:49:52Z</time>
      </trkpt>
      <trkpt lat="46.97584" lon="4.67782">
        <ele>493.77</ele>
        <time>2010-10-10T07:49:53Z</time>
      </trkpt>
      <trkpt lat="46.97589" lon="4.67783">
        <ele>494.26</ele>
        <time>2010-10-10T07:49:54Z</time>
      </trkpt>
      <trkpt lat="46.97598" lon="4.67787">
        <ele>494.26</ele>
        <time>2010-10-10T07:49:56Z</time>
      </trkpt>
      <trkpt lat="46.97603" lon="4.67789">
        <ele>493.29</ele>
        <time>2010-10-10T07:49:57Z</time>
      </trkpt>
      <trkpt lat="46.97608" lon="4.6779">
        <ele>493.77</ele>
        <time>2010-10-10T07:49:58Z</time>
      </trkpt>
      <trkpt lat="46.97622" lon="4.67792">
        <ele>493.29</ele>
        <time>2010-10-10T07:50:01Z</time>
      </trkpt>
      <trkpt lat="46.97627" lon="4.67791">
        <ele>493.29</ele>
        <time>2010-10-10T07:50:02Z</time>
      </trkpt>
      <trkpt lat="46.9765" lon="4.6779">
        <ele>493.29</ele>
        <time>2010-10-10T07:50:07Z</time>
      </trkpt>
      <trkpt lat="46.97661" lon="4.67791">
        <ele>492.81</ele>
        <time>2010-10-10T07:50:09Z</time>
      </trkpt>
      <trkpt lat="46.97667" lon="4.67791">
        <ele>492.81</ele>
        <time>2010-10-10T07:50:10Z</time>
      </trkpt>
      <trkpt lat="46.97672" lon="4.67789">
        <ele>492.81</ele>
        <time>2010-10-10T07:50:11Z</time>
      </trkpt>
      <trkpt lat="46.97687" lon="4.67782">
        <ele>494.26</ele>
        <time>2010-10-10T07:50:15Z</time>
      </trkpt>
      <trkpt lat="46.9769" lon="4.6778">
        <ele>494.26</ele>
        <time>2010-10-10T07:50:16Z</time>
      </trkpt>
      <trkpt lat="46.97709" lon="4.67772">
        <ele>494.26</ele>
        <time>2010-10-10T07:50:21Z</time>
      </trkpt>
      <trkpt lat="46.97714" lon="4.67771">
        <ele>494.74</ele>
        <time>2010-10-10T07:50:22Z</time>
      </trkpt>
      <trkpt lat="46.97717" lon="4.67771">
        <ele>494.26</ele>
        <time>2010-10-10T07:50:23Z</time>
      </trkpt>
      <trkpt lat="46.97737" lon="4.67767">
        <ele>496.66</ele>
        <time>2010-10-10T07:50:30Z</time>
      </trkpt>
      <trkpt lat="46.97744" lon="4.67764">
        <ele>497.62</ele>
        <time>2010-10-10T07:50:35Z</time>
      </trkpt>
      <trkpt lat="46.97747" lon="4.67762">
        <ele>498.1</ele>
        <time>2010-10-10T07:50:36Z</time>
      </trkpt>
      <trkpt lat="46.97766" lon="4.67757">
        <ele>500.5</ele>
        <time>2010-10-10T07:50:46Z</time>
      </trkpt>
      <trkpt lat="46.97787" lon="4.67758">
        <ele>502.91</ele>
        <time>2010-10-10T07:50:55Z</time>
      </trkpt>
      <trkpt lat="46.97796" lon="4.67762">
        <ele>504.83</ele>
        <time>2010-10-10T07:51:00Z</time>
      </trkpt>
      <trkpt lat="46.97797" lon="4.67764">
        <ele>505.31</ele>
        <time>2010-10-10T07:51:01Z</time>
      </trkpt>
      <trkpt lat="46.97798" lon="4.67766">
        <ele>505.79</ele>
        <time>2010-10-10T07:51:02Z</time>
      </trkpt>
      <trkpt lat="46.97799" lon="4.67768">
        <ele>505.79</ele>
        <time>2010-10-10T07:51:03Z</time>
      </trkpt>
      <trkpt lat="46.97799" lon="4.6777">
        <ele>505.79</ele>
        <time>2010-10-10T07:51:04Z</time>
      </trkpt>
      <trkpt lat="46.97799" lon="4.67772">
        <ele>506.27</ele>
        <time>2010-10-10T07:51:05Z</time>
      </trkpt>
      <trkpt lat="46.97799" lon="4.67774">
        <ele>506.27</ele>
        <time>2010-10-10T07:51:06Z</time>
      </trkpt>
      <trkpt lat="46.978" lon="4.67777">
        <ele>507.23</ele>
        <time>2010-10-10T07:51:07Z</time>
      </trkpt>
      <trkpt lat="46.97803" lon="4.6778">
        <ele>507.23</ele>
        <time>2010-10-10T07:51:08Z</time>
      </trkpt>
      <trkpt lat="46.97805" lon="4.67783">
        <ele>507.71</ele>
        <time>2010-10-10T07:51:09Z</time>
      </trkpt>
      <trkpt lat="46.97812" lon="4.678">
        <ele>508.67</ele>
        <time>2010-10-10T07:51:21Z</time>
      </trkpt>
      <trkpt lat="46.97813" lon="4.67802">
        <ele>509.64</ele>
        <time>2010-10-10T07:51:22Z</time>
      </trkpt>
      <trkpt lat="46.97813" lon="4.67803">
        <ele>510.12</ele>
        <time>2010-10-10T07:51:23Z</time>
      </trkpt>
      <trkpt lat="46.97813" lon="4.67805">
        <ele>510.12</ele>
        <time>2010-10-10T07:51:24Z</time>
      </trkpt>
      <trkpt lat="46.97814" lon="4.67807">
        <ele>510.6</ele>
        <time>2010-10-10T07:51:25Z</time>
      </trkpt>
      <trkpt lat="46.97815" lon="4.67808">
        <ele>510.6</ele>
        <time>2010-10-10T07:51:26Z</time>
      </trkpt>
      <trkpt lat="46.97816" lon="4.67809">
        <ele>511.08</ele>
        <time>2010-10-10T07:51:27Z</time>
      </trkpt>
      <trkpt lat="46.97817" lon="4.67811">
        <ele>511.08</ele>
        <time>2010-10-10T07:51:28Z</time>
      </trkpt>
      <trkpt lat="46.97818" lon="4.67813">
        <ele>511.56</ele>
        <time>2010-10-10T07:51:29Z</time>
      </trkpt>
      <trkpt lat="46.97819" lon="4.67816">
        <ele>511.08</ele>
        <time>2010-10-10T07:51:30Z</time>
      </trkpt>
      <trkpt lat="46.9782" lon="4.6782">
        <ele>513</ele>
        <time>2010-10-10T07:51:32Z</time>
      </trkpt>
      <trkpt lat="46.97827" lon="4.67832">
        <ele>513.96</ele>
        <time>2010-10-10T07:51:40Z</time>
      </trkpt>
      <trkpt lat="46.97828" lon="4.67833">
        <ele>513.48</ele>
        <time>2010-10-10T07:51:41Z</time>
      </trkpt>
      <trkpt lat="46.97829" lon="4.67834">
        <ele>514.44</ele>
        <time>2010-10-10T07:51:42Z</time>
      </trkpt>
      <trkpt lat="46.9783" lon="4.67836">
        <ele>514.44</ele>
        <time>2010-10-10T07:51:43Z</time>
      </trkpt>
      <trkpt lat="46.97831" lon="4.67838">
        <ele>513.96</ele>
        <time>2010-10-10T07:51:44Z</time>
      </trkpt>
      <trkpt lat="46.9784" lon="4.6785">
        <ele>516.37</ele>
        <time>2010-10-10T07:51:57Z</time>
      </trkpt>
      <trkpt lat="46.97843" lon="4.67853">
        <ele>517.33</ele>
        <time>2010-10-10T07:52:02Z</time>
      </trkpt>
      <trkpt lat="46.97851" lon="4.67859">
        <ele>520.21</ele>
        <time>2010-10-10T07:52:16Z</time>
      </trkpt>
      <trkpt lat="46.97859" lon="4.67864">
        <ele>522.13</ele>
        <time>2010-10-10T07:52:28Z</time>
      </trkpt>
      <trkpt lat="46.97863" lon="4.67867">
        <ele>523.09</ele>
        <time>2010-10-10T07:52:37Z</time>
      </trkpt>
      <trkpt lat="46.97873" lon="4.67883">
        <ele>525.5</ele>
        <time>2010-10-10T07:52:51Z</time>
      </trkpt>
      <trkpt lat="46.97876" lon="4.67888">
        <ele>525.5</ele>
        <time>2010-10-10T07:53:02Z</time>
      </trkpt>
      <trkpt lat="46.97876" lon="4.6789">
        <ele>526.46</ele>
        <time>2010-10-10T07:53:03Z</time>
      </trkpt>
      <trkpt lat="46.97877" lon="4.67892">
        <ele>526.46</ele>
        <time>2010-10-10T07:53:04Z</time>
      </trkpt>
      <trkpt lat="46.97891" lon="4.67917">
        <ele>529.34</ele>
        <time>2010-10-10T07:53:18Z</time>
      </trkpt>
      <trkpt lat="46.97904" lon="4.67942">
        <ele>530.3</ele>
        <time>2010-10-10T07:53:32Z</time>
      </trkpt>
      <trkpt lat="46.9791" lon="4.67954">
        <ele>531.27</ele>
        <time>2010-10-10T07:53:38Z</time>
      </trkpt>
      <trkpt lat="46.9791" lon="4.67957">
        <ele>531.27</ele>
        <time>2010-10-10T07:53:39Z</time>
      </trkpt>
      <trkpt lat="46.97918" lon="4.67986">
        <ele>532.23</ele>
        <time>2010-10-10T07:53:51Z</time>
      </trkpt>
      <trkpt lat="46.97921" lon="4.67999">
        <ele>533.19</ele>
        <time>2010-10-10T07:53:56Z</time>
      </trkpt>
      <trkpt lat="46.97923" lon="4.68001">
        <ele>533.19</ele>
        <time>2010-10-10T07:53:57Z</time>
      </trkpt>
      <trkpt lat="46.97924" lon="4.68002">
        <ele>533.67</ele>
        <time>2010-10-10T07:53:58Z</time>
      </trkpt>
      <trkpt lat="46.97935" lon="4.68014">
        <ele>534.63</ele>
        <time>2010-10-10T07:54:06Z</time>
      </trkpt>
      <trkpt lat="46.97937" lon="4.68015">
        <ele>534.63</ele>
        <time>2010-10-10T07:54:07Z</time>
      </trkpt>
      <trkpt lat="46.97939" lon="4.68017">
        <ele>535.11</ele>
        <time>2010-10-10T07:54:08Z</time>
      </trkpt>
      <trkpt lat="46.9794" lon="4.68019">
        <ele>535.59</ele>
        <time>2010-10-10T07:54:09Z</time>
      </trkpt>
      <trkpt lat="46.97942" lon="4.68021">
        <ele>535.11</ele>
        <time>2010-10-10T07:54:10Z</time>
      </trkpt>
      <trkpt lat="46.97959" lon="4.68055">
        <ele>537.03</ele>
        <time>2010-10-10T07:54:25Z</time>
      </trkpt>
      <trkpt lat="46.97968" lon="4.68083">
        <ele>537.99</ele>
        <time>2010-10-10T07:54:36Z</time>
      </trkpt>
      <trkpt lat="46.97984" lon="4.68131">
        <ele>538.48</ele>
        <time>2010-10-10T07:54:53Z</time>
      </trkpt>
      <trkpt lat="46.98" lon="4.68185">
        <ele>538.96</ele>
        <time>2010-10-10T07:55:09Z</time>
      </trkpt>
      <trkpt lat="46.98015" lon="4.68235">
        <ele>540.88</ele>
        <time>2010-10-10T07:55:25Z</time>
      </trkpt>
      <trkpt lat="46.98029" lon="4.68276">
        <ele>541.84</ele>
        <time>2010-10-10T07:55:40Z</time>
      </trkpt>
      <trkpt lat="46.98045" lon="4.68323">
        <ele>542.8</ele>
        <time>2010-10-10T07:55:56Z</time>
      </trkpt>
      <trkpt lat="46.98061" lon="4.68387">
        <ele>543.28</ele>
        <time>2010-10-10T07:56:13Z</time>
      </trkpt>
      <trkpt lat="46.98092" lon="4.68454">
        <ele>543.76</ele>
        <time>2010-10-10T07:56:30Z</time>
      </trkpt>
      <trkpt lat="46.98124" lon="4.68495">
        <ele>544.72</ele>
        <time>2010-10-10T07:56:44Z</time>
      </trkpt>
      <trkpt lat="46.98159" lon="4.68541">
        <ele>545.69</ele>
        <time>2010-10-10T07:56:59Z</time>
      </trkpt>
      <trkpt lat="46.98185" lon="4.6859">
        <ele>545.2</ele>
        <time>2010-10-10T07:57:13Z</time>
      </trkpt>
      <trkpt lat="46.98195" lon="4.6863">
        <ele>544.72</ele>
        <time>2010-10-10T07:57:25Z</time>
      </trkpt>
      <trkpt lat="46.98196" lon="4.68629">
        <ele>543.76</ele>
        <time>2010-10-10T07:57:36Z</time>
      </trkpt>
      <trkpt lat="46.98196" lon="4.68629">
        <ele>543.76</ele>
        <time>2010-10-10T07:58:28Z</time>
      </trkpt>
      <trkpt lat="46.98195" lon="4.68629">
        <ele>544.24</ele>
        <time>2010-10-10T07:59:32Z</time>
      </trkpt>
      <trkpt lat="46.98196" lon="4.68629">
        <ele>544.24</ele>
        <time>2010-10-10T08:00:43Z</time>
      </trkpt>
      <trkpt lat="46.98196" lon="4.68629">
        <ele>543.76</ele>
        <time>2010-10-10T08:01:59Z</time>
      </trkpt>
      <trkpt lat="46.98195" lon="4.68629">
        <ele>543.76</ele>
        <time>2010-10-10T08:03:08Z</time>
      </trkpt>
      <trkpt lat="46.98196" lon="4.68629">
        <ele>544.24</ele>
        <time>2010-10-10T08:03:54Z</time>
      </trkpt>
      <trkpt lat="46.98196" lon="4.68629">
        <ele>544.72</ele>
        <time>2010-10-10T08:04:20Z</time>
      </trkpt>
      <trkpt lat="46.98197" lon="4.68622">
        <ele>545.69</ele>
        <time>2010-10-10T08:04:32Z</time>
      </trkpt>
      <trkpt lat="46.98197" lon="4.68622">
        <ele>546.17</ele>
        <time>2010-10-10T08:04:37Z</time>
      </trkpt>
      <trkpt lat="46.98196" lon="4.68621">
        <ele>545.69</ele>
        <time>2010-10-10T08:04:50Z</time>
      </trkpt>
      <trkpt lat="46.98196" lon="4.68621">
        <ele>545.69</ele>
        <time>2010-10-10T08:05:25Z</time>
      </trkpt>
      <trkpt lat="46.98189" lon="4.68606">
        <ele>545.2</ele>
        <time>2010-10-10T08:05:46Z</time>
      </trkpt>
      <trkpt lat="46.98192" lon="4.68594">
        <ele>545.69</ele>
        <time>2010-10-10T08:05:50Z</time>
      </trkpt>
      <trkpt lat="46.9821" lon="4.68554">
        <ele>548.57</ele>
        <time>2010-10-10T08:06:03Z</time>
      </trkpt>
      <trkpt lat="46.9823" lon="4.68509">
        <ele>551.45</ele>
        <time>2010-10-10T08:06:17Z</time>
      </trkpt>
      <trkpt lat="46.98247" lon="4.6847">
        <ele>554.82</ele>
        <time>2010-10-10T08:06:31Z</time>
      </trkpt>
      <trkpt lat="46.98263" lon="4.68431">
        <ele>558.18</ele>
        <time>2010-10-10T08:06:45Z</time>
      </trkpt>
      <trkpt lat="46.98281" lon="4.68388">
        <ele>560.59</ele>
        <time>2010-10-10T08:07:01Z</time>
      </trkpt>
      <trkpt lat="46.98299" lon="4.68349">
        <ele>562.51</ele>
        <time>2010-10-10T08:07:14Z</time>
      </trkpt>
      <trkpt lat="46.9833" lon="4.68285">
        <ele>563.47</ele>
        <time>2010-10-10T08:07:31Z</time>
      </trkpt>
      <trkpt lat="46.98338" lon="4.68261">
        <ele>563.95</ele>
        <time>2010-10-10T08:07:36Z</time>
      </trkpt>
      <trkpt lat="46.98341" lon="4.68256">
        <ele>563.47</ele>
        <time>2010-10-10T08:07:37Z</time>
      </trkpt>
      <trkpt lat="46.98355" lon="4.68236">
        <ele>562.51</ele>
        <time>2010-10-10T08:07:42Z</time>
      </trkpt>
      <trkpt lat="46.98363" lon="4.68229">
        <ele>562.51</ele>
        <time>2010-10-10T08:07:44Z</time>
      </trkpt>
      <trkpt lat="46.98367" lon="4.68226">
        <ele>562.51</ele>
        <time>2010-10-10T08:07:45Z</time>
      </trkpt>
      <trkpt lat="46.98423" lon="4.68182">
        <ele>561.07</ele>
        <time>2010-10-10T08:07:59Z</time>
      </trkpt>
      <trkpt lat="46.98427" lon="4.68179">
        <ele>561.55</ele>
        <time>2010-10-10T08:08:00Z</time>
      </trkpt>
      <trkpt lat="46.98501" lon="4.68125">
        <ele>559.14</ele>
        <time>2010-10-10T08:08:15Z</time>
      </trkpt>
      <trkpt lat="46.98585" lon="4.68068">
        <ele>556.74</ele>
        <time>2010-10-10T08:08:31Z</time>
      </trkpt>
      <trkpt lat="46.98685" lon="4.68048">
        <ele>554.82</ele>
        <time>2010-10-10T08:08:46Z</time>
      </trkpt>
      <trkpt lat="46.98806" lon="4.68023">
        <ele>553.38</ele>
        <time>2010-10-10T08:09:04Z</time>
      </trkpt>
      <trkpt lat="46.98927" lon="4.67997">
        <ele>552.9</ele>
        <time>2010-10-10T08:09:23Z</time>
      </trkpt>
      <trkpt lat="46.98943" lon="4.67995">
        <ele>552.9</ele>
        <time>2010-10-10T08:09:27Z</time>
      </trkpt>
      <trkpt lat="46.98945" lon="4.67997">
        <ele>552.41</ele>
        <time>2010-10-10T08:09:28Z</time>
      </trkpt>
      <trkpt lat="46.98948" lon="4.68001">
        <ele>553.38</ele>
        <time>2010-10-10T08:09:29Z</time>
      </trkpt>
      <trkpt lat="46.98951" lon="4.68004">
        <ele>552.9</ele>
        <time>2010-10-10T08:09:30Z</time>
      </trkpt>
      <trkpt lat="46.98955" lon="4.68008">
        <ele>552.41</ele>
        <time>2010-10-10T08:09:31Z</time>
      </trkpt>
      <trkpt lat="46.98958" lon="4.68013">
        <ele>551.93</ele>
        <time>2010-10-10T08:09:32Z</time>
      </trkpt>
      <trkpt lat="46.98961" lon="4.6802">
        <ele>551.93</ele>
        <time>2010-10-10T08:09:33Z</time>
      </trkpt>
      <trkpt lat="46.98963" lon="4.68028">
        <ele>551.93</ele>
        <time>2010-10-10T08:09:34Z</time>
      </trkpt>
      <trkpt lat="46.98964" lon="4.68037">
        <ele>551.45</ele>
        <time>2010-10-10T08:09:35Z</time>
      </trkpt>
      <trkpt lat="46.98964" lon="4.68046">
        <ele>551.45</ele>
        <time>2010-10-10T08:09:36Z</time>
      </trkpt>
      <trkpt lat="46.98965" lon="4.68055">
        <ele>550.97</ele>
        <time>2010-10-10T08:09:37Z</time>
      </trkpt>
      <trkpt lat="46.98966" lon="4.68065">
        <ele>550.49</ele>
        <time>2010-10-10T08:09:38Z</time>
      </trkpt>
      <trkpt lat="46.98968" lon="4.68074">
        <ele>550.49</ele>
        <time>2010-10-10T08:09:39Z</time>
      </trkpt>
      <trkpt lat="46.9897" lon="4.68084">
        <ele>549.53</ele>
        <time>2010-10-10T08:09:40Z</time>
      </trkpt>
      <trkpt lat="46.98977" lon="4.68132">
        <ele>546.17</ele>
        <time>2010-10-10T08:09:45Z</time>
      </trkpt>
      <trkpt lat="46.98978" lon="4.68141">
        <ele>544.72</ele>
        <time>2010-10-10T08:09:46Z</time>
      </trkpt>
      <trkpt lat="46.9898" lon="4.68151">
        <ele>544.24</ele>
        <time>2010-10-10T08:09:47Z</time>
      </trkpt>
      <trkpt lat="46.98982" lon="4.6816">
        <ele>543.28</ele>
        <time>2010-10-10T08:09:48Z</time>
      </trkpt>
      <trkpt lat="46.98984" lon="4.68168">
        <ele>542.32</ele>
        <time>2010-10-10T08:09:49Z</time>
      </trkpt>
      <trkpt lat="46.98985" lon="4.68177">
        <ele>541.84</ele>
        <time>2010-10-10T08:09:50Z</time>
      </trkpt>
      <trkpt lat="46.98989" lon="4.68194">
        <ele>538.96</ele>
        <time>2010-10-10T08:09:52Z</time>
      </trkpt>
      <trkpt lat="46.98996" lon="4.68228">
        <ele>535.11</ele>
        <time>2010-10-10T08:09:56Z</time>
      </trkpt>
      <trkpt lat="46.99" lon="4.68247">
        <ele>533.67</ele>
        <time>2010-10-10T08:09:58Z</time>
      </trkpt>
      <trkpt lat="46.99001" lon="4.68256">
        <ele>532.23</ele>
        <time>2010-10-10T08:09:59Z</time>
      </trkpt>
      <trkpt lat="46.99001" lon="4.68265">
        <ele>531.27</ele>
        <time>2010-10-10T08:10:00Z</time>
      </trkpt>
      <trkpt lat="46.99001" lon="4.68273">
        <ele>529.82</ele>
        <time>2010-10-10T08:10:01Z</time>
      </trkpt>
      <trkpt lat="46.98999" lon="4.68283">
        <ele>528.86</ele>
        <time>2010-10-10T08:10:02Z</time>
      </trkpt>
      <trkpt lat="46.98997" lon="4.68292">
        <ele>528.86</ele>
        <time>2010-10-10T08:10:03Z</time>
      </trkpt>
      <trkpt lat="46.98994" lon="4.68302">
        <ele>528.38</ele>
        <time>2010-10-10T08:10:04Z</time>
      </trkpt>
      <trkpt lat="46.98992" lon="4.68311">
        <ele>527.42</ele>
        <time>2010-10-10T08:10:05Z</time>
      </trkpt>
      <trkpt lat="46.98987" lon="4.6833">
        <ele>525.5</ele>
        <time>2010-10-10T08:10:07Z</time>
      </trkpt>
      <trkpt lat="46.98984" lon="4.68339">
        <ele>525.02</ele>
        <time>2010-10-10T08:10:08Z</time>
      </trkpt>
      <trkpt lat="46.98981" lon="4.68349">
        <ele>525.02</ele>
        <time>2010-10-10T08:10:09Z</time>
      </trkpt>
      <trkpt lat="46.98978" lon="4.68358">
        <ele>524.54</ele>
        <time>2010-10-10T08:10:10Z</time>
      </trkpt>
      <trkpt lat="46.98974" lon="4.68367">
        <ele>523.09</ele>
        <time>2010-10-10T08:10:11Z</time>
      </trkpt>
      <trkpt lat="46.9897" lon="4.68375">
        <ele>523.09</ele>
        <time>2010-10-10T08:10:12Z</time>
      </trkpt>
      <trkpt lat="46.98965" lon="4.68383">
        <ele>522.61</ele>
        <time>2010-10-10T08:10:13Z</time>
      </trkpt>
      <trkpt lat="46.9896" lon="4.6839">
        <ele>522.13</ele>
        <time>2010-10-10T08:10:14Z</time>
      </trkpt>
      <trkpt lat="46.9895" lon="4.68404">
        <ele>521.17</ele>
        <time>2010-10-10T08:10:16Z</time>
      </trkpt>
      <trkpt lat="46.98945" lon="4.68412">
        <ele>520.69</ele>
        <time>2010-10-10T08:10:17Z</time>
      </trkpt>
      <trkpt lat="46.98941" lon="4.6842">
        <ele>520.21</ele>
        <time>2010-10-10T08:10:18Z</time>
      </trkpt>
      <trkpt lat="46.98913" lon="4.68495">
        <ele>520.21</ele>
        <time>2010-10-10T08:10:26Z</time>
      </trkpt>
      <trkpt lat="46.9891" lon="4.68505">
        <ele>520.69</ele>
        <time>2010-10-10T08:10:27Z</time>
      </trkpt>
      <trkpt lat="46.98899" lon="4.68586">
        <ele>522.61</ele>
        <time>2010-10-10T08:10:37Z</time>
      </trkpt>
      <trkpt lat="46.98896" lon="4.68606">
        <ele>521.17</ele>
        <time>2010-10-10T08:10:40Z</time>
      </trkpt>
      <trkpt lat="46.98896" lon="4.68616">
        <ele>520.21</ele>
        <time>2010-10-10T08:10:41Z</time>
      </trkpt>
      <trkpt lat="46.98898" lon="4.68628">
        <ele>518.77</ele>
        <time>2010-10-10T08:10:42Z</time>
      </trkpt>
      <trkpt lat="46.989" lon="4.68641">
        <ele>518.29</ele>
        <time>2010-10-10T08:10:43Z</time>
      </trkpt>
      <trkpt lat="46.98903" lon="4.68654">
        <ele>516.85</ele>
        <time>2010-10-10T08:10:44Z</time>
      </trkpt>
      <trkpt lat="46.98909" lon="4.68679">
        <ele>513.48</ele>
        <time>2010-10-10T08:10:46Z</time>
      </trkpt>
      <trkpt lat="46.98916" lon="4.68718">
        <ele>510.12</ele>
        <time>2010-10-10T08:10:49Z</time>
      </trkpt>
      <trkpt lat="46.98922" lon="4.68771">
        <ele>505.31</ele>
        <time>2010-10-10T08:10:53Z</time>
      </trkpt>
      <trkpt lat="46.98924" lon="4.68785">
        <ele>503.87</ele>
        <time>2010-10-10T08:10:54Z</time>
      </trkpt>
      <trkpt lat="46.98933" lon="4.68823">
        <ele>500.98</ele>
        <time>2010-10-10T08:10:57Z</time>
      </trkpt>
      <trkpt lat="46.98941" lon="4.68858">
        <ele>497.14</ele>
        <time>2010-10-10T08:11:00Z</time>
      </trkpt>
      <trkpt lat="46.98945" lon="4.6887">
        <ele>496.66</ele>
        <time>2010-10-10T08:11:01Z</time>
      </trkpt>
      <trkpt lat="46.98955" lon="4.68908">
        <ele>495.22</ele>
        <time>2010-10-10T08:11:04Z</time>
      </trkpt>
      <trkpt lat="46.98977" lon="4.68992">
        <ele>497.62</ele>
        <time>2010-10-10T08:11:12Z</time>
      </trkpt>
      <trkpt lat="46.9898" lon="4.68999">
        <ele>498.1</ele>
        <time>2010-10-10T08:11:13Z</time>
      </trkpt>
      <trkpt lat="46.98984" lon="4.69005">
        <ele>498.58</ele>
        <time>2010-10-10T08:11:14Z</time>
      </trkpt>
      <trkpt lat="46.99003" lon="4.69031">
        <ele>501.95</ele>
        <time>2010-10-10T08:11:20Z</time>
      </trkpt>
      <trkpt lat="46.99016" lon="4.69069">
        <ele>504.83</ele>
        <time>2010-10-10T08:11:29Z</time>
      </trkpt>
      <trkpt lat="46.9903" lon="4.69101">
        <ele>506.27</ele>
        <time>2010-10-10T08:11:37Z</time>
      </trkpt>
      <trkpt lat="46.99031" lon="4.69106">
        <ele>506.27</ele>
        <time>2010-10-10T08:11:38Z</time>
      </trkpt>
      <trkpt lat="46.99033" lon="4.6911">
        <ele>506.75</ele>
        <time>2010-10-10T08:11:39Z</time>
      </trkpt>
      <trkpt lat="46.99034" lon="4.69115">
        <ele>507.23</ele>
        <time>2010-10-10T08:11:40Z</time>
      </trkpt>
      <trkpt lat="46.99035" lon="4.69119">
        <ele>506.75</ele>
        <time>2010-10-10T08:11:41Z</time>
      </trkpt>
      <trkpt lat="46.99036" lon="4.69124">
        <ele>507.71</ele>
        <time>2010-10-10T08:11:42Z</time>
      </trkpt>
      <trkpt lat="46.99037" lon="4.69128">
        <ele>508.19</ele>
        <time>2010-10-10T08:11:43Z</time>
      </trkpt>
      <trkpt lat="46.99038" lon="4.69132">
        <ele>508.19</ele>
        <time>2010-10-10T08:11:44Z</time>
      </trkpt>
      <trkpt lat="46.9904" lon="4.69136">
        <ele>508.19</ele>
        <time>2010-10-10T08:11:45Z</time>
      </trkpt>
      <trkpt lat="46.99041" lon="4.6914">
        <ele>508.67</ele>
        <time>2010-10-10T08:11:46Z</time>
      </trkpt>
      <trkpt lat="46.99042" lon="4.69144">
        <ele>508.19</ele>
        <time>2010-10-10T08:11:47Z</time>
      </trkpt>
      <trkpt lat="46.99044" lon="4.69148">
        <ele>508.19</ele>
        <time>2010-10-10T08:11:48Z</time>
      </trkpt>
      <trkpt lat="46.99046" lon="4.69152">
        <ele>508.67</ele>
        <time>2010-10-10T08:11:49Z</time>
      </trkpt>
      <trkpt lat="46.99048" lon="4.69156">
        <ele>508.67</ele>
        <time>2010-10-10T08:11:50Z</time>
      </trkpt>
      <trkpt lat="46.99049" lon="4.69162">
        <ele>509.16</ele>
        <time>2010-10-10T08:11:51Z</time>
      </trkpt>
      <trkpt lat="46.9905" lon="4.69167">
        <ele>508.67</ele>
        <time>2010-10-10T08:11:52Z</time>
      </trkpt>
      <trkpt lat="46.99053" lon="4.6918">
        <ele>508.67</ele>
        <time>2010-10-10T08:11:54Z</time>
      </trkpt>
      <trkpt lat="46.99057" lon="4.69194">
        <ele>508.67</ele>
        <time>2010-10-10T08:11:56Z</time>
      </trkpt>
      <trkpt lat="46.99059" lon="4.69202">
        <ele>508.19</ele>
        <time>2010-10-10T08:11:57Z</time>
      </trkpt>
      <trkpt lat="46.99073" lon="4.69263">
        <ele>509.64</ele>
        <time>2010-10-10T08:12:05Z</time>
      </trkpt>
      <trkpt lat="46.99074" lon="4.69269">
        <ele>509.64</ele>
        <time>2010-10-10T08:12:06Z</time>
      </trkpt>
      <trkpt lat="46.99093" lon="4.69314">
        <ele>512.52</ele>
        <time>2010-10-10T08:12:17Z</time>
      </trkpt>
      <trkpt lat="46.99117" lon="4.69333">
        <ele>514.44</ele>
        <time>2010-10-10T08:12:28Z</time>
      </trkpt>
      <trkpt lat="46.99125" lon="4.69338">
        <ele>515.88</ele>
        <time>2010-10-10T08:12:32Z</time>
      </trkpt>
      <trkpt lat="46.99126" lon="4.69341">
        <ele>515.88</ele>
        <time>2010-10-10T08:12:33Z</time>
      </trkpt>
      <trkpt lat="46.99133" lon="4.69361">
        <ele>513.96</ele>
        <time>2010-10-10T08:12:37Z</time>
      </trkpt>
      <trkpt lat="46.99137" lon="4.69369">
        <ele>513</ele>
        <time>2010-10-10T08:12:38Z</time>
      </trkpt>
      <trkpt lat="46.99142" lon="4.69376">
        <ele>511.56</ele>
        <time>2010-10-10T08:12:39Z</time>
      </trkpt>
      <trkpt lat="46.99147" lon="4.69382">
        <ele>511.08</ele>
        <time>2010-10-10T08:12:40Z</time>
      </trkpt>
      <trkpt lat="46.99153" lon="4.69388">
        <ele>510.12</ele>
        <time>2010-10-10T08:12:41Z</time>
      </trkpt>
      <trkpt lat="46.99168" lon="4.69405">
        <ele>507.23</ele>
        <time>2010-10-10T08:12:44Z</time>
      </trkpt>
      <trkpt lat="46.99173" lon="4.69413">
        <ele>506.27</ele>
        <time>2010-10-10T08:12:45Z</time>
      </trkpt>
      <trkpt lat="46.99189" lon="4.69432">
        <ele>503.87</ele>
        <time>2010-10-10T08:12:48Z</time>
      </trkpt>
      <trkpt lat="46.99195" lon="4.69437">
        <ele>502.91</ele>
        <time>2010-10-10T08:12:49Z</time>
      </trkpt>
      <trkpt lat="46.992" lon="4.69445">
        <ele>502.43</ele>
        <time>2010-10-10T08:12:50Z</time>
      </trkpt>
      <trkpt lat="46.99217" lon="4.69468">
        <ele>499.54</ele>
        <time>2010-10-10T08:12:53Z</time>
      </trkpt>
      <trkpt lat="46.99223" lon="4.69475">
        <ele>498.58</ele>
        <time>2010-10-10T08:12:54Z</time>
      </trkpt>
      <trkpt lat="46.99228" lon="4.69481">
        <ele>498.1</ele>
        <time>2010-10-10T08:12:55Z</time>
      </trkpt>
      <trkpt lat="46.99234" lon="4.69486">
        <ele>496.66</ele>
        <time>2010-10-10T08:12:56Z</time>
      </trkpt>
      <trkpt lat="46.99252" lon="4.69504">
        <ele>493.77</ele>
        <time>2010-10-10T08:12:59Z</time>
      </trkpt>
      <trkpt lat="46.99257" lon="4.6951">
        <ele>493.77</ele>
        <time>2010-10-10T08:13:00Z</time>
      </trkpt>
      <trkpt lat="46.99261" lon="4.69517">
        <ele>493.29</ele>
        <time>2010-10-10T08:13:01Z</time>
      </trkpt>
      <trkpt lat="46.99264" lon="4.69524">
        <ele>493.77</ele>
        <time>2010-10-10T08:13:02Z</time>
      </trkpt>
      <trkpt lat="46.99267" lon="4.6953">
        <ele>494.26</ele>
        <time>2010-10-10T08:13:03Z</time>
      </trkpt>
      <trkpt lat="46.9927" lon="4.69535">
        <ele>494.26</ele>
        <time>2010-10-10T08:13:04Z</time>
      </trkpt>
      <trkpt lat="46.99274" lon="4.69541">
        <ele>493.77</ele>
        <time>2010-10-10T08:13:05Z</time>
      </trkpt>
      <trkpt lat="46.99287" lon="4.69565">
        <ele>494.74</ele>
        <time>2010-10-10T08:13:09Z</time>
      </trkpt>
      <trkpt lat="46.9929" lon="4.69571">
        <ele>494.74</ele>
        <time>2010-10-10T08:13:10Z</time>
      </trkpt>
      <trkpt lat="46.99309" lon="4.69612">
        <ele>495.22</ele>
        <time>2010-10-10T08:13:17Z</time>
      </trkpt>
      <trkpt lat="46.9934" lon="4.69663">
        <ele>498.58</ele>
        <time>2010-10-10T08:13:30Z</time>
      </trkpt>
      <trkpt lat="46.99364" lon="4.69719">
        <ele>500.5</ele>
        <time>2010-10-10T08:13:43Z</time>
      </trkpt>
      <trkpt lat="46.99366" lon="4.69741">
        <ele>500.02</ele>
        <time>2010-10-10T08:13:46Z</time>
      </trkpt>
      <trkpt lat="46.99367" lon="4.69748">
        <ele>500.02</ele>
        <time>2010-10-10T08:13:47Z</time>
      </trkpt>
      <trkpt lat="46.99369" lon="4.69754">
        <ele>500.02</ele>
        <time>2010-10-10T08:13:48Z</time>
      </trkpt>
      <trkpt lat="46.99372" lon="4.6976">
        <ele>500.5</ele>
        <time>2010-10-10T08:13:49Z</time>
      </trkpt>
      <trkpt lat="46.99375" lon="4.69765">
        <ele>500.02</ele>
        <time>2010-10-10T08:13:50Z</time>
      </trkpt>
      <trkpt lat="46.99378" lon="4.69769">
        <ele>500.02</ele>
        <time>2010-10-10T08:13:51Z</time>
      </trkpt>
      <trkpt lat="46.99381" lon="4.69773">
        <ele>500.5</ele>
        <time>2010-10-10T08:13:52Z</time>
      </trkpt>
      <trkpt lat="46.99384" lon="4.69776">
        <ele>500.98</ele>
        <time>2010-10-10T08:13:53Z</time>
      </trkpt>
      <trkpt lat="46.9941" lon="4.69805">
        <ele>502.91</ele>
        <time>2010-10-10T08:14:03Z</time>
      </trkpt>
      <trkpt lat="46.99437" lon="4.69843">
        <ele>502.43</ele>
        <time>2010-10-10T08:14:12Z</time>
      </trkpt>
      <trkpt lat="46.99441" lon="4.69846">
        <ele>502.91</ele>
        <time>2010-10-10T08:14:13Z</time>
      </trkpt>
      <trkpt lat="46.9945" lon="4.69851">
        <ele>502.91</ele>
        <time>2010-10-10T08:14:15Z</time>
      </trkpt>
      <trkpt lat="46.99454" lon="4.69853">
        <ele>502.91</ele>
        <time>2010-10-10T08:14:16Z</time>
      </trkpt>
      <trkpt lat="46.99457" lon="4.69856">
        <ele>502.43</ele>
        <time>2010-10-10T08:14:17Z</time>
      </trkpt>
      <trkpt lat="46.9946" lon="4.6986">
        <ele>502.43</ele>
        <time>2010-10-10T08:14:18Z</time>
      </trkpt>
      <trkpt lat="46.99462" lon="4.69866">
        <ele>501.95</ele>
        <time>2010-10-10T08:14:19Z</time>
      </trkpt>
      <trkpt lat="46.99465" lon="4.69871">
        <ele>500.5</ele>
        <time>2010-10-10T08:14:20Z</time>
      </trkpt>
      <trkpt lat="46.99468" lon="4.69874">
        <ele>500.5</ele>
        <time>2010-10-10T08:14:21Z</time>
      </trkpt>
      <trkpt lat="46.99472" lon="4.69876">
        <ele>500.02</ele>
        <time>2010-10-10T08:14:22Z</time>
      </trkpt>
      <trkpt lat="46.995" lon="4.69897">
        <ele>497.14</ele>
        <time>2010-10-10T08:14:31Z</time>
      </trkpt>
      <trkpt lat="46.99504" lon="4.69899">
        <ele>497.14</ele>
        <time>2010-10-10T08:14:32Z</time>
      </trkpt>
      <trkpt lat="46.99508" lon="4.699">
        <ele>496.66</ele>
        <time>2010-10-10T08:14:33Z</time>
      </trkpt>
      <trkpt lat="46.99512" lon="4.699">
        <ele>496.66</ele>
        <time>2010-10-10T08:14:34Z</time>
      </trkpt>
      <trkpt lat="46.99515" lon="4.699">
        <ele>496.66</ele>
        <time>2010-10-10T08:14:35Z</time>
      </trkpt>
      <trkpt lat="46.99518" lon="4.69899">
        <ele>497.14</ele>
        <time>2010-10-10T08:14:36Z</time>
      </trkpt>
      <trkpt lat="46.99534" lon="4.69896">
        <ele>497.14</ele>
        <time>2010-10-10T08:14:40Z</time>
      </trkpt>
      <trkpt lat="46.99539" lon="4.69895">
        <ele>497.14</ele>
        <time>2010-10-10T08:14:41Z</time>
      </trkpt>
      <trkpt lat="46.99552" lon="4.69892">
        <ele>496.18</ele>
        <time>2010-10-10T08:14:43Z</time>
      </trkpt>
      <trkpt lat="46.99556" lon="4.69891">
        <ele>496.18</ele>
        <time>2010-10-10T08:14:44Z</time>
      </trkpt>
      <trkpt lat="46.9956" lon="4.6989">
        <ele>496.18</ele>
        <time>2010-10-10T08:14:45Z</time>
      </trkpt>
      <trkpt lat="46.99564" lon="4.69889">
        <ele>496.18</ele>
        <time>2010-10-10T08:14:46Z</time>
      </trkpt>
      <trkpt lat="46.99567" lon="4.69889">
        <ele>496.66</ele>
        <time>2010-10-10T08:14:47Z</time>
      </trkpt>
      <trkpt lat="46.9957" lon="4.6989">
        <ele>495.7</ele>
        <time>2010-10-10T08:14:48Z</time>
      </trkpt>
      <trkpt lat="46.99574" lon="4.69891">
        <ele>495.7</ele>
        <time>2010-10-10T08:14:49Z</time>
      </trkpt>
      <trkpt lat="46.99579" lon="4.69893">
        <ele>495.22</ele>
        <time>2010-10-10T08:14:50Z</time>
      </trkpt>
      <trkpt lat="46.99584" lon="4.69895">
        <ele>494.26</ele>
        <time>2010-10-10T08:14:51Z</time>
      </trkpt>
      <trkpt lat="46.99589" lon="4.69897">
        <ele>494.74</ele>
        <time>2010-10-10T08:14:52Z</time>
      </trkpt>
      <trkpt lat="46.99594" lon="4.69896">
        <ele>494.74</ele>
        <time>2010-10-10T08:14:53Z</time>
      </trkpt>
      <trkpt lat="46.99598" lon="4.69896">
        <ele>494.26</ele>
        <time>2010-10-10T08:14:54Z</time>
      </trkpt>
      <trkpt lat="46.99603" lon="4.69896">
        <ele>493.77</ele>
        <time>2010-10-10T08:14:55Z</time>
      </trkpt>
      <trkpt lat="46.99608" lon="4.69897">
        <ele>494.26</ele>
        <time>2010-10-10T08:14:56Z</time>
      </trkpt>
      <trkpt lat="46.99613" lon="4.69898">
        <ele>494.74</ele>
        <time>2010-10-10T08:14:57Z</time>
      </trkpt>
      <trkpt lat="46.99617" lon="4.69899">
        <ele>494.74</ele>
        <time>2010-10-10T08:14:58Z</time>
      </trkpt>
      <trkpt lat="46.99656" lon="4.69905">
        <ele>490.89</ele>
        <time>2010-10-10T08:15:07Z</time>
      </trkpt>
      <trkpt lat="46.99662" lon="4.69906">
        <ele>490.89</ele>
        <time>2010-10-10T08:15:08Z</time>
      </trkpt>
      <trkpt lat="46.99704" lon="4.69908">
        <ele>488.01</ele>
        <time>2010-10-10T08:15:18Z</time>
      </trkpt>
      <trkpt lat="46.99708" lon="4.69908">
        <ele>488.49</ele>
        <time>2010-10-10T08:15:19Z</time>
      </trkpt>
      <trkpt lat="46.99743" lon="4.69902">
        <ele>485.12</ele>
        <time>2010-10-10T08:15:27Z</time>
      </trkpt>
      <trkpt lat="46.99776" lon="4.69884">
        <ele>484.64</ele>
        <time>2010-10-10T08:15:33Z</time>
      </trkpt>
      <trkpt lat="46.99779" lon="4.69885">
        <ele>483.68</ele>
        <time>2010-10-10T08:15:34Z</time>
      </trkpt>
      <trkpt lat="46.99783" lon="4.69885">
        <ele>481.76</ele>
        <time>2010-10-10T08:15:35Z</time>
      </trkpt>
      <trkpt lat="46.99787" lon="4.69884">
        <ele>482.24</ele>
        <time>2010-10-10T08:15:36Z</time>
      </trkpt>
      <trkpt lat="46.99803" lon="4.69878">
        <ele>478.87</ele>
        <time>2010-10-10T08:15:40Z</time>
      </trkpt>
      <trkpt lat="46.99807" lon="4.69878">
        <ele>478.39</ele>
        <time>2010-10-10T08:15:41Z</time>
      </trkpt>
      <trkpt lat="46.99813" lon="4.69878">
        <ele>477.43</ele>
        <time>2010-10-10T08:15:43Z</time>
      </trkpt>
      <trkpt lat="46.99816" lon="4.69876">
        <ele>477.43</ele>
        <time>2010-10-10T08:15:44Z</time>
      </trkpt>
      <trkpt lat="46.99819" lon="4.69874">
        <ele>477.43</ele>
        <time>2010-10-10T08:15:45Z</time>
      </trkpt>
      <trkpt lat="46.99823" lon="4.69871">
        <ele>476.47</ele>
        <time>2010-10-10T08:15:46Z</time>
      </trkpt>
      <trkpt lat="46.99826" lon="4.69869">
        <ele>475.99</ele>
        <time>2010-10-10T08:15:47Z</time>
      </trkpt>
      <trkpt lat="46.99829" lon="4.69868">
        <ele>475.99</ele>
        <time>2010-10-10T08:15:48Z</time>
      </trkpt>
      <trkpt lat="46.99841" lon="4.69864">
        <ele>474.55</ele>
        <time>2010-10-10T08:15:51Z</time>
      </trkpt>
      <trkpt lat="46.99859" lon="4.69863">
        <ele>471.66</ele>
        <time>2010-10-10T08:15:55Z</time>
      </trkpt>
      <trkpt lat="46.9987" lon="4.6986">
        <ele>471.66</ele>
        <time>2010-10-10T08:15:58Z</time>
      </trkpt>
      <trkpt lat="46.99873" lon="4.69857">
        <ele>471.66</ele>
        <time>2010-10-10T08:15:59Z</time>
      </trkpt>
      <trkpt lat="46.99876" lon="4.69854">
        <ele>471.66</ele>
        <time>2010-10-10T08:16:00Z</time>
      </trkpt>
      <trkpt lat="46.99881" lon="4.69851">
        <ele>471.66</ele>
        <time>2010-10-10T08:16:01Z</time>
      </trkpt>
      <trkpt lat="46.99886" lon="4.69847">
        <ele>472.14</ele>
        <time>2010-10-10T08:16:02Z</time>
      </trkpt>
      <trkpt lat="46.99889" lon="4.69844">
        <ele>472.14</ele>
        <time>2010-10-10T08:16:03Z</time>
      </trkpt>
      <trkpt lat="46.99892" lon="4.6984">
        <ele>472.63</ele>
        <time>2010-10-10T08:16:04Z</time>
      </trkpt>
      <trkpt lat="46.99896" lon="4.69836">
        <ele>473.11</ele>
        <time>2010-10-10T08:16:05Z</time>
      </trkpt>
      <trkpt lat="46.999" lon="4.69834">
        <ele>474.07</ele>
        <time>2010-10-10T08:16:06Z</time>
      </trkpt>
      <trkpt lat="46.99902" lon="4.69831">
        <ele>474.55</ele>
        <time>2010-10-10T08:16:07Z</time>
      </trkpt>
      <trkpt lat="46.99905" lon="4.69829">
        <ele>475.03</ele>
        <time>2010-10-10T08:16:08Z</time>
      </trkpt>
      <trkpt lat="46.99909" lon="4.69828">
        <ele>475.03</ele>
        <time>2010-10-10T08:16:09Z</time>
      </trkpt>
      <trkpt lat="46.99915" lon="4.69822">
        <ele>474.55</ele>
        <time>2010-10-10T08:16:18Z</time>
      </trkpt>
      <trkpt lat="46.99925" lon="4.69819">
        <ele>474.55</ele>
        <time>2010-10-10T08:16:30Z</time>
      </trkpt>
      <trkpt lat="46.99938" lon="4.69815">
        <ele>473.11</ele>
        <time>2010-10-10T08:16:46Z</time>
      </trkpt>
      <trkpt lat="46.99949" lon="4.69816">
        <ele>474.07</ele>
        <time>2010-10-10T08:16:52Z</time>
      </trkpt>
      <trkpt lat="46.99959" lon="4.69816">
        <ele>474.55</ele>
        <time>2010-10-10T08:16:59Z</time>
      </trkpt>
      <trkpt lat="46.99968" lon="4.69814">
        <ele>474.55</ele>
        <time>2010-10-10T08:17:08Z</time>
      </trkpt>
      <trkpt lat="46.99988" lon="4.69822">
        <ele>473.59</ele>
        <time>2010-10-10T08:17:19Z</time>
      </trkpt>
      <trkpt lat="47" lon="4.69827">
        <ele>472.63</ele>
        <time>2010-10-10T08:17:27Z</time>
      </trkpt>
      <trkpt lat="47" lon="4.69828">
        <ele>472.63</ele>
        <time>2010-10-10T08:17:28Z</time>
      </trkpt>
      <trkpt lat="47.00002" lon="4.69833">
        <ele>472.14</ele>
        <time>2010-10-10T08:17:31Z</time>
      </trkpt>
      <trkpt lat="47.00002" lon="4.69834">
        <ele>472.63</ele>
        <time>2010-10-10T08:17:32Z</time>
      </trkpt>
      <trkpt lat="47.00007" lon="4.6984">
        <ele>472.63</ele>
        <time>2010-10-10T08:17:36Z</time>
      </trkpt>
      <trkpt lat="47.0001" lon="4.69841">
        <ele>473.11</ele>
        <time>2010-10-10T08:17:39Z</time>
      </trkpt>
      <trkpt lat="47.00015" lon="4.69843">
        <ele>473.11</ele>
        <time>2010-10-10T08:17:43Z</time>
      </trkpt>
      <trkpt lat="47.00027" lon="4.69858">
        <ele>475.51</ele>
        <time>2010-10-10T08:17:56Z</time>
      </trkpt>
      <trkpt lat="47.00031" lon="4.69861">
        <ele>475.99</ele>
        <time>2010-10-10T08:18:00Z</time>
      </trkpt>
      <trkpt lat="47.00034" lon="4.69868">
        <ele>475.99</ele>
        <time>2010-10-10T08:18:05Z</time>
      </trkpt>
      <trkpt lat="47.00042" lon="4.69873">
        <ele>476.47</ele>
        <time>2010-10-10T08:18:15Z</time>
      </trkpt>
      <trkpt lat="47.00057" lon="4.69893">
        <ele>478.39</ele>
        <time>2010-10-10T08:18:26Z</time>
      </trkpt>
      <trkpt lat="47.00061" lon="4.69896">
        <ele>477.91</ele>
        <time>2010-10-10T08:18:28Z</time>
      </trkpt>
      <trkpt lat="47.00067" lon="4.69907">
        <ele>477.43</ele>
        <time>2010-10-10T08:18:32Z</time>
      </trkpt>
      <trkpt lat="47.00071" lon="4.69916">
        <ele>476.95</ele>
        <time>2010-10-10T08:18:36Z</time>
      </trkpt>
      <trkpt lat="47.00081" lon="4.69934">
        <ele>475.03</ele>
        <time>2010-10-10T08:18:40Z</time>
      </trkpt>
      <trkpt lat="47.00099" lon="4.69944">
        <ele>474.55</ele>
        <time>2010-10-10T08:18:48Z</time>
      </trkpt>
      <trkpt lat="47.00107" lon="4.69971">
        <ele>473.11</ele>
        <time>2010-10-10T08:18:56Z</time>
      </trkpt>
      <trkpt lat="47.00115" lon="4.69986">
        <ele>471.66</ele>
        <time>2010-10-10T08:18:59Z</time>
      </trkpt>
      <trkpt lat="47.00117" lon="4.69989">
        <ele>470.7</ele>
        <time>2010-10-10T08:19:00Z</time>
      </trkpt>
      <trkpt lat="47.00105" lon="4.69995">
        <ele>466.38</ele>
        <time>2010-10-10T08:19:06Z</time>
      </trkpt>
      <trkpt lat="47.001" lon="4.69995">
        <ele>465.42</ele>
        <time>2010-10-10T08:19:07Z</time>
      </trkpt>
      <trkpt lat="47.00089" lon="4.69993">
        <ele>463.49</ele>
        <time>2010-10-10T08:19:09Z</time>
      </trkpt>
      <trkpt lat="47.0008" lon="4.69988">
        <ele>461.57</ele>
        <time>2010-10-10T08:19:11Z</time>
      </trkpt>
      <trkpt lat="47.00075" lon="4.69987">
        <ele>460.13</ele>
        <time>2010-10-10T08:19:12Z</time>
      </trkpt>
      <trkpt lat="47.00058" lon="4.69981">
        <ele>455.8</ele>
        <time>2010-10-10T08:19:15Z</time>
      </trkpt>
      <trkpt lat="47.00038" lon="4.69975">
        <ele>453.4</ele>
        <time>2010-10-10T08:19:18Z</time>
      </trkpt>
      <trkpt lat="47.00032" lon="4.69973">
        <ele>451.48</ele>
        <time>2010-10-10T08:19:19Z</time>
      </trkpt>
      <trkpt lat="47.00021" lon="4.69969">
        <ele>450.52</ele>
        <time>2010-10-10T08:19:21Z</time>
      </trkpt>
      <trkpt lat="47.00016" lon="4.69969">
        <ele>449.07</ele>
        <time>2010-10-10T08:19:22Z</time>
      </trkpt>
      <trkpt lat="47.0001" lon="4.69972">
        <ele>448.59</ele>
        <time>2010-10-10T08:19:23Z</time>
      </trkpt>
      <trkpt lat="47.00004" lon="4.69975">
        <ele>447.63</ele>
        <time>2010-10-10T08:19:24Z</time>
      </trkpt>
      <trkpt lat="46.99996" lon="4.69979">
        <ele>446.67</ele>
        <time>2010-10-10T08:19:25Z</time>
      </trkpt>
      <trkpt lat="46.9999" lon="4.69984">
        <ele>446.19</ele>
        <time>2010-10-10T08:19:26Z</time>
      </trkpt>
      <trkpt lat="46.99985" lon="4.69991">
        <ele>445.23</ele>
        <time>2010-10-10T08:19:27Z</time>
      </trkpt>
      <trkpt lat="46.9998" lon="4.69997">
        <ele>444.27</ele>
        <time>2010-10-10T08:19:28Z</time>
      </trkpt>
      <trkpt lat="46.99968" lon="4.70012">
        <ele>441.38</ele>
        <time>2010-10-10T08:19:31Z</time>
      </trkpt>
      <trkpt lat="46.99954" lon="4.70025">
        <ele>437.54</ele>
        <time>2010-10-10T08:19:34Z</time>
      </trkpt>
      <trkpt lat="46.99949" lon="4.70028">
        <ele>436.58</ele>
        <time>2010-10-10T08:19:35Z</time>
      </trkpt>
      <trkpt lat="46.99936" lon="4.70035">
        <ele>433.69</ele>
        <time>2010-10-10T08:19:37Z</time>
      </trkpt>
      <trkpt lat="46.9993" lon="4.70036">
        <ele>432.73</ele>
        <time>2010-10-10T08:19:38Z</time>
      </trkpt>
      <trkpt lat="46.99924" lon="4.70038">
        <ele>432.25</ele>
        <time>2010-10-10T08:19:39Z</time>
      </trkpt>
      <trkpt lat="46.99921" lon="4.70043">
        <ele>432.25</ele>
        <time>2010-10-10T08:19:40Z</time>
      </trkpt>
      <trkpt lat="46.99924" lon="4.70053">
        <ele>430.33</ele>
        <time>2010-10-10T08:19:41Z</time>
      </trkpt>
      <trkpt lat="46.99931" lon="4.70065">
        <ele>428.89</ele>
        <time>2010-10-10T08:19:43Z</time>
      </trkpt>
      <trkpt lat="46.99938" lon="4.70076">
        <ele>427.92</ele>
        <time>2010-10-10T08:19:45Z</time>
      </trkpt>
      <trkpt lat="46.99942" lon="4.70083">
        <ele>426.96</ele>
        <time>2010-10-10T08:19:46Z</time>
      </trkpt>
      <trkpt lat="46.99945" lon="4.7009">
        <ele>426</ele>
        <time>2010-10-10T08:19:47Z</time>
      </trkpt>
      <trkpt lat="46.99946" lon="4.70097">
        <ele>424.56</ele>
        <time>2010-10-10T08:19:48Z</time>
      </trkpt>
      <trkpt lat="46.99948" lon="4.70104">
        <ele>423.12</ele>
        <time>2010-10-10T08:19:49Z</time>
      </trkpt>
      <trkpt lat="46.99948" lon="4.70111">
        <ele>422.64</ele>
        <time>2010-10-10T08:19:50Z</time>
      </trkpt>
      <trkpt lat="46.99947" lon="4.70119">
        <ele>421.19</ele>
        <time>2010-10-10T08:19:51Z</time>
      </trkpt>
      <trkpt lat="46.99945" lon="4.70128">
        <ele>420.23</ele>
        <time>2010-10-10T08:19:52Z</time>
      </trkpt>
      <trkpt lat="46.99944" lon="4.70137">
        <ele>418.79</ele>
        <time>2010-10-10T08:19:53Z</time>
      </trkpt>
      <trkpt lat="46.99942" lon="4.70146">
        <ele>417.83</ele>
        <time>2010-10-10T08:19:54Z</time>
      </trkpt>
      <trkpt lat="46.99941" lon="4.70153">
        <ele>416.39</ele>
        <time>2010-10-10T08:19:55Z</time>
      </trkpt>
      <trkpt lat="46.9994" lon="4.7016">
        <ele>416.39</ele>
        <time>2010-10-10T08:19:56Z</time>
      </trkpt>
      <trkpt lat="46.99938" lon="4.70164">
        <ele>414.47</ele>
        <time>2010-10-10T08:19:57Z</time>
      </trkpt>
      <trkpt lat="46.99936" lon="4.70167">
        <ele>413.98</ele>
        <time>2010-10-10T08:19:58Z</time>
      </trkpt>
      <trkpt lat="46.99932" lon="4.7017">
        <ele>413.02</ele>
        <time>2010-10-10T08:19:59Z</time>
      </trkpt>
      <trkpt lat="46.99928" lon="4.70173">
        <ele>413.5</ele>
        <time>2010-10-10T08:20:00Z</time>
      </trkpt>
      <trkpt lat="46.99924" lon="4.70176">
        <ele>411.58</ele>
        <time>2010-10-10T08:20:01Z</time>
      </trkpt>
      <trkpt lat="46.99921" lon="4.70178">
        <ele>410.62</ele>
        <time>2010-10-10T08:20:02Z</time>
      </trkpt>
      <trkpt lat="46.99918" lon="4.70181">
        <ele>409.66</ele>
        <time>2010-10-10T08:20:03Z</time>
      </trkpt>
      <trkpt lat="46.99916" lon="4.70185">
        <ele>409.66</ele>
        <time>2010-10-10T08:20:04Z</time>
      </trkpt>
      <trkpt lat="46.99914" lon="4.7019">
        <ele>410.14</ele>
        <time>2010-10-10T08:20:05Z</time>
      </trkpt>
      <trkpt lat="46.99913" lon="4.70197">
        <ele>409.66</ele>
        <time>2010-10-10T08:20:06Z</time>
      </trkpt>
      <trkpt lat="46.99912" lon="4.70204">
        <ele>407.74</ele>
        <time>2010-10-10T08:20:07Z</time>
      </trkpt>
      <trkpt lat="46.99912" lon="4.70211">
        <ele>408.22</ele>
        <time>2010-10-10T08:20:08Z</time>
      </trkpt>
      <trkpt lat="46.99912" lon="4.70215">
        <ele>415.5820313</ele>
      </trkpt>
      <trkpt lat="46.99911" lon="4.70234">
        <ele>414.1953125</ele>
      </trkpt>
      <trkpt lat="46.99912" lon="4.70245">
        <ele>413.3632813</ele>
      </trkpt>
      <trkpt lat="46.99914" lon="4.70249">
        <ele>413.078125</ele>
      </trkpt>
      <trkpt lat="46.99914" lon="4.70251">
        <ele>403.41</ele>
        <time>2010-10-10T08:21:45Z</time>
      </trkpt>
      <trkpt lat="46.99915" lon="4.70252">
        <ele>405.33</ele>
        <time>2010-10-10T08:21:46Z</time>
      </trkpt>
      <trkpt lat="46.99916" lon="4.70254">
        <ele>404.85</ele>
        <time>2010-10-10T08:21:47Z</time>
      </trkpt>
      <trkpt lat="46.99916" lon="4.70256">
        <ele>403.41</ele>
        <time>2010-10-10T08:21:48Z</time>
      </trkpt>
      <trkpt lat="46.99917" lon="4.70257">
        <ele>403.41</ele>
        <time>2010-10-10T08:21:49Z</time>
      </trkpt>
      <trkpt lat="46.99924" lon="4.70276">
        <ele>404.37</ele>
        <time>2010-10-10T08:22:03Z</time>
      </trkpt>
      <trkpt lat="46.99925" lon="4.70277">
        <ele>404.85</ele>
        <time>2010-10-10T08:22:16Z</time>
      </trkpt>
      <trkpt lat="46.99934" lon="4.70294">
        <ele>404.37</ele>
        <time>2010-10-10T08:22:26Z</time>
      </trkpt>
      <trkpt lat="46.99956" lon="4.70356">
        <ele>402.93</ele>
        <time>2010-10-10T08:22:38Z</time>
      </trkpt>
      <trkpt lat="46.99982" lon="4.70441">
        <ele>399.57</ele>
        <time>2010-10-10T08:22:49Z</time>
      </trkpt>
      <trkpt lat="46.99987" lon="4.70449">
        <ele>398.6</ele>
        <time>2010-10-10T08:22:50Z</time>
      </trkpt>
      <trkpt lat="46.99992" lon="4.70456">
        <ele>399.08</ele>
        <time>2010-10-10T08:22:51Z</time>
      </trkpt>
      <trkpt lat="47.00015" lon="4.70489">
        <ele>400.05</ele>
        <time>2010-10-10T08:22:56Z</time>
      </trkpt>
      <trkpt lat="47.00036" lon="4.70512">
        <ele>401.01</ele>
        <time>2010-10-10T08:23:01Z</time>
      </trkpt>
      <trkpt lat="47.00052" lon="4.70532">
        <ele>404.37</ele>
        <time>2010-10-10T08:23:07Z</time>
      </trkpt>
      <trkpt lat="47.00054" lon="4.70536">
        <ele>404.37</ele>
        <time>2010-10-10T08:23:08Z</time>
      </trkpt>
      <trkpt lat="47.0008" lon="4.70587">
        <ele>402.93</ele>
        <time>2010-10-10T08:23:18Z</time>
      </trkpt>
      <trkpt lat="47.00081" lon="4.70597">
        <ele>401.49</ele>
        <time>2010-10-10T08:23:19Z</time>
      </trkpt>
      <trkpt lat="47.00083" lon="4.70607">
        <ele>400.53</ele>
        <time>2010-10-10T08:23:20Z</time>
      </trkpt>
      <trkpt lat="47.00084" lon="4.70618">
        <ele>399.57</ele>
        <time>2010-10-10T08:23:21Z</time>
      </trkpt>
      <trkpt lat="47.00086" lon="4.70628">
        <ele>398.6</ele>
        <time>2010-10-10T08:23:22Z</time>
      </trkpt>
      <trkpt lat="47.00089" lon="4.70637">
        <ele>398.6</ele>
        <time>2010-10-10T08:23:23Z</time>
      </trkpt>
      <trkpt lat="47.00091" lon="4.70646">
        <ele>399.08</ele>
        <time>2010-10-10T08:23:24Z</time>
      </trkpt>
      <trkpt lat="47.00094" lon="4.70655">
        <ele>400.05</ele>
        <time>2010-10-10T08:23:25Z</time>
      </trkpt>
      <trkpt lat="47.00097" lon="4.70664">
        <ele>400.05</ele>
        <time>2010-10-10T08:23:26Z</time>
      </trkpt>
      <trkpt lat="47.00101" lon="4.70682">
        <ele>399.08</ele>
        <time>2010-10-10T08:23:28Z</time>
      </trkpt>
      <trkpt lat="47.00104" lon="4.70701">
        <ele>397.64</ele>
        <time>2010-10-10T08:23:30Z</time>
      </trkpt>
      <trkpt lat="47.00104" lon="4.7071">
        <ele>398.6</ele>
        <time>2010-10-10T08:23:31Z</time>
      </trkpt>
      <trkpt lat="47.00109" lon="4.70781">
        <ele>401.49</ele>
        <time>2010-10-10T08:23:40Z</time>
      </trkpt>
      <trkpt lat="47.00111" lon="4.70795">
        <ele>399.57</ele>
        <time>2010-10-10T08:23:42Z</time>
      </trkpt>
      <trkpt lat="47.00136" lon="4.70895">
        <ele>400.05</ele>
        <time>2010-10-10T08:23:55Z</time>
      </trkpt>
      <trkpt lat="47.00151" lon="4.7093">
        <ele>397.64</ele>
        <time>2010-10-10T08:23:59Z</time>
      </trkpt>
      <trkpt lat="47.00205" lon="4.71025">
        <ele>396.2</ele>
        <time>2010-10-10T08:24:11Z</time>
      </trkpt>
      <trkpt lat="47.00257" lon="4.7108">
        <ele>398.6</ele>
        <time>2010-10-10T08:24:23Z</time>
      </trkpt>
      <trkpt lat="47.00268" lon="4.71089">
        <ele>398.12</ele>
        <time>2010-10-10T08:24:26Z</time>
      </trkpt>
      <trkpt lat="47.00271" lon="4.71094">
        <ele>397.64</ele>
        <time>2010-10-10T08:24:27Z</time>
      </trkpt>
      <trkpt lat="47.00272" lon="4.711">
        <ele>397.16</ele>
        <time>2010-10-10T08:24:28Z</time>
      </trkpt>
      <trkpt lat="47.00271" lon="4.71106">
        <ele>396.68</ele>
        <time>2010-10-10T08:24:29Z</time>
      </trkpt>
      <trkpt lat="47.00268" lon="4.71112">
        <ele>396.68</ele>
        <time>2010-10-10T08:24:30Z</time>
      </trkpt>
      <trkpt lat="47.00265" lon="4.71119">
        <ele>395.72</ele>
        <time>2010-10-10T08:24:31Z</time>
      </trkpt>
      <trkpt lat="47.00247" lon="4.71157">
        <ele>392.36</ele>
        <time>2010-10-10T08:24:35Z</time>
      </trkpt>
      <trkpt lat="47.00232" lon="4.7119">
        <ele>389.95</ele>
        <time>2010-10-10T08:24:38Z</time>
      </trkpt>
      <trkpt lat="47.00227" lon="4.71202">
        <ele>389.95</ele>
        <time>2010-10-10T08:24:39Z</time>
      </trkpt>
      <trkpt lat="47.00221" lon="4.71212">
        <ele>389.47</ele>
        <time>2010-10-10T08:24:40Z</time>
      </trkpt>
      <trkpt lat="47.00214" lon="4.7122">
        <ele>388.99</ele>
        <time>2010-10-10T08:24:41Z</time>
      </trkpt>
      <trkpt lat="47.00208" lon="4.71226">
        <ele>388.03</ele>
        <time>2010-10-10T08:24:42Z</time>
      </trkpt>
      <trkpt lat="47.00202" lon="4.7123">
        <ele>388.99</ele>
        <time>2010-10-10T08:24:43Z</time>
      </trkpt>
      <trkpt lat="47.00186" lon="4.71235">
        <ele>389.95</ele>
        <time>2010-10-10T08:24:47Z</time>
      </trkpt>
      <trkpt lat="47.00182" lon="4.71233">
        <ele>389.95</ele>
        <time>2010-10-10T08:24:48Z</time>
      </trkpt>
      <trkpt lat="47.00178" lon="4.7123">
        <ele>390.43</ele>
        <time>2010-10-10T08:24:49Z</time>
      </trkpt>
      <trkpt lat="47.00158" lon="4.71213">
        <ele>390.43</ele>
        <time>2010-10-10T08:24:54Z</time>
      </trkpt>
      <trkpt lat="47.00138" lon="4.712">
        <ele>390.91</ele>
        <time>2010-10-10T08:24:59Z</time>
      </trkpt>
      <trkpt lat="47.00134" lon="4.71198">
        <ele>390.91</ele>
        <time>2010-10-10T08:25:00Z</time>
      </trkpt>
      <trkpt lat="47.0011" lon="4.71185">
        <ele>391.87</ele>
        <time>2010-10-10T08:25:07Z</time>
      </trkpt>
      <trkpt lat="47.00108" lon="4.71187">
        <ele>393.32</ele>
        <time>2010-10-10T08:25:08Z</time>
      </trkpt>
      <trkpt lat="47.00107" lon="4.71189">
        <ele>392.84</ele>
        <time>2010-10-10T08:25:09Z</time>
      </trkpt>
      <trkpt lat="47.00106" lon="4.71191">
        <ele>392.84</ele>
        <time>2010-10-10T08:25:10Z</time>
      </trkpt>
      <trkpt lat="47.00108" lon="4.71194">
        <ele>393.32</ele>
        <time>2010-10-10T08:25:11Z</time>
      </trkpt>
      <trkpt lat="47.00109" lon="4.71195">
        <ele>393.32</ele>
        <time>2010-10-10T08:25:12Z</time>
      </trkpt>
      <trkpt lat="47.00111" lon="4.71197">
        <ele>393.8</ele>
        <time>2010-10-10T08:25:13Z</time>
      </trkpt>
      <trkpt lat="47.00113" lon="4.712">
        <ele>394.76</ele>
        <time>2010-10-10T08:25:14Z</time>
      </trkpt>
      <trkpt lat="47.00115" lon="4.71202">
        <ele>394.76</ele>
        <time>2010-10-10T08:25:15Z</time>
      </trkpt>
      <trkpt lat="47.00131" lon="4.71222">
        <ele>397.16</ele>
        <time>2010-10-10T08:25:25Z</time>
      </trkpt>
      <trkpt lat="47.00139" lon="4.71231">
        <ele>398.12</ele>
        <time>2010-10-10T08:25:31Z</time>
      </trkpt>
      <trkpt lat="47.0014" lon="4.71232">
        <ele>399.57</ele>
        <time>2010-10-10T08:25:32Z</time>
      </trkpt>
      <trkpt lat="47.00142" lon="4.71233">
        <ele>399.08</ele>
        <time>2010-10-10T08:25:33Z</time>
      </trkpt>
      <trkpt lat="47.00143" lon="4.71235">
        <ele>400.05</ele>
        <time>2010-10-10T08:25:34Z</time>
      </trkpt>
      <trkpt lat="47.00144" lon="4.71237">
        <ele>400.53</ele>
        <time>2010-10-10T08:25:35Z</time>
      </trkpt>
      <trkpt lat="47.00145" lon="4.71238">
        <ele>399.57</ele>
        <time>2010-10-10T08:25:36Z</time>
      </trkpt>
      <trkpt lat="47.00146" lon="4.7124">
        <ele>399.57</ele>
        <time>2010-10-10T08:25:37Z</time>
      </trkpt>
      <trkpt lat="47.00148" lon="4.71241">
        <ele>400.05</ele>
        <time>2010-10-10T08:25:38Z</time>
      </trkpt>
      <trkpt lat="47.00149" lon="4.71243">
        <ele>400.05</ele>
        <time>2010-10-10T08:25:39Z</time>
      </trkpt>
      <trkpt lat="47.0015" lon="4.71244">
        <ele>400.53</ele>
        <time>2010-10-10T08:25:40Z</time>
      </trkpt>
      <trkpt lat="47.00169" lon="4.71265">
        <ele>403.41</ele>
        <time>2010-10-10T08:25:53Z</time>
      </trkpt>
      <trkpt lat="47.0017" lon="4.71267">
        <ele>403.89</ele>
        <time>2010-10-10T08:25:54Z</time>
      </trkpt>
      <trkpt lat="47.0019" lon="4.71289">
        <ele>402.93</ele>
        <time>2010-10-10T08:26:04Z</time>
      </trkpt>
      <trkpt lat="47.00217" lon="4.71311">
        <ele>403.41</ele>
        <time>2010-10-10T08:26:14Z</time>
      </trkpt>
      <trkpt lat="47.00256" lon="4.71334">
        <ele>404.37</ele>
        <time>2010-10-10T08:26:25Z</time>
      </trkpt>
      <trkpt lat="47.00267" lon="4.71345">
        <ele>406.77</ele>
        <time>2010-10-10T08:26:29Z</time>
      </trkpt>
      <trkpt lat="47.00283" lon="4.71361">
        <ele>408.22</ele>
        <time>2010-10-10T08:26:39Z</time>
      </trkpt>
      <trkpt lat="47.00292" lon="4.71372">
        <ele>411.1</ele>
        <time>2010-10-10T08:26:47Z</time>
      </trkpt>
      <trkpt lat="47.00293" lon="4.71373">
        <ele>410.62</ele>
        <time>2010-10-10T08:26:48Z</time>
      </trkpt>
      <trkpt lat="47.003" lon="4.71393">
        <ele>414.47</ele>
        <time>2010-10-10T08:26:58Z</time>
      </trkpt>
      <trkpt lat="47.00304" lon="4.71411">
        <ele>414.95</ele>
        <time>2010-10-10T08:27:06Z</time>
      </trkpt>
      <trkpt lat="47.00324" lon="4.71432">
        <ele>416.87</ele>
        <time>2010-10-10T08:27:19Z</time>
      </trkpt>
      <trkpt lat="47.00345" lon="4.71445">
        <ele>419.27</ele>
        <time>2010-10-10T08:27:32Z</time>
      </trkpt>
      <trkpt lat="47.00359" lon="4.71452">
        <ele>420.23</ele>
        <time>2010-10-10T08:27:40Z</time>
      </trkpt>
      <trkpt lat="47.00391" lon="4.71464">
        <ele>421.68</ele>
        <time>2010-10-10T08:27:56Z</time>
      </trkpt>
      <trkpt lat="47.00412" lon="4.7148">
        <ele>425.52</ele>
        <time>2010-10-10T08:28:07Z</time>
      </trkpt>
      <trkpt lat="47.00421" lon="4.71489">
        <ele>425.04</ele>
        <time>2010-10-10T08:28:12Z</time>
      </trkpt>
      <trkpt lat="47.00436" lon="4.71501">
        <ele>426</ele>
        <time>2010-10-10T08:28:19Z</time>
      </trkpt>
      <trkpt lat="47.00482" lon="4.71527">
        <ele>426.96</ele>
        <time>2010-10-10T08:28:32Z</time>
      </trkpt>
      <trkpt lat="47.00533" lon="4.71549">
        <ele>427.92</ele>
        <time>2010-10-10T08:28:47Z</time>
      </trkpt>
      <trkpt lat="47.0054" lon="4.71551">
        <ele>429.37</ele>
        <time>2010-10-10T08:28:49Z</time>
      </trkpt>
      <trkpt lat="47.00569" lon="4.71558">
        <ele>430.33</ele>
        <time>2010-10-10T08:28:58Z</time>
      </trkpt>
      <trkpt lat="47.00632" lon="4.71577">
        <ele>431.29</ele>
        <time>2010-10-10T08:29:16Z</time>
      </trkpt>
      <trkpt lat="47.00636" lon="4.71579">
        <ele>431.77</ele>
        <time>2010-10-10T08:29:17Z</time>
      </trkpt>
      <trkpt lat="47.00653" lon="4.71589">
        <ele>432.25</ele>
        <time>2010-10-10T08:29:21Z</time>
      </trkpt>
      <trkpt lat="47.00657" lon="4.71592">
        <ele>430.81</ele>
        <time>2010-10-10T08:29:22Z</time>
      </trkpt>
      <trkpt lat="47.0066" lon="4.71595">
        <ele>430.33</ele>
        <time>2010-10-10T08:29:23Z</time>
      </trkpt>
      <trkpt lat="47.00663" lon="4.71599">
        <ele>431.29</ele>
        <time>2010-10-10T08:29:24Z</time>
      </trkpt>
      <trkpt lat="47.00665" lon="4.71605">
        <ele>429.37</ele>
        <time>2010-10-10T08:29:25Z</time>
      </trkpt>
      <trkpt lat="47.00668" lon="4.7161">
        <ele>430.81</ele>
        <time>2010-10-10T08:29:26Z</time>
      </trkpt>
      <trkpt lat="47.00675" lon="4.71652">
        <ele>427.92</ele>
        <time>2010-10-10T08:29:34Z</time>
      </trkpt>
      <trkpt lat="47.00676" lon="4.71659">
        <ele>427.92</ele>
        <time>2010-10-10T08:29:35Z</time>
      </trkpt>
      <trkpt lat="47.00676" lon="4.71667">
        <ele>428.89</ele>
        <time>2010-10-10T08:29:36Z</time>
      </trkpt>
      <trkpt lat="47.00673" lon="4.71728">
        <ele>426.48</ele>
        <time>2010-10-10T08:29:44Z</time>
      </trkpt>
      <trkpt lat="47.00649" lon="4.71846">
        <ele>428.4</ele>
        <time>2010-10-10T08:30:00Z</time>
      </trkpt>
      <trkpt lat="47.00643" lon="4.71858">
        <ele>429.37</ele>
        <time>2010-10-10T08:30:02Z</time>
      </trkpt>
      <trkpt lat="47.00636" lon="4.71875">
        <ele>430.33</ele>
        <time>2010-10-10T08:30:05Z</time>
      </trkpt>
      <trkpt lat="47.0062" lon="4.71925">
        <ele>432.73</ele>
        <time>2010-10-10T08:30:15Z</time>
      </trkpt>
      <trkpt lat="47.00621" lon="4.71931">
        <ele>431.29</ele>
        <time>2010-10-10T08:30:16Z</time>
      </trkpt>
      <trkpt lat="47.00623" lon="4.71937">
        <ele>431.77</ele>
        <time>2010-10-10T08:30:17Z</time>
      </trkpt>
      <trkpt lat="47.00625" lon="4.71943">
        <ele>431.29</ele>
        <time>2010-10-10T08:30:18Z</time>
      </trkpt>
      <trkpt lat="47.00627" lon="4.7195">
        <ele>431.29</ele>
        <time>2010-10-10T08:30:19Z</time>
      </trkpt>
      <trkpt lat="47.00628" lon="4.71957">
        <ele>432.25</ele>
        <time>2010-10-10T08:30:20Z</time>
      </trkpt>
      <trkpt lat="47.0064" lon="4.72018">
        <ele>428.89</ele>
        <time>2010-10-10T08:30:27Z</time>
      </trkpt>
      <trkpt lat="47.00645" lon="4.72081">
        <ele>426.96</ele>
        <time>2010-10-10T08:30:33Z</time>
      </trkpt>
      <trkpt lat="47.00647" lon="4.72092">
        <ele>427.44</ele>
        <time>2010-10-10T08:30:34Z</time>
      </trkpt>
      <trkpt lat="47.00656" lon="4.72128">
        <ele>426</ele>
        <time>2010-10-10T08:30:37Z</time>
      </trkpt>
      <trkpt lat="47.00669" lon="4.72194">
        <ele>422.64</ele>
        <time>2010-10-10T08:30:42Z</time>
      </trkpt>
      <trkpt lat="47.0068" lon="4.7226">
        <ele>420.23</ele>
        <time>2010-10-10T08:30:47Z</time>
      </trkpt>
      <trkpt lat="47.00679" lon="4.72273">
        <ele>420.23</ele>
        <time>2010-10-10T08:30:48Z</time>
      </trkpt>
      <trkpt lat="47.00675" lon="4.72285">
        <ele>419.75</ele>
        <time>2010-10-10T08:30:49Z</time>
      </trkpt>
      <trkpt lat="47.0067" lon="4.72296">
        <ele>418.79</ele>
        <time>2010-10-10T08:30:50Z</time>
      </trkpt>
      <trkpt lat="47.00665" lon="4.72307">
        <ele>419.75</ele>
        <time>2010-10-10T08:30:51Z</time>
      </trkpt>
      <trkpt lat="47.00621" lon="4.72388">
        <ele>420.23</ele>
        <time>2010-10-10T08:30:59Z</time>
      </trkpt>
      <trkpt lat="47.00616" lon="4.72394">
        <ele>419.75</ele>
        <time>2010-10-10T08:31:00Z</time>
      </trkpt>
      <trkpt lat="47.0061" lon="4.72398">
        <ele>420.71</ele>
        <time>2010-10-10T08:31:01Z</time>
      </trkpt>
      <trkpt lat="47.006" lon="4.72405">
        <ele>421.68</ele>
        <time>2010-10-10T08:31:03Z</time>
      </trkpt>
      <trkpt lat="47.00596" lon="4.72408">
        <ele>422.64</ele>
        <time>2010-10-10T08:31:04Z</time>
      </trkpt>
      <trkpt lat="47.00592" lon="4.72412">
        <ele>423.6</ele>
        <time>2010-10-10T08:31:05Z</time>
      </trkpt>
      <trkpt lat="47.00589" lon="4.72414">
        <ele>424.56</ele>
        <time>2010-10-10T08:31:06Z</time>
      </trkpt>
      <trkpt lat="47.00586" lon="4.72415">
        <ele>423.6</ele>
        <time>2010-10-10T08:31:07Z</time>
      </trkpt>
      <trkpt lat="47.00582" lon="4.72417">
        <ele>425.04</ele>
        <time>2010-10-10T08:31:08Z</time>
      </trkpt>
      <trkpt lat="47.0058" lon="4.72419">
        <ele>424.08</ele>
        <time>2010-10-10T08:31:09Z</time>
      </trkpt>
      <trkpt lat="47.00577" lon="4.72423">
        <ele>424.56</ele>
        <time>2010-10-10T08:31:10Z</time>
      </trkpt>
      <trkpt lat="47.00575" lon="4.72427">
        <ele>424.08</ele>
        <time>2010-10-10T08:31:11Z</time>
      </trkpt>
      <trkpt lat="47.00573" lon="4.72432">
        <ele>426</ele>
        <time>2010-10-10T08:31:12Z</time>
      </trkpt>
      <trkpt lat="47.00572" lon="4.72437">
        <ele>425.04</ele>
        <time>2010-10-10T08:31:13Z</time>
      </trkpt>
      <trkpt lat="47.00572" lon="4.72443">
        <ele>426</ele>
        <time>2010-10-10T08:31:14Z</time>
      </trkpt>
      <trkpt lat="47.00572" lon="4.72448">
        <ele>425.04</ele>
        <time>2010-10-10T08:31:15Z</time>
      </trkpt>
      <trkpt lat="47.00572" lon="4.72454">
        <ele>425.52</ele>
        <time>2010-10-10T08:31:16Z</time>
      </trkpt>
      <trkpt lat="47.00572" lon="4.72471">
        <ele>427.44</ele>
        <time>2010-10-10T08:31:19Z</time>
      </trkpt>
      <trkpt lat="47.00565" lon="4.72527">
        <ele>427.44</ele>
        <time>2010-10-10T08:31:29Z</time>
      </trkpt>
      <trkpt lat="47.00539" lon="4.72631">
        <ele>426.48</ele>
        <time>2010-10-10T08:31:42Z</time>
      </trkpt>
      <trkpt lat="47.00537" lon="4.7264">
        <ele>426</ele>
        <time>2010-10-10T08:31:43Z</time>
      </trkpt>
      <trkpt lat="47.00535" lon="4.72648">
        <ele>426</ele>
        <time>2010-10-10T08:31:44Z</time>
      </trkpt>
      <trkpt lat="47.00524" lon="4.72677">
        <ele>424.56</ele>
        <time>2010-10-10T08:31:48Z</time>
      </trkpt>
      <trkpt lat="47.00521" lon="4.72684">
        <ele>424.56</ele>
        <time>2010-10-10T08:31:49Z</time>
      </trkpt>
      <trkpt lat="47.00518" lon="4.72692">
        <ele>423.6</ele>
        <time>2010-10-10T08:31:50Z</time>
      </trkpt>
      <trkpt lat="47.00516" lon="4.727">
        <ele>425.04</ele>
        <time>2010-10-10T08:31:51Z</time>
      </trkpt>
      <trkpt lat="47.00515" lon="4.7271">
        <ele>424.56</ele>
        <time>2010-10-10T08:31:52Z</time>
      </trkpt>
      <trkpt lat="47.00509" lon="4.72738">
        <ele>423.12</ele>
        <time>2010-10-10T08:31:55Z</time>
      </trkpt>
      <trkpt lat="47.00483" lon="4.72856">
        <ele>421.68</ele>
        <time>2010-10-10T08:32:07Z</time>
      </trkpt>
      <trkpt lat="47.00481" lon="4.72878">
        <ele>419.75</ele>
        <time>2010-10-10T08:32:09Z</time>
      </trkpt>
      <trkpt lat="47.0048" lon="4.72889">
        <ele>418.31</ele>
        <time>2010-10-10T08:32:10Z</time>
      </trkpt>
      <trkpt lat="47.00469" lon="4.73015">
        <ele>414.95</ele>
        <time>2010-10-10T08:32:21Z</time>
      </trkpt>
      <trkpt lat="47.00467" lon="4.73027">
        <ele>414.95</ele>
        <time>2010-10-10T08:32:22Z</time>
      </trkpt>
      <trkpt lat="47.00464" lon="4.73049">
        <ele>413.5</ele>
        <time>2010-10-10T08:32:24Z</time>
      </trkpt>
      <trkpt lat="47.00462" lon="4.7306">
        <ele>413.02</ele>
        <time>2010-10-10T08:32:25Z</time>
      </trkpt>
      <trkpt lat="47.00448" lon="4.73148">
        <ele>409.18</ele>
        <time>2010-10-10T08:32:33Z</time>
      </trkpt>
      <trkpt lat="47.00446" lon="4.73159">
        <ele>409.18</ele>
        <time>2010-10-10T08:32:34Z</time>
      </trkpt>
      <trkpt lat="47.00438" lon="4.73189">
        <ele>408.22</ele>
        <time>2010-10-10T08:32:37Z</time>
      </trkpt>
      <trkpt lat="47.00435" lon="4.73211">
        <ele>407.26</ele>
        <time>2010-10-10T08:32:39Z</time>
      </trkpt>
      <trkpt lat="47.00428" lon="4.73243">
        <ele>405.33</ele>
        <time>2010-10-10T08:32:42Z</time>
      </trkpt>
      <trkpt lat="47.00425" lon="4.73254">
        <ele>405.33</ele>
        <time>2010-10-10T08:32:43Z</time>
      </trkpt>
      <trkpt lat="47.00422" lon="4.73265">
        <ele>404.85</ele>
        <time>2010-10-10T08:32:44Z</time>
      </trkpt>
      <trkpt lat="47.00409" lon="4.73336">
        <ele>401.01</ele>
        <time>2010-10-10T08:32:50Z</time>
      </trkpt>
      <trkpt lat="47.00382" lon="4.73458">
        <ele>397.16</ele>
        <time>2010-10-10T08:33:00Z</time>
      </trkpt>
      <trkpt lat="47.00366" lon="4.73541">
        <ele>394.28</ele>
        <time>2010-10-10T08:33:07Z</time>
      </trkpt>
      <trkpt lat="47.00357" lon="4.73575">
        <ele>392.84</ele>
        <time>2010-10-10T08:33:10Z</time>
      </trkpt>
      <trkpt lat="47.00355" lon="4.73583">
        <ele>392.36</ele>
        <time>2010-10-10T08:33:11Z</time>
      </trkpt>
      <trkpt lat="47.00351" lon="4.73598">
        <ele>391.87</ele>
        <time>2010-10-10T08:33:13Z</time>
      </trkpt>
      <trkpt lat="47.0035" lon="4.73604">
        <ele>391.87</ele>
        <time>2010-10-10T08:33:14Z</time>
      </trkpt>
      <trkpt lat="47.0035" lon="4.73607">
        <ele>392.36</ele>
        <time>2010-10-10T08:33:15Z</time>
      </trkpt>
      <trkpt lat="47.0035" lon="4.7361">
        <ele>391.87</ele>
        <time>2010-10-10T08:33:16Z</time>
      </trkpt>
      <trkpt lat="47.0035" lon="4.73613">
        <ele>392.36</ele>
        <time>2010-10-10T08:33:17Z</time>
      </trkpt>
      <trkpt lat="47.0035" lon="4.73616">
        <ele>392.36</ele>
        <time>2010-10-10T08:33:18Z</time>
      </trkpt>
      <trkpt lat="47.0035" lon="4.7362">
        <ele>392.84</ele>
        <time>2010-10-10T08:33:19Z</time>
      </trkpt>
      <trkpt lat="47.0035" lon="4.73624">
        <ele>392.36</ele>
        <time>2010-10-10T08:33:20Z</time>
      </trkpt>
      <trkpt lat="47.0035" lon="4.73628">
        <ele>391.87</ele>
        <time>2010-10-10T08:33:21Z</time>
      </trkpt>
      <trkpt lat="47.00351" lon="4.73633">
        <ele>392.36</ele>
        <time>2010-10-10T08:33:22Z</time>
      </trkpt>
      <trkpt lat="47.00344" lon="4.73674">
        <ele>392.84</ele>
        <time>2010-10-10T08:33:29Z</time>
      </trkpt>
      <trkpt lat="47.00341" lon="4.73686">
        <ele>392.84</ele>
        <time>2010-10-10T08:33:31Z</time>
      </trkpt>
      <trkpt lat="47.00339" lon="4.73692">
        <ele>392.84</ele>
        <time>2010-10-10T08:33:32Z</time>
      </trkpt>
      <trkpt lat="47.00329" lon="4.73732">
        <ele>393.32</ele>
        <time>2010-10-10T08:33:39Z</time>
      </trkpt>
      <trkpt lat="47.00327" lon="4.73745">
        <ele>393.32</ele>
        <time>2010-10-10T08:33:41Z</time>
      </trkpt>
      <trkpt lat="47.00326" lon="4.73758">
        <ele>392.84</ele>
        <time>2010-10-10T08:33:43Z</time>
      </trkpt>
      <trkpt lat="47.00324" lon="4.73771">
        <ele>392.84</ele>
        <time>2010-10-10T08:33:45Z</time>
      </trkpt>
      <trkpt lat="47.00322" lon="4.73776">
        <ele>392.84</ele>
        <time>2010-10-10T08:33:46Z</time>
      </trkpt>
      <trkpt lat="47.0032" lon="4.73781">
        <ele>393.32</ele>
        <time>2010-10-10T08:33:47Z</time>
      </trkpt>
      <trkpt lat="47.00317" lon="4.73786">
        <ele>393.8</ele>
        <time>2010-10-10T08:33:48Z</time>
      </trkpt>
      <trkpt lat="47.00314" lon="4.73791">
        <ele>394.28</ele>
        <time>2010-10-10T08:33:49Z</time>
      </trkpt>
      <trkpt lat="47.00292" lon="4.73852">
        <ele>397.16</ele>
        <time>2010-10-10T08:34:03Z</time>
      </trkpt>
      <trkpt lat="47.00293" lon="4.73855">
        <ele>396.68</ele>
        <time>2010-10-10T08:34:04Z</time>
      </trkpt>
      <trkpt lat="47.00295" lon="4.73859">
        <ele>397.16</ele>
        <time>2010-10-10T08:34:05Z</time>
      </trkpt>
      <trkpt lat="47.00303" lon="4.73878">
        <ele>396.2</ele>
        <time>2010-10-10T08:34:09Z</time>
      </trkpt>
      <trkpt lat="47.00304" lon="4.73884">
        <ele>396.2</ele>
        <time>2010-10-10T08:34:10Z</time>
      </trkpt>
      <trkpt lat="47.00307" lon="4.73891">
        <ele>395.72</ele>
        <time>2010-10-10T08:34:11Z</time>
      </trkpt>
      <trkpt lat="47.00311" lon="4.73897">
        <ele>394.76</ele>
        <time>2010-10-10T08:34:12Z</time>
      </trkpt>
      <trkpt lat="47.00315" lon="4.73903">
        <ele>395.24</ele>
        <time>2010-10-10T08:34:13Z</time>
      </trkpt>
      <trkpt lat="47.00334" lon="4.7393">
        <ele>393.8</ele>
        <time>2010-10-10T08:34:17Z</time>
      </trkpt>
      <trkpt lat="47.00345" lon="4.73951">
        <ele>392.84</ele>
        <time>2010-10-10T08:34:20Z</time>
      </trkpt>
      <trkpt lat="47.00347" lon="4.73958">
        <ele>392.84</ele>
        <time>2010-10-10T08:34:21Z</time>
      </trkpt>
      <trkpt lat="47.00353" lon="4.73986">
        <ele>393.32</ele>
        <time>2010-10-10T08:34:25Z</time>
      </trkpt>
      <trkpt lat="47.00357" lon="4.74002">
        <ele>391.87</ele>
        <time>2010-10-10T08:34:27Z</time>
      </trkpt>
      <trkpt lat="47.00367" lon="4.74043">
        <ele>390.91</ele>
        <time>2010-10-10T08:34:32Z</time>
      </trkpt>
      <trkpt lat="47.00367" lon="4.74051">
        <ele>390.91</ele>
        <time>2010-10-10T08:34:33Z</time>
      </trkpt>
      <trkpt lat="47.00366" lon="4.74059">
        <ele>390.91</ele>
        <time>2010-10-10T08:34:34Z</time>
      </trkpt>
      <trkpt lat="47.00361" lon="4.74075">
        <ele>388.51</ele>
        <time>2010-10-10T08:34:36Z</time>
      </trkpt>
      <trkpt lat="47.00358" lon="4.74082">
        <ele>389.47</ele>
        <time>2010-10-10T08:34:37Z</time>
      </trkpt>
      <trkpt lat="47.00356" lon="4.74089">
        <ele>388.03</ele>
        <time>2010-10-10T08:34:38Z</time>
      </trkpt>
      <trkpt lat="47.00353" lon="4.74097">
        <ele>388.51</ele>
        <time>2010-10-10T08:34:39Z</time>
      </trkpt>
      <trkpt lat="47.0035" lon="4.74106">
        <ele>388.51</ele>
        <time>2010-10-10T08:34:40Z</time>
      </trkpt>
      <trkpt lat="47.0035" lon="4.74115">
        <ele>387.07</ele>
        <time>2010-10-10T08:34:41Z</time>
      </trkpt>
      <trkpt lat="47.00349" lon="4.74123">
        <ele>387.07</ele>
        <time>2010-10-10T08:34:42Z</time>
      </trkpt>
      <trkpt lat="47.00349" lon="4.74132">
        <ele>387.07</ele>
        <time>2010-10-10T08:34:43Z</time>
      </trkpt>
      <trkpt lat="47.0035" lon="4.74141">
        <ele>386.11</ele>
        <time>2010-10-10T08:34:44Z</time>
      </trkpt>
      <trkpt lat="47.00351" lon="4.7415">
        <ele>386.59</ele>
        <time>2010-10-10T08:34:45Z</time>
      </trkpt>
      <trkpt lat="47.00357" lon="4.74178">
        <ele>385.63</ele>
        <time>2010-10-10T08:34:48Z</time>
      </trkpt>
      <trkpt lat="47.00366" lon="4.74215">
        <ele>382.26</ele>
        <time>2010-10-10T08:34:52Z</time>
      </trkpt>
      <trkpt lat="47.0037" lon="4.74225">
        <ele>382.74</ele>
        <time>2010-10-10T08:34:53Z</time>
      </trkpt>
      <trkpt lat="47.00381" lon="4.74265">
        <ele>381.3</ele>
        <time>2010-10-10T08:34:57Z</time>
      </trkpt>
      <trkpt lat="47.00385" lon="4.74286">
        <ele>380.34</ele>
        <time>2010-10-10T08:34:59Z</time>
      </trkpt>
      <trkpt lat="47.00385" lon="4.74297">
        <ele>380.82</ele>
        <time>2010-10-10T08:35:00Z</time>
      </trkpt>
      <trkpt lat="47.00385" lon="4.74307">
        <ele>379.86</ele>
        <time>2010-10-10T08:35:01Z</time>
      </trkpt>
      <trkpt lat="47.00383" lon="4.74337">
        <ele>377.94</ele>
        <time>2010-10-10T08:35:04Z</time>
      </trkpt>
      <trkpt lat="47.00381" lon="4.74347">
        <ele>377.45</ele>
        <time>2010-10-10T08:35:05Z</time>
      </trkpt>
      <trkpt lat="47.00378" lon="4.74356">
        <ele>377.94</ele>
        <time>2010-10-10T08:35:06Z</time>
      </trkpt>
      <trkpt lat="47.00376" lon="4.74366">
        <ele>376.49</ele>
        <time>2010-10-10T08:35:07Z</time>
      </trkpt>
      <trkpt lat="47.00374" lon="4.74377">
        <ele>376.01</ele>
        <time>2010-10-10T08:35:08Z</time>
      </trkpt>
      <trkpt lat="47.00374" lon="4.74387">
        <ele>376.01</ele>
        <time>2010-10-10T08:35:09Z</time>
      </trkpt>
      <trkpt lat="47.00374" lon="4.74395">
        <ele>375.05</ele>
        <time>2010-10-10T08:35:10Z</time>
      </trkpt>
      <trkpt lat="47.00373" lon="4.74403">
        <ele>374.09</ele>
        <time>2010-10-10T08:35:11Z</time>
      </trkpt>
      <trkpt lat="47.00373" lon="4.74426">
        <ele>373.61</ele>
        <time>2010-10-10T08:35:14Z</time>
      </trkpt>
      <trkpt lat="47.00373" lon="4.74483">
        <ele>371.21</ele>
        <time>2010-10-10T08:35:20Z</time>
      </trkpt>
      <trkpt lat="47.00374" lon="4.74493">
        <ele>371.21</ele>
        <time>2010-10-10T08:35:21Z</time>
      </trkpt>
      <trkpt lat="47.00378" lon="4.74514">
        <ele>369.76</ele>
        <time>2010-10-10T08:35:23Z</time>
      </trkpt>
      <trkpt lat="47.00388" lon="4.74575">
        <ele>367.84</ele>
        <time>2010-10-10T08:35:29Z</time>
      </trkpt>
      <trkpt lat="47.00398" lon="4.74608">
        <ele>364.96</ele>
        <time>2010-10-10T08:35:33Z</time>
      </trkpt>
      <trkpt lat="47.00403" lon="4.74625">
        <ele>364</ele>
        <time>2010-10-10T08:35:35Z</time>
      </trkpt>
      <trkpt lat="47.0041" lon="4.74643">
        <ele>362.55</ele>
        <time>2010-10-10T08:35:37Z</time>
      </trkpt>
      <trkpt lat="47.00415" lon="4.74662">
        <ele>361.59</ele>
        <time>2010-10-10T08:35:39Z</time>
      </trkpt>
      <trkpt lat="47.00426" lon="4.74713">
        <ele>360.15</ele>
        <time>2010-10-10T08:35:44Z</time>
      </trkpt>
      <trkpt lat="47.00426" lon="4.74735">
        <ele>358.71</ele>
        <time>2010-10-10T08:35:46Z</time>
      </trkpt>
      <trkpt lat="47.00425" lon="4.74746">
        <ele>358.23</ele>
        <time>2010-10-10T08:35:47Z</time>
      </trkpt>
      <trkpt lat="47.00413" lon="4.74899">
        <ele>354.86</ele>
        <time>2010-10-10T08:36:00Z</time>
      </trkpt>
      <trkpt lat="47.00414" lon="4.7505">
        <ele>353.42</ele>
        <time>2010-10-10T08:36:14Z</time>
      </trkpt>
      <trkpt lat="47.00416" lon="4.75085">
        <ele>353.42</ele>
        <time>2010-10-10T08:36:18Z</time>
      </trkpt>
      <trkpt lat="47.00414" lon="4.7509">
        <ele>352.94</ele>
        <time>2010-10-10T08:36:19Z</time>
      </trkpt>
      <trkpt lat="47.00412" lon="4.75093">
        <ele>352.46</ele>
        <time>2010-10-10T08:36:20Z</time>
      </trkpt>
      <trkpt lat="47.0041" lon="4.75095">
        <ele>352.46</ele>
        <time>2010-10-10T08:36:21Z</time>
      </trkpt>
      <trkpt lat="47.00408" lon="4.75096">
        <ele>351.5</ele>
        <time>2010-10-10T08:36:22Z</time>
      </trkpt>
      <trkpt lat="47.00407" lon="4.75097">
        <ele>351.02</ele>
        <time>2010-10-10T08:36:23Z</time>
      </trkpt>
      <trkpt lat="47.00406" lon="4.75097">
        <ele>351.02</ele>
        <time>2010-10-10T08:36:24Z</time>
      </trkpt>
      <trkpt lat="47.00405" lon="4.75098">
        <ele>351.02</ele>
        <time>2010-10-10T08:36:25Z</time>
      </trkpt>
      <trkpt lat="47.00404" lon="4.75099">
        <ele>350.54</ele>
        <time>2010-10-10T08:36:26Z</time>
      </trkpt>
      <trkpt lat="47.00403" lon="4.75101">
        <ele>351.02</ele>
        <time>2010-10-10T08:36:27Z</time>
      </trkpt>
      <trkpt lat="47.00393" lon="4.75118">
        <ele>349.1</ele>
        <time>2010-10-10T08:36:32Z</time>
      </trkpt>
      <trkpt lat="47.00379" lon="4.75148">
        <ele>348.13</ele>
        <time>2010-10-10T08:36:37Z</time>
      </trkpt>
      <trkpt lat="47.00334" lon="4.75224">
        <ele>345.73</ele>
        <time>2010-10-10T08:36:48Z</time>
      </trkpt>
      <trkpt lat="47.00324" lon="4.75238">
        <ele>345.25</ele>
        <time>2010-10-10T08:36:50Z</time>
      </trkpt>
      <trkpt lat="47.00319" lon="4.75244">
        <ele>345.73</ele>
        <time>2010-10-10T08:36:51Z</time>
      </trkpt>
      <trkpt lat="47.00314" lon="4.7525">
        <ele>345.73</ele>
        <time>2010-10-10T08:36:52Z</time>
      </trkpt>
      <trkpt lat="47.00308" lon="4.75254">
        <ele>345.73</ele>
        <time>2010-10-10T08:36:53Z</time>
      </trkpt>
      <trkpt lat="47.00302" lon="4.75257">
        <ele>346.69</ele>
        <time>2010-10-10T08:36:54Z</time>
      </trkpt>
      <trkpt lat="47.00296" lon="4.75258">
        <ele>345.73</ele>
        <time>2010-10-10T08:36:55Z</time>
      </trkpt>
      <trkpt lat="47.00289" lon="4.75258">
        <ele>345.73</ele>
        <time>2010-10-10T08:36:56Z</time>
      </trkpt>
      <trkpt lat="47.00283" lon="4.75256">
        <ele>346.21</ele>
        <time>2010-10-10T08:36:57Z</time>
      </trkpt>
      <trkpt lat="47.00277" lon="4.75253">
        <ele>346.69</ele>
        <time>2010-10-10T08:36:58Z</time>
      </trkpt>
      <trkpt lat="47.00259" lon="4.75248">
        <ele>345.73</ele>
        <time>2010-10-10T08:37:01Z</time>
      </trkpt>
      <trkpt lat="47.00253" lon="4.75248">
        <ele>345.73</ele>
        <time>2010-10-10T08:37:02Z</time>
      </trkpt>
      <trkpt lat="47.00247" lon="4.75249">
        <ele>346.21</ele>
        <time>2010-10-10T08:37:03Z</time>
      </trkpt>
      <trkpt lat="47.00222" lon="4.75256">
        <ele>346.69</ele>
        <time>2010-10-10T08:37:08Z</time>
      </trkpt>
      <trkpt lat="47.00216" lon="4.75256">
        <ele>346.69</ele>
        <time>2010-10-10T08:37:09Z</time>
      </trkpt>
      <trkpt lat="47.0015" lon="4.75256">
        <ele>348.62</ele>
        <time>2010-10-10T08:37:22Z</time>
      </trkpt>
      <trkpt lat="47.00077" lon="4.75255">
        <ele>349.1</ele>
        <time>2010-10-10T08:37:37Z</time>
      </trkpt>
      <trkpt lat="47.00035" lon="4.75265">
        <ele>351.5</ele>
        <time>2010-10-10T08:37:49Z</time>
      </trkpt>
      <trkpt lat="46.99993" lon="4.7527">
        <ele>352.94</ele>
        <time>2010-10-10T08:38:01Z</time>
      </trkpt>
      <trkpt lat="46.99945" lon="4.75273">
        <ele>354.86</ele>
        <time>2010-10-10T08:38:14Z</time>
      </trkpt>
      <trkpt lat="46.99908" lon="4.75284">
        <ele>356.31</ele>
        <time>2010-10-10T08:38:26Z</time>
      </trkpt>
      <trkpt lat="46.9987" lon="4.75303">
        <ele>358.71</ele>
        <time>2010-10-10T08:38:39Z</time>
      </trkpt>
      <trkpt lat="46.9983" lon="4.75318">
        <ele>359.19</ele>
        <time>2010-10-10T08:38:50Z</time>
      </trkpt>
      <trkpt lat="46.99818" lon="4.75321">
        <ele>359.67</ele>
        <time>2010-10-10T08:38:53Z</time>
      </trkpt>
      <trkpt lat="46.99798" lon="4.75322">
        <ele>359.67</ele>
        <time>2010-10-10T08:38:57Z</time>
      </trkpt>
      <trkpt lat="46.99792" lon="4.75322">
        <ele>359.67</ele>
        <time>2010-10-10T08:38:58Z</time>
      </trkpt>
      <trkpt lat="46.99707" lon="4.75328">
        <ele>359.67</ele>
        <time>2010-10-10T08:39:13Z</time>
      </trkpt>
      <trkpt lat="46.99665" lon="4.75321">
        <ele>360.15</ele>
        <time>2010-10-10T08:39:20Z</time>
      </trkpt>
      <trkpt lat="46.9966" lon="4.7532">
        <ele>359.67</ele>
        <time>2010-10-10T08:39:21Z</time>
      </trkpt>
      <trkpt lat="46.99654" lon="4.75317">
        <ele>359.67</ele>
        <time>2010-10-10T08:39:22Z</time>
      </trkpt>
      <trkpt lat="46.99556" lon="4.75279">
        <ele>360.15</ele>
        <time>2010-10-10T08:39:39Z</time>
      </trkpt>
      <trkpt lat="46.9948" lon="4.75272">
        <ele>356.31</ele>
        <time>2010-10-10T08:39:50Z</time>
      </trkpt>
      <trkpt lat="46.99472" lon="4.75272">
        <ele>355.83</ele>
        <time>2010-10-10T08:39:51Z</time>
      </trkpt>
      <trkpt lat="46.99464" lon="4.75275">
        <ele>355.83</ele>
        <time>2010-10-10T08:39:52Z</time>
      </trkpt>
      <trkpt lat="46.99456" lon="4.75279">
        <ele>354.86</ele>
        <time>2010-10-10T08:39:53Z</time>
      </trkpt>
      <trkpt lat="46.99449" lon="4.75285">
        <ele>354.38</ele>
        <time>2010-10-10T08:39:54Z</time>
      </trkpt>
      <trkpt lat="46.99443" lon="4.75292">
        <ele>354.38</ele>
        <time>2010-10-10T08:39:55Z</time>
      </trkpt>
      <trkpt lat="46.99437" lon="4.753">
        <ele>354.38</ele>
        <time>2010-10-10T08:39:56Z</time>
      </trkpt>
      <trkpt lat="46.99426" lon="4.75315">
        <ele>353.9</ele>
        <time>2010-10-10T08:39:58Z</time>
      </trkpt>
      <trkpt lat="46.99403" lon="4.75339">
        <ele>352.94</ele>
        <time>2010-10-10T08:40:02Z</time>
      </trkpt>
      <trkpt lat="46.99399" lon="4.75342">
        <ele>352.94</ele>
        <time>2010-10-10T08:40:03Z</time>
      </trkpt>
      <trkpt lat="46.99396" lon="4.75342">
        <ele>351.98</ele>
        <time>2010-10-10T08:40:04Z</time>
      </trkpt>
      <trkpt lat="46.99394" lon="4.7534">
        <ele>352.94</ele>
        <time>2010-10-10T08:40:05Z</time>
      </trkpt>
      <trkpt lat="46.99393" lon="4.75337">
        <ele>352.94</ele>
        <time>2010-10-10T08:40:06Z</time>
      </trkpt>
      <trkpt lat="46.99393" lon="4.75335">
        <ele>352.94</ele>
        <time>2010-10-10T08:40:07Z</time>
      </trkpt>
      <trkpt lat="46.99392" lon="4.75332">
        <ele>353.42</ele>
        <time>2010-10-10T08:40:08Z</time>
      </trkpt>
      <trkpt lat="46.99391" lon="4.75328">
        <ele>354.38</ele>
        <time>2010-10-10T08:40:10Z</time>
      </trkpt>
      <trkpt lat="46.99389" lon="4.75308">
        <ele>356.79</ele>
        <time>2010-10-10T08:40:18Z</time>
      </trkpt>
      <trkpt lat="46.99394" lon="4.7528">
        <ele>360.15</ele>
        <time>2010-10-10T08:40:29Z</time>
      </trkpt>
      <trkpt lat="46.99394" lon="4.75277">
        <ele>360.63</ele>
        <time>2010-10-10T08:40:30Z</time>
      </trkpt>
      <trkpt lat="46.99394" lon="4.75274">
        <ele>360.63</ele>
        <time>2010-10-10T08:40:31Z</time>
      </trkpt>
      <trkpt lat="46.99388" lon="4.75256">
        <ele>363.04</ele>
        <time>2010-10-10T08:40:40Z</time>
      </trkpt>
      <trkpt lat="46.99387" lon="4.75245">
        <ele>364</ele>
        <time>2010-10-10T08:40:45Z</time>
      </trkpt>
      <trkpt lat="46.99384" lon="4.75231">
        <ele>364.96</ele>
        <time>2010-10-10T08:40:52Z</time>
      </trkpt>
      <trkpt lat="46.99384" lon="4.75229">
        <ele>364.96</ele>
        <time>2010-10-10T08:40:53Z</time>
      </trkpt>
      <trkpt lat="46.99384" lon="4.75224">
        <ele>371.69</ele>
        <time>2010-10-10T08:40:55Z</time>
      </trkpt>
      <trkpt lat="46.99384" lon="4.75222">
        <ele>375.53</ele>
        <time>2010-10-10T08:40:56Z</time>
      </trkpt>
      <trkpt lat="46.99384" lon="4.7522">
        <ele>366.88</ele>
        <time>2010-10-10T08:40:57Z</time>
      </trkpt>
      <trkpt lat="46.99384" lon="4.75217">
        <ele>379.86</ele>
        <time>2010-10-10T08:40:58Z</time>
      </trkpt>
      <trkpt lat="46.99384" lon="4.75215">
        <ele>368.8</ele>
        <time>2010-10-10T08:40:59Z</time>
      </trkpt>
      <trkpt lat="46.99383" lon="4.75211">
        <ele>367.36</ele>
        <time>2010-10-10T08:41:01Z</time>
      </trkpt>
      <trkpt lat="46.99384" lon="4.75209">
        <ele>367.36</ele>
        <time>2010-10-10T08:41:02Z</time>
      </trkpt>
      <trkpt lat="46.99384" lon="4.75206">
        <ele>367.36</ele>
        <time>2010-10-10T08:41:03Z</time>
      </trkpt>
      <trkpt lat="46.99383" lon="4.75203">
        <ele>367.36</ele>
        <time>2010-10-10T08:41:04Z</time>
      </trkpt>
      <trkpt lat="46.99383" lon="4.75201">
        <ele>366.88</ele>
        <time>2010-10-10T08:41:05Z</time>
      </trkpt>
      <trkpt lat="46.99382" lon="4.75199">
        <ele>367.36</ele>
        <time>2010-10-10T08:41:06Z</time>
      </trkpt>
      <trkpt lat="46.99382" lon="4.75197">
        <ele>367.84</ele>
        <time>2010-10-10T08:41:07Z</time>
      </trkpt>
      <trkpt lat="46.99383" lon="4.75179">
        <ele>368.8</ele>
        <time>2010-10-10T08:41:15Z</time>
      </trkpt>
      <trkpt lat="46.99383" lon="4.75177">
        <ele>368.8</ele>
        <time>2010-10-10T08:41:16Z</time>
      </trkpt>
      <trkpt lat="46.99384" lon="4.75175">
        <ele>369.28</ele>
        <time>2010-10-10T08:41:17Z</time>
      </trkpt>
      <trkpt lat="46.99385" lon="4.75173">
        <ele>369.28</ele>
        <time>2010-10-10T08:41:18Z</time>
      </trkpt>
      <trkpt lat="46.99385" lon="4.75171">
        <ele>369.28</ele>
        <time>2010-10-10T08:41:19Z</time>
      </trkpt>
      <trkpt lat="46.99398" lon="4.75144">
        <ele>371.69</ele>
        <time>2010-10-10T08:41:33Z</time>
      </trkpt>
      <trkpt lat="46.99403" lon="4.75135">
        <ele>373.13</ele>
        <time>2010-10-10T08:41:38Z</time>
      </trkpt>
      <trkpt lat="46.99404" lon="4.75133">
        <ele>373.61</ele>
        <time>2010-10-10T08:41:39Z</time>
      </trkpt>
      <trkpt lat="46.99405" lon="4.75131">
        <ele>373.61</ele>
        <time>2010-10-10T08:41:40Z</time>
      </trkpt>
      <trkpt lat="46.99411" lon="4.75117">
        <ele>374.09</ele>
        <time>2010-10-10T08:41:47Z</time>
      </trkpt>
      <trkpt lat="46.99411" lon="4.75115">
        <ele>374.09</ele>
        <time>2010-10-10T08:41:48Z</time>
      </trkpt>
      <trkpt lat="46.99411" lon="4.75112">
        <ele>375.05</ele>
        <time>2010-10-10T08:41:49Z</time>
      </trkpt>
      <trkpt lat="46.99411" lon="4.7511">
        <ele>375.05</ele>
        <time>2010-10-10T08:41:50Z</time>
      </trkpt>
      <trkpt lat="46.99411" lon="4.75108">
        <ele>375.05</ele>
        <time>2010-10-10T08:41:51Z</time>
      </trkpt>
      <trkpt lat="46.99411" lon="4.75106">
        <ele>375.05</ele>
        <time>2010-10-10T08:41:52Z</time>
      </trkpt>
      <trkpt lat="46.9941" lon="4.75104">
        <ele>375.53</ele>
        <time>2010-10-10T08:41:53Z</time>
      </trkpt>
      <trkpt lat="46.99409" lon="4.75101">
        <ele>375.53</ele>
        <time>2010-10-10T08:41:54Z</time>
      </trkpt>
      <trkpt lat="46.99408" lon="4.75099">
        <ele>375.53</ele>
        <time>2010-10-10T08:41:55Z</time>
      </trkpt>
      <trkpt lat="46.99407" lon="4.75097">
        <ele>376.01</ele>
        <time>2010-10-10T08:41:56Z</time>
      </trkpt>
      <trkpt lat="46.99407" lon="4.75095">
        <ele>376.01</ele>
        <time>2010-10-10T08:41:57Z</time>
      </trkpt>
      <trkpt lat="46.99406" lon="4.75092">
        <ele>376.49</ele>
        <time>2010-10-10T08:41:58Z</time>
      </trkpt>
      <trkpt lat="46.99406" lon="4.7509">
        <ele>376.97</ele>
        <time>2010-10-10T08:41:59Z</time>
      </trkpt>
      <trkpt lat="46.99405" lon="4.75072">
        <ele>377.94</ele>
        <time>2010-10-10T08:42:07Z</time>
      </trkpt>
      <trkpt lat="46.99405" lon="4.7507">
        <ele>377.94</ele>
        <time>2010-10-10T08:42:08Z</time>
      </trkpt>
      <trkpt lat="46.99411" lon="4.7504">
        <ele>380.34</ele>
        <time>2010-10-10T08:42:22Z</time>
      </trkpt>
      <trkpt lat="46.99424" lon="4.75022">
        <ele>382.26</ele>
        <time>2010-10-10T08:42:34Z</time>
      </trkpt>
      <trkpt lat="46.99456" lon="4.75015">
        <ele>383.22</ele>
        <time>2010-10-10T08:42:49Z</time>
      </trkpt>
      <trkpt lat="46.9946" lon="4.75011">
        <ele>384.18</ele>
        <time>2010-10-10T08:42:52Z</time>
      </trkpt>
      <trkpt lat="46.99462" lon="4.75009">
        <ele>383.7</ele>
        <time>2010-10-10T08:42:53Z</time>
      </trkpt>
      <trkpt lat="46.99464" lon="4.75007">
        <ele>383.7</ele>
        <time>2010-10-10T08:42:54Z</time>
      </trkpt>
      <trkpt lat="46.99466" lon="4.75005">
        <ele>384.66</ele>
        <time>2010-10-10T08:42:55Z</time>
      </trkpt>
      <trkpt lat="46.99468" lon="4.75003">
        <ele>384.66</ele>
        <time>2010-10-10T08:42:56Z</time>
      </trkpt>
      <trkpt lat="46.9947" lon="4.75001">
        <ele>384.66</ele>
        <time>2010-10-10T08:42:57Z</time>
      </trkpt>
      <trkpt lat="46.99477" lon="4.74991">
        <ele>385.63</ele>
        <time>2010-10-10T08:43:02Z</time>
      </trkpt>
      <trkpt lat="46.99501" lon="4.74968">
        <ele>388.03</ele>
        <time>2010-10-10T08:43:16Z</time>
      </trkpt>
      <trkpt lat="46.99522" lon="4.74948">
        <ele>389.95</ele>
        <time>2010-10-10T08:43:29Z</time>
      </trkpt>
      <trkpt lat="46.99549" lon="4.74931">
        <ele>392.36</ele>
        <time>2010-10-10T08:43:43Z</time>
      </trkpt>
      <trkpt lat="46.99566" lon="4.74913">
        <ele>393.32</ele>
        <time>2010-10-10T08:43:54Z</time>
      </trkpt>
      <trkpt lat="46.99585" lon="4.74881">
        <ele>395.72</ele>
        <time>2010-10-10T08:44:09Z</time>
      </trkpt>
      <trkpt lat="46.99608" lon="4.74857">
        <ele>398.12</ele>
        <time>2010-10-10T08:44:23Z</time>
      </trkpt>
      <trkpt lat="46.99639" lon="4.7484">
        <ele>399.57</ele>
        <time>2010-10-10T08:44:37Z</time>
      </trkpt>
      <trkpt lat="46.99662" lon="4.74824">
        <ele>400.53</ele>
        <time>2010-10-10T08:44:48Z</time>
      </trkpt>
      <trkpt lat="46.99688" lon="4.7481">
        <ele>401.01</ele>
        <time>2010-10-10T08:44:59Z</time>
      </trkpt>
      <trkpt lat="46.99709" lon="4.74776">
        <ele>402.45</ele>
        <time>2010-10-10T08:45:10Z</time>
      </trkpt>
      <trkpt lat="46.99742" lon="4.74754">
        <ele>402.93</ele>
        <time>2010-10-10T08:45:21Z</time>
      </trkpt>
      <trkpt lat="46.99763" lon="4.74703">
        <ele>403.41</ele>
        <time>2010-10-10T08:45:32Z</time>
      </trkpt>
      <trkpt lat="46.9978" lon="4.74666">
        <ele>403.41</ele>
        <time>2010-10-10T08:45:40Z</time>
      </trkpt>
      <trkpt lat="46.9978" lon="4.7466">
        <ele>402.93</ele>
        <time>2010-10-10T08:45:41Z</time>
      </trkpt>
      <trkpt lat="46.99779" lon="4.74654">
        <ele>402.93</ele>
        <time>2010-10-10T08:45:42Z</time>
      </trkpt>
      <trkpt lat="46.99777" lon="4.74649">
        <ele>403.41</ele>
        <time>2010-10-10T08:45:43Z</time>
      </trkpt>
      <trkpt lat="46.99773" lon="4.74644">
        <ele>402.93</ele>
        <time>2010-10-10T08:45:44Z</time>
      </trkpt>
      <trkpt lat="46.99771" lon="4.74638">
        <ele>403.41</ele>
        <time>2010-10-10T08:45:45Z</time>
      </trkpt>
      <trkpt lat="46.99768" lon="4.74632">
        <ele>402.93</ele>
        <time>2010-10-10T08:45:46Z</time>
      </trkpt>
      <trkpt lat="46.99767" lon="4.74625">
        <ele>402.93</ele>
        <time>2010-10-10T08:45:47Z</time>
      </trkpt>
      <trkpt lat="46.99766" lon="4.74619">
        <ele>403.41</ele>
        <time>2010-10-10T08:45:48Z</time>
      </trkpt>
      <trkpt lat="46.99763" lon="4.74599">
        <ele>403.89</ele>
        <time>2010-10-10T08:45:51Z</time>
      </trkpt>
      <trkpt lat="46.99762" lon="4.74594">
        <ele>403.41</ele>
        <time>2010-10-10T08:45:52Z</time>
      </trkpt>
      <trkpt lat="46.99761" lon="4.74588">
        <ele>404.37</ele>
        <time>2010-10-10T08:45:53Z</time>
      </trkpt>
      <trkpt lat="46.99761" lon="4.74582">
        <ele>404.37</ele>
        <time>2010-10-10T08:45:54Z</time>
      </trkpt>
      <trkpt lat="46.9976" lon="4.74577">
        <ele>403.89</ele>
        <time>2010-10-10T08:45:55Z</time>
      </trkpt>
      <trkpt lat="46.99759" lon="4.74571">
        <ele>403.89</ele>
        <time>2010-10-10T08:45:56Z</time>
      </trkpt>
      <trkpt lat="46.99737" lon="4.74504">
        <ele>404.37</ele>
        <time>2010-10-10T08:46:09Z</time>
      </trkpt>
      <trkpt lat="46.99735" lon="4.74498">
        <ele>404.37</ele>
        <time>2010-10-10T08:46:10Z</time>
      </trkpt>
      <trkpt lat="46.99734" lon="4.74492">
        <ele>404.85</ele>
        <time>2010-10-10T08:46:11Z</time>
      </trkpt>
      <trkpt lat="46.99734" lon="4.7448">
        <ele>404.85</ele>
        <time>2010-10-10T08:46:13Z</time>
      </trkpt>
      <trkpt lat="46.99734" lon="4.74474">
        <ele>404.85</ele>
        <time>2010-10-10T08:46:14Z</time>
      </trkpt>
      <trkpt lat="46.99735" lon="4.74468">
        <ele>404.37</ele>
        <time>2010-10-10T08:46:15Z</time>
      </trkpt>
      <trkpt lat="46.99735" lon="4.74461">
        <ele>404.37</ele>
        <time>2010-10-10T08:46:16Z</time>
      </trkpt>
      <trkpt lat="46.99735" lon="4.74454">
        <ele>404.85</ele>
        <time>2010-10-10T08:46:17Z</time>
      </trkpt>
      <trkpt lat="46.99734" lon="4.74448">
        <ele>404.37</ele>
        <time>2010-10-10T08:46:18Z</time>
      </trkpt>
      <trkpt lat="46.99733" lon="4.74441">
        <ele>403.89</ele>
        <time>2010-10-10T08:46:19Z</time>
      </trkpt>
      <trkpt lat="46.99729" lon="4.74419">
        <ele>404.85</ele>
        <time>2010-10-10T08:46:22Z</time>
      </trkpt>
      <trkpt lat="46.99728" lon="4.74412">
        <ele>403.89</ele>
        <time>2010-10-10T08:46:23Z</time>
      </trkpt>
      <trkpt lat="46.99725" lon="4.74355">
        <ele>403.89</ele>
        <time>2010-10-10T08:46:30Z</time>
      </trkpt>
      <trkpt lat="46.99725" lon="4.74347">
        <ele>403.41</ele>
        <time>2010-10-10T08:46:31Z</time>
      </trkpt>
      <trkpt lat="46.99727" lon="4.74339">
        <ele>403.41</ele>
        <time>2010-10-10T08:46:32Z</time>
      </trkpt>
      <trkpt lat="46.99739" lon="4.74279">
        <ele>404.85</ele>
        <time>2010-10-10T08:46:41Z</time>
      </trkpt>
      <trkpt lat="46.9974" lon="4.74273">
        <ele>405.33</ele>
        <time>2010-10-10T08:46:42Z</time>
      </trkpt>
      <trkpt lat="46.99741" lon="4.74268">
        <ele>405.33</ele>
        <time>2010-10-10T08:46:43Z</time>
      </trkpt>
      <trkpt lat="46.99743" lon="4.74264">
        <ele>405.81</ele>
        <time>2010-10-10T08:46:44Z</time>
      </trkpt>
      <trkpt lat="46.99745" lon="4.7426">
        <ele>406.29</ele>
        <time>2010-10-10T08:46:45Z</time>
      </trkpt>
      <trkpt lat="46.99764" lon="4.74238">
        <ele>407.74</ele>
        <time>2010-10-10T08:46:56Z</time>
      </trkpt>
      <trkpt lat="46.99788" lon="4.74233">
        <ele>410.14</ele>
        <time>2010-10-10T08:47:09Z</time>
      </trkpt>
      <trkpt lat="46.99816" lon="4.74225">
        <ele>413.5</ele>
        <time>2010-10-10T08:47:25Z</time>
      </trkpt>
      <trkpt lat="46.99842" lon="4.74206">
        <ele>414.95</ele>
        <time>2010-10-10T08:47:38Z</time>
      </trkpt>
      <trkpt lat="46.9987" lon="4.7418">
        <ele>415.91</ele>
        <time>2010-10-10T08:47:50Z</time>
      </trkpt>
      <trkpt lat="46.99871" lon="4.74177">
        <ele>414.95</ele>
        <time>2010-10-10T08:47:51Z</time>
      </trkpt>
      <trkpt lat="46.99875" lon="4.74167">
        <ele>415.43</ele>
        <time>2010-10-10T08:47:54Z</time>
      </trkpt>
      <trkpt lat="46.99875" lon="4.74163">
        <ele>415.91</ele>
        <time>2010-10-10T08:47:55Z</time>
      </trkpt>
      <trkpt lat="46.99876" lon="4.74159">
        <ele>415.91</ele>
        <time>2010-10-10T08:47:56Z</time>
      </trkpt>
      <trkpt lat="46.99877" lon="4.74155">
        <ele>416.39</ele>
        <time>2010-10-10T08:47:57Z</time>
      </trkpt>
      <trkpt lat="46.99877" lon="4.74151">
        <ele>415.91</ele>
        <time>2010-10-10T08:47:58Z</time>
      </trkpt>
      <trkpt lat="46.99876" lon="4.74145">
        <ele>415.91</ele>
        <time>2010-10-10T08:47:59Z</time>
      </trkpt>
      <trkpt lat="46.99876" lon="4.7414">
        <ele>415.43</ele>
        <time>2010-10-10T08:48:00Z</time>
      </trkpt>
      <trkpt lat="46.99876" lon="4.74135">
        <ele>416.39</ele>
        <time>2010-10-10T08:48:01Z</time>
      </trkpt>
      <trkpt lat="46.99877" lon="4.7413">
        <ele>415.91</ele>
        <time>2010-10-10T08:48:02Z</time>
      </trkpt>
      <trkpt lat="46.99877" lon="4.74125">
        <ele>415.43</ele>
        <time>2010-10-10T08:48:03Z</time>
      </trkpt>
      <trkpt lat="46.99877" lon="4.7412">
        <ele>415.43</ele>
        <time>2010-10-10T08:48:04Z</time>
      </trkpt>
      <trkpt lat="46.99877" lon="4.74107">
        <ele>415.43</ele>
        <time>2010-10-10T08:48:06Z</time>
      </trkpt>
      <trkpt lat="46.99877" lon="4.74101">
        <ele>415.91</ele>
        <time>2010-10-10T08:48:07Z</time>
      </trkpt>
      <trkpt lat="46.99886" lon="4.74065">
        <ele>415.43</ele>
        <time>2010-10-10T08:48:13Z</time>
      </trkpt>
      <trkpt lat="46.99887" lon="4.74051">
        <ele>415.43</ele>
        <time>2010-10-10T08:48:15Z</time>
      </trkpt>
      <trkpt lat="46.99888" lon="4.74045">
        <ele>415.43</ele>
        <time>2010-10-10T08:48:16Z</time>
      </trkpt>
      <trkpt lat="46.99888" lon="4.7402">
        <ele>415.43</ele>
        <time>2010-10-10T08:48:20Z</time>
      </trkpt>
      <trkpt lat="46.99888" lon="4.74012">
        <ele>415.91</ele>
        <time>2010-10-10T08:48:21Z</time>
      </trkpt>
      <trkpt lat="46.99889" lon="4.74005">
        <ele>415.43</ele>
        <time>2010-10-10T08:48:22Z</time>
      </trkpt>
      <trkpt lat="46.9989" lon="4.73989">
        <ele>415.43</ele>
        <time>2010-10-10T08:48:24Z</time>
      </trkpt>
      <trkpt lat="46.99891" lon="4.73975">
        <ele>415.43</ele>
        <time>2010-10-10T08:48:26Z</time>
      </trkpt>
      <trkpt lat="46.99895" lon="4.73951">
        <ele>414.47</ele>
        <time>2010-10-10T08:48:29Z</time>
      </trkpt>
      <trkpt lat="46.99895" lon="4.73943">
        <ele>414.47</ele>
        <time>2010-10-10T08:48:30Z</time>
      </trkpt>
      <trkpt lat="46.99897" lon="4.73928">
        <ele>415.43</ele>
        <time>2010-10-10T08:48:32Z</time>
      </trkpt>
      <trkpt lat="46.99898" lon="4.7392">
        <ele>415.43</ele>
        <time>2010-10-10T08:48:33Z</time>
      </trkpt>
      <trkpt lat="46.999" lon="4.73913">
        <ele>414.95</ele>
        <time>2010-10-10T08:48:34Z</time>
      </trkpt>
      <trkpt lat="46.99905" lon="4.73875">
        <ele>415.43</ele>
        <time>2010-10-10T08:48:40Z</time>
      </trkpt>
      <trkpt lat="46.99907" lon="4.73872">
        <ele>414.47</ele>
        <time>2010-10-10T08:48:41Z</time>
      </trkpt>
      <trkpt lat="46.9991" lon="4.73871">
        <ele>415.91</ele>
        <time>2010-10-10T08:48:42Z</time>
      </trkpt>
      <trkpt lat="46.99911" lon="4.73868">
        <ele>415.43</ele>
        <time>2010-10-10T08:48:43Z</time>
      </trkpt>
      <trkpt lat="46.99925" lon="4.73873">
        <ele>417.35</ele>
        <time>2010-10-10T08:48:51Z</time>
      </trkpt>
      <trkpt lat="46.99947" lon="4.73867">
        <ele>418.79</ele>
        <time>2010-10-10T08:49:01Z</time>
      </trkpt>
      <trkpt lat="46.99966" lon="4.73842">
        <ele>420.71</ele>
        <time>2010-10-10T08:49:12Z</time>
      </trkpt>
      <trkpt lat="46.99998" lon="4.73826">
        <ele>418.79</ele>
        <time>2010-10-10T08:49:22Z</time>
      </trkpt>
      <trkpt lat="47.00044" lon="4.73823">
        <ele>418.79</ele>
        <time>2010-10-10T08:49:33Z</time>
      </trkpt>
      <trkpt lat="47.00053" lon="4.73822">
        <ele>417.35</ele>
        <time>2010-10-10T08:49:35Z</time>
      </trkpt>
      <trkpt lat="47.00064" lon="4.7382">
        <ele>415.91</ele>
        <time>2010-10-10T08:49:38Z</time>
      </trkpt>
      <trkpt lat="47.00067" lon="4.73816">
        <ele>415.91</ele>
        <time>2010-10-10T08:49:39Z</time>
      </trkpt>
      <trkpt lat="47.00069" lon="4.73812">
        <ele>414.95</ele>
        <time>2010-10-10T08:49:40Z</time>
      </trkpt>
      <trkpt lat="47.0007" lon="4.73807">
        <ele>414.95</ele>
        <time>2010-10-10T08:49:41Z</time>
      </trkpt>
      <trkpt lat="47.0007" lon="4.73802">
        <ele>414.47</ele>
        <time>2010-10-10T08:49:42Z</time>
      </trkpt>
      <trkpt lat="47.00071" lon="4.73797">
        <ele>414.95</ele>
        <time>2010-10-10T08:49:43Z</time>
      </trkpt>
      <trkpt lat="47.00082" lon="4.73741">
        <ele>414.47</ele>
        <time>2010-10-10T08:49:55Z</time>
      </trkpt>
      <trkpt lat="47.00101" lon="4.73665">
        <ele>413.98</ele>
        <time>2010-10-10T08:50:09Z</time>
      </trkpt>
      <trkpt lat="47.00105" lon="4.73648">
        <ele>413.98</ele>
        <time>2010-10-10T08:50:12Z</time>
      </trkpt>
      <trkpt lat="47.00105" lon="4.73619">
        <ele>416.39</ele>
        <time>2010-10-10T08:50:18Z</time>
      </trkpt>
      <trkpt lat="47.00103" lon="4.73616">
        <ele>415.91</ele>
        <time>2010-10-10T08:50:19Z</time>
      </trkpt>
      <trkpt lat="47.00101" lon="4.73614">
        <ele>415.91</ele>
        <time>2010-10-10T08:50:20Z</time>
      </trkpt>
      <trkpt lat="47.00086" lon="4.73601">
        <ele>419.27</ele>
        <time>2010-10-10T08:50:27Z</time>
      </trkpt>
      <trkpt lat="47.00054" lon="4.73584">
        <ele>420.23</ele>
        <time>2010-10-10T08:50:39Z</time>
      </trkpt>
      <trkpt lat="47.00041" lon="4.73568">
        <ele>421.19</ele>
        <time>2010-10-10T08:50:45Z</time>
      </trkpt>
      <trkpt lat="47.00038" lon="4.73555">
        <ele>419.75</ele>
        <time>2010-10-10T08:50:48Z</time>
      </trkpt>
      <trkpt lat="47.00026" lon="4.73497">
        <ele>423.12</ele>
        <time>2010-10-10T08:51:02Z</time>
      </trkpt>
      <trkpt lat="46.99998" lon="4.73447">
        <ele>424.08</ele>
        <time>2010-10-10T08:51:16Z</time>
      </trkpt>
      <trkpt lat="46.99979" lon="4.73395">
        <ele>424.56</ele>
        <time>2010-10-10T08:51:27Z</time>
      </trkpt>
      <trkpt lat="46.99977" lon="4.7339">
        <ele>424.08</ele>
        <time>2010-10-10T08:51:28Z</time>
      </trkpt>
      <trkpt lat="46.99973" lon="4.73339">
        <ele>425.04</ele>
        <time>2010-10-10T08:51:38Z</time>
      </trkpt>
      <trkpt lat="46.99975" lon="4.73334">
        <ele>425.52</ele>
        <time>2010-10-10T08:51:39Z</time>
      </trkpt>
      <trkpt lat="46.99982" lon="4.73314">
        <ele>424.08</ele>
        <time>2010-10-10T08:51:43Z</time>
      </trkpt>
      <trkpt lat="46.99982" lon="4.73308">
        <ele>424.56</ele>
        <time>2010-10-10T08:51:44Z</time>
      </trkpt>
      <trkpt lat="46.99981" lon="4.73302">
        <ele>423.12</ele>
        <time>2010-10-10T08:51:45Z</time>
      </trkpt>
      <trkpt lat="46.99979" lon="4.73298">
        <ele>424.56</ele>
        <time>2010-10-10T08:51:46Z</time>
      </trkpt>
      <trkpt lat="46.99976" lon="4.73294">
        <ele>423.6</ele>
        <time>2010-10-10T08:51:47Z</time>
      </trkpt>
      <trkpt lat="46.99973" lon="4.73291">
        <ele>423.6</ele>
        <time>2010-10-10T08:51:48Z</time>
      </trkpt>
      <trkpt lat="46.9997" lon="4.7329">
        <ele>423.6</ele>
        <time>2010-10-10T08:51:49Z</time>
      </trkpt>
      <trkpt lat="46.99967" lon="4.73288">
        <ele>426</ele>
        <time>2010-10-10T08:51:50Z</time>
      </trkpt>
      <trkpt lat="46.99963" lon="4.73287">
        <ele>425.52</ele>
        <time>2010-10-10T08:51:51Z</time>
      </trkpt>
      <trkpt lat="46.99958" lon="4.73285">
        <ele>425.52</ele>
        <time>2010-10-10T08:51:52Z</time>
      </trkpt>
      <trkpt lat="46.99951" lon="4.73281">
        <ele>423.6</ele>
        <time>2010-10-10T08:51:54Z</time>
      </trkpt>
      <trkpt lat="46.99947" lon="4.73277">
        <ele>425.04</ele>
        <time>2010-10-10T08:51:55Z</time>
      </trkpt>
      <trkpt lat="46.99944" lon="4.73272">
        <ele>424.56</ele>
        <time>2010-10-10T08:51:56Z</time>
      </trkpt>
      <trkpt lat="46.99942" lon="4.73266">
        <ele>424.56</ele>
        <time>2010-10-10T08:51:57Z</time>
      </trkpt>
      <trkpt lat="46.99941" lon="4.7326">
        <ele>423.6</ele>
        <time>2010-10-10T08:51:58Z</time>
      </trkpt>
      <trkpt lat="46.9994" lon="4.73255">
        <ele>424.56</ele>
        <time>2010-10-10T08:51:59Z</time>
      </trkpt>
      <trkpt lat="46.99938" lon="4.73249">
        <ele>425.04</ele>
        <time>2010-10-10T08:52:00Z</time>
      </trkpt>
      <trkpt lat="46.99935" lon="4.73243">
        <ele>423.12</ele>
        <time>2010-10-10T08:52:01Z</time>
      </trkpt>
      <trkpt lat="46.99933" lon="4.73238">
        <ele>423.12</ele>
        <time>2010-10-10T08:52:02Z</time>
      </trkpt>
      <trkpt lat="46.99919" lon="4.73206">
        <ele>423.6</ele>
        <time>2010-10-10T08:52:08Z</time>
      </trkpt>
      <trkpt lat="46.99915" lon="4.732">
        <ele>423.12</ele>
        <time>2010-10-10T08:52:09Z</time>
      </trkpt>
      <trkpt lat="46.99911" lon="4.73196">
        <ele>422.64</ele>
        <time>2010-10-10T08:52:10Z</time>
      </trkpt>
      <trkpt lat="46.99881" lon="4.73172">
        <ele>421.68</ele>
        <time>2010-10-10T08:52:17Z</time>
      </trkpt>
      <trkpt lat="46.99876" lon="4.73169">
        <ele>421.68</ele>
        <time>2010-10-10T08:52:18Z</time>
      </trkpt>
      <trkpt lat="46.99872" lon="4.73167">
        <ele>421.68</ele>
        <time>2010-10-10T08:52:19Z</time>
      </trkpt>
      <trkpt lat="46.99868" lon="4.73164">
        <ele>421.19</ele>
        <time>2010-10-10T08:52:20Z</time>
      </trkpt>
      <trkpt lat="46.99863" lon="4.73161">
        <ele>421.19</ele>
        <time>2010-10-10T08:52:21Z</time>
      </trkpt>
      <trkpt lat="46.99858" lon="4.73159">
        <ele>422.16</ele>
        <time>2010-10-10T08:52:22Z</time>
      </trkpt>
      <trkpt lat="46.99854" lon="4.73159">
        <ele>421.19</ele>
        <time>2010-10-10T08:52:23Z</time>
      </trkpt>
      <trkpt lat="46.99849" lon="4.7316">
        <ele>420.71</ele>
        <time>2010-10-10T08:52:24Z</time>
      </trkpt>
      <trkpt lat="46.99843" lon="4.73161">
        <ele>419.27</ele>
        <time>2010-10-10T08:52:25Z</time>
      </trkpt>
      <trkpt lat="46.99837" lon="4.73162">
        <ele>419.75</ele>
        <time>2010-10-10T08:52:26Z</time>
      </trkpt>
      <trkpt lat="46.99825" lon="4.73165">
        <ele>419.27</ele>
        <time>2010-10-10T08:52:28Z</time>
      </trkpt>
      <trkpt lat="46.99819" lon="4.73167">
        <ele>419.27</ele>
        <time>2010-10-10T08:52:29Z</time>
      </trkpt>
      <trkpt lat="46.99808" lon="4.73172">
        <ele>419.27</ele>
        <time>2010-10-10T08:52:31Z</time>
      </trkpt>
      <trkpt lat="46.99803" lon="4.73171">
        <ele>418.79</ele>
        <time>2010-10-10T08:52:32Z</time>
      </trkpt>
      <trkpt lat="46.99798" lon="4.73169">
        <ele>417.83</ele>
        <time>2010-10-10T08:52:33Z</time>
      </trkpt>
      <trkpt lat="46.99793" lon="4.73165">
        <ele>417.83</ele>
        <time>2010-10-10T08:52:34Z</time>
      </trkpt>
      <trkpt lat="46.99789" lon="4.73161">
        <ele>418.31</ele>
        <time>2010-10-10T08:52:35Z</time>
      </trkpt>
      <trkpt lat="46.99785" lon="4.73155">
        <ele>418.79</ele>
        <time>2010-10-10T08:52:36Z</time>
      </trkpt>
      <trkpt lat="46.99782" lon="4.7315">
        <ele>418.79</ele>
        <time>2010-10-10T08:52:37Z</time>
      </trkpt>
      <trkpt lat="46.9978" lon="4.73143">
        <ele>417.35</ele>
        <time>2010-10-10T08:52:38Z</time>
      </trkpt>
      <trkpt lat="46.99777" lon="4.73136">
        <ele>417.35</ele>
        <time>2010-10-10T08:52:39Z</time>
      </trkpt>
      <trkpt lat="46.99773" lon="4.73129">
        <ele>416.87</ele>
        <time>2010-10-10T08:52:40Z</time>
      </trkpt>
      <trkpt lat="46.9977" lon="4.73122">
        <ele>416.87</ele>
        <time>2010-10-10T08:52:41Z</time>
      </trkpt>
      <trkpt lat="46.99765" lon="4.73115">
        <ele>416.87</ele>
        <time>2010-10-10T08:52:42Z</time>
      </trkpt>
      <trkpt lat="46.9976" lon="4.73109">
        <ele>416.39</ele>
        <time>2010-10-10T08:52:43Z</time>
      </trkpt>
      <trkpt lat="46.99754" lon="4.73104">
        <ele>415.43</ele>
        <time>2010-10-10T08:52:44Z</time>
      </trkpt>
      <trkpt lat="46.99694" lon="4.73043">
        <ele>412.54</ele>
        <time>2010-10-10T08:52:54Z</time>
      </trkpt>
      <trkpt lat="46.9969" lon="4.73036">
        <ele>412.06</ele>
        <time>2010-10-10T08:52:55Z</time>
      </trkpt>
      <trkpt lat="46.99688" lon="4.73028">
        <ele>411.1</ele>
        <time>2010-10-10T08:52:56Z</time>
      </trkpt>
      <trkpt lat="46.99687" lon="4.7302">
        <ele>410.62</ele>
        <time>2010-10-10T08:52:57Z</time>
      </trkpt>
      <trkpt lat="46.99687" lon="4.73011">
        <ele>410.62</ele>
        <time>2010-10-10T08:52:58Z</time>
      </trkpt>
      <trkpt lat="46.99688" lon="4.73002">
        <ele>411.1</ele>
        <time>2010-10-10T08:52:59Z</time>
      </trkpt>
      <trkpt lat="46.9969" lon="4.72994">
        <ele>410.62</ele>
        <time>2010-10-10T08:53:00Z</time>
      </trkpt>
      <trkpt lat="46.99692" lon="4.72987">
        <ele>410.62</ele>
        <time>2010-10-10T08:53:01Z</time>
      </trkpt>
      <trkpt lat="46.99692" lon="4.7298">
        <ele>410.14</ele>
        <time>2010-10-10T08:53:02Z</time>
      </trkpt>
      <trkpt lat="46.99691" lon="4.72973">
        <ele>408.7</ele>
        <time>2010-10-10T08:53:03Z</time>
      </trkpt>
      <trkpt lat="46.9969" lon="4.72965">
        <ele>408.7</ele>
        <time>2010-10-10T08:53:04Z</time>
      </trkpt>
      <trkpt lat="46.99689" lon="4.72956">
        <ele>408.7</ele>
        <time>2010-10-10T08:53:05Z</time>
      </trkpt>
      <trkpt lat="46.9969" lon="4.72947">
        <ele>409.18</ele>
        <time>2010-10-10T08:53:06Z</time>
      </trkpt>
      <trkpt lat="46.99692" lon="4.72928">
        <ele>406.77</ele>
        <time>2010-10-10T08:53:08Z</time>
      </trkpt>
      <trkpt lat="46.99691" lon="4.72919">
        <ele>406.29</ele>
        <time>2010-10-10T08:53:09Z</time>
      </trkpt>
      <trkpt lat="46.99688" lon="4.7291">
        <ele>407.26</ele>
        <time>2010-10-10T08:53:10Z</time>
      </trkpt>
      <trkpt lat="46.99675" lon="4.72867">
        <ele>403.41</ele>
        <time>2010-10-10T08:53:15Z</time>
      </trkpt>
      <trkpt lat="46.99674" lon="4.72857">
        <ele>403.41</ele>
        <time>2010-10-10T08:53:16Z</time>
      </trkpt>
      <trkpt lat="46.99673" lon="4.72835">
        <ele>400.53</ele>
        <time>2010-10-10T08:53:18Z</time>
      </trkpt>
      <trkpt lat="46.99671" lon="4.72825">
        <ele>398.6</ele>
        <time>2010-10-10T08:53:19Z</time>
      </trkpt>
      <trkpt lat="46.9967" lon="4.72816">
        <ele>398.6</ele>
        <time>2010-10-10T08:53:20Z</time>
      </trkpt>
      <trkpt lat="46.9967" lon="4.72807">
        <ele>397.64</ele>
        <time>2010-10-10T08:53:21Z</time>
      </trkpt>
      <trkpt lat="46.9967" lon="4.72799">
        <ele>396.68</ele>
        <time>2010-10-10T08:53:22Z</time>
      </trkpt>
      <trkpt lat="46.99669" lon="4.72792">
        <ele>395.24</ele>
        <time>2010-10-10T08:53:23Z</time>
      </trkpt>
      <trkpt lat="46.99667" lon="4.72787">
        <ele>393.8</ele>
        <time>2010-10-10T08:53:24Z</time>
      </trkpt>
      <trkpt lat="46.99664" lon="4.72783">
        <ele>393.8</ele>
        <time>2010-10-10T08:53:25Z</time>
      </trkpt>
      <trkpt lat="46.9966" lon="4.72781">
        <ele>393.8</ele>
        <time>2010-10-10T08:53:26Z</time>
      </trkpt>
      <trkpt lat="46.99656" lon="4.7278">
        <ele>393.32</ele>
        <time>2010-10-10T08:53:27Z</time>
      </trkpt>
      <trkpt lat="46.99651" lon="4.7278">
        <ele>392.36</ele>
        <time>2010-10-10T08:53:28Z</time>
      </trkpt>
      <trkpt lat="46.99645" lon="4.72779">
        <ele>392.36</ele>
        <time>2010-10-10T08:53:29Z</time>
      </trkpt>
      <trkpt lat="46.99632" lon="4.72775">
        <ele>391.39</ele>
        <time>2010-10-10T08:53:31Z</time>
      </trkpt>
      <trkpt lat="46.99611" lon="4.72765">
        <ele>389.47</ele>
        <time>2010-10-10T08:53:34Z</time>
      </trkpt>
      <trkpt lat="46.99604" lon="4.7276">
        <ele>389.95</ele>
        <time>2010-10-10T08:53:35Z</time>
      </trkpt>
      <trkpt lat="46.99598" lon="4.72752">
        <ele>388.03</ele>
        <time>2010-10-10T08:53:36Z</time>
      </trkpt>
      <trkpt lat="46.99593" lon="4.72741">
        <ele>388.03</ele>
        <time>2010-10-10T08:53:37Z</time>
      </trkpt>
      <trkpt lat="46.99589" lon="4.7273">
        <ele>387.55</ele>
        <time>2010-10-10T08:53:38Z</time>
      </trkpt>
      <trkpt lat="46.99586" lon="4.72718">
        <ele>386.11</ele>
        <time>2010-10-10T08:53:39Z</time>
      </trkpt>
      <trkpt lat="46.99577" lon="4.7267">
        <ele>382.26</ele>
        <time>2010-10-10T08:53:43Z</time>
      </trkpt>
      <trkpt lat="46.99567" lon="4.72631">
        <ele>378.42</ele>
        <time>2010-10-10T08:53:46Z</time>
      </trkpt>
      <trkpt lat="46.99554" lon="4.72597">
        <ele>375.53</ele>
        <time>2010-10-10T08:53:49Z</time>
      </trkpt>
      <trkpt lat="46.9955" lon="4.72587">
        <ele>373.61</ele>
        <time>2010-10-10T08:53:50Z</time>
      </trkpt>
      <trkpt lat="46.99543" lon="4.72569">
        <ele>371.21</ele>
        <time>2010-10-10T08:53:52Z</time>
      </trkpt>
      <trkpt lat="46.9954" lon="4.72561">
        <ele>370.24</ele>
        <time>2010-10-10T08:53:53Z</time>
      </trkpt>
      <trkpt lat="46.99538" lon="4.72551">
        <ele>369.28</ele>
        <time>2010-10-10T08:53:54Z</time>
      </trkpt>
      <trkpt lat="46.99538" lon="4.72542">
        <ele>367.84</ele>
        <time>2010-10-10T08:53:55Z</time>
      </trkpt>
      <trkpt lat="46.99539" lon="4.72532">
        <ele>366.88</ele>
        <time>2010-10-10T08:53:56Z</time>
      </trkpt>
      <trkpt lat="46.9954" lon="4.72523">
        <ele>364.96</ele>
        <time>2010-10-10T08:53:57Z</time>
      </trkpt>
      <trkpt lat="46.99542" lon="4.72514">
        <ele>364.48</ele>
        <time>2010-10-10T08:53:58Z</time>
      </trkpt>
      <trkpt lat="46.99543" lon="4.72507">
        <ele>363.52</ele>
        <time>2010-10-10T08:53:59Z</time>
      </trkpt>
      <trkpt lat="46.99542" lon="4.725">
        <ele>361.59</ele>
        <time>2010-10-10T08:54:00Z</time>
      </trkpt>
      <trkpt lat="46.99541" lon="4.72494">
        <ele>361.11</ele>
        <time>2010-10-10T08:54:01Z</time>
      </trkpt>
      <trkpt lat="46.9954" lon="4.7249">
        <ele>359.67</ele>
        <time>2010-10-10T08:54:02Z</time>
      </trkpt>
      <trkpt lat="46.99538" lon="4.72487">
        <ele>359.19</ele>
        <time>2010-10-10T08:54:03Z</time>
      </trkpt>
      <trkpt lat="46.99537" lon="4.72485">
        <ele>359.19</ele>
        <time>2010-10-10T08:54:04Z</time>
      </trkpt>
      <trkpt lat="46.99536" lon="4.72483">
        <ele>358.71</ele>
        <time>2010-10-10T08:54:05Z</time>
      </trkpt>
      <trkpt lat="46.99534" lon="4.7248">
        <ele>358.71</ele>
        <time>2010-10-10T08:54:06Z</time>
      </trkpt>
      <trkpt lat="46.99527" lon="4.72469">
        <ele>357.27</ele>
        <time>2010-10-10T08:54:09Z</time>
      </trkpt>
      <trkpt lat="46.99523" lon="4.72468">
        <ele>356.31</ele>
        <time>2010-10-10T08:54:10Z</time>
      </trkpt>
      <trkpt lat="46.9952" lon="4.72469">
        <ele>356.31</ele>
        <time>2010-10-10T08:54:11Z</time>
      </trkpt>
      <trkpt lat="46.99519" lon="4.72472">
        <ele>357.27</ele>
        <time>2010-10-10T08:54:12Z</time>
      </trkpt>
      <trkpt lat="46.99518" lon="4.72474">
        <ele>357.75</ele>
        <time>2010-10-10T08:54:13Z</time>
      </trkpt>
      <trkpt lat="46.99515" lon="4.72479">
        <ele>358.71</ele>
        <time>2010-10-10T08:54:16Z</time>
      </trkpt>
      <trkpt lat="46.99514" lon="4.72481">
        <ele>358.71</ele>
        <time>2010-10-10T08:54:17Z</time>
      </trkpt>
      <trkpt lat="46.99513" lon="4.72482">
        <ele>359.67</ele>
        <time>2010-10-10T08:54:18Z</time>
      </trkpt>
      <trkpt lat="46.99513" lon="4.72484">
        <ele>359.67</ele>
        <time>2010-10-10T08:54:19Z</time>
      </trkpt>
      <trkpt lat="46.99512" lon="4.72486">
        <ele>359.67</ele>
        <time>2010-10-10T08:54:20Z</time>
      </trkpt>
      <trkpt lat="46.99511" lon="4.72488">
        <ele>360.15</ele>
        <time>2010-10-10T08:54:21Z</time>
      </trkpt>
      <trkpt lat="46.9951" lon="4.7249">
        <ele>360.15</ele>
        <time>2010-10-10T08:54:22Z</time>
      </trkpt>
      <trkpt lat="46.99508" lon="4.72491">
        <ele>360.63</ele>
        <time>2010-10-10T08:54:23Z</time>
      </trkpt>
      <trkpt lat="46.99507" lon="4.72493">
        <ele>360.63</ele>
        <time>2010-10-10T08:54:24Z</time>
      </trkpt>
      <trkpt lat="46.99506" lon="4.72495">
        <ele>361.59</ele>
        <time>2010-10-10T08:54:25Z</time>
      </trkpt>
      <trkpt lat="46.99505" lon="4.72497">
        <ele>361.59</ele>
        <time>2010-10-10T08:54:26Z</time>
      </trkpt>
      <trkpt lat="46.99504" lon="4.72499">
        <ele>361.11</ele>
        <time>2010-10-10T08:54:27Z</time>
      </trkpt>
      <trkpt lat="46.99503" lon="4.725">
        <ele>361.59</ele>
        <time>2010-10-10T08:54:28Z</time>
      </trkpt>
      <trkpt lat="46.99502" lon="4.72502">
        <ele>361.59</ele>
        <time>2010-10-10T08:54:29Z</time>
      </trkpt>
      <trkpt lat="46.99501" lon="4.72504">
        <ele>362.55</ele>
        <time>2010-10-10T08:54:30Z</time>
      </trkpt>
      <trkpt lat="46.995" lon="4.72506">
        <ele>362.07</ele>
        <time>2010-10-10T08:54:31Z</time>
      </trkpt>
      <trkpt lat="46.99498" lon="4.72508">
        <ele>362.55</ele>
        <time>2010-10-10T08:54:32Z</time>
      </trkpt>
      <trkpt lat="46.99497" lon="4.72509">
        <ele>362.55</ele>
        <time>2010-10-10T08:54:33Z</time>
      </trkpt>
      <trkpt lat="46.99496" lon="4.72511">
        <ele>362.55</ele>
        <time>2010-10-10T08:54:34Z</time>
      </trkpt>
      <trkpt lat="46.99493" lon="4.72524">
        <ele>364.48</ele>
        <time>2010-10-10T08:54:39Z</time>
      </trkpt>
      <trkpt lat="46.99492" lon="4.72526">
        <ele>364.48</ele>
        <time>2010-10-10T08:54:40Z</time>
      </trkpt>
      <trkpt lat="46.99491" lon="4.72528">
        <ele>364.48</ele>
        <time>2010-10-10T08:54:41Z</time>
      </trkpt>
      <trkpt lat="46.9949" lon="4.7253">
        <ele>364.96</ele>
        <time>2010-10-10T08:54:42Z</time>
      </trkpt>
      <trkpt lat="46.99485" lon="4.72538">
        <ele>365.92</ele>
        <time>2010-10-10T08:54:50Z</time>
      </trkpt>
      <trkpt lat="46.99484" lon="4.72539">
        <ele>365.92</ele>
        <time>2010-10-10T08:54:51Z</time>
      </trkpt>
      <trkpt lat="46.99482" lon="4.72542">
        <ele>365.92</ele>
        <time>2010-10-10T08:54:53Z</time>
      </trkpt>
      <trkpt lat="46.99481" lon="4.72544">
        <ele>366.4</ele>
        <time>2010-10-10T08:54:54Z</time>
      </trkpt>
      <trkpt lat="46.9948" lon="4.72545">
        <ele>366.4</ele>
        <time>2010-10-10T08:54:55Z</time>
      </trkpt>
      <trkpt lat="46.99478" lon="4.72548">
        <ele>365.92</ele>
        <time>2010-10-10T08:54:57Z</time>
      </trkpt>
      <trkpt lat="46.99477" lon="4.7255">
        <ele>365.92</ele>
        <time>2010-10-10T08:54:58Z</time>
      </trkpt>
      <trkpt lat="46.99476" lon="4.72552">
        <ele>365.92</ele>
        <time>2010-10-10T08:54:59Z</time>
      </trkpt>
      <trkpt lat="46.99474" lon="4.72552">
        <ele>365.92</ele>
        <time>2010-10-10T08:55:00Z</time>
      </trkpt>
      <trkpt lat="46.99472" lon="4.72551">
        <ele>366.4</ele>
        <time>2010-10-10T08:55:01Z</time>
      </trkpt>
      <trkpt lat="46.9947" lon="4.72551">
        <ele>365.92</ele>
        <time>2010-10-10T08:55:02Z</time>
      </trkpt>
      <trkpt lat="46.99467" lon="4.7255">
        <ele>365.92</ele>
        <time>2010-10-10T08:55:03Z</time>
      </trkpt>
      <trkpt lat="46.99465" lon="4.72549">
        <ele>365.92</ele>
        <time>2010-10-10T08:55:04Z</time>
      </trkpt>
      <trkpt lat="46.99461" lon="4.72546">
        <ele>365.44</ele>
        <time>2010-10-10T08:55:06Z</time>
      </trkpt>
      <trkpt lat="46.99445" lon="4.72526">
        <ele>363.04</ele>
        <time>2010-10-10T08:55:15Z</time>
      </trkpt>
      <trkpt lat="46.99436" lon="4.72512">
        <ele>361.11</ele>
        <time>2010-10-10T08:55:19Z</time>
      </trkpt>
      <trkpt lat="46.99412" lon="4.725">
        <ele>359.19</ele>
        <time>2010-10-10T08:55:26Z</time>
      </trkpt>
      <trkpt lat="46.99408" lon="4.725">
        <ele>359.19</ele>
        <time>2010-10-10T08:55:27Z</time>
      </trkpt>
      <trkpt lat="46.99403" lon="4.72502">
        <ele>359.19</ele>
        <time>2010-10-10T08:55:28Z</time>
      </trkpt>
      <trkpt lat="46.994" lon="4.72504">
        <ele>358.71</ele>
        <time>2010-10-10T08:55:29Z</time>
      </trkpt>
      <trkpt lat="46.99396" lon="4.72511">
        <ele>359.19</ele>
        <time>2010-10-10T08:55:31Z</time>
      </trkpt>
      <trkpt lat="46.99386" lon="4.72559">
        <ele>362.55</ele>
        <time>2010-10-10T08:55:43Z</time>
      </trkpt>
      <trkpt lat="46.99385" lon="4.72572">
        <ele>364</ele>
        <time>2010-10-10T08:55:46Z</time>
      </trkpt>
      <trkpt lat="46.99386" lon="4.7259">
        <ele>365.44</ele>
        <time>2010-10-10T08:55:52Z</time>
      </trkpt>
      <trkpt lat="46.99385" lon="4.72597">
        <ele>366.4</ele>
        <time>2010-10-10T08:55:55Z</time>
      </trkpt>
      <trkpt lat="46.9938" lon="4.72611">
        <ele>366.88</ele>
        <time>2010-10-10T08:56:01Z</time>
      </trkpt>
      <trkpt lat="46.99377" lon="4.72615">
        <ele>366.88</ele>
        <time>2010-10-10T08:56:03Z</time>
      </trkpt>
      <trkpt lat="46.99372" lon="4.72633">
        <ele>367.36</ele>
        <time>2010-10-10T08:56:08Z</time>
      </trkpt>
      <trkpt lat="46.99354" lon="4.72643">
        <ele>365.44</ele>
        <time>2010-10-10T08:56:14Z</time>
      </trkpt>
      <trkpt lat="46.99349" lon="4.72644">
        <ele>364.48</ele>
        <time>2010-10-10T08:56:15Z</time>
      </trkpt>
      <trkpt lat="46.99345" lon="4.72647">
        <ele>364</ele>
        <time>2010-10-10T08:56:16Z</time>
      </trkpt>
      <trkpt lat="46.99341" lon="4.7265">
        <ele>363.04</ele>
        <time>2010-10-10T08:56:17Z</time>
      </trkpt>
      <trkpt lat="46.99337" lon="4.72652">
        <ele>363.52</ele>
        <time>2010-10-10T08:56:18Z</time>
      </trkpt>
      <trkpt lat="46.99333" lon="4.72655">
        <ele>363.52</ele>
        <time>2010-10-10T08:56:19Z</time>
      </trkpt>
      <trkpt lat="46.9933" lon="4.72656">
        <ele>363.04</ele>
        <time>2010-10-10T08:56:20Z</time>
      </trkpt>
      <trkpt lat="46.99324" lon="4.72661">
        <ele>361.59</ele>
        <time>2010-10-10T08:56:22Z</time>
      </trkpt>
      <trkpt lat="46.99323" lon="4.72665">
        <ele>362.07</ele>
        <time>2010-10-10T08:56:23Z</time>
      </trkpt>
      <trkpt lat="46.99323" lon="4.72668">
        <ele>362.07</ele>
        <time>2010-10-10T08:56:24Z</time>
      </trkpt>
      <trkpt lat="46.99321" lon="4.72671">
        <ele>362.07</ele>
        <time>2010-10-10T08:56:25Z</time>
      </trkpt>
      <trkpt lat="46.99319" lon="4.72674">
        <ele>362.55</ele>
        <time>2010-10-10T08:56:26Z</time>
      </trkpt>
      <trkpt lat="46.99317" lon="4.72679">
        <ele>361.59</ele>
        <time>2010-10-10T08:56:27Z</time>
      </trkpt>
      <trkpt lat="46.99314" lon="4.72684">
        <ele>361.11</ele>
        <time>2010-10-10T08:56:28Z</time>
      </trkpt>
      <trkpt lat="46.99311" lon="4.72688">
        <ele>361.11</ele>
        <time>2010-10-10T08:56:29Z</time>
      </trkpt>
      <trkpt lat="46.99309" lon="4.72694">
        <ele>361.59</ele>
        <time>2010-10-10T08:56:30Z</time>
      </trkpt>
      <trkpt lat="46.99308" lon="4.72699">
        <ele>361.59</ele>
        <time>2010-10-10T08:56:31Z</time>
      </trkpt>
      <trkpt lat="46.99307" lon="4.72704">
        <ele>361.59</ele>
        <time>2010-10-10T08:56:32Z</time>
      </trkpt>
      <trkpt lat="46.99306" lon="4.72708">
        <ele>362.07</ele>
        <time>2010-10-10T08:56:33Z</time>
      </trkpt>
      <trkpt lat="46.99305" lon="4.72712">
        <ele>361.59</ele>
        <time>2010-10-10T08:56:34Z</time>
      </trkpt>
      <trkpt lat="46.99305" lon="4.72717">
        <ele>362.55</ele>
        <time>2010-10-10T08:56:35Z</time>
      </trkpt>
      <trkpt lat="46.99304" lon="4.72722">
        <ele>362.55</ele>
        <time>2010-10-10T08:56:36Z</time>
      </trkpt>
      <trkpt lat="46.99302" lon="4.72726">
        <ele>362.55</ele>
        <time>2010-10-10T08:56:37Z</time>
      </trkpt>
      <trkpt lat="46.99299" lon="4.72729">
        <ele>362.55</ele>
        <time>2010-10-10T08:56:38Z</time>
      </trkpt>
      <trkpt lat="46.99297" lon="4.72731">
        <ele>362.55</ele>
        <time>2010-10-10T08:56:39Z</time>
      </trkpt>
      <trkpt lat="46.99284" lon="4.7274">
        <ele>361.11</ele>
        <time>2010-10-10T08:56:45Z</time>
      </trkpt>
      <trkpt lat="46.99268" lon="4.72778">
        <ele>361.59</ele>
        <time>2010-10-10T08:56:56Z</time>
      </trkpt>
      <trkpt lat="46.99268" lon="4.72798">
        <ele>363.04</ele>
        <time>2010-10-10T08:57:01Z</time>
      </trkpt>
      <trkpt lat="46.99262" lon="4.72814">
        <ele>364</ele>
        <time>2010-10-10T08:57:06Z</time>
      </trkpt>
      <trkpt lat="46.99257" lon="4.72822">
        <ele>365.44</ele>
        <time>2010-10-10T08:57:09Z</time>
      </trkpt>
      <trkpt lat="46.99252" lon="4.72823">
        <ele>364.48</ele>
        <time>2010-10-10T08:57:11Z</time>
      </trkpt>
      <trkpt lat="46.99244" lon="4.72829">
        <ele>364</ele>
        <time>2010-10-10T08:57:15Z</time>
      </trkpt>
      <trkpt lat="46.99241" lon="4.72838">
        <ele>364</ele>
        <time>2010-10-10T08:57:18Z</time>
      </trkpt>
      <trkpt lat="46.99229" lon="4.72864">
        <ele>364</ele>
        <time>2010-10-10T08:57:26Z</time>
      </trkpt>
      <trkpt lat="46.99216" lon="4.72904">
        <ele>364</ele>
        <time>2010-10-10T08:57:35Z</time>
      </trkpt>
      <trkpt lat="46.99213" lon="4.72915">
        <ele>364</ele>
        <time>2010-10-10T08:57:37Z</time>
      </trkpt>
      <trkpt lat="46.99207" lon="4.72928">
        <ele>364</ele>
        <time>2010-10-10T08:57:40Z</time>
      </trkpt>
      <trkpt lat="46.99202" lon="4.72954">
        <ele>364.96</ele>
        <time>2010-10-10T08:57:46Z</time>
      </trkpt>
      <trkpt lat="46.99194" lon="4.72994">
        <ele>366.88</ele>
        <time>2010-10-10T08:57:57Z</time>
      </trkpt>
      <trkpt lat="46.99188" lon="4.73035">
        <ele>368.32</ele>
        <time>2010-10-10T08:58:08Z</time>
      </trkpt>
      <trkpt lat="46.99183" lon="4.73082">
        <ele>370.73</ele>
        <time>2010-10-10T08:58:21Z</time>
      </trkpt>
      <trkpt lat="46.99169" lon="4.73137">
        <ele>371.69</ele>
        <time>2010-10-10T08:58:33Z</time>
      </trkpt>
      <trkpt lat="46.99158" lon="4.732">
        <ele>370.73</ele>
        <time>2010-10-10T08:58:44Z</time>
      </trkpt>
      <trkpt lat="46.99153" lon="4.73232">
        <ele>368.8</ele>
        <time>2010-10-10T08:58:50Z</time>
      </trkpt>
      <trkpt lat="46.99153" lon="4.73238">
        <ele>369.28</ele>
        <time>2010-10-10T08:58:51Z</time>
      </trkpt>
      <trkpt lat="46.99152" lon="4.73245">
        <ele>368.8</ele>
        <time>2010-10-10T08:58:52Z</time>
      </trkpt>
      <trkpt lat="46.99151" lon="4.73252">
        <ele>368.8</ele>
        <time>2010-10-10T08:58:53Z</time>
      </trkpt>
      <trkpt lat="46.99151" lon="4.73259">
        <ele>368.32</ele>
        <time>2010-10-10T08:58:54Z</time>
      </trkpt>
      <trkpt lat="46.99149" lon="4.73265">
        <ele>368.32</ele>
        <time>2010-10-10T08:58:55Z</time>
      </trkpt>
      <trkpt lat="46.99148" lon="4.73271">
        <ele>367.84</ele>
        <time>2010-10-10T08:58:56Z</time>
      </trkpt>
      <trkpt lat="46.99147" lon="4.73278">
        <ele>368.32</ele>
        <time>2010-10-10T08:58:57Z</time>
      </trkpt>
      <trkpt lat="46.99145" lon="4.73284">
        <ele>367.84</ele>
        <time>2010-10-10T08:58:58Z</time>
      </trkpt>
      <trkpt lat="46.99143" lon="4.7329">
        <ele>367.84</ele>
        <time>2010-10-10T08:58:59Z</time>
      </trkpt>
      <trkpt lat="46.99142" lon="4.73296">
        <ele>366.88</ele>
        <time>2010-10-10T08:59:00Z</time>
      </trkpt>
      <trkpt lat="46.9914" lon="4.73302">
        <ele>366.88</ele>
        <time>2010-10-10T08:59:01Z</time>
      </trkpt>
      <trkpt lat="46.99137" lon="4.73309">
        <ele>366.88</ele>
        <time>2010-10-10T08:59:02Z</time>
      </trkpt>
      <trkpt lat="46.99135" lon="4.73314">
        <ele>365.92</ele>
        <time>2010-10-10T08:59:03Z</time>
      </trkpt>
      <trkpt lat="46.99133" lon="4.7332">
        <ele>364.96</ele>
        <time>2010-10-10T08:59:04Z</time>
      </trkpt>
      <trkpt lat="46.99133" lon="4.73327">
        <ele>364.96</ele>
        <time>2010-10-10T08:59:05Z</time>
      </trkpt>
      <trkpt lat="46.99132" lon="4.73333">
        <ele>364.96</ele>
        <time>2010-10-10T08:59:06Z</time>
      </trkpt>
      <trkpt lat="46.99132" lon="4.73338">
        <ele>364.96</ele>
        <time>2010-10-10T08:59:07Z</time>
      </trkpt>
      <trkpt lat="46.99133" lon="4.73344">
        <ele>364.96</ele>
        <time>2010-10-10T08:59:08Z</time>
      </trkpt>
      <trkpt lat="46.99134" lon="4.73347">
        <ele>364.96</ele>
        <time>2010-10-10T08:59:09Z</time>
      </trkpt>
      <trkpt lat="46.99134" lon="4.7335">
        <ele>364.96</ele>
        <time>2010-10-10T08:59:10Z</time>
      </trkpt>
      <trkpt lat="46.99134" lon="4.73353">
        <ele>365.44</ele>
        <time>2010-10-10T08:59:11Z</time>
      </trkpt>
      <trkpt lat="46.99134" lon="4.73355">
        <ele>365.44</ele>
        <time>2010-10-10T08:59:12Z</time>
      </trkpt>
      <trkpt lat="46.99135" lon="4.73357">
        <ele>365.44</ele>
        <time>2010-10-10T08:59:13Z</time>
      </trkpt>
      <trkpt lat="46.99136" lon="4.73359">
        <ele>366.4</ele>
        <time>2010-10-10T08:59:14Z</time>
      </trkpt>
      <trkpt lat="46.99136" lon="4.73362">
        <ele>366.4</ele>
        <time>2010-10-10T08:59:15Z</time>
      </trkpt>
      <trkpt lat="46.99137" lon="4.73365">
        <ele>366.4</ele>
        <time>2010-10-10T08:59:16Z</time>
      </trkpt>
      <trkpt lat="46.99137" lon="4.73367">
        <ele>366.88</ele>
        <time>2010-10-10T08:59:17Z</time>
      </trkpt>
      <trkpt lat="46.99138" lon="4.7337">
        <ele>367.36</ele>
        <time>2010-10-10T08:59:18Z</time>
      </trkpt>
      <trkpt lat="46.99139" lon="4.73373">
        <ele>367.36</ele>
        <time>2010-10-10T08:59:19Z</time>
      </trkpt>
      <trkpt lat="46.9914" lon="4.73376">
        <ele>367.84</ele>
        <time>2010-10-10T08:59:20Z</time>
      </trkpt>
      <trkpt lat="46.99146" lon="4.73409">
        <ele>370.24</ele>
        <time>2010-10-10T08:59:32Z</time>
      </trkpt>
      <trkpt lat="46.99146" lon="4.73412">
        <ele>370.24</ele>
        <time>2010-10-10T08:59:33Z</time>
      </trkpt>
      <trkpt lat="46.99147" lon="4.73415">
        <ele>370.73</ele>
        <time>2010-10-10T08:59:34Z</time>
      </trkpt>
      <trkpt lat="46.99147" lon="4.73419">
        <ele>370.73</ele>
        <time>2010-10-10T08:59:35Z</time>
      </trkpt>
      <trkpt lat="46.99147" lon="4.73422">
        <ele>370.73</ele>
        <time>2010-10-10T08:59:36Z</time>
      </trkpt>
      <trkpt lat="46.99147" lon="4.73426">
        <ele>370.73</ele>
        <time>2010-10-10T08:59:37Z</time>
      </trkpt>
      <trkpt lat="46.99147" lon="4.73429">
        <ele>371.21</ele>
        <time>2010-10-10T08:59:38Z</time>
      </trkpt>
      <trkpt lat="46.99153" lon="4.73473">
        <ele>374.09</ele>
        <time>2010-10-10T08:59:54Z</time>
      </trkpt>
      <trkpt lat="46.99154" lon="4.73474">
        <ele>374.09</ele>
        <time>2010-10-10T08:59:55Z</time>
      </trkpt>
      <trkpt lat="46.99155" lon="4.73476">
        <ele>374.57</ele>
        <time>2010-10-10T08:59:56Z</time>
      </trkpt>
      <trkpt lat="46.99155" lon="4.73479">
        <ele>374.57</ele>
        <time>2010-10-10T08:59:57Z</time>
      </trkpt>
      <trkpt lat="46.99155" lon="4.73481">
        <ele>374.09</ele>
        <time>2010-10-10T08:59:58Z</time>
      </trkpt>
      <trkpt lat="46.99158" lon="4.73503">
        <ele>375.05</ele>
        <time>2010-10-10T09:00:13Z</time>
      </trkpt>
      <trkpt lat="46.99159" lon="4.73514">
        <ele>375.53</ele>
        <time>2010-10-10T09:00:55Z</time>
      </trkpt>
      <trkpt lat="46.99167" lon="4.73578">
        <ele>375.05</ele>
        <time>2010-10-10T09:01:06Z</time>
      </trkpt>
      <trkpt lat="46.99181" lon="4.73685">
        <ele>374.09</ele>
        <time>2010-10-10T09:01:19Z</time>
      </trkpt>
      <trkpt lat="46.99187" lon="4.73719">
        <ele>373.61</ele>
        <time>2010-10-10T09:01:23Z</time>
      </trkpt>
      <trkpt lat="46.99189" lon="4.73727">
        <ele>373.61</ele>
        <time>2010-10-10T09:01:24Z</time>
      </trkpt>
      <trkpt lat="46.99194" lon="4.73744">
        <ele>373.13</ele>
        <time>2010-10-10T09:01:26Z</time>
      </trkpt>
      <trkpt lat="46.9921" lon="4.73783">
        <ele>372.65</ele>
        <time>2010-10-10T09:01:31Z</time>
      </trkpt>
      <trkpt lat="46.99213" lon="4.73791">
        <ele>372.17</ele>
        <time>2010-10-10T09:01:32Z</time>
      </trkpt>
      <trkpt lat="46.99214" lon="4.73799">
        <ele>372.17</ele>
        <time>2010-10-10T09:01:33Z</time>
      </trkpt>
      <trkpt lat="46.99219" lon="4.73831">
        <ele>373.13</ele>
        <time>2010-10-10T09:01:37Z</time>
      </trkpt>
      <trkpt lat="46.9922" lon="4.73839">
        <ele>373.61</ele>
        <time>2010-10-10T09:01:38Z</time>
      </trkpt>
      <trkpt lat="46.99222" lon="4.73845">
        <ele>373.61</ele>
        <time>2010-10-10T09:01:39Z</time>
      </trkpt>
      <trkpt lat="46.99227" lon="4.73857">
        <ele>374.57</ele>
        <time>2010-10-10T09:01:41Z</time>
      </trkpt>
      <trkpt lat="46.99229" lon="4.73861">
        <ele>375.05</ele>
        <time>2010-10-10T09:01:42Z</time>
      </trkpt>
      <trkpt lat="46.99232" lon="4.73863">
        <ele>375.53</ele>
        <time>2010-10-10T09:01:43Z</time>
      </trkpt>
      <trkpt lat="46.99235" lon="4.73865">
        <ele>375.53</ele>
        <time>2010-10-10T09:01:44Z</time>
      </trkpt>
      <trkpt lat="46.99238" lon="4.73868">
        <ele>376.01</ele>
        <time>2010-10-10T09:01:45Z</time>
      </trkpt>
      <trkpt lat="46.9924" lon="4.7387">
        <ele>376.49</ele>
        <time>2010-10-10T09:01:46Z</time>
      </trkpt>
      <trkpt lat="46.99243" lon="4.73873">
        <ele>376.49</ele>
        <time>2010-10-10T09:01:47Z</time>
      </trkpt>
      <trkpt lat="46.99268" lon="4.73894">
        <ele>378.9</ele>
        <time>2010-10-10T09:01:57Z</time>
      </trkpt>
      <trkpt lat="46.99269" lon="4.73898">
        <ele>378.9</ele>
        <time>2010-10-10T09:01:58Z</time>
      </trkpt>
      <trkpt lat="46.9927" lon="4.73902">
        <ele>378.9</ele>
        <time>2010-10-10T09:01:59Z</time>
      </trkpt>
      <trkpt lat="46.99269" lon="4.73907">
        <ele>378.9</ele>
        <time>2010-10-10T09:02:00Z</time>
      </trkpt>
      <trkpt lat="46.99269" lon="4.73912">
        <ele>379.38</ele>
        <time>2010-10-10T09:02:01Z</time>
      </trkpt>
      <trkpt lat="46.99252" lon="4.73968">
        <ele>379.86</ele>
        <time>2010-10-10T09:02:13Z</time>
      </trkpt>
      <trkpt lat="46.99251" lon="4.74034">
        <ele>380.34</ele>
        <time>2010-10-10T09:02:25Z</time>
      </trkpt>
      <trkpt lat="46.99276" lon="4.74083">
        <ele>381.3</ele>
        <time>2010-10-10T09:02:37Z</time>
      </trkpt>
      <trkpt lat="46.99279" lon="4.74087">
        <ele>381.78</ele>
        <time>2010-10-10T09:02:38Z</time>
      </trkpt>
      <trkpt lat="46.99289" lon="4.74097">
        <ele>381.3</ele>
        <time>2010-10-10T09:02:41Z</time>
      </trkpt>
      <trkpt lat="46.993" lon="4.74109">
        <ele>381.78</ele>
        <time>2010-10-10T09:02:44Z</time>
      </trkpt>
      <trkpt lat="46.99302" lon="4.74114">
        <ele>381.3</ele>
        <time>2010-10-10T09:02:45Z</time>
      </trkpt>
      <trkpt lat="46.99305" lon="4.74126">
        <ele>381.3</ele>
        <time>2010-10-10T09:02:47Z</time>
      </trkpt>
      <trkpt lat="46.99307" lon="4.74141">
        <ele>380.82</ele>
        <time>2010-10-10T09:02:49Z</time>
      </trkpt>
      <trkpt lat="46.99308" lon="4.7415">
        <ele>380.34</ele>
        <time>2010-10-10T09:02:50Z</time>
      </trkpt>
      <trkpt lat="46.9931" lon="4.74158">
        <ele>379.86</ele>
        <time>2010-10-10T09:02:51Z</time>
      </trkpt>
      <trkpt lat="46.99313" lon="4.74165">
        <ele>379.38</ele>
        <time>2010-10-10T09:02:52Z</time>
      </trkpt>
      <trkpt lat="46.99317" lon="4.74173">
        <ele>378.9</ele>
        <time>2010-10-10T09:02:53Z</time>
      </trkpt>
      <trkpt lat="46.9932" lon="4.7418">
        <ele>378.42</ele>
        <time>2010-10-10T09:02:54Z</time>
      </trkpt>
      <trkpt lat="46.99324" lon="4.74188">
        <ele>377.94</ele>
        <time>2010-10-10T09:02:55Z</time>
      </trkpt>
      <trkpt lat="46.99332" lon="4.74208">
        <ele>376.97</ele>
        <time>2010-10-10T09:02:58Z</time>
      </trkpt>
      <trkpt lat="46.99334" lon="4.74214">
        <ele>376.01</ele>
        <time>2010-10-10T09:02:59Z</time>
      </trkpt>
      <trkpt lat="46.99335" lon="4.74221">
        <ele>376.01</ele>
        <time>2010-10-10T09:03:00Z</time>
      </trkpt>
      <trkpt lat="46.99335" lon="4.74227">
        <ele>374.57</ele>
        <time>2010-10-10T09:03:01Z</time>
      </trkpt>
      <trkpt lat="46.99335" lon="4.74234">
        <ele>374.09</ele>
        <time>2010-10-10T09:03:02Z</time>
      </trkpt>
      <trkpt lat="46.99334" lon="4.74241">
        <ele>373.13</ele>
        <time>2010-10-10T09:03:03Z</time>
      </trkpt>
      <trkpt lat="46.99334" lon="4.74248">
        <ele>372.65</ele>
        <time>2010-10-10T09:03:04Z</time>
      </trkpt>
      <trkpt lat="46.99334" lon="4.74255">
        <ele>372.17</ele>
        <time>2010-10-10T09:03:05Z</time>
      </trkpt>
      <trkpt lat="46.99335" lon="4.74261">
        <ele>371.21</ele>
        <time>2010-10-10T09:03:06Z</time>
      </trkpt>
      <trkpt lat="46.99336" lon="4.74269">
        <ele>371.21</ele>
        <time>2010-10-10T09:03:07Z</time>
      </trkpt>
      <trkpt lat="46.99336" lon="4.74277">
        <ele>370.24</ele>
        <time>2010-10-10T09:03:08Z</time>
      </trkpt>
      <trkpt lat="46.99336" lon="4.74286">
        <ele>369.76</ele>
        <time>2010-10-10T09:03:09Z</time>
      </trkpt>
      <trkpt lat="46.99337" lon="4.74303">
        <ele>367.84</ele>
        <time>2010-10-10T09:03:11Z</time>
      </trkpt>
      <trkpt lat="46.99339" lon="4.7431">
        <ele>367.84</ele>
        <time>2010-10-10T09:03:12Z</time>
      </trkpt>
      <trkpt lat="46.99342" lon="4.74315">
        <ele>367.84</ele>
        <time>2010-10-10T09:03:13Z</time>
      </trkpt>
      <trkpt lat="46.99345" lon="4.74319">
        <ele>367.84</ele>
        <time>2010-10-10T09:03:14Z</time>
      </trkpt>
      <trkpt lat="46.99348" lon="4.74321">
        <ele>367.84</ele>
        <time>2010-10-10T09:03:15Z</time>
      </trkpt>
      <trkpt lat="46.99351" lon="4.74322">
        <ele>368.32</ele>
        <time>2010-10-10T09:03:16Z</time>
      </trkpt>
      <trkpt lat="46.99354" lon="4.74324">
        <ele>368.8</ele>
        <time>2010-10-10T09:03:17Z</time>
      </trkpt>
      <trkpt lat="46.99367" lon="4.74349">
        <ele>370.73</ele>
        <time>2010-10-10T09:03:26Z</time>
      </trkpt>
      <trkpt lat="46.99367" lon="4.74352">
        <ele>371.21</ele>
        <time>2010-10-10T09:03:27Z</time>
      </trkpt>
      <trkpt lat="46.99358" lon="4.74394">
        <ele>372.65</ele>
        <time>2010-10-10T09:03:39Z</time>
      </trkpt>
      <trkpt lat="46.99347" lon="4.74443">
        <ele>374.57</ele>
        <time>2010-10-10T09:03:52Z</time>
      </trkpt>
      <trkpt lat="46.99333" lon="4.74467">
        <ele>373.61</ele>
        <time>2010-10-10T09:04:02Z</time>
      </trkpt>
      <trkpt lat="46.99332" lon="4.74469">
        <ele>373.61</ele>
        <time>2010-10-10T09:04:03Z</time>
      </trkpt>
      <trkpt lat="46.9933" lon="4.74471">
        <ele>374.09</ele>
        <time>2010-10-10T09:04:04Z</time>
      </trkpt>
      <trkpt lat="46.99329" lon="4.74472">
        <ele>373.61</ele>
        <time>2010-10-10T09:04:05Z</time>
      </trkpt>
      <trkpt lat="46.99327" lon="4.74473">
        <ele>373.13</ele>
        <time>2010-10-10T09:04:06Z</time>
      </trkpt>
      <trkpt lat="46.99326" lon="4.74474">
        <ele>372.65</ele>
        <time>2010-10-10T09:04:07Z</time>
      </trkpt>
      <trkpt lat="46.99324" lon="4.74475">
        <ele>372.17</ele>
        <time>2010-10-10T09:04:08Z</time>
      </trkpt>
      <trkpt lat="46.99322" lon="4.74476">
        <ele>372.17</ele>
        <time>2010-10-10T09:04:09Z</time>
      </trkpt>
      <trkpt lat="46.99321" lon="4.74477">
        <ele>372.65</ele>
        <time>2010-10-10T09:04:19Z</time>
      </trkpt>
      <trkpt lat="46.99311" lon="4.7448">
        <ele>371.21</ele>
        <time>2010-10-10T09:04:42Z</time>
      </trkpt>
      <trkpt lat="46.9929" lon="4.7449">
        <ele>369.28</ele>
        <time>2010-10-10T09:04:49Z</time>
      </trkpt>
      <trkpt lat="46.99276" lon="4.74517">
        <ele>365.44</ele>
        <time>2010-10-10T09:04:55Z</time>
      </trkpt>
      <trkpt lat="46.99265" lon="4.74538">
        <ele>363.04</ele>
        <time>2010-10-10T09:04:59Z</time>
      </trkpt>
      <trkpt lat="46.99254" lon="4.74564">
        <ele>359.19</ele>
        <time>2010-10-10T09:05:03Z</time>
      </trkpt>
      <trkpt lat="46.99244" lon="4.74584">
        <ele>356.79</ele>
        <time>2010-10-10T09:05:06Z</time>
      </trkpt>
      <trkpt lat="46.99232" lon="4.74615">
        <ele>353.42</ele>
        <time>2010-10-10T09:05:10Z</time>
      </trkpt>
      <trkpt lat="46.9922" lon="4.74644">
        <ele>350.06</ele>
        <time>2010-10-10T09:05:13Z</time>
      </trkpt>
      <trkpt lat="46.99206" lon="4.74696">
        <ele>346.21</ele>
        <time>2010-10-10T09:05:18Z</time>
      </trkpt>
      <trkpt lat="46.99203" lon="4.74708">
        <ele>345.73</ele>
        <time>2010-10-10T09:05:19Z</time>
      </trkpt>
      <trkpt lat="46.99195" lon="4.74742">
        <ele>344.29</ele>
        <time>2010-10-10T09:05:22Z</time>
      </trkpt>
      <trkpt lat="46.99192" lon="4.74754">
        <ele>343.33</ele>
        <time>2010-10-10T09:05:23Z</time>
      </trkpt>
      <trkpt lat="46.99185" lon="4.748">
        <ele>341.89</ele>
        <time>2010-10-10T09:05:27Z</time>
      </trkpt>
      <trkpt lat="46.99181" lon="4.74812">
        <ele>340.44</ele>
        <time>2010-10-10T09:05:28Z</time>
      </trkpt>
      <trkpt lat="46.99174" lon="4.74835">
        <ele>339.48</ele>
        <time>2010-10-10T09:05:30Z</time>
      </trkpt>
      <trkpt lat="46.99171" lon="4.74846">
        <ele>338.04</ele>
        <time>2010-10-10T09:05:31Z</time>
      </trkpt>
      <trkpt lat="46.99153" lon="4.74908">
        <ele>334.2</ele>
        <time>2010-10-10T09:05:36Z</time>
      </trkpt>
      <trkpt lat="46.99149" lon="4.7492">
        <ele>332.75</ele>
        <time>2010-10-10T09:05:37Z</time>
      </trkpt>
      <trkpt lat="46.99144" lon="4.74932">
        <ele>332.27</ele>
        <time>2010-10-10T09:05:38Z</time>
      </trkpt>
      <trkpt lat="46.99125" lon="4.74977">
        <ele>329.39</ele>
        <time>2010-10-10T09:05:42Z</time>
      </trkpt>
      <trkpt lat="46.99114" lon="4.7501">
        <ele>329.39</ele>
        <time>2010-10-10T09:05:45Z</time>
      </trkpt>
      <trkpt lat="46.99109" lon="4.75019">
        <ele>328.91</ele>
        <time>2010-10-10T09:05:46Z</time>
      </trkpt>
      <trkpt lat="46.99103" lon="4.75028">
        <ele>327.47</ele>
        <time>2010-10-10T09:05:47Z</time>
      </trkpt>
      <trkpt lat="46.99097" lon="4.75036">
        <ele>327.95</ele>
        <time>2010-10-10T09:05:48Z</time>
      </trkpt>
      <trkpt lat="46.99077" lon="4.7506">
        <ele>324.1</ele>
        <time>2010-10-10T09:05:52Z</time>
      </trkpt>
      <trkpt lat="46.99071" lon="4.75064">
        <ele>323.14</ele>
        <time>2010-10-10T09:05:53Z</time>
      </trkpt>
      <trkpt lat="46.99066" lon="4.75068">
        <ele>322.66</ele>
        <time>2010-10-10T09:05:54Z</time>
      </trkpt>
      <trkpt lat="46.99056" lon="4.75074">
        <ele>319.3</ele>
        <time>2010-10-10T09:05:56Z</time>
      </trkpt>
      <trkpt lat="46.9905" lon="4.75075">
        <ele>318.33</ele>
        <time>2010-10-10T09:05:57Z</time>
      </trkpt>
      <trkpt lat="46.99045" lon="4.75076">
        <ele>317.37</ele>
        <time>2010-10-10T09:05:58Z</time>
      </trkpt>
      <trkpt lat="46.9904" lon="4.75077">
        <ele>316.41</ele>
        <time>2010-10-10T09:05:59Z</time>
      </trkpt>
      <trkpt lat="46.99023" lon="4.75081">
        <ele>312.57</ele>
        <time>2010-10-10T09:06:02Z</time>
      </trkpt>
      <trkpt lat="46.99006" lon="4.75085">
        <ele>308.72</ele>
        <time>2010-10-10T09:06:05Z</time>
      </trkpt>
      <trkpt lat="46.98994" lon="4.75088">
        <ele>305.36</ele>
        <time>2010-10-10T09:06:07Z</time>
      </trkpt>
      <trkpt lat="46.98976" lon="4.75092">
        <ele>301.03</ele>
        <time>2010-10-10T09:06:10Z</time>
      </trkpt>
      <trkpt lat="46.98964" lon="4.75092">
        <ele>297.67</ele>
        <time>2010-10-10T09:06:12Z</time>
      </trkpt>
      <trkpt lat="46.9895" lon="4.75091">
        <ele>294.3</ele>
        <time>2010-10-10T09:06:15Z</time>
      </trkpt>
      <trkpt lat="46.98945" lon="4.75089">
        <ele>292.86</ele>
        <time>2010-10-10T09:06:16Z</time>
      </trkpt>
      <trkpt lat="46.9893" lon="4.75083">
        <ele>289.49</ele>
        <time>2010-10-10T09:06:19Z</time>
      </trkpt>
      <trkpt lat="46.98913" lon="4.75077">
        <ele>286.13</ele>
        <time>2010-10-10T09:06:22Z</time>
      </trkpt>
      <trkpt lat="46.98884" lon="4.75071">
        <ele>282.77</ele>
        <time>2010-10-10T09:06:26Z</time>
      </trkpt>
      <trkpt lat="46.98862" lon="4.75069">
        <ele>279.88</ele>
        <time>2010-10-10T09:06:29Z</time>
      </trkpt>
      <trkpt lat="46.98843" lon="4.75067">
        <ele>277.48</ele>
        <time>2010-10-10T09:06:32Z</time>
      </trkpt>
      <trkpt lat="46.98839" lon="4.75065">
        <ele>277.48</ele>
        <time>2010-10-10T09:06:33Z</time>
      </trkpt>
      <trkpt lat="46.98837" lon="4.75063">
        <ele>277</ele>
        <time>2010-10-10T09:06:34Z</time>
      </trkpt>
      <trkpt lat="46.98836" lon="4.75059">
        <ele>276.52</ele>
        <time>2010-10-10T09:06:35Z</time>
      </trkpt>
      <trkpt lat="46.98836" lon="4.75056">
        <ele>276.52</ele>
        <time>2010-10-10T09:06:36Z</time>
      </trkpt>
      <trkpt lat="46.98837" lon="4.75053">
        <ele>276.52</ele>
        <time>2010-10-10T09:06:37Z</time>
      </trkpt>
      <trkpt lat="46.98838" lon="4.75051">
        <ele>277</ele>
        <time>2010-10-10T09:06:38Z</time>
      </trkpt>
      <trkpt lat="46.98838" lon="4.75048">
        <ele>277.48</ele>
        <time>2010-10-10T09:06:39Z</time>
      </trkpt>
      <trkpt lat="46.98838" lon="4.75046">
        <ele>277</ele>
        <time>2010-10-10T09:06:40Z</time>
      </trkpt>
      <trkpt lat="46.98839" lon="4.75044">
        <ele>273.15</ele>
        <time>2010-10-10T09:06:55Z</time>
      </trkpt>
      <trkpt lat="46.98839" lon="4.75044">
        <ele>278.44</ele>
        <time>2010-10-10T09:06:56Z</time>
      </trkpt>
      <trkpt lat="46.98839" lon="4.75045">
        <ele>277.48</ele>
        <time>2010-10-10T09:08:08Z</time>
      </trkpt>
      <trkpt lat="46.98839" lon="4.75045">
        <ele>277.96</ele>
        <time>2010-10-10T09:08:50Z</time>
      </trkpt>
      <trkpt lat="46.98839" lon="4.75045">
        <ele>277.96</ele>
        <time>2010-10-10T09:09:32Z</time>
      </trkpt>
      <trkpt lat="46.9884" lon="4.75045">
        <ele>277.48</ele>
        <time>2010-10-10T09:10:36Z</time>
      </trkpt>
      <trkpt lat="46.98839" lon="4.75044">
        <ele>277</ele>
        <time>2010-10-10T09:12:19Z</time>
      </trkpt>
      <trkpt lat="46.9884" lon="4.75044">
        <ele>277.48</ele>
        <time>2010-10-10T09:13:07Z</time>
      </trkpt>
      <trkpt lat="46.98839" lon="4.75044">
        <ele>277.48</ele>
        <time>2010-10-10T09:13:38Z</time>
      </trkpt>
      <trkpt lat="46.9884" lon="4.75045">
        <ele>277.96</ele>
        <time>2010-10-10T09:14:30Z</time>
      </trkpt>
      <trkpt lat="46.98839" lon="4.75045">
        <ele>277.48</ele>
        <time>2010-10-10T09:14:47Z</time>
      </trkpt>
      <trkpt lat="46.98839" lon="4.75042">
        <ele>277.48</ele>
        <time>2010-10-10T09:14:48Z</time>
      </trkpt>
      <trkpt lat="46.98838" lon="4.7504">
        <ele>277.96</ele>
        <time>2010-10-10T09:14:49Z</time>
      </trkpt>
      <trkpt lat="46.98838" lon="4.75037">
        <ele>277.96</ele>
        <time>2010-10-10T09:14:50Z</time>
      </trkpt>
      <trkpt lat="46.98837" lon="4.75033">
        <ele>277.48</ele>
        <time>2010-10-10T09:14:51Z</time>
      </trkpt>
      <trkpt lat="46.98844" lon="4.74966">
        <ele>277</ele>
        <time>2010-10-10T09:15:06Z</time>
      </trkpt>
      <trkpt lat="46.98852" lon="4.74906">
        <ele>276.04</ele>
        <time>2010-10-10T09:15:16Z</time>
      </trkpt>
      <trkpt lat="46.98854" lon="4.749">
        <ele>276.04</ele>
        <time>2010-10-10T09:15:17Z</time>
      </trkpt>
      <trkpt lat="46.98856" lon="4.74894">
        <ele>275.56</ele>
        <time>2010-10-10T09:15:18Z</time>
      </trkpt>
      <trkpt lat="46.9886" lon="4.74888">
        <ele>275.56</ele>
        <time>2010-10-10T09:15:19Z</time>
      </trkpt>
      <trkpt lat="46.98864" lon="4.74883">
        <ele>275.07</ele>
        <time>2010-10-10T09:15:20Z</time>
      </trkpt>
      <trkpt lat="46.9888" lon="4.74849">
        <ele>276.52</ele>
        <time>2010-10-10T09:15:26Z</time>
      </trkpt>
      <trkpt lat="46.98884" lon="4.74828">
        <ele>276.04</ele>
        <time>2010-10-10T09:15:29Z</time>
      </trkpt>
      <trkpt lat="46.98885" lon="4.74821">
        <ele>276.52</ele>
        <time>2010-10-10T09:15:30Z</time>
      </trkpt>
      <trkpt lat="46.98887" lon="4.74798">
        <ele>276.52</ele>
        <time>2010-10-10T09:15:33Z</time>
      </trkpt>
      <trkpt lat="46.98888" lon="4.74791">
        <ele>276.52</ele>
        <time>2010-10-10T09:15:34Z</time>
      </trkpt>
      <trkpt lat="46.98893" lon="4.74672">
        <ele>277</ele>
        <time>2010-10-10T09:15:48Z</time>
      </trkpt>
      <trkpt lat="46.98893" lon="4.7457">
        <ele>279.4</ele>
        <time>2010-10-10T09:16:01Z</time>
      </trkpt>
      <trkpt lat="46.98893" lon="4.74563">
        <ele>279.88</ele>
        <time>2010-10-10T09:16:02Z</time>
      </trkpt>
      <trkpt lat="46.98892" lon="4.74556">
        <ele>279.4</ele>
        <time>2010-10-10T09:16:03Z</time>
      </trkpt>
      <trkpt lat="46.98893" lon="4.7447">
        <ele>282.77</ele>
        <time>2010-10-10T09:16:17Z</time>
      </trkpt>
      <trkpt lat="46.98895" lon="4.74377">
        <ele>284.69</ele>
        <time>2010-10-10T09:16:33Z</time>
      </trkpt>
      <trkpt lat="46.98895" lon="4.74283">
        <ele>287.09</ele>
        <time>2010-10-10T09:16:50Z</time>
      </trkpt>
      <trkpt lat="46.989" lon="4.7421">
        <ele>288.53</ele>
        <time>2010-10-10T09:17:03Z</time>
      </trkpt>
      <trkpt lat="46.98904" lon="4.74168">
        <ele>289.01</ele>
        <time>2010-10-10T09:17:10Z</time>
      </trkpt>
      <trkpt lat="46.98903" lon="4.74154">
        <ele>289.01</ele>
        <time>2010-10-10T09:17:12Z</time>
      </trkpt>
      <trkpt lat="46.98897" lon="4.74055">
        <ele>288.05</ele>
        <time>2010-10-10T09:17:24Z</time>
      </trkpt>
      <trkpt lat="46.98897" lon="4.74046">
        <ele>288.05</ele>
        <time>2010-10-10T09:17:25Z</time>
      </trkpt>
      <trkpt lat="46.98897" lon="4.74037">
        <ele>287.57</ele>
        <time>2010-10-10T09:17:26Z</time>
      </trkpt>
      <trkpt lat="46.98898" lon="4.74028">
        <ele>287.57</ele>
        <time>2010-10-10T09:17:27Z</time>
      </trkpt>
      <trkpt lat="46.98899" lon="4.7402">
        <ele>287.57</ele>
        <time>2010-10-10T09:17:28Z</time>
      </trkpt>
      <trkpt lat="46.98916" lon="4.73898">
        <ele>286.13</ele>
        <time>2010-10-10T09:17:41Z</time>
      </trkpt>
      <trkpt lat="46.9892" lon="4.73861">
        <ele>284.21</ele>
        <time>2010-10-10T09:17:45Z</time>
      </trkpt>
      <trkpt lat="46.98924" lon="4.73842">
        <ele>283.73</ele>
        <time>2010-10-10T09:17:47Z</time>
      </trkpt>
      <trkpt lat="46.98927" lon="4.73832">
        <ele>283.25</ele>
        <time>2010-10-10T09:17:48Z</time>
      </trkpt>
      <trkpt lat="46.98928" lon="4.73822">
        <ele>283.73</ele>
        <time>2010-10-10T09:17:49Z</time>
      </trkpt>
      <trkpt lat="46.9893" lon="4.73813">
        <ele>284.21</ele>
        <time>2010-10-10T09:17:50Z</time>
      </trkpt>
      <trkpt lat="46.98931" lon="4.73804">
        <ele>284.21</ele>
        <time>2010-10-10T09:17:51Z</time>
      </trkpt>
      <trkpt lat="46.98931" lon="4.73777">
        <ele>284.69</ele>
        <time>2010-10-10T09:17:54Z</time>
      </trkpt>
      <trkpt lat="46.9893" lon="4.7376">
        <ele>284.21</ele>
        <time>2010-10-10T09:17:56Z</time>
      </trkpt>
      <trkpt lat="46.98924" lon="4.73719">
        <ele>283.73</ele>
        <time>2010-10-10T09:18:04Z</time>
      </trkpt>
      <trkpt lat="46.98922" lon="4.73716">
        <ele>284.69</ele>
        <time>2010-10-10T09:18:09Z</time>
      </trkpt>
      <trkpt lat="46.98922" lon="4.73714">
        <ele>284.21</ele>
        <time>2010-10-10T09:18:19Z</time>
      </trkpt>
      <trkpt lat="46.98921" lon="4.73713">
        <ele>284.69</ele>
        <time>2010-10-10T09:20:04Z</time>
      </trkpt>
      <trkpt lat="46.98921" lon="4.73713">
        <ele>285.17</ele>
        <time>2010-10-10T09:21:29Z</time>
      </trkpt>
      <trkpt lat="46.98921" lon="4.73713">
        <ele>284.69</ele>
        <time>2010-10-10T09:22:11Z</time>
      </trkpt>
      <trkpt lat="46.9892" lon="4.73713">
        <ele>285.65</ele>
        <time>2010-10-10T09:23:18Z</time>
      </trkpt>
      <trkpt lat="46.9892" lon="4.73714">
        <ele>285.65</ele>
        <time>2010-10-10T09:24:03Z</time>
      </trkpt>
      <trkpt lat="46.9892" lon="4.73714">
        <ele>285.17</ele>
        <time>2010-10-10T09:24:32Z</time>
      </trkpt>
      <trkpt lat="46.9892" lon="4.73711">
        <ele>286.13</ele>
        <time>2010-10-10T09:24:41Z</time>
      </trkpt>
      <trkpt lat="46.9892" lon="4.73711">
        <ele>285.65</ele>
        <time>2010-10-10T09:24:42Z</time>
      </trkpt>
      <trkpt lat="46.98919" lon="4.73709">
        <ele>285.65</ele>
        <time>2010-10-10T09:24:43Z</time>
      </trkpt>
      <trkpt lat="46.98903" lon="4.73694">
        <ele>284.21</ele>
        <time>2010-10-10T09:24:50Z</time>
      </trkpt>
      <trkpt lat="46.98898" lon="4.73695">
        <ele>284.21</ele>
        <time>2010-10-10T09:24:51Z</time>
      </trkpt>
      <trkpt lat="46.98893" lon="4.73698">
        <ele>283.25</ele>
        <time>2010-10-10T09:24:52Z</time>
      </trkpt>
      <trkpt lat="46.98888" lon="4.73703">
        <ele>282.77</ele>
        <time>2010-10-10T09:24:53Z</time>
      </trkpt>
      <trkpt lat="46.98883" lon="4.7371">
        <ele>281.8</ele>
        <time>2010-10-10T09:24:54Z</time>
      </trkpt>
      <trkpt lat="46.98874" lon="4.73718">
        <ele>279.88</ele>
        <time>2010-10-10T09:24:56Z</time>
      </trkpt>
      <trkpt lat="46.98868" lon="4.73719">
        <ele>279.88</ele>
        <time>2010-10-10T09:24:57Z</time>
      </trkpt>
      <trkpt lat="46.98862" lon="4.73718">
        <ele>278.92</ele>
        <time>2010-10-10T09:24:58Z</time>
      </trkpt>
      <trkpt lat="46.98855" lon="4.73717">
        <ele>278.44</ele>
        <time>2010-10-10T09:24:59Z</time>
      </trkpt>
      <trkpt lat="46.98848" lon="4.73717">
        <ele>277.96</ele>
        <time>2010-10-10T09:25:00Z</time>
      </trkpt>
      <trkpt lat="46.98818" lon="4.73714">
        <ele>274.11</ele>
        <time>2010-10-10T09:25:04Z</time>
      </trkpt>
      <trkpt lat="46.98814" lon="4.73712">
        <ele>273.63</ele>
        <time>2010-10-10T09:25:05Z</time>
      </trkpt>
      <trkpt lat="46.98811" lon="4.73709">
        <ele>273.15</ele>
        <time>2010-10-10T09:25:06Z</time>
      </trkpt>
      <trkpt lat="46.98809" lon="4.73704">
        <ele>272.67</ele>
        <time>2010-10-10T09:25:07Z</time>
      </trkpt>
      <trkpt lat="46.98808" lon="4.73699">
        <ele>273.15</ele>
        <time>2010-10-10T09:25:08Z</time>
      </trkpt>
      <trkpt lat="46.98808" lon="4.73693">
        <ele>272.67</ele>
        <time>2010-10-10T09:25:09Z</time>
      </trkpt>
      <trkpt lat="46.98807" lon="4.73686">
        <ele>272.67</ele>
        <time>2010-10-10T09:25:10Z</time>
      </trkpt>
      <trkpt lat="46.98805" lon="4.7368">
        <ele>272.19</ele>
        <time>2010-10-10T09:25:11Z</time>
      </trkpt>
      <trkpt lat="46.98801" lon="4.73677">
        <ele>272.67</ele>
        <time>2010-10-10T09:25:12Z</time>
      </trkpt>
      <trkpt lat="46.98796" lon="4.73674">
        <ele>271.71</ele>
        <time>2010-10-10T09:25:13Z</time>
      </trkpt>
      <trkpt lat="46.9879" lon="4.73672">
        <ele>271.23</ele>
        <time>2010-10-10T09:25:14Z</time>
      </trkpt>
      <trkpt lat="46.98784" lon="4.7367">
        <ele>271.23</ele>
        <time>2010-10-10T09:25:15Z</time>
      </trkpt>
      <trkpt lat="46.98772" lon="4.73665">
        <ele>270.75</ele>
        <time>2010-10-10T09:25:17Z</time>
      </trkpt>
      <trkpt lat="46.98739" lon="4.73656">
        <ele>269.31</ele>
        <time>2010-10-10T09:25:25Z</time>
      </trkpt>
      <trkpt lat="46.98737" lon="4.73654">
        <ele>269.31</ele>
        <time>2010-10-10T09:25:27Z</time>
      </trkpt>
      <trkpt lat="46.98737" lon="4.73653">
        <ele>269.31</ele>
        <time>2010-10-10T09:25:28Z</time>
      </trkpt>
      <trkpt lat="46.98736" lon="4.73651">
        <ele>269.31</ele>
        <time>2010-10-10T09:25:29Z</time>
      </trkpt>
      <trkpt lat="46.98734" lon="4.73649">
        <ele>269.31</ele>
        <time>2010-10-10T09:25:30Z</time>
      </trkpt>
      <trkpt lat="46.9873" lon="4.7365">
        <ele>269.79</ele>
        <time>2010-10-10T09:25:31Z</time>
      </trkpt>
      <trkpt lat="46.98727" lon="4.7365">
        <ele>269.31</ele>
        <time>2010-10-10T09:25:32Z</time>
      </trkpt>
      <trkpt lat="46.98722" lon="4.73651">
        <ele>269.31</ele>
        <time>2010-10-10T09:25:33Z</time>
      </trkpt>
      <trkpt lat="46.98718" lon="4.7365">
        <ele>269.31</ele>
        <time>2010-10-10T09:25:34Z</time>
      </trkpt>
      <trkpt lat="46.98709" lon="4.7365">
        <ele>268.83</ele>
        <time>2010-10-10T09:25:36Z</time>
      </trkpt>
      <trkpt lat="46.98704" lon="4.73652">
        <ele>269.31</ele>
        <time>2010-10-10T09:25:37Z</time>
      </trkpt>
      <trkpt lat="46.98695" lon="4.73656">
        <ele>269.31</ele>
        <time>2010-10-10T09:25:39Z</time>
      </trkpt>
      <trkpt lat="46.9869" lon="4.73657">
        <ele>268.83</ele>
        <time>2010-10-10T09:25:40Z</time>
      </trkpt>
      <trkpt lat="46.98685" lon="4.73658">
        <ele>268.83</ele>
        <time>2010-10-10T09:25:41Z</time>
      </trkpt>
      <trkpt lat="46.9861" lon="4.73647">
        <ele>268.83</ele>
        <time>2010-10-10T09:25:56Z</time>
      </trkpt>
      <trkpt lat="46.9858" lon="4.73645">
        <ele>268.83</ele>
        <time>2010-10-10T09:26:02Z</time>
      </trkpt>
      <trkpt lat="46.98575" lon="4.73644">
        <ele>268.83</ele>
        <time>2010-10-10T09:26:03Z</time>
      </trkpt>
      <trkpt lat="46.98541" lon="4.73629">
        <ele>269.79</ele>
        <time>2010-10-10T09:26:10Z</time>
      </trkpt>
      <trkpt lat="46.98536" lon="4.73628">
        <ele>269.31</ele>
        <time>2010-10-10T09:26:11Z</time>
      </trkpt>
      <trkpt lat="46.98526" lon="4.73628">
        <ele>269.79</ele>
        <time>2010-10-10T09:26:13Z</time>
      </trkpt>
      <trkpt lat="46.98521" lon="4.73627">
        <ele>269.79</ele>
        <time>2010-10-10T09:26:14Z</time>
      </trkpt>
      <trkpt lat="46.98516" lon="4.73626">
        <ele>269.79</ele>
        <time>2010-10-10T09:26:15Z</time>
      </trkpt>
      <trkpt lat="46.98512" lon="4.73624">
        <ele>269.79</ele>
        <time>2010-10-10T09:26:16Z</time>
      </trkpt>
      <trkpt lat="46.98508" lon="4.73623">
        <ele>270.27</ele>
        <time>2010-10-10T09:26:17Z</time>
      </trkpt>
      <trkpt lat="46.98457" lon="4.73624">
        <ele>273.15</ele>
        <time>2010-10-10T09:26:30Z</time>
      </trkpt>
      <trkpt lat="46.98416" lon="4.73628">
        <ele>275.07</ele>
        <time>2010-10-10T09:26:42Z</time>
      </trkpt>
      <trkpt lat="46.98371" lon="4.7364">
        <ele>275.56</ele>
        <time>2010-10-10T09:26:54Z</time>
      </trkpt>
      <trkpt lat="46.98359" lon="4.73648">
        <ele>275.07</ele>
        <time>2010-10-10T09:26:57Z</time>
      </trkpt>
      <trkpt lat="46.98355" lon="4.73652">
        <ele>275.07</ele>
        <time>2010-10-10T09:26:58Z</time>
      </trkpt>
      <trkpt lat="46.98332" lon="4.73672">
        <ele>274.59</ele>
        <time>2010-10-10T09:27:03Z</time>
      </trkpt>
      <trkpt lat="46.98327" lon="4.73674">
        <ele>274.11</ele>
        <time>2010-10-10T09:27:04Z</time>
      </trkpt>
      <trkpt lat="46.98322" lon="4.73675">
        <ele>274.11</ele>
        <time>2010-10-10T09:27:05Z</time>
      </trkpt>
      <trkpt lat="46.98269" lon="4.73681">
        <ele>274.59</ele>
        <time>2010-10-10T09:27:15Z</time>
      </trkpt>
      <trkpt lat="46.98264" lon="4.73681">
        <ele>274.59</ele>
        <time>2010-10-10T09:27:16Z</time>
      </trkpt>
      <trkpt lat="46.98259" lon="4.73681">
        <ele>275.07</ele>
        <time>2010-10-10T09:27:17Z</time>
      </trkpt>
      <trkpt lat="46.98255" lon="4.73681">
        <ele>275.07</ele>
        <time>2010-10-10T09:27:18Z</time>
      </trkpt>
      <trkpt lat="46.98215" lon="4.73668">
        <ele>277.48</ele>
        <time>2010-10-10T09:27:30Z</time>
      </trkpt>
      <trkpt lat="46.98172" lon="4.73661">
        <ele>279.88</ele>
        <time>2010-10-10T09:27:45Z</time>
      </trkpt>
      <trkpt lat="46.98136" lon="4.7367">
        <ele>282.28</ele>
        <time>2010-10-10T09:27:57Z</time>
      </trkpt>
      <trkpt lat="46.98086" lon="4.7368">
        <ele>284.69</ele>
        <time>2010-10-10T09:28:14Z</time>
      </trkpt>
      <trkpt lat="46.98039" lon="4.73673">
        <ele>286.61</ele>
        <time>2010-10-10T09:28:30Z</time>
      </trkpt>
      <trkpt lat="46.97994" lon="4.73669">
        <ele>288.53</ele>
        <time>2010-10-10T09:28:46Z</time>
      </trkpt>
      <trkpt lat="46.97959" lon="4.73665">
        <ele>290.46</ele>
        <time>2010-10-10T09:28:59Z</time>
      </trkpt>
      <trkpt lat="46.97923" lon="4.73657">
        <ele>292.86</ele>
        <time>2010-10-10T09:29:13Z</time>
      </trkpt>
      <trkpt lat="46.97885" lon="4.73649">
        <ele>295.26</ele>
        <time>2010-10-10T09:29:28Z</time>
      </trkpt>
      <trkpt lat="46.97856" lon="4.73639">
        <ele>298.15</ele>
        <time>2010-10-10T09:29:43Z</time>
      </trkpt>
      <trkpt lat="46.97835" lon="4.73616">
        <ele>301.03</ele>
        <time>2010-10-10T09:29:58Z</time>
      </trkpt>
      <trkpt lat="46.97817" lon="4.73612">
        <ele>303.91</ele>
        <time>2010-10-10T09:30:11Z</time>
      </trkpt>
      <trkpt lat="46.97809" lon="4.73609">
        <ele>304.88</ele>
        <time>2010-10-10T09:30:17Z</time>
      </trkpt>
      <trkpt lat="46.97808" lon="4.73608">
        <ele>305.36</ele>
        <time>2010-10-10T09:30:18Z</time>
      </trkpt>
      <trkpt lat="46.97807" lon="4.73606">
        <ele>305.36</ele>
        <time>2010-10-10T09:30:19Z</time>
      </trkpt>
      <trkpt lat="46.97806" lon="4.73605">
        <ele>305.84</ele>
        <time>2010-10-10T09:30:20Z</time>
      </trkpt>
      <trkpt lat="46.97805" lon="4.73605">
        <ele>305.84</ele>
        <time>2010-10-10T09:30:21Z</time>
      </trkpt>
      <trkpt lat="46.97803" lon="4.73605">
        <ele>305.84</ele>
        <time>2010-10-10T09:30:22Z</time>
      </trkpt>
      <trkpt lat="46.97802" lon="4.73605">
        <ele>306.32</ele>
        <time>2010-10-10T09:30:23Z</time>
      </trkpt>
      <trkpt lat="46.97801" lon="4.73605">
        <ele>306.32</ele>
        <time>2010-10-10T09:30:24Z</time>
      </trkpt>
      <trkpt lat="46.978" lon="4.73606">
        <ele>306.32</ele>
        <time>2010-10-10T09:30:25Z</time>
      </trkpt>
      <trkpt lat="46.97798" lon="4.73606">
        <ele>306.8</ele>
        <time>2010-10-10T09:30:26Z</time>
      </trkpt>
      <trkpt lat="46.9778" lon="4.73621">
        <ele>309.2</ele>
        <time>2010-10-10T09:30:41Z</time>
      </trkpt>
      <trkpt lat="46.97763" lon="4.73631">
        <ele>311.6</ele>
        <time>2010-10-10T09:30:53Z</time>
      </trkpt>
      <trkpt lat="46.97745" lon="4.73638">
        <ele>314.01</ele>
        <time>2010-10-10T09:31:06Z</time>
      </trkpt>
      <trkpt lat="46.97734" lon="4.7364">
        <ele>314.97</ele>
        <time>2010-10-10T09:31:14Z</time>
      </trkpt>
      <trkpt lat="46.97733" lon="4.7364">
        <ele>315.45</ele>
        <time>2010-10-10T09:31:15Z</time>
      </trkpt>
      <trkpt lat="46.9773" lon="4.73642">
        <ele>315.93</ele>
        <time>2010-10-10T09:31:17Z</time>
      </trkpt>
      <trkpt lat="46.97729" lon="4.73643">
        <ele>315.45</ele>
        <time>2010-10-10T09:31:18Z</time>
      </trkpt>
      <trkpt lat="46.97728" lon="4.73644">
        <ele>315.93</ele>
        <time>2010-10-10T09:31:19Z</time>
      </trkpt>
      <trkpt lat="46.97727" lon="4.73645">
        <ele>315.93</ele>
        <time>2010-10-10T09:31:20Z</time>
      </trkpt>
      <trkpt lat="46.97726" lon="4.73646">
        <ele>315.93</ele>
        <time>2010-10-10T09:31:21Z</time>
      </trkpt>
      <trkpt lat="46.97724" lon="4.73646">
        <ele>316.41</ele>
        <time>2010-10-10T09:31:22Z</time>
      </trkpt>
      <trkpt lat="46.9772" lon="4.73649">
        <ele>316.89</ele>
        <time>2010-10-10T09:31:25Z</time>
      </trkpt>
      <trkpt lat="46.97718" lon="4.73649">
        <ele>316.89</ele>
        <time>2010-10-10T09:31:26Z</time>
      </trkpt>
      <trkpt lat="46.97716" lon="4.7365">
        <ele>316.89</ele>
        <time>2010-10-10T09:31:27Z</time>
      </trkpt>
      <trkpt lat="46.97713" lon="4.73651">
        <ele>317.37</ele>
        <time>2010-10-10T09:31:29Z</time>
      </trkpt>
      <trkpt lat="46.97712" lon="4.73651">
        <ele>317.85</ele>
        <time>2010-10-10T09:31:30Z</time>
      </trkpt>
      <trkpt lat="46.9771" lon="4.73652">
        <ele>317.85</ele>
        <time>2010-10-10T09:31:31Z</time>
      </trkpt>
      <trkpt lat="46.97709" lon="4.73652">
        <ele>317.85</ele>
        <time>2010-10-10T09:31:32Z</time>
      </trkpt>
      <trkpt lat="46.97707" lon="4.73652">
        <ele>317.85</ele>
        <time>2010-10-10T09:31:33Z</time>
      </trkpt>
      <trkpt lat="46.97706" lon="4.73652">
        <ele>318.33</ele>
        <time>2010-10-10T09:31:34Z</time>
      </trkpt>
      <trkpt lat="46.97705" lon="4.73652">
        <ele>318.33</ele>
        <time>2010-10-10T09:31:35Z</time>
      </trkpt>
      <trkpt lat="46.97703" lon="4.73653">
        <ele>318.81</ele>
        <time>2010-10-10T09:31:36Z</time>
      </trkpt>
      <trkpt lat="46.97702" lon="4.73653">
        <ele>318.33</ele>
        <time>2010-10-10T09:31:37Z</time>
      </trkpt>
      <trkpt lat="46.97696" lon="4.73656">
        <ele>319.78</ele>
        <time>2010-10-10T09:31:41Z</time>
      </trkpt>
      <trkpt lat="46.97695" lon="4.73656">
        <ele>319.78</ele>
        <time>2010-10-10T09:31:42Z</time>
      </trkpt>
      <trkpt lat="46.97693" lon="4.73656">
        <ele>319.78</ele>
        <time>2010-10-10T09:31:43Z</time>
      </trkpt>
      <trkpt lat="46.97691" lon="4.73657">
        <ele>319.78</ele>
        <time>2010-10-10T09:31:44Z</time>
      </trkpt>
      <trkpt lat="46.9769" lon="4.73657">
        <ele>319.78</ele>
        <time>2010-10-10T09:31:45Z</time>
      </trkpt>
      <trkpt lat="46.97686" lon="4.7366">
        <ele>320.74</ele>
        <time>2010-10-10T09:31:48Z</time>
      </trkpt>
      <trkpt lat="46.97685" lon="4.73661">
        <ele>320.74</ele>
        <time>2010-10-10T09:31:49Z</time>
      </trkpt>
      <trkpt lat="46.97683" lon="4.73662">
        <ele>320.74</ele>
        <time>2010-10-10T09:31:50Z</time>
      </trkpt>
      <trkpt lat="46.97682" lon="4.73663">
        <ele>321.22</ele>
        <time>2010-10-10T09:31:51Z</time>
      </trkpt>
      <trkpt lat="46.97681" lon="4.73665">
        <ele>321.22</ele>
        <time>2010-10-10T09:31:52Z</time>
      </trkpt>
      <trkpt lat="46.97675" lon="4.73669">
        <ele>322.18</ele>
        <time>2010-10-10T09:31:57Z</time>
      </trkpt>
      <trkpt lat="46.97674" lon="4.7367">
        <ele>322.66</ele>
        <time>2010-10-10T09:31:58Z</time>
      </trkpt>
      <trkpt lat="46.97673" lon="4.73671">
        <ele>322.66</ele>
        <time>2010-10-10T09:31:59Z</time>
      </trkpt>
      <trkpt lat="46.97671" lon="4.73673">
        <ele>323.14</ele>
        <time>2010-10-10T09:32:00Z</time>
      </trkpt>
      <trkpt lat="46.9767" lon="4.73674">
        <ele>323.14</ele>
        <time>2010-10-10T09:32:01Z</time>
      </trkpt>
      <trkpt lat="46.97669" lon="4.73675">
        <ele>323.14</ele>
        <time>2010-10-10T09:32:02Z</time>
      </trkpt>
      <trkpt lat="46.97667" lon="4.73676">
        <ele>323.62</ele>
        <time>2010-10-10T09:32:03Z</time>
      </trkpt>
      <trkpt lat="46.97666" lon="4.73677">
        <ele>323.62</ele>
        <time>2010-10-10T09:32:04Z</time>
      </trkpt>
      <trkpt lat="46.97656" lon="4.73685">
        <ele>324.58</ele>
        <time>2010-10-10T09:32:12Z</time>
      </trkpt>
      <trkpt lat="46.97655" lon="4.73686">
        <ele>325.06</ele>
        <time>2010-10-10T09:32:13Z</time>
      </trkpt>
      <trkpt lat="46.97636" lon="4.73699">
        <ele>326.99</ele>
        <time>2010-10-10T09:32:27Z</time>
      </trkpt>
      <trkpt lat="46.97635" lon="4.73701">
        <ele>327.47</ele>
        <time>2010-10-10T09:32:28Z</time>
      </trkpt>
      <trkpt lat="46.97634" lon="4.73702">
        <ele>327.47</ele>
        <time>2010-10-10T09:32:29Z</time>
      </trkpt>
      <trkpt lat="46.97632" lon="4.73704">
        <ele>327.47</ele>
        <time>2010-10-10T09:32:30Z</time>
      </trkpt>
      <trkpt lat="46.97631" lon="4.73705">
        <ele>327.47</ele>
        <time>2010-10-10T09:32:31Z</time>
      </trkpt>
      <trkpt lat="46.9763" lon="4.73706">
        <ele>327.47</ele>
        <time>2010-10-10T09:32:32Z</time>
      </trkpt>
      <trkpt lat="46.97628" lon="4.73707">
        <ele>327.95</ele>
        <time>2010-10-10T09:32:33Z</time>
      </trkpt>
      <trkpt lat="46.97627" lon="4.73708">
        <ele>327.95</ele>
        <time>2010-10-10T09:32:34Z</time>
      </trkpt>
      <trkpt lat="46.97625" lon="4.7371">
        <ele>328.43</ele>
        <time>2010-10-10T09:32:35Z</time>
      </trkpt>
      <trkpt lat="46.97624" lon="4.7371">
        <ele>328.43</ele>
        <time>2010-10-10T09:32:36Z</time>
      </trkpt>
      <trkpt lat="46.97622" lon="4.73711">
        <ele>328.43</ele>
        <time>2010-10-10T09:32:37Z</time>
      </trkpt>
      <trkpt lat="46.97613" lon="4.73713">
        <ele>329.39</ele>
        <time>2010-10-10T09:32:43Z</time>
      </trkpt>
      <trkpt lat="46.97611" lon="4.73713">
        <ele>329.39</ele>
        <time>2010-10-10T09:32:44Z</time>
      </trkpt>
      <trkpt lat="46.97609" lon="4.73714">
        <ele>329.87</ele>
        <time>2010-10-10T09:32:45Z</time>
      </trkpt>
      <trkpt lat="46.97608" lon="4.73713">
        <ele>329.87</ele>
        <time>2010-10-10T09:32:46Z</time>
      </trkpt>
      <trkpt lat="46.97606" lon="4.73713">
        <ele>330.35</ele>
        <time>2010-10-10T09:32:47Z</time>
      </trkpt>
      <trkpt lat="46.97604" lon="4.73713">
        <ele>329.87</ele>
        <time>2010-10-10T09:32:48Z</time>
      </trkpt>
      <trkpt lat="46.97603" lon="4.73713">
        <ele>330.35</ele>
        <time>2010-10-10T09:32:49Z</time>
      </trkpt>
      <trkpt lat="46.97601" lon="4.73714">
        <ele>330.35</ele>
        <time>2010-10-10T09:32:50Z</time>
      </trkpt>
      <trkpt lat="46.97599" lon="4.73714">
        <ele>330.35</ele>
        <time>2010-10-10T09:32:51Z</time>
      </trkpt>
      <trkpt lat="46.97575" lon="4.7373">
        <ele>331.79</ele>
        <time>2010-10-10T09:33:05Z</time>
      </trkpt>
      <trkpt lat="46.97553" lon="4.73741">
        <ele>332.27</ele>
        <time>2010-10-10T09:33:15Z</time>
      </trkpt>
      <trkpt lat="46.97546" lon="4.73745">
        <ele>333.23</ele>
        <time>2010-10-10T09:33:19Z</time>
      </trkpt>
      <trkpt lat="46.97525" lon="4.73754">
        <ele>334.2</ele>
        <time>2010-10-10T09:33:30Z</time>
      </trkpt>
      <trkpt lat="46.97522" lon="4.73753">
        <ele>334.68</ele>
        <time>2010-10-10T09:33:32Z</time>
      </trkpt>
      <trkpt lat="46.97515" lon="4.73755">
        <ele>335.16</ele>
        <time>2010-10-10T09:33:37Z</time>
      </trkpt>
      <trkpt lat="46.97499" lon="4.73757">
        <ele>336.6</ele>
        <time>2010-10-10T09:33:45Z</time>
      </trkpt>
      <trkpt lat="46.97488" lon="4.73761">
        <ele>337.08</ele>
        <time>2010-10-10T09:33:50Z</time>
      </trkpt>
      <trkpt lat="46.97476" lon="4.73763">
        <ele>338.52</ele>
        <time>2010-10-10T09:33:58Z</time>
      </trkpt>
      <trkpt lat="46.97457" lon="4.73766">
        <ele>339.96</ele>
        <time>2010-10-10T09:34:07Z</time>
      </trkpt>
      <trkpt lat="46.97448" lon="4.73767">
        <ele>341.41</ele>
        <time>2010-10-10T09:34:12Z</time>
      </trkpt>
      <trkpt lat="46.97432" lon="4.73772">
        <ele>343.81</ele>
        <time>2010-10-10T09:34:25Z</time>
      </trkpt>
      <trkpt lat="46.9743" lon="4.73772">
        <ele>343.81</ele>
        <time>2010-10-10T09:34:26Z</time>
      </trkpt>
      <trkpt lat="46.97421" lon="4.73776">
        <ele>345.25</ele>
        <time>2010-10-10T09:34:32Z</time>
      </trkpt>
      <trkpt lat="46.9741" lon="4.73782">
        <ele>346.69</ele>
        <time>2010-10-10T09:34:39Z</time>
      </trkpt>
      <trkpt lat="46.97407" lon="4.73783">
        <ele>347.65</ele>
        <time>2010-10-10T09:34:41Z</time>
      </trkpt>
      <trkpt lat="46.9739" lon="4.73786">
        <ele>350.06</ele>
        <time>2010-10-10T09:34:52Z</time>
      </trkpt>
      <trkpt lat="46.97377" lon="4.73788">
        <ele>352.46</ele>
        <time>2010-10-10T09:35:02Z</time>
      </trkpt>
      <trkpt lat="46.97363" lon="4.73792">
        <ele>354.38</ele>
        <time>2010-10-10T09:35:11Z</time>
      </trkpt>
      <trkpt lat="46.9735" lon="4.73796">
        <ele>356.31</ele>
        <time>2010-10-10T09:35:20Z</time>
      </trkpt>
      <trkpt lat="46.97344" lon="4.73798">
        <ele>357.27</ele>
        <time>2010-10-10T09:35:24Z</time>
      </trkpt>
      <trkpt lat="46.97342" lon="4.738">
        <ele>358.23</ele>
        <time>2010-10-10T09:35:27Z</time>
      </trkpt>
      <trkpt lat="46.97334" lon="4.73801">
        <ele>359.19</ele>
        <time>2010-10-10T09:35:33Z</time>
      </trkpt>
      <trkpt lat="46.9733" lon="4.73802">
        <ele>359.67</ele>
        <time>2010-10-10T09:35:36Z</time>
      </trkpt>
      <trkpt lat="46.97315" lon="4.73806">
        <ele>363.04</ele>
        <time>2010-10-10T09:35:49Z</time>
      </trkpt>
      <trkpt lat="46.973" lon="4.73804">
        <ele>364.96</ele>
        <time>2010-10-10T09:36:01Z</time>
      </trkpt>
      <trkpt lat="46.97272" lon="4.73794">
        <ele>367.36</ele>
        <time>2010-10-10T09:36:19Z</time>
      </trkpt>
      <trkpt lat="46.97267" lon="4.73792">
        <ele>367.84</ele>
        <time>2010-10-10T09:36:23Z</time>
      </trkpt>
      <trkpt lat="46.97259" lon="4.7379">
        <ele>368.8</ele>
        <time>2010-10-10T09:36:28Z</time>
      </trkpt>
      <trkpt lat="46.97248" lon="4.73788">
        <ele>369.28</ele>
        <time>2010-10-10T09:36:35Z</time>
      </trkpt>
      <trkpt lat="46.97237" lon="4.73785">
        <ele>370.24</ele>
        <time>2010-10-10T09:36:42Z</time>
      </trkpt>
      <trkpt lat="46.9723" lon="4.73786">
        <ele>370.73</ele>
        <time>2010-10-10T09:36:46Z</time>
      </trkpt>
      <trkpt lat="46.9722" lon="4.73786">
        <ele>372.17</ele>
        <time>2010-10-10T09:36:52Z</time>
      </trkpt>
      <trkpt lat="46.97198" lon="4.73787">
        <ele>374.09</ele>
        <time>2010-10-10T09:37:05Z</time>
      </trkpt>
      <trkpt lat="46.97187" lon="4.73788">
        <ele>374.57</ele>
        <time>2010-10-10T09:37:12Z</time>
      </trkpt>
      <trkpt lat="46.97184" lon="4.73788">
        <ele>375.05</ele>
        <time>2010-10-10T09:37:14Z</time>
      </trkpt>
      <trkpt lat="46.97181" lon="4.73785">
        <ele>375.53</ele>
        <time>2010-10-10T09:37:17Z</time>
      </trkpt>
      <trkpt lat="46.97167" lon="4.7379">
        <ele>376.01</ele>
        <time>2010-10-10T09:37:22Z</time>
      </trkpt>
      <trkpt lat="46.97141" lon="4.73797">
        <ele>376.97</ele>
        <time>2010-10-10T09:37:33Z</time>
      </trkpt>
      <trkpt lat="46.97124" lon="4.73807">
        <ele>377.94</ele>
        <time>2010-10-10T09:37:42Z</time>
      </trkpt>
      <trkpt lat="46.97098" lon="4.73821">
        <ele>378.42</ele>
        <time>2010-10-10T09:37:52Z</time>
      </trkpt>
      <trkpt lat="46.97066" lon="4.73837">
        <ele>377.94</ele>
        <time>2010-10-10T09:38:02Z</time>
      </trkpt>
      <trkpt lat="46.97044" lon="4.73852">
        <ele>379.86</ele>
        <time>2010-10-10T09:38:11Z</time>
      </trkpt>
      <trkpt lat="46.97052" lon="4.73883">
        <ele>383.22</ele>
        <time>2010-10-10T09:38:24Z</time>
      </trkpt>
      <trkpt lat="46.9706" lon="4.73905">
        <ele>384.66</ele>
        <time>2010-10-10T09:38:35Z</time>
      </trkpt>
      <trkpt lat="46.97072" lon="4.73912">
        <ele>385.15</ele>
        <time>2010-10-10T09:38:42Z</time>
      </trkpt>
      <trkpt lat="46.97079" lon="4.73917">
        <ele>385.15</ele>
        <time>2010-10-10T09:38:46Z</time>
      </trkpt>
      <trkpt lat="46.97082" lon="4.7392">
        <ele>385.63</ele>
        <time>2010-10-10T09:38:48Z</time>
      </trkpt>
      <trkpt lat="46.97095" lon="4.73938">
        <ele>387.55</ele>
        <time>2010-10-10T09:39:00Z</time>
      </trkpt>
      <trkpt lat="46.97107" lon="4.7396">
        <ele>388.99</ele>
        <time>2010-10-10T09:39:11Z</time>
      </trkpt>
      <trkpt lat="46.97111" lon="4.73963">
        <ele>390.43</ele>
        <time>2010-10-10T09:39:14Z</time>
      </trkpt>
      <trkpt lat="46.97117" lon="4.73972">
        <ele>391.39</ele>
        <time>2010-10-10T09:39:20Z</time>
      </trkpt>
      <trkpt lat="46.97118" lon="4.73975">
        <ele>391.87</ele>
        <time>2010-10-10T09:39:22Z</time>
      </trkpt>
      <trkpt lat="46.97122" lon="4.73984">
        <ele>392.84</ele>
        <time>2010-10-10T09:39:27Z</time>
      </trkpt>
      <trkpt lat="46.97124" lon="4.73993">
        <ele>393.8</ele>
        <time>2010-10-10T09:39:32Z</time>
      </trkpt>
      <trkpt lat="46.97131" lon="4.74001">
        <ele>394.76</ele>
        <time>2010-10-10T09:39:36Z</time>
      </trkpt>
      <trkpt lat="46.97136" lon="4.74008">
        <ele>395.72</ele>
        <time>2010-10-10T09:39:40Z</time>
      </trkpt>
      <trkpt lat="46.97151" lon="4.74028">
        <ele>396.68</ele>
        <time>2010-10-10T09:39:52Z</time>
      </trkpt>
      <trkpt lat="46.97167" lon="4.74038">
        <ele>398.12</ele>
        <time>2010-10-10T09:40:00Z</time>
      </trkpt>
      <trkpt lat="46.97193" lon="4.7405">
        <ele>399.08</ele>
        <time>2010-10-10T09:40:09Z</time>
      </trkpt>
      <trkpt lat="46.97208" lon="4.74055">
        <ele>398.6</ele>
        <time>2010-10-10T09:40:14Z</time>
      </trkpt>
      <trkpt lat="46.97247" lon="4.7407">
        <ele>400.53</ele>
        <time>2010-10-10T09:40:25Z</time>
      </trkpt>
      <trkpt lat="46.97287" lon="4.74088">
        <ele>400.53</ele>
        <time>2010-10-10T09:40:35Z</time>
      </trkpt>
      <trkpt lat="46.97291" lon="4.74091">
        <ele>400.05</ele>
        <time>2010-10-10T09:40:36Z</time>
      </trkpt>
      <trkpt lat="46.97295" lon="4.74093">
        <ele>400.05</ele>
        <time>2010-10-10T09:40:37Z</time>
      </trkpt>
      <trkpt lat="46.973" lon="4.74094">
        <ele>400.05</ele>
        <time>2010-10-10T09:40:38Z</time>
      </trkpt>
      <trkpt lat="46.97305" lon="4.74096">
        <ele>400.53</ele>
        <time>2010-10-10T09:40:39Z</time>
      </trkpt>
      <trkpt lat="46.97309" lon="4.74098">
        <ele>400.53</ele>
        <time>2010-10-10T09:40:40Z</time>
      </trkpt>
      <trkpt lat="46.97328" lon="4.74105">
        <ele>399.57</ele>
        <time>2010-10-10T09:40:44Z</time>
      </trkpt>
      <trkpt lat="46.97349" lon="4.74116">
        <ele>398.6</ele>
        <time>2010-10-10T09:40:48Z</time>
      </trkpt>
      <trkpt lat="46.97355" lon="4.74119">
        <ele>398.6</ele>
        <time>2010-10-10T09:40:49Z</time>
      </trkpt>
      <trkpt lat="46.9738" lon="4.7413">
        <ele>397.64</ele>
        <time>2010-10-10T09:40:53Z</time>
      </trkpt>
      <trkpt lat="46.97386" lon="4.74133">
        <ele>397.64</ele>
        <time>2010-10-10T09:40:54Z</time>
      </trkpt>
      <trkpt lat="46.97393" lon="4.74137">
        <ele>396.68</ele>
        <time>2010-10-10T09:40:55Z</time>
      </trkpt>
      <trkpt lat="46.97401" lon="4.74142">
        <ele>396.2</ele>
        <time>2010-10-10T09:40:56Z</time>
      </trkpt>
      <trkpt lat="46.97408" lon="4.74145">
        <ele>396.2</ele>
        <time>2010-10-10T09:40:57Z</time>
      </trkpt>
      <trkpt lat="46.97417" lon="4.74148">
        <ele>395.72</ele>
        <time>2010-10-10T09:40:58Z</time>
      </trkpt>
      <trkpt lat="46.97424" lon="4.74151">
        <ele>395.24</ele>
        <time>2010-10-10T09:40:59Z</time>
      </trkpt>
      <trkpt lat="46.97447" lon="4.74162">
        <ele>393.8</ele>
        <time>2010-10-10T09:41:02Z</time>
      </trkpt>
      <trkpt lat="46.97456" lon="4.74167">
        <ele>393.8</ele>
        <time>2010-10-10T09:41:03Z</time>
      </trkpt>
      <trkpt lat="46.97472" lon="4.74175">
        <ele>393.32</ele>
        <time>2010-10-10T09:41:05Z</time>
      </trkpt>
      <trkpt lat="46.97497" lon="4.74185">
        <ele>392.36</ele>
        <time>2010-10-10T09:41:08Z</time>
      </trkpt>
      <trkpt lat="46.97549" lon="4.74208">
        <ele>388.99</ele>
        <time>2010-10-10T09:41:14Z</time>
      </trkpt>
      <trkpt lat="46.97585" lon="4.74222">
        <ele>386.59</ele>
        <time>2010-10-10T09:41:18Z</time>
      </trkpt>
      <trkpt lat="46.9762" lon="4.74238">
        <ele>384.18</ele>
        <time>2010-10-10T09:41:22Z</time>
      </trkpt>
      <trkpt lat="46.97699" lon="4.74273">
        <ele>383.7</ele>
        <time>2010-10-10T09:41:32Z</time>
      </trkpt>
      <trkpt lat="46.97766" lon="4.74304">
        <ele>383.22</ele>
        <time>2010-10-10T09:41:42Z</time>
      </trkpt>
      <trkpt lat="46.97778" lon="4.74309">
        <ele>383.22</ele>
        <time>2010-10-10T09:41:44Z</time>
      </trkpt>
      <trkpt lat="46.97802" lon="4.74321">
        <ele>382.74</ele>
        <time>2010-10-10T09:41:48Z</time>
      </trkpt>
      <trkpt lat="46.97814" lon="4.74327">
        <ele>382.74</ele>
        <time>2010-10-10T09:41:50Z</time>
      </trkpt>
      <trkpt lat="46.97831" lon="4.74336">
        <ele>382.26</ele>
        <time>2010-10-10T09:41:53Z</time>
      </trkpt>
      <trkpt lat="46.97837" lon="4.74338">
        <ele>382.26</ele>
        <time>2010-10-10T09:41:54Z</time>
      </trkpt>
      <trkpt lat="46.97842" lon="4.7434">
        <ele>381.78</ele>
        <time>2010-10-10T09:41:55Z</time>
      </trkpt>
      <trkpt lat="46.97848" lon="4.74342">
        <ele>381.78</ele>
        <time>2010-10-10T09:41:56Z</time>
      </trkpt>
      <trkpt lat="46.97855" lon="4.74345">
        <ele>381.78</ele>
        <time>2010-10-10T09:41:57Z</time>
      </trkpt>
      <trkpt lat="46.97914" lon="4.74375">
        <ele>378.42</ele>
        <time>2010-10-10T09:42:06Z</time>
      </trkpt>
      <trkpt lat="46.97945" lon="4.74389">
        <ele>377.45</ele>
        <time>2010-10-10T09:42:11Z</time>
      </trkpt>
      <trkpt lat="46.9795" lon="4.74394">
        <ele>377.45</ele>
        <time>2010-10-10T09:42:12Z</time>
      </trkpt>
      <trkpt lat="46.97954" lon="4.74401">
        <ele>376.97</ele>
        <time>2010-10-10T09:42:13Z</time>
      </trkpt>
      <trkpt lat="46.97968" lon="4.74427">
        <ele>376.97</ele>
        <time>2010-10-10T09:42:17Z</time>
      </trkpt>
      <trkpt lat="46.97968" lon="4.74434">
        <ele>376.49</ele>
        <time>2010-10-10T09:42:18Z</time>
      </trkpt>
      <trkpt lat="46.97965" lon="4.74454">
        <ele>376.49</ele>
        <time>2010-10-10T09:42:21Z</time>
      </trkpt>
      <trkpt lat="46.97965" lon="4.74462">
        <ele>376.97</ele>
        <time>2010-10-10T09:42:22Z</time>
      </trkpt>
      <trkpt lat="46.97962" lon="4.7447">
        <ele>376.97</ele>
        <time>2010-10-10T09:42:23Z</time>
      </trkpt>
      <trkpt lat="46.97958" lon="4.74476">
        <ele>376.49</ele>
        <time>2010-10-10T09:42:24Z</time>
      </trkpt>
      <trkpt lat="46.97954" lon="4.74482">
        <ele>376.49</ele>
        <time>2010-10-10T09:42:25Z</time>
      </trkpt>
      <trkpt lat="46.9795" lon="4.74488">
        <ele>376.49</ele>
        <time>2010-10-10T09:42:26Z</time>
      </trkpt>
      <trkpt lat="46.97948" lon="4.74495">
        <ele>376.49</ele>
        <time>2010-10-10T09:42:27Z</time>
      </trkpt>
      <trkpt lat="46.97946" lon="4.74504">
        <ele>376.49</ele>
        <time>2010-10-10T09:42:28Z</time>
      </trkpt>
      <trkpt lat="46.97945" lon="4.74512">
        <ele>376.49</ele>
        <time>2010-10-10T09:42:29Z</time>
      </trkpt>
      <trkpt lat="46.97944" lon="4.74521">
        <ele>376.49</ele>
        <time>2010-10-10T09:42:30Z</time>
      </trkpt>
      <trkpt lat="46.97943" lon="4.74538">
        <ele>376.01</ele>
        <time>2010-10-10T09:42:32Z</time>
      </trkpt>
      <trkpt lat="46.97943" lon="4.74547">
        <ele>375.53</ele>
        <time>2010-10-10T09:42:33Z</time>
      </trkpt>
      <trkpt lat="46.97942" lon="4.74556">
        <ele>375.53</ele>
        <time>2010-10-10T09:42:34Z</time>
      </trkpt>
      <trkpt lat="46.97938" lon="4.74602">
        <ele>375.05</ele>
        <time>2010-10-10T09:42:39Z</time>
      </trkpt>
      <trkpt lat="46.97934" lon="4.74648">
        <ele>373.61</ele>
        <time>2010-10-10T09:42:44Z</time>
      </trkpt>
      <trkpt lat="46.9793" lon="4.74666">
        <ele>374.09</ele>
        <time>2010-10-10T09:42:46Z</time>
      </trkpt>
      <trkpt lat="46.97929" lon="4.74676">
        <ele>372.65</ele>
        <time>2010-10-10T09:42:47Z</time>
      </trkpt>
      <trkpt lat="46.97927" lon="4.74685">
        <ele>372.65</ele>
        <time>2010-10-10T09:42:48Z</time>
      </trkpt>
      <trkpt lat="46.97911" lon="4.74751">
        <ele>370.73</ele>
        <time>2010-10-10T09:42:55Z</time>
      </trkpt>
      <trkpt lat="46.97908" lon="4.74759">
        <ele>370.24</ele>
        <time>2010-10-10T09:42:56Z</time>
      </trkpt>
      <trkpt lat="46.97904" lon="4.74766">
        <ele>369.28</ele>
        <time>2010-10-10T09:42:57Z</time>
      </trkpt>
      <trkpt lat="46.979" lon="4.74774">
        <ele>369.28</ele>
        <time>2010-10-10T09:42:58Z</time>
      </trkpt>
      <trkpt lat="46.97896" lon="4.74781">
        <ele>368.8</ele>
        <time>2010-10-10T09:42:59Z</time>
      </trkpt>
      <trkpt lat="46.97878" lon="4.7481">
        <ele>368.32</ele>
        <time>2010-10-10T09:43:03Z</time>
      </trkpt>
      <trkpt lat="46.97856" lon="4.74849">
        <ele>366.88</ele>
        <time>2010-10-10T09:43:09Z</time>
      </trkpt>
      <trkpt lat="46.97854" lon="4.74857">
        <ele>367.36</ele>
        <time>2010-10-10T09:43:10Z</time>
      </trkpt>
      <trkpt lat="46.97853" lon="4.74865">
        <ele>367.36</ele>
        <time>2010-10-10T09:43:11Z</time>
      </trkpt>
      <trkpt lat="46.97854" lon="4.74873">
        <ele>366.88</ele>
        <time>2010-10-10T09:43:12Z</time>
      </trkpt>
      <trkpt lat="46.97856" lon="4.74881">
        <ele>366.88</ele>
        <time>2010-10-10T09:43:13Z</time>
      </trkpt>
      <trkpt lat="46.97859" lon="4.74887">
        <ele>366.4</ele>
        <time>2010-10-10T09:43:14Z</time>
      </trkpt>
      <trkpt lat="46.97861" lon="4.74895">
        <ele>365.92</ele>
        <time>2010-10-10T09:43:15Z</time>
      </trkpt>
      <trkpt lat="46.97862" lon="4.74904">
        <ele>365.92</ele>
        <time>2010-10-10T09:43:16Z</time>
      </trkpt>
      <trkpt lat="46.97861" lon="4.74912">
        <ele>364.48</ele>
        <time>2010-10-10T09:43:17Z</time>
      </trkpt>
      <trkpt lat="46.97857" lon="4.7492">
        <ele>364</ele>
        <time>2010-10-10T09:43:18Z</time>
      </trkpt>
      <trkpt lat="46.97852" lon="4.74926">
        <ele>363.52</ele>
        <time>2010-10-10T09:43:19Z</time>
      </trkpt>
      <trkpt lat="46.97845" lon="4.74931">
        <ele>363.04</ele>
        <time>2010-10-10T09:43:20Z</time>
      </trkpt>
      <trkpt lat="46.97809" lon="4.7496">
        <ele>359.67</ele>
        <time>2010-10-10T09:43:25Z</time>
      </trkpt>
      <trkpt lat="46.97781" lon="4.74985">
        <ele>355.83</ele>
        <time>2010-10-10T09:43:28Z</time>
      </trkpt>
      <trkpt lat="46.97771" lon="4.74991">
        <ele>353.9</ele>
        <time>2010-10-10T09:43:29Z</time>
      </trkpt>
      <trkpt lat="46.97735" lon="4.75009">
        <ele>350.06</ele>
        <time>2010-10-10T09:43:32Z</time>
      </trkpt>
      <trkpt lat="46.97713" lon="4.75022">
        <ele>347.17</ele>
        <time>2010-10-10T09:43:34Z</time>
      </trkpt>
      <trkpt lat="46.97703" lon="4.75029">
        <ele>346.69</ele>
        <time>2010-10-10T09:43:35Z</time>
      </trkpt>
      <trkpt lat="46.97695" lon="4.75038">
        <ele>344.77</ele>
        <time>2010-10-10T09:43:36Z</time>
      </trkpt>
      <trkpt lat="46.97688" lon="4.75047">
        <ele>343.33</ele>
        <time>2010-10-10T09:43:37Z</time>
      </trkpt>
      <trkpt lat="46.97683" lon="4.75056">
        <ele>341.89</ele>
        <time>2010-10-10T09:43:38Z</time>
      </trkpt>
      <trkpt lat="46.97681" lon="4.75067">
        <ele>341.41</ele>
        <time>2010-10-10T09:43:39Z</time>
      </trkpt>
      <trkpt lat="46.97682" lon="4.75078">
        <ele>341.41</ele>
        <time>2010-10-10T09:43:40Z</time>
      </trkpt>
      <trkpt lat="46.97683" lon="4.7509">
        <ele>340.44</ele>
        <time>2010-10-10T09:43:41Z</time>
      </trkpt>
      <trkpt lat="46.97686" lon="4.75102">
        <ele>339</ele>
        <time>2010-10-10T09:43:42Z</time>
      </trkpt>
      <trkpt lat="46.97689" lon="4.75116">
        <ele>337.56</ele>
        <time>2010-10-10T09:43:43Z</time>
      </trkpt>
      <trkpt lat="46.97692" lon="4.7513">
        <ele>336.6</ele>
        <time>2010-10-10T09:43:44Z</time>
      </trkpt>
      <trkpt lat="46.97693" lon="4.75146">
        <ele>335.64</ele>
        <time>2010-10-10T09:43:45Z</time>
      </trkpt>
      <trkpt lat="46.97696" lon="4.75196">
        <ele>331.79</ele>
        <time>2010-10-10T09:43:48Z</time>
      </trkpt>
      <trkpt lat="46.977" lon="4.75249">
        <ele>327.95</ele>
        <time>2010-10-10T09:43:51Z</time>
      </trkpt>
      <trkpt lat="46.97702" lon="4.75284">
        <ele>324.58</ele>
        <time>2010-10-10T09:43:53Z</time>
      </trkpt>
      <trkpt lat="46.97705" lon="4.75319">
        <ele>323.14</ele>
        <time>2010-10-10T09:43:55Z</time>
      </trkpt>
      <trkpt lat="46.97705" lon="4.75369">
        <ele>319.78</ele>
        <time>2010-10-10T09:43:58Z</time>
      </trkpt>
      <trkpt lat="46.97705" lon="4.75421">
        <ele>317.85</ele>
        <time>2010-10-10T09:44:01Z</time>
      </trkpt>
      <trkpt lat="46.97704" lon="4.75489">
        <ele>314.49</ele>
        <time>2010-10-10T09:44:05Z</time>
      </trkpt>
      <trkpt lat="46.97708" lon="4.75555">
        <ele>311.6</ele>
        <time>2010-10-10T09:44:09Z</time>
      </trkpt>
      <trkpt lat="46.97711" lon="4.75614">
        <ele>309.68</ele>
        <time>2010-10-10T09:44:13Z</time>
      </trkpt>
      <trkpt lat="46.97719" lon="4.75721">
        <ele>305.84</ele>
        <time>2010-10-10T09:44:21Z</time>
      </trkpt>
      <trkpt lat="46.97725" lon="4.75774">
        <ele>302.47</ele>
        <time>2010-10-10T09:44:25Z</time>
      </trkpt>
      <trkpt lat="46.97725" lon="4.75784">
        <ele>301.51</ele>
        <time>2010-10-10T09:44:26Z</time>
      </trkpt>
      <trkpt lat="46.97723" lon="4.75793">
        <ele>300.55</ele>
        <time>2010-10-10T09:44:27Z</time>
      </trkpt>
      <trkpt lat="46.97719" lon="4.75802">
        <ele>299.59</ele>
        <time>2010-10-10T09:44:28Z</time>
      </trkpt>
      <trkpt lat="46.97713" lon="4.75809">
        <ele>299.11</ele>
        <time>2010-10-10T09:44:29Z</time>
      </trkpt>
      <trkpt lat="46.97706" lon="4.75816">
        <ele>298.63</ele>
        <time>2010-10-10T09:44:30Z</time>
      </trkpt>
      <trkpt lat="46.97699" lon="4.75823">
        <ele>297.18</ele>
        <time>2010-10-10T09:44:31Z</time>
      </trkpt>
      <trkpt lat="46.97682" lon="4.75836">
        <ele>295.26</ele>
        <time>2010-10-10T09:44:33Z</time>
      </trkpt>
      <trkpt lat="46.97672" lon="4.75841">
        <ele>294.3</ele>
        <time>2010-10-10T09:44:34Z</time>
      </trkpt>
      <trkpt lat="46.97643" lon="4.75854">
        <ele>291.9</ele>
        <time>2010-10-10T09:44:37Z</time>
      </trkpt>
      <trkpt lat="46.97635" lon="4.75862">
        <ele>290.94</ele>
        <time>2010-10-10T09:44:38Z</time>
      </trkpt>
      <trkpt lat="46.97627" lon="4.75872">
        <ele>290.46</ele>
        <time>2010-10-10T09:44:39Z</time>
      </trkpt>
      <trkpt lat="46.97601" lon="4.75901">
        <ele>286.61</ele>
        <time>2010-10-10T09:44:42Z</time>
      </trkpt>
      <trkpt lat="46.97591" lon="4.75907">
        <ele>285.65</ele>
        <time>2010-10-10T09:44:43Z</time>
      </trkpt>
      <trkpt lat="46.97527" lon="4.75921">
        <ele>282.28</ele>
        <time>2010-10-10T09:44:49Z</time>
      </trkpt>
      <trkpt lat="46.97517" lon="4.75919">
        <ele>281.8</ele>
        <time>2010-10-10T09:44:50Z</time>
      </trkpt>
      <trkpt lat="46.97507" lon="4.75915">
        <ele>280.84</ele>
        <time>2010-10-10T09:44:51Z</time>
      </trkpt>
      <trkpt lat="46.97498" lon="4.75909">
        <ele>280.84</ele>
        <time>2010-10-10T09:44:52Z</time>
      </trkpt>
      <trkpt lat="46.97489" lon="4.75903">
        <ele>280.84</ele>
        <time>2010-10-10T09:44:53Z</time>
      </trkpt>
      <trkpt lat="46.97464" lon="4.75887">
        <ele>280.36</ele>
        <time>2010-10-10T09:44:56Z</time>
      </trkpt>
      <trkpt lat="46.97455" lon="4.75885">
        <ele>280.84</ele>
        <time>2010-10-10T09:44:57Z</time>
      </trkpt>
      <trkpt lat="46.97447" lon="4.75884">
        <ele>281.32</ele>
        <time>2010-10-10T09:44:58Z</time>
      </trkpt>
      <trkpt lat="46.97439" lon="4.75882">
        <ele>281.32</ele>
        <time>2010-10-10T09:44:59Z</time>
      </trkpt>
      <trkpt lat="46.97431" lon="4.7588">
        <ele>282.28</ele>
        <time>2010-10-10T09:45:00Z</time>
      </trkpt>
      <trkpt lat="46.97424" lon="4.75877">
        <ele>282.28</ele>
        <time>2010-10-10T09:45:01Z</time>
      </trkpt>
      <trkpt lat="46.97416" lon="4.75874">
        <ele>281.8</ele>
        <time>2010-10-10T09:45:02Z</time>
      </trkpt>
      <trkpt lat="46.97357" lon="4.75839">
        <ele>284.69</ele>
        <time>2010-10-10T09:45:12Z</time>
      </trkpt>
      <trkpt lat="46.97315" lon="4.75817">
        <ele>287.09</ele>
        <time>2010-10-10T09:45:21Z</time>
      </trkpt>
      <trkpt lat="46.97257" lon="4.75767">
        <ele>289.97</ele>
        <time>2010-10-10T09:45:39Z</time>
      </trkpt>
      <trkpt lat="46.97228" lon="4.75724">
        <ele>292.38</ele>
        <time>2010-10-10T09:45:53Z</time>
      </trkpt>
      <trkpt lat="46.97218" lon="4.75686">
        <ele>294.78</ele>
        <time>2010-10-10T09:46:06Z</time>
      </trkpt>
      <trkpt lat="46.97216" lon="4.75644">
        <ele>298.15</ele>
        <time>2010-10-10T09:46:23Z</time>
      </trkpt>
      <trkpt lat="46.97225" lon="4.75608">
        <ele>301.51</ele>
        <time>2010-10-10T09:46:39Z</time>
      </trkpt>
      <trkpt lat="46.97212" lon="4.75581">
        <ele>303.91</ele>
        <time>2010-10-10T09:46:53Z</time>
      </trkpt>
      <trkpt lat="46.97189" lon="4.75574">
        <ele>306.32</ele>
        <time>2010-10-10T09:47:06Z</time>
      </trkpt>
      <trkpt lat="46.97165" lon="4.75555">
        <ele>308.72</ele>
        <time>2010-10-10T09:47:21Z</time>
      </trkpt>
      <trkpt lat="46.9715" lon="4.75525">
        <ele>311.6</ele>
        <time>2010-10-10T09:47:35Z</time>
      </trkpt>
      <trkpt lat="46.97131" lon="4.75494">
        <ele>314.97</ele>
        <time>2010-10-10T09:47:51Z</time>
      </trkpt>
      <trkpt lat="46.97105" lon="4.75468">
        <ele>317.37</ele>
        <time>2010-10-10T09:48:08Z</time>
      </trkpt>
      <trkpt lat="46.97068" lon="4.75444">
        <ele>319.3</ele>
        <time>2010-10-10T09:48:23Z</time>
      </trkpt>
      <trkpt lat="46.97038" lon="4.75401">
        <ele>320.74</ele>
        <time>2010-10-10T09:48:36Z</time>
      </trkpt>
      <trkpt lat="46.97007" lon="4.75353">
        <ele>323.14</ele>
        <time>2010-10-10T09:48:50Z</time>
      </trkpt>
      <trkpt lat="46.96982" lon="4.75323">
        <ele>324.1</ele>
        <time>2010-10-10T09:48:59Z</time>
      </trkpt>
      <trkpt lat="46.96927" lon="4.75277">
        <ele>323.62</ele>
        <time>2010-10-10T09:49:13Z</time>
      </trkpt>
      <trkpt lat="46.96852" lon="4.75222">
        <ele>320.26</ele>
        <time>2010-10-10T09:49:25Z</time>
      </trkpt>
      <trkpt lat="46.96798" lon="4.75189">
        <ele>317.37</ele>
        <time>2010-10-10T09:49:31Z</time>
      </trkpt>
      <trkpt lat="46.96764" lon="4.75168">
        <ele>316.89</ele>
        <time>2010-10-10T09:49:35Z</time>
      </trkpt>
      <trkpt lat="46.96756" lon="4.75164">
        <ele>317.37</ele>
        <time>2010-10-10T09:49:36Z</time>
      </trkpt>
      <trkpt lat="46.96747" lon="4.75162">
        <ele>317.37</ele>
        <time>2010-10-10T09:49:37Z</time>
      </trkpt>
      <trkpt lat="46.96713" lon="4.75155">
        <ele>317.85</ele>
        <time>2010-10-10T09:49:41Z</time>
      </trkpt>
      <trkpt lat="46.96705" lon="4.75153">
        <ele>317.37</ele>
        <time>2010-10-10T09:49:42Z</time>
      </trkpt>
      <trkpt lat="46.96697" lon="4.7515">
        <ele>317.85</ele>
        <time>2010-10-10T09:49:43Z</time>
      </trkpt>
      <trkpt lat="46.96672" lon="4.75145">
        <ele>318.33</ele>
        <time>2010-10-10T09:49:46Z</time>
      </trkpt>
      <trkpt lat="46.96623" lon="4.75137">
        <ele>317.85</ele>
        <time>2010-10-10T09:49:52Z</time>
      </trkpt>
      <trkpt lat="46.96616" lon="4.75133">
        <ele>317.85</ele>
        <time>2010-10-10T09:49:53Z</time>
      </trkpt>
      <trkpt lat="46.96609" lon="4.75129">
        <ele>317.85</ele>
        <time>2010-10-10T09:49:54Z</time>
      </trkpt>
      <trkpt lat="46.96602" lon="4.75127">
        <ele>318.33</ele>
        <time>2010-10-10T09:49:55Z</time>
      </trkpt>
      <trkpt lat="46.96595" lon="4.75124">
        <ele>317.85</ele>
        <time>2010-10-10T09:49:56Z</time>
      </trkpt>
      <trkpt lat="46.96573" lon="4.75116">
        <ele>317.85</ele>
        <time>2010-10-10T09:49:59Z</time>
      </trkpt>
      <trkpt lat="46.96538" lon="4.75091">
        <ele>319.78</ele>
        <time>2010-10-10T09:50:06Z</time>
      </trkpt>
      <trkpt lat="46.96535" lon="4.75087">
        <ele>320.26</ele>
        <time>2010-10-10T09:50:07Z</time>
      </trkpt>
      <trkpt lat="46.96515" lon="4.75057">
        <ele>322.66</ele>
        <time>2010-10-10T09:50:18Z</time>
      </trkpt>
      <trkpt lat="46.96498" lon="4.75043">
        <ele>323.62</ele>
        <time>2010-10-10T09:50:26Z</time>
      </trkpt>
      <trkpt lat="46.96495" lon="4.75046">
        <ele>323.62</ele>
        <time>2010-10-10T09:50:27Z</time>
      </trkpt>
      <trkpt lat="46.96491" lon="4.75049">
        <ele>323.14</ele>
        <time>2010-10-10T09:50:28Z</time>
      </trkpt>
      <trkpt lat="46.96475" lon="4.75069">
        <ele>320.26</ele>
        <time>2010-10-10T09:50:31Z</time>
      </trkpt>
      <trkpt lat="46.96466" lon="4.75074">
        <ele>318.33</ele>
        <time>2010-10-10T09:50:32Z</time>
      </trkpt>
      <trkpt lat="46.96458" lon="4.75076">
        <ele>317.37</ele>
        <time>2010-10-10T09:50:33Z</time>
      </trkpt>
      <trkpt lat="46.96449" lon="4.75076">
        <ele>316.41</ele>
        <time>2010-10-10T09:50:34Z</time>
      </trkpt>
      <trkpt lat="46.96442" lon="4.75073">
        <ele>315.93</ele>
        <time>2010-10-10T09:50:35Z</time>
      </trkpt>
      <trkpt lat="46.96434" lon="4.75068">
        <ele>314.97</ele>
        <time>2010-10-10T09:50:36Z</time>
      </trkpt>
      <trkpt lat="46.96428" lon="4.75064">
        <ele>315.45</ele>
        <time>2010-10-10T09:50:37Z</time>
      </trkpt>
      <trkpt lat="46.96421" lon="4.75059">
        <ele>314.97</ele>
        <time>2010-10-10T09:50:38Z</time>
      </trkpt>
      <trkpt lat="46.96416" lon="4.75052">
        <ele>315.93</ele>
        <time>2010-10-10T09:50:39Z</time>
      </trkpt>
      <trkpt lat="46.96408" lon="4.75039">
        <ele>316.41</ele>
        <time>2010-10-10T09:50:41Z</time>
      </trkpt>
      <trkpt lat="46.964" lon="4.75026">
        <ele>316.41</ele>
        <time>2010-10-10T09:50:43Z</time>
      </trkpt>
      <trkpt lat="46.96397" lon="4.7502">
        <ele>317.37</ele>
        <time>2010-10-10T09:50:44Z</time>
      </trkpt>
      <trkpt lat="46.96355" lon="4.74959">
        <ele>319.3</ele>
        <time>2010-10-10T09:50:56Z</time>
      </trkpt>
      <trkpt lat="46.96352" lon="4.74954">
        <ele>319.78</ele>
        <time>2010-10-10T09:50:57Z</time>
      </trkpt>
      <trkpt lat="46.96348" lon="4.74949">
        <ele>319.3</ele>
        <time>2010-10-10T09:50:58Z</time>
      </trkpt>
      <trkpt lat="46.96337" lon="4.74934">
        <ele>319.78</ele>
        <time>2010-10-10T09:51:01Z</time>
      </trkpt>
      <trkpt lat="46.96325" lon="4.74913">
        <ele>320.26</ele>
        <time>2010-10-10T09:51:05Z</time>
      </trkpt>
      <trkpt lat="46.96297" lon="4.74879">
        <ele>319.78</ele>
        <time>2010-10-10T09:51:12Z</time>
      </trkpt>
      <trkpt lat="46.96292" lon="4.74875">
        <ele>319.3</ele>
        <time>2010-10-10T09:51:13Z</time>
      </trkpt>
      <trkpt lat="46.9626" lon="4.74851">
        <ele>316.89</ele>
        <time>2010-10-10T09:51:18Z</time>
      </trkpt>
      <trkpt lat="46.96255" lon="4.74843">
        <ele>316.41</ele>
        <time>2010-10-10T09:51:19Z</time>
      </trkpt>
      <trkpt lat="46.9625" lon="4.74836">
        <ele>316.89</ele>
        <time>2010-10-10T09:51:20Z</time>
      </trkpt>
      <trkpt lat="46.96246" lon="4.74828">
        <ele>316.89</ele>
        <time>2010-10-10T09:51:21Z</time>
      </trkpt>
      <trkpt lat="46.96241" lon="4.74821">
        <ele>316.89</ele>
        <time>2010-10-10T09:51:22Z</time>
      </trkpt>
      <trkpt lat="46.96238" lon="4.74813">
        <ele>317.37</ele>
        <time>2010-10-10T09:51:23Z</time>
      </trkpt>
      <trkpt lat="46.96235" lon="4.74805">
        <ele>317.37</ele>
        <time>2010-10-10T09:51:24Z</time>
      </trkpt>
      <trkpt lat="46.9623" lon="4.74787">
        <ele>316.89</ele>
        <time>2010-10-10T09:51:26Z</time>
      </trkpt>
      <trkpt lat="46.96229" lon="4.74777">
        <ele>316.41</ele>
        <time>2010-10-10T09:51:27Z</time>
      </trkpt>
      <trkpt lat="46.9623" lon="4.74766">
        <ele>315.45</ele>
        <time>2010-10-10T09:51:28Z</time>
      </trkpt>
      <trkpt lat="46.96232" lon="4.74755">
        <ele>314.97</ele>
        <time>2010-10-10T09:51:29Z</time>
      </trkpt>
      <trkpt lat="46.96236" lon="4.74745">
        <ele>313.53</ele>
        <time>2010-10-10T09:51:30Z</time>
      </trkpt>
      <trkpt lat="46.9624" lon="4.74734">
        <ele>313.53</ele>
        <time>2010-10-10T09:51:31Z</time>
      </trkpt>
      <trkpt lat="46.96243" lon="4.74725">
        <ele>313.05</ele>
        <time>2010-10-10T09:51:32Z</time>
      </trkpt>
      <trkpt lat="46.96247" lon="4.74717">
        <ele>313.53</ele>
        <time>2010-10-10T09:51:33Z</time>
      </trkpt>
      <trkpt lat="46.96252" lon="4.7471">
        <ele>313.53</ele>
        <time>2010-10-10T09:51:34Z</time>
      </trkpt>
      <trkpt lat="46.96255" lon="4.74703">
        <ele>313.05</ele>
        <time>2010-10-10T09:51:35Z</time>
      </trkpt>
      <trkpt lat="46.96258" lon="4.74695">
        <ele>312.57</ele>
        <time>2010-10-10T09:51:36Z</time>
      </trkpt>
      <trkpt lat="46.96258" lon="4.74686">
        <ele>311.6</ele>
        <time>2010-10-10T09:51:37Z</time>
      </trkpt>
      <trkpt lat="46.96256" lon="4.74677">
        <ele>311.12</ele>
        <time>2010-10-10T09:51:38Z</time>
      </trkpt>
      <trkpt lat="46.96253" lon="4.74667">
        <ele>310.64</ele>
        <time>2010-10-10T09:51:39Z</time>
      </trkpt>
      <trkpt lat="46.9625" lon="4.74657">
        <ele>310.16</ele>
        <time>2010-10-10T09:51:40Z</time>
      </trkpt>
      <trkpt lat="46.96212" lon="4.74551">
        <ele>310.64</ele>
        <time>2010-10-10T09:51:51Z</time>
      </trkpt>
      <trkpt lat="46.96208" lon="4.74533">
        <ele>310.64</ele>
        <time>2010-10-10T09:51:53Z</time>
      </trkpt>
      <trkpt lat="46.96186" lon="4.74473">
        <ele>312.09</ele>
        <time>2010-10-10T09:52:01Z</time>
      </trkpt>
      <trkpt lat="46.96179" lon="4.74457">
        <ele>313.05</ele>
        <time>2010-10-10T09:52:04Z</time>
      </trkpt>
      <trkpt lat="46.96157" lon="4.744">
        <ele>315.93</ele>
        <time>2010-10-10T09:52:18Z</time>
      </trkpt>
      <trkpt lat="46.96133" lon="4.74327">
        <ele>319.3</ele>
        <time>2010-10-10T09:52:36Z</time>
      </trkpt>
      <trkpt lat="46.96117" lon="4.74268">
        <ele>321.7</ele>
        <time>2010-10-10T09:52:51Z</time>
      </trkpt>
      <trkpt lat="46.96097" lon="4.74206">
        <ele>324.58</ele>
        <time>2010-10-10T09:53:07Z</time>
      </trkpt>
      <trkpt lat="46.96077" lon="4.74163">
        <ele>326.99</ele>
        <time>2010-10-10T09:53:20Z</time>
      </trkpt>
      <trkpt lat="46.96043" lon="4.74127">
        <ele>327.95</ele>
        <time>2010-10-10T09:53:33Z</time>
      </trkpt>
      <trkpt lat="46.96006" lon="4.74108">
        <ele>330.35</ele>
        <time>2010-10-10T09:53:46Z</time>
      </trkpt>
      <trkpt lat="46.95974" lon="4.74101">
        <ele>332.75</ele>
        <time>2010-10-10T09:53:57Z</time>
      </trkpt>
      <trkpt lat="46.95962" lon="4.74094">
        <ele>333.71</ele>
        <time>2010-10-10T09:54:02Z</time>
      </trkpt>
      <trkpt lat="46.95959" lon="4.74095">
        <ele>333.23</ele>
        <time>2010-10-10T09:54:03Z</time>
      </trkpt>
      <trkpt lat="46.95956" lon="4.74098">
        <ele>333.71</ele>
        <time>2010-10-10T09:54:04Z</time>
      </trkpt>
      <trkpt lat="46.95954" lon="4.74102">
        <ele>333.23</ele>
        <time>2010-10-10T09:54:05Z</time>
      </trkpt>
      <trkpt lat="46.95952" lon="4.74108">
        <ele>333.23</ele>
        <time>2010-10-10T09:54:06Z</time>
      </trkpt>
      <trkpt lat="46.95951" lon="4.74114">
        <ele>332.75</ele>
        <time>2010-10-10T09:54:07Z</time>
      </trkpt>
      <trkpt lat="46.95948" lon="4.74127">
        <ele>331.79</ele>
        <time>2010-10-10T09:54:09Z</time>
      </trkpt>
      <trkpt lat="46.95946" lon="4.74133">
        <ele>331.79</ele>
        <time>2010-10-10T09:54:10Z</time>
      </trkpt>
      <trkpt lat="46.95941" lon="4.74148">
        <ele>329.87</ele>
        <time>2010-10-10T09:54:13Z</time>
      </trkpt>
      <trkpt lat="46.95942" lon="4.74161">
        <ele>328.43</ele>
        <time>2010-10-10T09:54:16Z</time>
      </trkpt>
      <trkpt lat="46.95944" lon="4.74166">
        <ele>327.95</ele>
        <time>2010-10-10T09:54:17Z</time>
      </trkpt>
      <trkpt lat="46.95947" lon="4.74172">
        <ele>327.95</ele>
        <time>2010-10-10T09:54:18Z</time>
      </trkpt>
      <trkpt lat="46.95951" lon="4.74177">
        <ele>326.99</ele>
        <time>2010-10-10T09:54:19Z</time>
      </trkpt>
      <trkpt lat="46.95954" lon="4.74183">
        <ele>326.5</ele>
        <time>2010-10-10T09:54:20Z</time>
      </trkpt>
      <trkpt lat="46.95994" lon="4.74231">
        <ele>323.62</ele>
        <time>2010-10-10T09:54:27Z</time>
      </trkpt>
      <trkpt lat="46.96007" lon="4.74246">
        <ele>321.22</ele>
        <time>2010-10-10T09:54:29Z</time>
      </trkpt>
      <trkpt lat="46.96011" lon="4.74253">
        <ele>320.74</ele>
        <time>2010-10-10T09:54:30Z</time>
      </trkpt>
      <trkpt lat="46.96015" lon="4.74261">
        <ele>319.78</ele>
        <time>2010-10-10T09:54:31Z</time>
      </trkpt>
      <trkpt lat="46.96018" lon="4.74269">
        <ele>318.81</ele>
        <time>2010-10-10T09:54:32Z</time>
      </trkpt>
      <trkpt lat="46.9602" lon="4.74278">
        <ele>318.33</ele>
        <time>2010-10-10T09:54:33Z</time>
      </trkpt>
      <trkpt lat="46.96022" lon="4.74287">
        <ele>317.37</ele>
        <time>2010-10-10T09:54:34Z</time>
      </trkpt>
      <trkpt lat="46.96023" lon="4.74298">
        <ele>317.37</ele>
        <time>2010-10-10T09:54:35Z</time>
      </trkpt>
      <trkpt lat="46.96023" lon="4.74308">
        <ele>315.93</ele>
        <time>2010-10-10T09:54:36Z</time>
      </trkpt>
      <trkpt lat="46.96022" lon="4.74318">
        <ele>315.45</ele>
        <time>2010-10-10T09:54:37Z</time>
      </trkpt>
      <trkpt lat="46.9602" lon="4.74329">
        <ele>314.97</ele>
        <time>2010-10-10T09:54:38Z</time>
      </trkpt>
      <trkpt lat="46.96013" lon="4.74363">
        <ele>312.57</ele>
        <time>2010-10-10T09:54:41Z</time>
      </trkpt>
      <trkpt lat="46.96011" lon="4.74375">
        <ele>312.09</ele>
        <time>2010-10-10T09:54:42Z</time>
      </trkpt>
      <trkpt lat="46.9601" lon="4.74388">
        <ele>311.6</ele>
        <time>2010-10-10T09:54:43Z</time>
      </trkpt>
      <trkpt lat="46.96009" lon="4.74401">
        <ele>311.12</ele>
        <time>2010-10-10T09:54:44Z</time>
      </trkpt>
      <trkpt lat="46.96008" lon="4.74414">
        <ele>310.16</ele>
        <time>2010-10-10T09:54:45Z</time>
      </trkpt>
      <trkpt lat="46.96007" lon="4.74454">
        <ele>306.8</ele>
        <time>2010-10-10T09:54:48Z</time>
      </trkpt>
      <trkpt lat="46.96008" lon="4.74467">
        <ele>305.84</ele>
        <time>2010-10-10T09:54:49Z</time>
      </trkpt>
      <trkpt lat="46.96013" lon="4.7452">
        <ele>302.47</ele>
        <time>2010-10-10T09:54:53Z</time>
      </trkpt>
      <trkpt lat="46.96016" lon="4.74569">
        <ele>299.11</ele>
        <time>2010-10-10T09:54:57Z</time>
      </trkpt>
      <trkpt lat="46.96016" lon="4.74579">
        <ele>297.67</ele>
        <time>2010-10-10T09:54:58Z</time>
      </trkpt>
      <trkpt lat="46.96015" lon="4.74589">
        <ele>296.7</ele>
        <time>2010-10-10T09:54:59Z</time>
      </trkpt>
      <trkpt lat="46.96012" lon="4.74598">
        <ele>295.74</ele>
        <time>2010-10-10T09:55:00Z</time>
      </trkpt>
      <trkpt lat="46.96007" lon="4.74608">
        <ele>294.78</ele>
        <time>2010-10-10T09:55:01Z</time>
      </trkpt>
      <trkpt lat="46.96001" lon="4.74616">
        <ele>293.82</ele>
        <time>2010-10-10T09:55:02Z</time>
      </trkpt>
      <trkpt lat="46.95994" lon="4.74624">
        <ele>292.86</ele>
        <time>2010-10-10T09:55:03Z</time>
      </trkpt>
      <trkpt lat="46.95987" lon="4.74632">
        <ele>292.38</ele>
        <time>2010-10-10T09:55:04Z</time>
      </trkpt>
      <trkpt lat="46.95959" lon="4.74663">
        <ele>288.53</ele>
        <time>2010-10-10T09:55:08Z</time>
      </trkpt>
      <trkpt lat="46.95938" lon="4.74688">
        <ele>285.65</ele>
        <time>2010-10-10T09:55:11Z</time>
      </trkpt>
      <trkpt lat="46.95931" lon="4.74695">
        <ele>284.21</ele>
        <time>2010-10-10T09:55:12Z</time>
      </trkpt>
      <trkpt lat="46.95922" lon="4.747">
        <ele>284.21</ele>
        <time>2010-10-10T09:55:13Z</time>
      </trkpt>
      <trkpt lat="46.95888" lon="4.74722">
        <ele>281.32</ele>
        <time>2010-10-10T09:55:17Z</time>
      </trkpt>
      <trkpt lat="46.9588" lon="4.74729">
        <ele>280.84</ele>
        <time>2010-10-10T09:55:18Z</time>
      </trkpt>
      <trkpt lat="46.95855" lon="4.74752">
        <ele>277.96</ele>
        <time>2010-10-10T09:55:21Z</time>
      </trkpt>
      <trkpt lat="46.95849" lon="4.74758">
        <ele>276.04</ele>
        <time>2010-10-10T09:55:22Z</time>
      </trkpt>
      <trkpt lat="46.95843" lon="4.74765">
        <ele>275.56</ele>
        <time>2010-10-10T09:55:23Z</time>
      </trkpt>
      <trkpt lat="46.95839" lon="4.74774">
        <ele>275.07</ele>
        <time>2010-10-10T09:55:24Z</time>
      </trkpt>
      <trkpt lat="46.95835" lon="4.74783">
        <ele>274.11</ele>
        <time>2010-10-10T09:55:25Z</time>
      </trkpt>
      <trkpt lat="46.95832" lon="4.74794">
        <ele>273.15</ele>
        <time>2010-10-10T09:55:26Z</time>
      </trkpt>
      <trkpt lat="46.95828" lon="4.74805">
        <ele>272.19</ele>
        <time>2010-10-10T09:55:27Z</time>
      </trkpt>
      <trkpt lat="46.95826" lon="4.74816">
        <ele>272.19</ele>
        <time>2010-10-10T09:55:28Z</time>
      </trkpt>
      <trkpt lat="46.95816" lon="4.74854">
        <ele>268.83</ele>
        <time>2010-10-10T09:55:31Z</time>
      </trkpt>
      <trkpt lat="46.95798" lon="4.74917">
        <ele>265.46</ele>
        <time>2010-10-10T09:55:36Z</time>
      </trkpt>
      <trkpt lat="46.95785" lon="4.74982">
        <ele>262.1</ele>
        <time>2010-10-10T09:55:41Z</time>
      </trkpt>
      <trkpt lat="46.9578" lon="4.75005">
        <ele>261.14</ele>
        <time>2010-10-10T09:55:43Z</time>
      </trkpt>
      <trkpt lat="46.95762" lon="4.75079">
        <ele>257.77</ele>
        <time>2010-10-10T09:55:52Z</time>
      </trkpt>
      <trkpt lat="46.95759" lon="4.75088">
        <ele>257.77</ele>
        <time>2010-10-10T09:55:53Z</time>
      </trkpt>
      <trkpt lat="46.95748" lon="4.75139">
        <ele>256.33</ele>
        <time>2010-10-10T09:55:58Z</time>
      </trkpt>
      <trkpt lat="46.95734" lon="4.75206">
        <ele>252.48</ele>
        <time>2010-10-10T09:56:04Z</time>
      </trkpt>
      <trkpt lat="46.95726" lon="4.75248">
        <ele>251.04</ele>
        <time>2010-10-10T09:56:08Z</time>
      </trkpt>
      <trkpt lat="46.9572" lon="4.7526">
        <ele>249.12</ele>
        <time>2010-10-10T09:56:11Z</time>
      </trkpt>
      <trkpt lat="46.95717" lon="4.75259">
        <ele>249.12</ele>
        <time>2010-10-10T09:56:12Z</time>
      </trkpt>
      <trkpt lat="46.95714" lon="4.75257">
        <ele>249.12</ele>
        <time>2010-10-10T09:56:13Z</time>
      </trkpt>
      <trkpt lat="46.95711" lon="4.75255">
        <ele>249.12</ele>
        <time>2010-10-10T09:56:14Z</time>
      </trkpt>
      <trkpt lat="46.95709" lon="4.75252">
        <ele>249.12</ele>
        <time>2010-10-10T09:56:15Z</time>
      </trkpt>
      <trkpt lat="46.95705" lon="4.7525">
        <ele>248.64</ele>
        <time>2010-10-10T09:56:16Z</time>
      </trkpt>
      <trkpt lat="46.95702" lon="4.75246">
        <ele>248.64</ele>
        <time>2010-10-10T09:56:17Z</time>
      </trkpt>
      <trkpt lat="46.95699" lon="4.75242">
        <ele>248.64</ele>
        <time>2010-10-10T09:56:18Z</time>
      </trkpt>
      <trkpt lat="46.95674" lon="4.75203">
        <ele>249.6</ele>
        <time>2010-10-10T09:56:25Z</time>
      </trkpt>
      <trkpt lat="46.9564" lon="4.75163">
        <ele>250.08</ele>
        <time>2010-10-10T09:56:33Z</time>
      </trkpt>
      <trkpt lat="46.95634" lon="4.75159">
        <ele>250.56</ele>
        <time>2010-10-10T09:56:34Z</time>
      </trkpt>
      <trkpt lat="46.95625" lon="4.75149">
        <ele>250.56</ele>
        <time>2010-10-10T09:56:36Z</time>
      </trkpt>
      <trkpt lat="46.95612" lon="4.75134">
        <ele>250.56</ele>
        <time>2010-10-10T09:56:39Z</time>
      </trkpt>
      <trkpt lat="46.95606" lon="4.75129">
        <ele>250.56</ele>
        <time>2010-10-10T09:56:40Z</time>
      </trkpt>
      <trkpt lat="46.95601" lon="4.75124">
        <ele>250.56</ele>
        <time>2010-10-10T09:56:41Z</time>
      </trkpt>
      <trkpt lat="46.95597" lon="4.75119">
        <ele>250.56</ele>
        <time>2010-10-10T09:56:42Z</time>
      </trkpt>
      <trkpt lat="46.95592" lon="4.75114">
        <ele>250.56</ele>
        <time>2010-10-10T09:56:43Z</time>
      </trkpt>
      <trkpt lat="46.95588" lon="4.75109">
        <ele>250.56</ele>
        <time>2010-10-10T09:56:44Z</time>
      </trkpt>
      <trkpt lat="46.95574" lon="4.75092">
        <ele>250.08</ele>
        <time>2010-10-10T09:56:47Z</time>
      </trkpt>
      <trkpt lat="46.9557" lon="4.75085">
        <ele>250.56</ele>
        <time>2010-10-10T09:56:48Z</time>
      </trkpt>
      <trkpt lat="46.95538" lon="4.7503">
        <ele>250.08</ele>
        <time>2010-10-10T09:56:56Z</time>
      </trkpt>
      <trkpt lat="46.95491" lon="4.74958">
        <ele>248.64</ele>
        <time>2010-10-10T09:57:07Z</time>
      </trkpt>
      <trkpt lat="46.95487" lon="4.74954">
        <ele>248.64</ele>
        <time>2010-10-10T09:57:08Z</time>
      </trkpt>
      <trkpt lat="46.95482" lon="4.74952">
        <ele>248.64</ele>
        <time>2010-10-10T09:57:09Z</time>
      </trkpt>
      <trkpt lat="46.95474" lon="4.74949">
        <ele>247.2</ele>
        <time>2010-10-10T09:57:11Z</time>
      </trkpt>
      <trkpt lat="46.9547" lon="4.74944">
        <ele>246.72</ele>
        <time>2010-10-10T09:57:12Z</time>
      </trkpt>
      <trkpt lat="46.95467" lon="4.74937">
        <ele>245.75</ele>
        <time>2010-10-10T09:57:13Z</time>
      </trkpt>
      <trkpt lat="46.95464" lon="4.74929">
        <ele>245.75</ele>
        <time>2010-10-10T09:57:14Z</time>
      </trkpt>
      <trkpt lat="46.9546" lon="4.74921">
        <ele>245.75</ele>
        <time>2010-10-10T09:57:15Z</time>
      </trkpt>
      <trkpt lat="46.95457" lon="4.74913">
        <ele>245.75</ele>
        <time>2010-10-10T09:57:16Z</time>
      </trkpt>
      <trkpt lat="46.95436" lon="4.74869">
        <ele>246.23</ele>
        <time>2010-10-10T09:57:22Z</time>
      </trkpt>
      <trkpt lat="46.95405" lon="4.74784">
        <ele>246.72</ele>
        <time>2010-10-10T09:57:33Z</time>
      </trkpt>
      <trkpt lat="46.95402" lon="4.74779">
        <ele>246.72</ele>
        <time>2010-10-10T09:57:34Z</time>
      </trkpt>
      <trkpt lat="46.95398" lon="4.74778">
        <ele>246.72</ele>
        <time>2010-10-10T09:57:35Z</time>
      </trkpt>
      <trkpt lat="46.95394" lon="4.74778">
        <ele>246.23</ele>
        <time>2010-10-10T09:57:36Z</time>
      </trkpt>
      <trkpt lat="46.95389" lon="4.74781">
        <ele>245.75</ele>
        <time>2010-10-10T09:57:37Z</time>
      </trkpt>
      <trkpt lat="46.95384" lon="4.74787">
        <ele>246.23</ele>
        <time>2010-10-10T09:57:38Z</time>
      </trkpt>
      <trkpt lat="46.95379" lon="4.74793">
        <ele>245.27</ele>
        <time>2010-10-10T09:57:39Z</time>
      </trkpt>
      <trkpt lat="46.95352" lon="4.74828">
        <ele>241.91</ele>
        <time>2010-10-10T09:57:44Z</time>
      </trkpt>
      <trkpt lat="46.95346" lon="4.74836">
        <ele>241.91</ele>
        <time>2010-10-10T09:57:45Z</time>
      </trkpt>
      <trkpt lat="46.95302" lon="4.7489">
        <ele>238.54</ele>
        <time>2010-10-10T09:57:52Z</time>
      </trkpt>
      <trkpt lat="46.95292" lon="4.74901">
        <ele>237.58</ele>
        <time>2010-10-10T09:57:55Z</time>
      </trkpt>
      <trkpt lat="46.9529" lon="4.749">
        <ele>237.58</ele>
        <time>2010-10-10T09:57:56Z</time>
      </trkpt>
      <trkpt lat="46.95288" lon="4.74897">
        <ele>237.58</ele>
        <time>2010-10-10T09:57:57Z</time>
      </trkpt>
      <trkpt lat="46.95282" lon="4.74883">
        <ele>237.1</ele>
        <time>2010-10-10T09:58:00Z</time>
      </trkpt>
      <trkpt lat="46.95249" lon="4.74802">
        <ele>238.06</ele>
        <time>2010-10-10T09:58:12Z</time>
      </trkpt>
      <trkpt lat="46.95218" lon="4.7474">
        <ele>239.02</ele>
        <time>2010-10-10T09:58:21Z</time>
      </trkpt>
      <trkpt lat="46.95214" lon="4.74734">
        <ele>238.54</ele>
        <time>2010-10-10T09:58:22Z</time>
      </trkpt>
      <trkpt lat="46.95211" lon="4.74727">
        <ele>238.54</ele>
        <time>2010-10-10T09:58:23Z</time>
      </trkpt>
      <trkpt lat="46.95199" lon="4.74716">
        <ele>239.02</ele>
        <time>2010-10-10T09:58:27Z</time>
      </trkpt>
      <trkpt lat="46.95196" lon="4.74719">
        <ele>238.54</ele>
        <time>2010-10-10T09:58:28Z</time>
      </trkpt>
      <trkpt lat="46.95195" lon="4.74725">
        <ele>238.54</ele>
        <time>2010-10-10T09:58:29Z</time>
      </trkpt>
      <trkpt lat="46.9517" lon="4.74801">
        <ele>237.1</ele>
        <time>2010-10-10T09:58:38Z</time>
      </trkpt>
      <trkpt lat="46.95109" lon="4.7495">
        <ele>234.7</ele>
        <time>2010-10-10T09:58:53Z</time>
      </trkpt>
      <trkpt lat="46.95061" lon="4.75066">
        <ele>232.78</ele>
        <time>2010-10-10T09:59:05Z</time>
      </trkpt>
      <trkpt lat="46.95039" lon="4.75133">
        <ele>230.85</ele>
        <time>2010-10-10T09:59:12Z</time>
      </trkpt>
      <trkpt lat="46.95035" lon="4.75139">
        <ele>230.85</ele>
        <time>2010-10-10T09:59:13Z</time>
      </trkpt>
      <trkpt lat="46.95031" lon="4.75142">
        <ele>230.37</ele>
        <time>2010-10-10T09:59:14Z</time>
      </trkpt>
      <trkpt lat="46.95026" lon="4.75143">
        <ele>230.37</ele>
        <time>2010-10-10T09:59:15Z</time>
      </trkpt>
      <trkpt lat="46.95021" lon="4.75142">
        <ele>230.37</ele>
        <time>2010-10-10T09:59:16Z</time>
      </trkpt>
      <trkpt lat="46.95016" lon="4.7514">
        <ele>230.37</ele>
        <time>2010-10-10T09:59:17Z</time>
      </trkpt>
      <trkpt lat="46.9501" lon="4.75138">
        <ele>230.37</ele>
        <time>2010-10-10T09:59:18Z</time>
      </trkpt>
      <trkpt lat="46.94973" lon="4.75127">
        <ele>229.89</ele>
        <time>2010-10-10T09:59:24Z</time>
      </trkpt>
      <trkpt lat="46.94967" lon="4.75128">
        <ele>229.89</ele>
        <time>2010-10-10T09:59:25Z</time>
      </trkpt>
      <trkpt lat="46.9496" lon="4.75131">
        <ele>229.89</ele>
        <time>2010-10-10T09:59:26Z</time>
      </trkpt>
      <trkpt lat="46.94954" lon="4.75134">
        <ele>229.89</ele>
        <time>2010-10-10T09:59:27Z</time>
      </trkpt>
      <trkpt lat="46.94949" lon="4.75139">
        <ele>229.41</ele>
        <time>2010-10-10T09:59:28Z</time>
      </trkpt>
      <trkpt lat="46.94944" lon="4.75145">
        <ele>229.89</ele>
        <time>2010-10-10T09:59:29Z</time>
      </trkpt>
      <trkpt lat="46.94939" lon="4.75152">
        <ele>229.41</ele>
        <time>2010-10-10T09:59:30Z</time>
      </trkpt>
      <trkpt lat="46.94935" lon="4.7516">
        <ele>229.89</ele>
        <time>2010-10-10T09:59:31Z</time>
      </trkpt>
      <trkpt lat="46.94931" lon="4.75168">
        <ele>229.89</ele>
        <time>2010-10-10T09:59:32Z</time>
      </trkpt>
      <trkpt lat="46.94871" lon="4.75277">
        <ele>230.85</ele>
        <time>2010-10-10T09:59:47Z</time>
      </trkpt>
      <trkpt lat="46.94868" lon="4.75284">
        <ele>230.85</ele>
        <time>2010-10-10T09:59:48Z</time>
      </trkpt>
      <trkpt lat="46.94846" lon="4.7534">
        <ele>230.85</ele>
        <time>2010-10-10T09:59:55Z</time>
      </trkpt>
      <trkpt lat="46.94839" lon="4.75353">
        <ele>230.85</ele>
        <time>2010-10-10T09:59:57Z</time>
      </trkpt>
      <trkpt lat="46.94834" lon="4.75356">
        <ele>230.85</ele>
        <time>2010-10-10T09:59:58Z</time>
      </trkpt>
      <trkpt lat="46.94829" lon="4.75356">
        <ele>230.85</ele>
        <time>2010-10-10T09:59:59Z</time>
      </trkpt>
      <trkpt lat="46.94818" lon="4.75351">
        <ele>231.33</ele>
        <time>2010-10-10T10:00:01Z</time>
      </trkpt>
      <trkpt lat="46.94792" lon="4.75333">
        <ele>231.33</ele>
        <time>2010-10-10T10:00:06Z</time>
      </trkpt>
      <trkpt lat="46.94743" lon="4.75305">
        <ele>232.78</ele>
        <time>2010-10-10T10:00:16Z</time>
      </trkpt>
      <trkpt lat="46.94718" lon="4.75299">
        <ele>233.26</ele>
        <time>2010-10-10T10:00:21Z</time>
      </trkpt>
      <trkpt lat="46.94714" lon="4.75297">
        <ele>233.74</ele>
        <time>2010-10-10T10:00:22Z</time>
      </trkpt>
      <trkpt lat="46.94666" lon="4.75275">
        <ele>232.78</ele>
        <time>2010-10-10T10:00:32Z</time>
      </trkpt>
      <trkpt lat="46.94657" lon="4.75271">
        <ele>232.3</ele>
        <time>2010-10-10T10:00:34Z</time>
      </trkpt>
      <trkpt lat="46.94652" lon="4.75268">
        <ele>232.3</ele>
        <time>2010-10-10T10:00:35Z</time>
      </trkpt>
      <trkpt lat="46.94646" lon="4.75266">
        <ele>231.81</ele>
        <time>2010-10-10T10:00:36Z</time>
      </trkpt>
      <trkpt lat="46.94618" lon="4.75261">
        <ele>230.85</ele>
        <time>2010-10-10T10:00:43Z</time>
      </trkpt>
      <trkpt lat="46.94607" lon="4.75258">
        <ele>231.33</ele>
        <time>2010-10-10T10:00:45Z</time>
      </trkpt>
      <trkpt lat="46.94602" lon="4.75256">
        <ele>230.85</ele>
        <time>2010-10-10T10:00:46Z</time>
      </trkpt>
      <trkpt lat="46.94596" lon="4.75254">
        <ele>230.85</ele>
        <time>2010-10-10T10:00:47Z</time>
      </trkpt>
      <trkpt lat="46.94575" lon="4.75249">
        <ele>230.37</ele>
        <time>2010-10-10T10:00:50Z</time>
      </trkpt>
      <trkpt lat="46.94565" lon="4.75247">
        <ele>230.37</ele>
        <time>2010-10-10T10:00:52Z</time>
      </trkpt>
      <trkpt lat="46.94561" lon="4.75243">
        <ele>229.41</ele>
        <time>2010-10-10T10:00:53Z</time>
      </trkpt>
      <trkpt lat="46.94556" lon="4.75239">
        <ele>229.41</ele>
        <time>2010-10-10T10:00:54Z</time>
      </trkpt>
      <trkpt lat="46.94553" lon="4.75234">
        <ele>229.41</ele>
        <time>2010-10-10T10:00:55Z</time>
      </trkpt>
      <trkpt lat="46.9455" lon="4.75227">
        <ele>229.89</ele>
        <time>2010-10-10T10:00:56Z</time>
      </trkpt>
      <trkpt lat="46.94549" lon="4.75221">
        <ele>229.89</ele>
        <time>2010-10-10T10:00:57Z</time>
      </trkpt>
      <trkpt lat="46.9455" lon="4.75214">
        <ele>229.89</ele>
        <time>2010-10-10T10:00:58Z</time>
      </trkpt>
      <trkpt lat="46.94551" lon="4.75209">
        <ele>229.89</ele>
        <time>2010-10-10T10:00:59Z</time>
      </trkpt>
      <trkpt lat="46.94554" lon="4.75204">
        <ele>229.89</ele>
        <time>2010-10-10T10:01:00Z</time>
      </trkpt>
      <trkpt lat="46.94555" lon="4.75198">
        <ele>229.89</ele>
        <time>2010-10-10T10:01:01Z</time>
      </trkpt>
      <trkpt lat="46.94556" lon="4.75193">
        <ele>230.85</ele>
        <time>2010-10-10T10:01:02Z</time>
      </trkpt>
      <trkpt lat="46.94557" lon="4.75188">
        <ele>230.37</ele>
        <time>2010-10-10T10:01:03Z</time>
      </trkpt>
      <trkpt lat="46.94558" lon="4.75184">
        <ele>230.37</ele>
        <time>2010-10-10T10:01:04Z</time>
      </trkpt>
      <trkpt lat="46.94558" lon="4.75182">
        <ele>230.85</ele>
        <time>2010-10-10T10:01:06Z</time>
      </trkpt>
      <trkpt lat="46.94558" lon="4.75184">
        <ele>230.85</ele>
        <time>2010-10-10T10:01:07Z</time>
      </trkpt>
      <trkpt lat="46.94558" lon="4.75188">
        <ele>230.85</ele>
        <time>2010-10-10T10:01:08Z</time>
      </trkpt>
      <trkpt lat="46.94559" lon="4.75191">
        <ele>230.37</ele>
        <time>2010-10-10T10:01:09Z</time>
      </trkpt>
      <trkpt lat="46.94559" lon="4.75195">
        <ele>230.37</ele>
        <time>2010-10-10T10:01:10Z</time>
      </trkpt>
      <trkpt lat="46.94558" lon="4.752">
        <ele>230.85</ele>
        <time>2010-10-10T10:01:11Z</time>
      </trkpt>
      <trkpt lat="46.94556" lon="4.75204">
        <ele>230.37</ele>
        <time>2010-10-10T10:01:12Z</time>
      </trkpt>
      <trkpt lat="46.94554" lon="4.75209">
        <ele>230.37</ele>
        <time>2010-10-10T10:01:13Z</time>
      </trkpt>
      <trkpt lat="46.94552" lon="4.75215">
        <ele>230.37</ele>
        <time>2010-10-10T10:01:14Z</time>
      </trkpt>
      <trkpt lat="46.94541" lon="4.75245">
        <ele>229.89</ele>
        <time>2010-10-10T10:01:19Z</time>
      </trkpt>
      <trkpt lat="46.9454" lon="4.75251">
        <ele>229.41</ele>
        <time>2010-10-10T10:01:20Z</time>
      </trkpt>
      <trkpt lat="46.94541" lon="4.75256">
        <ele>229.89</ele>
        <time>2010-10-10T10:01:21Z</time>
      </trkpt>
      <trkpt lat="46.94543" lon="4.75261">
        <ele>229.89</ele>
        <time>2010-10-10T10:01:22Z</time>
      </trkpt>
      <trkpt lat="46.94544" lon="4.75267">
        <ele>229.89</ele>
        <time>2010-10-10T10:01:23Z</time>
      </trkpt>
      <trkpt lat="46.94542" lon="4.75272">
        <ele>229.89</ele>
        <time>2010-10-10T10:01:24Z</time>
      </trkpt>
      <trkpt lat="46.9454" lon="4.75277">
        <ele>229.41</ele>
        <time>2010-10-10T10:01:25Z</time>
      </trkpt>
      <trkpt lat="46.9453" lon="4.75299">
        <ele>229.89</ele>
        <time>2010-10-10T10:01:29Z</time>
      </trkpt>
      <trkpt lat="46.94527" lon="4.75306">
        <ele>229.41</ele>
        <time>2010-10-10T10:01:30Z</time>
      </trkpt>
      <trkpt lat="46.94524" lon="4.75312">
        <ele>229.41</ele>
        <time>2010-10-10T10:01:31Z</time>
      </trkpt>
      <trkpt lat="46.94523" lon="4.75319">
        <ele>229.41</ele>
        <time>2010-10-10T10:01:32Z</time>
      </trkpt>
      <trkpt lat="46.94522" lon="4.75327">
        <ele>229.41</ele>
        <time>2010-10-10T10:01:33Z</time>
      </trkpt>
      <trkpt lat="46.94522" lon="4.75334">
        <ele>229.41</ele>
        <time>2010-10-10T10:01:34Z</time>
      </trkpt>
      <trkpt lat="46.94522" lon="4.75342">
        <ele>229.41</ele>
        <time>2010-10-10T10:01:35Z</time>
      </trkpt>
      <trkpt lat="46.94522" lon="4.75349">
        <ele>229.41</ele>
        <time>2010-10-10T10:01:36Z</time>
      </trkpt>
      <trkpt lat="46.94523" lon="4.75357">
        <ele>229.41</ele>
        <time>2010-10-10T10:01:37Z</time>
      </trkpt>
      <trkpt lat="46.94524" lon="4.75365">
        <ele>229.41</ele>
        <time>2010-10-10T10:01:38Z</time>
      </trkpt>
      <trkpt lat="46.94525" lon="4.75372">
        <ele>228.45</ele>
        <time>2010-10-10T10:01:39Z</time>
      </trkpt>
      <trkpt lat="46.94525" lon="4.75379">
        <ele>228.93</ele>
        <time>2010-10-10T10:01:40Z</time>
      </trkpt>
      <trkpt lat="46.94533" lon="4.75415">
        <ele>228.93</ele>
        <time>2010-10-10T10:01:46Z</time>
      </trkpt>
      <trkpt lat="46.94536" lon="4.75419">
        <ele>228.45</ele>
        <time>2010-10-10T10:01:47Z</time>
      </trkpt>
      <trkpt lat="46.94536" lon="4.75424">
        <ele>228.45</ele>
        <time>2010-10-10T10:01:48Z</time>
      </trkpt>
      <trkpt lat="46.94535" lon="4.7543">
        <ele>228.45</ele>
        <time>2010-10-10T10:01:49Z</time>
      </trkpt>
      <trkpt lat="46.94534" lon="4.75437">
        <ele>228.45</ele>
        <time>2010-10-10T10:01:50Z</time>
      </trkpt>
      <trkpt lat="46.94532" lon="4.75443">
        <ele>228.45</ele>
        <time>2010-10-10T10:01:51Z</time>
      </trkpt>
      <trkpt lat="46.94522" lon="4.75497">
        <ele>228.45</ele>
        <time>2010-10-10T10:01:59Z</time>
      </trkpt>
      <trkpt lat="46.94521" lon="4.75504">
        <ele>228.45</ele>
        <time>2010-10-10T10:02:00Z</time>
      </trkpt>
      <trkpt lat="46.94522" lon="4.7555">
        <ele>227.97</ele>
        <time>2010-10-10T10:02:08Z</time>
      </trkpt>
      <trkpt lat="46.94521" lon="4.75556">
        <ele>227.49</ele>
        <time>2010-10-10T10:02:09Z</time>
      </trkpt>
      <trkpt lat="46.94521" lon="4.75563">
        <ele>227.49</ele>
        <time>2010-10-10T10:02:10Z</time>
      </trkpt>
      <trkpt lat="46.9452" lon="4.75583">
        <ele>227.01</ele>
        <time>2010-10-10T10:02:13Z</time>
      </trkpt>
      <trkpt lat="46.94513" lon="4.75625">
        <ele>227.01</ele>
        <time>2010-10-10T10:02:19Z</time>
      </trkpt>
      <trkpt lat="46.9451" lon="4.75639">
        <ele>227.49</ele>
        <time>2010-10-10T10:02:21Z</time>
      </trkpt>
      <trkpt lat="46.94497" lon="4.75694">
        <ele>226.53</ele>
        <time>2010-10-10T10:02:32Z</time>
      </trkpt>
      <trkpt lat="46.94496" lon="4.75696">
        <ele>226.53</ele>
        <time>2010-10-10T10:02:43Z</time>
      </trkpt>
      <trkpt lat="46.94495" lon="4.75696">
        <ele>226.53</ele>
        <time>2010-10-10T10:03:44Z</time>
      </trkpt>
      <trkpt lat="46.94495" lon="4.75696">
        <ele>226.53</ele>
        <time>2010-10-10T10:04:22Z</time>
      </trkpt>
      <trkpt lat="46.94494" lon="4.75696">
        <ele>227.01</ele>
        <time>2010-10-10T10:04:34Z</time>
      </trkpt>
      <trkpt lat="46.94493" lon="4.75696">
        <ele>227.01</ele>
        <time>2010-10-10T10:04:35Z</time>
      </trkpt>
      <trkpt lat="46.94492" lon="4.757">
        <ele>226.53</ele>
        <time>2010-10-10T10:04:51Z</time>
      </trkpt>
      <trkpt lat="46.94493" lon="4.75701">
        <ele>227.49</ele>
        <time>2010-10-10T10:05:05Z</time>
      </trkpt>
      <trkpt lat="46.94493" lon="4.75702">
        <ele>227.01</ele>
        <time>2010-10-10T10:05:26Z</time>
      </trkpt>
    </trkseg>
  </trk>
</gpx>